<?xml version='1.0' encoding='UTF-8'?><gpx version="1.1" creator="JPX - https://github.com/jenetics/jpx" xmlns="http://www.topografix.com/GPX/1/1"><trk><trkseg><trkpt lat="41.4237375" lon="12.7874292"><ele>0.9999999999999999</ele><time>2026-04-25T14:33:36.104Z</time></trkpt><trkpt lat="41.4236956" lon="12.7874999"><ele>1.0</ele><time>2026-04-25T14:33:46.114Z</time></trkpt><trkpt lat="41.423696" lon="12.7874118"><ele>1.0</ele><time>2026-04-25T14:36:55.104Z</time></trkpt><trkpt lat="41.42371" lon="12.7873221"><ele>1.0</ele><time>2026-04-25T14:36:58.104Z</time></trkpt><trkpt lat="41.4236327" lon="12.7872498"><ele>0.9999999999999999</ele><time>2026-04-25T14:37:04.104Z</time></trkpt><trkpt lat="41.423621" lon="12.7871276"><ele>1.0</ele><time>2026-04-25T14:37:06.104Z</time></trkpt><trkpt lat="41.4236881" lon="12.7869671"><ele>0.9999999999999999</ele><time>2026-04-25T14:37:07.104Z</time></trkpt><trkpt lat="41.423695" lon="12.7868762"><ele>1.0</ele><time>2026-04-25T14:37:08.104Z</time></trkpt><trkpt lat="41.4237261" lon="12.7867432"><ele>1.0</ele><time>2026-04-25T14:37:09.104Z</time></trkpt><trkpt lat="41.4237357" lon="12.7866593"><ele>1.0</ele><time>2026-04-25T14:37:10.104Z</time></trkpt><trkpt lat="41.4237131" lon="12.7865216"><ele>0.9999999999999999</ele><time>2026-04-25T14:37:12.104Z</time></trkpt><trkpt lat="41.4236207" lon="12.7864552"><ele>1.0</ele><time>2026-04-25T14:37:14.104Z</time></trkpt><trkpt lat="41.4235593" lon="12.786429"><ele>1.3333333333333333</ele><time>2026-04-25T14:37:15.104Z</time></trkpt><trkpt lat="41.4234936" lon="12.7864061"><ele>1.6666666666666665</ele><time>2026-04-25T14:37:16.104Z</time></trkpt><trkpt lat="41.4233718" lon="12.7863455"><ele>2.0</ele><time>2026-04-25T14:37:18.103Z</time></trkpt><trkpt lat="41.4233107" lon="12.7863179"><ele>2.3333333333333335</ele><time>2026-04-25T14:37:19.104Z</time></trkpt><trkpt lat="41.423241" lon="12.7862907"><ele>2.6666666666666665</ele><time>2026-04-25T14:37:20.104Z</time></trkpt><trkpt lat="41.4231632" lon="12.786265"><ele>3.0</ele><time>2026-04-25T14:37:21.104Z</time></trkpt><trkpt lat="41.4230924" lon="12.7862374"><ele>2.75</ele><time>2026-04-25T14:37:22.104Z</time></trkpt><trkpt lat="41.4229458" lon="12.7861867"><ele>2.5</ele><time>2026-04-25T14:37:24.104Z</time></trkpt><trkpt lat="41.4228105" lon="12.7861158"><ele>2.25</ele><time>2026-04-25T14:37:26.103Z</time></trkpt><trkpt lat="41.4226834" lon="12.7860612"><ele>2.0</ele><time>2026-04-25T14:37:28.104Z</time></trkpt><trkpt lat="41.4226135" lon="12.7860457"><ele>1.9999999999999998</ele><time>2026-04-25T14:37:29.103Z</time></trkpt><trkpt lat="41.422473" lon="12.7860196"><ele>2.0</ele><time>2026-04-25T14:37:31.104Z</time></trkpt><trkpt lat="41.4224072" lon="12.7860031"><ele>2.0</ele><time>2026-04-25T14:37:32.104Z</time></trkpt><trkpt lat="41.4223357" lon="12.7859832"><ele>2.0</ele><time>2026-04-25T14:37:33.104Z</time></trkpt><trkpt lat="41.4222643" lon="12.7859681"><ele>1.9999999999999998</ele><time>2026-04-25T14:37:34.103Z</time></trkpt><trkpt lat="41.4221928" lon="12.7859605"><ele>2.0</ele><time>2026-04-25T14:37:35.104Z</time></trkpt><trkpt lat="41.4220548" lon="12.7859049"><ele>2.0</ele><time>2026-04-25T14:37:37.103Z</time></trkpt><trkpt lat="41.4219902" lon="12.7858765"><ele>2.0</ele><time>2026-04-25T14:37:38.104Z</time></trkpt><trkpt lat="41.4219245" lon="12.7858543"><ele>2.0</ele><time>2026-04-25T14:37:39.104Z</time></trkpt><trkpt lat="41.4217805" lon="12.7858173"><ele>2.0</ele><time>2026-04-25T14:37:41.104Z</time></trkpt><trkpt lat="41.4216583" lon="12.7857806"><ele>2.0</ele><time>2026-04-25T14:37:43.104Z</time></trkpt><trkpt lat="41.4215923" lon="12.7857554"><ele>2.0</ele><time>2026-04-25T14:37:44.104Z</time></trkpt><trkpt lat="41.4214823" lon="12.7857138"><ele>2.0</ele><time>2026-04-25T14:37:46.104Z</time></trkpt><trkpt lat="41.4214087" lon="12.785689"><ele>2.0</ele><time>2026-04-25T14:37:48.104Z</time></trkpt><trkpt lat="41.4213098" lon="12.7858471"><ele>2.0</ele><time>2026-04-25T14:37:51.103Z</time></trkpt><trkpt lat="41.4212951" lon="12.7859977"><ele>2.0</ele><time>2026-04-25T14:37:53.104Z</time></trkpt><trkpt lat="41.4212635" lon="12.7861596"><ele>2.0</ele><time>2026-04-25T14:37:55.104Z</time></trkpt><trkpt lat="41.4212295" lon="12.7862992"><ele>2.0</ele><time>2026-04-25T14:37:57.104Z</time></trkpt><trkpt lat="41.4211731" lon="12.7863638"><ele>2.0</ele><time>2026-04-25T14:37:59.104Z</time></trkpt><trkpt lat="41.4210764" lon="12.7863363"><ele>2.0</ele><time>2026-04-25T14:38:01.104Z</time></trkpt><trkpt lat="41.420949" lon="12.7862932"><ele>1.9999999999999998</ele><time>2026-04-25T14:38:03.104Z</time></trkpt><trkpt lat="41.4208744" lon="12.7862653"><ele>2.0</ele><time>2026-04-25T14:38:04.104Z</time></trkpt><trkpt lat="41.4207974" lon="12.786239"><ele>2.0</ele><time>2026-04-25T14:38:05.103Z</time></trkpt><trkpt lat="41.4207312" lon="12.7862115"><ele>2.0</ele><time>2026-04-25T14:38:06.104Z</time></trkpt><trkpt lat="41.4206601" lon="12.7861882"><ele>1.9999999999999998</ele><time>2026-04-25T14:38:07.103Z</time></trkpt><trkpt lat="41.4205815" lon="12.7861611"><ele>2.0</ele><time>2026-04-25T14:38:08.103Z</time></trkpt><trkpt lat="41.4205131" lon="12.7861443"><ele>1.8333333333333333</ele><time>2026-04-25T14:38:09.104Z</time></trkpt><trkpt lat="41.4204381" lon="12.7861313"><ele>1.6666666666666665</ele><time>2026-04-25T14:38:10.104Z</time></trkpt><trkpt lat="41.4203634" lon="12.7861175"><ele>1.5</ele><time>2026-04-25T14:38:11.103Z</time></trkpt><trkpt lat="41.4202633" lon="12.7860727"><ele>1.3333333333333333</ele><time>2026-04-25T14:38:13.104Z</time></trkpt><trkpt lat="41.4201798" lon="12.7860389"><ele>1.1666666666666665</ele><time>2026-04-25T14:38:15.104Z</time></trkpt><trkpt lat="41.4201253" lon="12.7859919"><ele>1.0</ele><time>2026-04-25T14:38:18.104Z</time></trkpt><trkpt lat="41.4200445" lon="12.7859972"><ele>0.75</ele><time>2026-04-25T14:38:23.104Z</time></trkpt><trkpt lat="41.4199823" lon="12.7860614"><ele>0.5</ele><time>2026-04-25T14:38:27.104Z</time></trkpt><trkpt lat="41.4199619" lon="12.7861517"><ele>0.25</ele><time>2026-04-25T14:38:28.104Z</time></trkpt><trkpt lat="41.419928" lon="12.7864361"><ele>0.0</ele><time>2026-04-25T14:38:30.103Z</time></trkpt><trkpt lat="41.4199067" lon="12.786631"><ele>0.0</ele><time>2026-04-25T14:38:31.103Z</time></trkpt><trkpt lat="41.4198821" lon="12.7868351"><ele>0.0</ele><time>2026-04-25T14:38:32.103Z</time></trkpt><trkpt lat="41.4198624" lon="12.7870555"><ele>0.0</ele><time>2026-04-25T14:38:33.104Z</time></trkpt><trkpt lat="41.4198297" lon="12.7873127"><ele>0.5</ele><time>2026-04-25T14:38:34.104Z</time></trkpt><trkpt lat="41.4197995" lon="12.7879101"><ele>1.0</ele><time>2026-04-25T14:38:36.104Z</time></trkpt><trkpt lat="41.4197528" lon="12.7885969"><ele>1.0</ele><time>2026-04-25T14:38:38.104Z</time></trkpt><trkpt lat="41.4197019" lon="12.7892782"><ele>1.0</ele><time>2026-04-25T14:38:40.104Z</time></trkpt><trkpt lat="41.4196749" lon="12.7895951"><ele>1.0</ele><time>2026-04-25T14:38:41.104Z</time></trkpt><trkpt lat="41.4196296" lon="12.7901966"><ele>1.0</ele><time>2026-04-25T14:38:43.104Z</time></trkpt><trkpt lat="41.4195836" lon="12.7907662"><ele>1.0</ele><time>2026-04-25T14:38:45.104Z</time></trkpt><trkpt lat="41.4195482" lon="12.7910629"><ele>0.0</ele><time>2026-04-25T14:38:46.104Z</time></trkpt><trkpt lat="41.4195037" lon="12.7913941"><ele>-1.0</ele><time>2026-04-25T14:38:47.104Z</time></trkpt><trkpt lat="41.4194581" lon="12.7917291"><ele>0.0</ele><time>2026-04-25T14:38:48.103Z</time></trkpt><trkpt lat="41.4194133" lon="12.7920454"><ele>1.0</ele><time>2026-04-25T14:38:49.104Z</time></trkpt><trkpt lat="41.4193872" lon="12.7923257"><ele>1.0</ele><time>2026-04-25T14:38:50.104Z</time></trkpt><trkpt lat="41.4193444" lon="12.7926263"><ele>1.0</ele><time>2026-04-25T14:38:51.103Z</time></trkpt><trkpt lat="41.4193034" lon="12.7929136"><ele>1.0</ele><time>2026-04-25T14:38:52.104Z</time></trkpt><trkpt lat="41.4192578" lon="12.7931938"><ele>0.5</ele><time>2026-04-25T14:38:53.104Z</time></trkpt><trkpt lat="41.4191598" lon="12.7937701"><ele>0.0</ele><time>2026-04-25T14:38:55.104Z</time></trkpt><trkpt lat="41.4190147" lon="12.7944038"><ele>0.0</ele><time>2026-04-25T14:38:57.103Z</time></trkpt><trkpt lat="41.4188795" lon="12.7950111"><ele>2.0</ele><time>2026-04-25T14:38:59.104Z</time></trkpt><trkpt lat="41.4187402" lon="12.7955901"><ele>1.5</ele><time>2026-04-25T14:39:01.104Z</time></trkpt><trkpt lat="41.4186159" lon="12.7961605"><ele>1.0</ele><time>2026-04-25T14:39:03.104Z</time></trkpt><trkpt lat="41.4185463" lon="12.7964386"><ele>1.0</ele><time>2026-04-25T14:39:04.104Z</time></trkpt><trkpt lat="41.4184802" lon="12.7967187"><ele>1.0</ele><time>2026-04-25T14:39:05.103Z</time></trkpt><trkpt lat="41.4184141" lon="12.7969896"><ele>1.0</ele><time>2026-04-25T14:39:06.104Z</time></trkpt><trkpt lat="41.4182946" lon="12.7975246"><ele>1.0</ele><time>2026-04-25T14:39:08.104Z</time></trkpt><trkpt lat="41.4181561" lon="12.7980866"><ele>1.0</ele><time>2026-04-25T14:39:10.104Z</time></trkpt><trkpt lat="41.4180829" lon="12.7983829"><ele>1.0</ele><time>2026-04-25T14:39:11.103Z</time></trkpt><trkpt lat="41.4179748" lon="12.7989196"><ele>1.0</ele><time>2026-04-25T14:39:13.104Z</time></trkpt><trkpt lat="41.4178691" lon="12.7994156"><ele>1.0</ele><time>2026-04-25T14:39:15.103Z</time></trkpt><trkpt lat="41.4178165" lon="12.7998889"><ele>1.0</ele><time>2026-04-25T14:39:17.104Z</time></trkpt><trkpt lat="41.4177749" lon="12.8003501"><ele>1.5</ele><time>2026-04-25T14:39:19.104Z</time></trkpt><trkpt lat="41.4177304" lon="12.8007787"><ele>2.0</ele><time>2026-04-25T14:39:21.104Z</time></trkpt><trkpt lat="41.4177141" lon="12.8009739"><ele>1.6666666666666665</ele><time>2026-04-25T14:39:22.104Z</time></trkpt><trkpt lat="41.4177023" lon="12.8011771"><ele>1.3333333333333333</ele><time>2026-04-25T14:39:23.103Z</time></trkpt><trkpt lat="41.4176903" lon="12.8013298"><ele>1.0</ele><time>2026-04-25T14:39:24.104Z</time></trkpt><trkpt lat="41.41765" lon="12.8015961"><ele>1.0</ele><time>2026-04-25T14:39:26.103Z</time></trkpt><trkpt lat="41.4176192" lon="12.8017197"><ele>1.0</ele><time>2026-04-25T14:39:27.104Z</time></trkpt><trkpt lat="41.4175795" lon="12.8018371"><ele>1.0</ele><time>2026-04-25T14:39:28.104Z</time></trkpt><trkpt lat="41.4174996" lon="12.8019654"><ele>1.0</ele><time>2026-04-25T14:39:29.104Z</time></trkpt><trkpt lat="41.4174102" lon="12.8020843"><ele>1.0</ele><time>2026-04-25T14:39:30.104Z</time></trkpt><trkpt lat="41.4172953" lon="12.8022112"><ele>1.0</ele><time>2026-04-25T14:39:31.104Z</time></trkpt><trkpt lat="41.4171645" lon="12.802357"><ele>1.0</ele><time>2026-04-25T14:39:32.104Z</time></trkpt><trkpt lat="41.4170526" lon="12.8025152"><ele>1.0</ele><time>2026-04-25T14:39:33.104Z</time></trkpt><trkpt lat="41.4169532" lon="12.8027016"><ele>1.0</ele><time>2026-04-25T14:39:34.104Z</time></trkpt><trkpt lat="41.4168723" lon="12.8029158"><ele>1.0</ele><time>2026-04-25T14:39:35.103Z</time></trkpt><trkpt lat="41.4168017" lon="12.8031526"><ele>1.0</ele><time>2026-04-25T14:39:36.103Z</time></trkpt><trkpt lat="41.416727" lon="12.8033711"><ele>0.6666666666666666</ele><time>2026-04-25T14:39:37.104Z</time></trkpt><trkpt lat="41.4166644" lon="12.8035976"><ele>0.3333333333333333</ele><time>2026-04-25T14:39:38.104Z</time></trkpt><trkpt lat="41.4165974" lon="12.8038211"><ele>0.0</ele><time>2026-04-25T14:39:39.104Z</time></trkpt><trkpt lat="41.4165274" lon="12.8040457"><ele>0.0</ele><time>2026-04-25T14:39:40.104Z</time></trkpt><trkpt lat="41.4164601" lon="12.8042879"><ele>0.0</ele><time>2026-04-25T14:39:41.103Z</time></trkpt><trkpt lat="41.4163982" lon="12.8045363"><ele>0.0</ele><time>2026-04-25T14:39:42.103Z</time></trkpt><trkpt lat="41.41634" lon="12.8047775"><ele>0.5</ele><time>2026-04-25T14:39:43.104Z</time></trkpt><trkpt lat="41.4161812" lon="12.8052989"><ele>1.0</ele><time>2026-04-25T14:39:45.103Z</time></trkpt><trkpt lat="41.416081" lon="12.8055989"><ele>2.0</ele><time>2026-04-25T14:39:46.104Z</time></trkpt><trkpt lat="41.4159176" lon="12.8061726"><ele>2.0</ele><time>2026-04-25T14:39:48.104Z</time></trkpt><trkpt lat="41.4158472" lon="12.8064378"><ele>2.0</ele><time>2026-04-25T14:39:49.104Z</time></trkpt><trkpt lat="41.4157847" lon="12.8066975"><ele>2.0</ele><time>2026-04-25T14:39:50.103Z</time></trkpt><trkpt lat="41.415739" lon="12.8069692"><ele>2.6666666666666665</ele><time>2026-04-25T14:39:51.104Z</time></trkpt><trkpt lat="41.4157073" lon="12.8072616"><ele>3.333333333333333</ele><time>2026-04-25T14:39:52.103Z</time></trkpt><trkpt lat="41.4156934" lon="12.8075632"><ele>4.0</ele><time>2026-04-25T14:39:53.104Z</time></trkpt><trkpt lat="41.4156799" lon="12.8078899"><ele>4.0</ele><time>2026-04-25T14:39:54.104Z</time></trkpt><trkpt lat="41.4156565" lon="12.8082393"><ele>4.0</ele><time>2026-04-25T14:39:55.104Z</time></trkpt><trkpt lat="41.4156267" lon="12.8088882"><ele>4.0</ele><time>2026-04-25T14:39:57.104Z</time></trkpt><trkpt lat="41.4156176" lon="12.8091792"><ele>4.0</ele><time>2026-04-25T14:39:58.103Z</time></trkpt><trkpt lat="41.4155997" lon="12.8094682"><ele>4.0</ele><time>2026-04-25T14:39:59.103Z</time></trkpt><trkpt lat="41.4155693" lon="12.810049"><ele>4.333333333333333</ele><time>2026-04-25T14:40:01.104Z</time></trkpt><trkpt lat="41.4155625" lon="12.8103208"><ele>4.666666666666667</ele><time>2026-04-25T14:40:02.104Z</time></trkpt><trkpt lat="41.4155557" lon="12.8105876"><ele>5.0</ele><time>2026-04-25T14:40:03.104Z</time></trkpt><trkpt lat="41.415555" lon="12.8110981"><ele>5.0</ele><time>2026-04-25T14:40:05.104Z</time></trkpt><trkpt lat="41.4155347" lon="12.8113213"><ele>5.0</ele><time>2026-04-25T14:40:06.104Z</time></trkpt><trkpt lat="41.415536" lon="12.8115179"><ele>5.0</ele><time>2026-04-25T14:40:07.103Z</time></trkpt><trkpt lat="41.4155296" lon="12.8118109"><ele>4.25</ele><time>2026-04-25T14:40:09.104Z</time></trkpt><trkpt lat="41.4155612" lon="12.8119435"><ele>3.5</ele><time>2026-04-25T14:40:11.104Z</time></trkpt><trkpt lat="41.4156835" lon="12.81199"><ele>2.75</ele><time>2026-04-25T14:40:13.104Z</time></trkpt><trkpt lat="41.4157692" lon="12.8120008"><ele>2.0</ele><time>2026-04-25T14:40:14.104Z</time></trkpt><trkpt lat="41.4160757" lon="12.8120354"><ele>2.0</ele><time>2026-04-25T14:40:17.104Z</time></trkpt><trkpt lat="41.4161926" lon="12.8120479"><ele>2.0</ele><time>2026-04-25T14:40:18.104Z</time></trkpt><trkpt lat="41.4163151" lon="12.8120666"><ele>2.0</ele><time>2026-04-25T14:40:19.103Z</time></trkpt><trkpt lat="41.4166408" lon="12.8120765"><ele>2.0</ele><time>2026-04-25T14:40:21.104Z</time></trkpt><trkpt lat="41.4168244" lon="12.8120792"><ele>2.0</ele><time>2026-04-25T14:40:22.104Z</time></trkpt><trkpt lat="41.4169883" lon="12.8120828"><ele>2.0</ele><time>2026-04-25T14:40:23.104Z</time></trkpt><trkpt lat="41.4172931" lon="12.8121006"><ele>2.5</ele><time>2026-04-25T14:40:25.103Z</time></trkpt><trkpt lat="41.417429" lon="12.8121016"><ele>3.0</ele><time>2026-04-25T14:40:26.104Z</time></trkpt><trkpt lat="41.4175656" lon="12.8121045"><ele>3.5</ele><time>2026-04-25T14:40:27.104Z</time></trkpt><trkpt lat="41.4176916" lon="12.8121136"><ele>4.0</ele><time>2026-04-25T14:40:28.103Z</time></trkpt><trkpt lat="41.4179419" lon="12.8121217"><ele>4.0</ele><time>2026-04-25T14:40:30.103Z</time></trkpt><trkpt lat="41.4180683" lon="12.8121302"><ele>4.0</ele><time>2026-04-25T14:40:31.103Z</time></trkpt><trkpt lat="41.4181831" lon="12.8121374"><ele>4.0</ele><time>2026-04-25T14:40:32.103Z</time></trkpt><trkpt lat="41.4183788" lon="12.8121482"><ele>4.0</ele><time>2026-04-25T14:40:34.104Z</time></trkpt><trkpt lat="41.4184658" lon="12.8121522"><ele>4.0</ele><time>2026-04-25T14:40:35.104Z</time></trkpt><trkpt lat="41.4185962" lon="12.8121555"><ele>4.0</ele><time>2026-04-25T14:40:37.104Z</time></trkpt><trkpt lat="41.4186905" lon="12.8121539"><ele>4.0</ele><time>2026-04-25T14:40:39.104Z</time></trkpt><trkpt lat="41.4187234" lon="12.8122341"><ele>4.0</ele><time>2026-04-25T14:43:43.104Z</time></trkpt><trkpt lat="41.4187889" lon="12.8123975"><ele>4.0</ele><time>2026-04-25T14:43:45.103Z</time></trkpt><trkpt lat="41.4188478" lon="12.8124515"><ele>4.0</ele><time>2026-04-25T14:43:46.104Z</time></trkpt><trkpt lat="41.4189371" lon="12.8125204"><ele>4.0</ele><time>2026-04-25T14:43:47.104Z</time></trkpt><trkpt lat="41.4190774" lon="12.8125159"><ele>4.0</ele><time>2026-04-25T14:43:48.104Z</time></trkpt><trkpt lat="41.4191833" lon="12.8125405"><ele>4.0</ele><time>2026-04-25T14:43:49.103Z</time></trkpt><trkpt lat="41.4192994" lon="12.8125454"><ele>4.0</ele><time>2026-04-25T14:43:50.104Z</time></trkpt><trkpt lat="41.4194216" lon="12.8125522"><ele>4.0</ele><time>2026-04-25T14:43:51.104Z</time></trkpt><trkpt lat="41.4195653" lon="12.8125472"><ele>4.0</ele><time>2026-04-25T14:43:52.104Z</time></trkpt><trkpt lat="41.4197041" lon="12.8125439"><ele>4.0</ele><time>2026-04-25T14:43:53.104Z</time></trkpt><trkpt lat="41.4198591" lon="12.8125486"><ele>4.333333333333333</ele><time>2026-04-25T14:43:54.103Z</time></trkpt><trkpt lat="41.4200205" lon="12.8125553"><ele>4.666666666666667</ele><time>2026-04-25T14:43:55.103Z</time></trkpt><trkpt lat="41.4202366" lon="12.8125806"><ele>5.0</ele><time>2026-04-25T14:43:56.104Z</time></trkpt><trkpt lat="41.4204125" lon="12.8125867"><ele>5.25</ele><time>2026-04-25T14:43:57.104Z</time></trkpt><trkpt lat="41.4205798" lon="12.8125926"><ele>5.5</ele><time>2026-04-25T14:43:58.104Z</time></trkpt><trkpt lat="41.4207167" lon="12.8126046"><ele>5.75</ele><time>2026-04-25T14:43:59.104Z</time></trkpt><trkpt lat="41.420861" lon="12.8126066"><ele>6.0</ele><time>2026-04-25T14:44:00.103Z</time></trkpt><trkpt lat="41.4209767" lon="12.8126201"><ele>6.0</ele><time>2026-04-25T14:44:01.103Z</time></trkpt><trkpt lat="41.4211053" lon="12.8126295"><ele>6.0</ele><time>2026-04-25T14:44:02.103Z</time></trkpt><trkpt lat="41.4212358" lon="12.8126363"><ele>6.0</ele><time>2026-04-25T14:44:03.104Z</time></trkpt><trkpt lat="41.4213432" lon="12.8126277"><ele>6.0</ele><time>2026-04-25T14:44:04.104Z</time></trkpt><trkpt lat="41.4214381" lon="12.8126119"><ele>5.6</ele><time>2026-04-25T14:44:05.104Z</time></trkpt><trkpt lat="41.4215397" lon="12.8125791"><ele>5.199999999999999</ele><time>2026-04-25T14:44:06.104Z</time></trkpt><trkpt lat="41.4216399" lon="12.8125527"><ele>4.800000000000001</ele><time>2026-04-25T14:44:07.103Z</time></trkpt><trkpt lat="41.4217266" lon="12.8125388"><ele>4.4</ele><time>2026-04-25T14:44:08.104Z</time></trkpt><trkpt lat="41.4218186" lon="12.8125474"><ele>4.0</ele><time>2026-04-25T14:44:09.104Z</time></trkpt><trkpt lat="41.4219437" lon="12.8125843"><ele>4.0</ele><time>2026-04-25T14:44:10.104Z</time></trkpt><trkpt lat="41.4220443" lon="12.8125992"><ele>4.0</ele><time>2026-04-25T14:44:11.104Z</time></trkpt><trkpt lat="41.4221465" lon="12.8125995"><ele>4.0</ele><time>2026-04-25T14:44:12.104Z</time></trkpt><trkpt lat="41.4222617" lon="12.8125474"><ele>4.0</ele><time>2026-04-25T14:44:13.104Z</time></trkpt><trkpt lat="41.42239" lon="12.8125335"><ele>4.0</ele><time>2026-04-25T14:44:14.104Z</time></trkpt><trkpt lat="41.4225009" lon="12.8125282"><ele>4.0</ele><time>2026-04-25T14:44:15.104Z</time></trkpt><trkpt lat="41.422614" lon="12.8125325"><ele>4.0</ele><time>2026-04-25T14:44:16.104Z</time></trkpt><trkpt lat="41.4227331" lon="12.8125476"><ele>4.0</ele><time>2026-04-25T14:44:17.104Z</time></trkpt><trkpt lat="41.4228455" lon="12.812567"><ele>4.0</ele><time>2026-04-25T14:44:18.104Z</time></trkpt><trkpt lat="41.4229463" lon="12.8125618"><ele>4.0</ele><time>2026-04-25T14:44:19.104Z</time></trkpt><trkpt lat="41.4230587" lon="12.8125698"><ele>4.0</ele><time>2026-04-25T14:44:20.104Z</time></trkpt><trkpt lat="41.4231586" lon="12.8125644"><ele>4.0</ele><time>2026-04-25T14:44:21.103Z</time></trkpt><trkpt lat="41.423269" lon="12.8125633"><ele>4.0</ele><time>2026-04-25T14:44:22.104Z</time></trkpt><trkpt lat="41.4233712" lon="12.8125636"><ele>4.0</ele><time>2026-04-25T14:44:23.104Z</time></trkpt><trkpt lat="41.4234805" lon="12.8125721"><ele>4.0</ele><time>2026-04-25T14:44:24.104Z</time></trkpt><trkpt lat="41.4235982" lon="12.812593"><ele>4.0</ele><time>2026-04-25T14:44:25.104Z</time></trkpt><trkpt lat="41.423693" lon="12.8126155"><ele>4.0</ele><time>2026-04-25T14:44:26.104Z</time></trkpt><trkpt lat="41.4237816" lon="12.812628"><ele>4.0</ele><time>2026-04-25T14:44:27.104Z</time></trkpt><trkpt lat="41.423871" lon="12.8126512"><ele>3.4000000000000004</ele><time>2026-04-25T14:44:28.103Z</time></trkpt><trkpt lat="41.4239365" lon="12.8126628"><ele>2.8000000000000003</ele><time>2026-04-25T14:44:29.104Z</time></trkpt><trkpt lat="41.4240526" lon="12.8126662"><ele>2.2</ele><time>2026-04-25T14:44:31.103Z</time></trkpt><trkpt lat="41.4241347" lon="12.8126745"><ele>1.6</ele><time>2026-04-25T14:44:32.104Z</time></trkpt><trkpt lat="41.4242308" lon="12.812672"><ele>1.0</ele><time>2026-04-25T14:44:33.104Z</time></trkpt><trkpt lat="41.4243285" lon="12.8126652"><ele>1.0</ele><time>2026-04-25T14:44:34.104Z</time></trkpt><trkpt lat="41.4244113" lon="12.8126646"><ele>1.0</ele><time>2026-04-25T14:44:35.104Z</time></trkpt><trkpt lat="41.4245153" lon="12.8126738"><ele>1.0</ele><time>2026-04-25T14:44:36.104Z</time></trkpt><trkpt lat="41.4246023" lon="12.8126596"><ele>1.0</ele><time>2026-04-25T14:44:37.104Z</time></trkpt><trkpt lat="41.4247019" lon="12.8126728"><ele>1.0</ele><time>2026-04-25T14:44:38.104Z</time></trkpt><trkpt lat="41.4247805" lon="12.8126776"><ele>1.2000000000000002</ele><time>2026-04-25T14:44:39.104Z</time></trkpt><trkpt lat="41.424867" lon="12.8126797"><ele>1.4000000000000001</ele><time>2026-04-25T14:44:40.103Z</time></trkpt><trkpt lat="41.4249443" lon="12.8126778"><ele>1.6</ele><time>2026-04-25T14:44:41.104Z</time></trkpt><trkpt lat="41.4250543" lon="12.8126943"><ele>1.8</ele><time>2026-04-25T14:44:42.104Z</time></trkpt><trkpt lat="41.4251642" lon="12.812707"><ele>2.0</ele><time>2026-04-25T14:44:43.104Z</time></trkpt><trkpt lat="41.425277" lon="12.8127105"><ele>2.0</ele><time>2026-04-25T14:44:44.104Z</time></trkpt><trkpt lat="41.4253933" lon="12.8127198"><ele>2.0</ele><time>2026-04-25T14:44:45.104Z</time></trkpt><trkpt lat="41.425492" lon="12.8127227"><ele>2.0</ele><time>2026-04-25T14:44:46.104Z</time></trkpt><trkpt lat="41.4255959" lon="12.8127309"><ele>2.0</ele><time>2026-04-25T14:44:47.104Z</time></trkpt><trkpt lat="41.4256809" lon="12.8127428"><ele>2.0</ele><time>2026-04-25T14:44:48.104Z</time></trkpt><trkpt lat="41.425764" lon="12.812755"><ele>1.9999999999999998</ele><time>2026-04-25T14:44:49.104Z</time></trkpt><trkpt lat="41.4258424" lon="12.8127612"><ele>2.0</ele><time>2026-04-25T14:44:50.104Z</time></trkpt><trkpt lat="41.4259222" lon="12.812776"><ele>2.0</ele><time>2026-04-25T14:44:51.103Z</time></trkpt><trkpt lat="41.4259998" lon="12.8127947"><ele>2.0</ele><time>2026-04-25T14:44:52.104Z</time></trkpt><trkpt lat="41.4260793" lon="12.8128194"><ele>1.9999999999999998</ele><time>2026-04-25T14:44:53.104Z</time></trkpt><trkpt lat="41.4261618" lon="12.8128437"><ele>2.0</ele><time>2026-04-25T14:44:54.104Z</time></trkpt><trkpt lat="41.4262494" lon="12.8128673"><ele>2.2</ele><time>2026-04-25T14:44:55.104Z</time></trkpt><trkpt lat="41.4263535" lon="12.8128847"><ele>2.4000000000000004</ele><time>2026-04-25T14:44:56.103Z</time></trkpt><trkpt lat="41.4264485" lon="12.8129151"><ele>2.5999999999999996</ele><time>2026-04-25T14:44:57.104Z</time></trkpt><trkpt lat="41.4265364" lon="12.8129298"><ele>2.8</ele><time>2026-04-25T14:44:58.104Z</time></trkpt><trkpt lat="41.4266248" lon="12.8129626"><ele>3.0</ele><time>2026-04-25T14:44:59.104Z</time></trkpt><trkpt lat="41.4267235" lon="12.8129967"><ele>3.0</ele><time>2026-04-25T14:45:00.104Z</time></trkpt><trkpt lat="41.426818" lon="12.8130509"><ele>3.0</ele><time>2026-04-25T14:45:01.103Z</time></trkpt><trkpt lat="41.4269144" lon="12.8130871"><ele>3.0</ele><time>2026-04-25T14:45:02.104Z</time></trkpt><trkpt lat="41.4270102" lon="12.813125"><ele>3.0</ele><time>2026-04-25T14:45:03.104Z</time></trkpt><trkpt lat="41.4270986" lon="12.8131722"><ele>3.0</ele><time>2026-04-25T14:45:04.104Z</time></trkpt><trkpt lat="41.4271766" lon="12.8132234"><ele>3.1428571428571423</ele><time>2026-04-25T14:45:05.104Z</time></trkpt><trkpt lat="41.4272491" lon="12.8132719"><ele>3.2857142857142856</ele><time>2026-04-25T14:45:06.104Z</time></trkpt><trkpt lat="41.4273192" lon="12.8133084"><ele>3.4285714285714284</ele><time>2026-04-25T14:45:07.104Z</time></trkpt><trkpt lat="41.4273839" lon="12.8133491"><ele>3.571428571428571</ele><time>2026-04-25T14:45:08.104Z</time></trkpt><trkpt lat="41.4274451" lon="12.8133955"><ele>3.714285714285714</ele><time>2026-04-25T14:45:09.103Z</time></trkpt><trkpt lat="41.427505" lon="12.8134458"><ele>3.8571428571428568</ele><time>2026-04-25T14:45:10.104Z</time></trkpt><trkpt lat="41.427557" lon="12.8134977"><ele>4.0</ele><time>2026-04-25T14:45:11.104Z</time></trkpt><trkpt lat="41.4276635" lon="12.8135969"><ele>3.833333333333333</ele><time>2026-04-25T14:45:13.104Z</time></trkpt><trkpt lat="41.4277303" lon="12.8136499"><ele>3.6666666666666665</ele><time>2026-04-25T14:45:14.104Z</time></trkpt><trkpt lat="41.427788" lon="12.8136996"><ele>3.5</ele><time>2026-04-25T14:45:15.103Z</time></trkpt><trkpt lat="41.427845" lon="12.8137573"><ele>3.333333333333333</ele><time>2026-04-25T14:45:16.103Z</time></trkpt><trkpt lat="41.4279005" lon="12.8138065"><ele>3.1666666666666665</ele><time>2026-04-25T14:45:17.104Z</time></trkpt><trkpt lat="41.4279833" lon="12.8138651"><ele>3.0</ele><time>2026-04-25T14:45:18.104Z</time></trkpt><trkpt lat="41.4280491" lon="12.8139064"><ele>3.0</ele><time>2026-04-25T14:45:19.104Z</time></trkpt><trkpt lat="41.4281215" lon="12.8139413"><ele>3.0</ele><time>2026-04-25T14:45:20.104Z</time></trkpt><trkpt lat="41.4281926" lon="12.813963"><ele>3.0</ele><time>2026-04-25T14:45:21.104Z</time></trkpt><trkpt lat="41.428271" lon="12.8140073"><ele>3.0</ele><time>2026-04-25T14:45:22.104Z</time></trkpt><trkpt lat="41.4283365" lon="12.8140564"><ele>3.0</ele><time>2026-04-25T14:45:23.104Z</time></trkpt><trkpt lat="41.4284124" lon="12.8141075"><ele>3.0</ele><time>2026-04-25T14:45:24.104Z</time></trkpt><trkpt lat="41.4284899" lon="12.8141582"><ele>3.0</ele><time>2026-04-25T14:45:25.104Z</time></trkpt><trkpt lat="41.4285755" lon="12.8142311"><ele>3.0</ele><time>2026-04-25T14:45:26.104Z</time></trkpt><trkpt lat="41.4286601" lon="12.8142885"><ele>3.0</ele><time>2026-04-25T14:45:27.104Z</time></trkpt><trkpt lat="41.4287484" lon="12.81435"><ele>3.0</ele><time>2026-04-25T14:45:28.104Z</time></trkpt><trkpt lat="41.4288456" lon="12.8144165"><ele>3.0</ele><time>2026-04-25T14:45:29.104Z</time></trkpt><trkpt lat="41.4289335" lon="12.8144719"><ele>3.0</ele><time>2026-04-25T14:45:30.104Z</time></trkpt><trkpt lat="41.4290234" lon="12.8145253"><ele>3.0</ele><time>2026-04-25T14:45:31.103Z</time></trkpt><trkpt lat="41.4291139" lon="12.8145794"><ele>3.0</ele><time>2026-04-25T14:45:32.104Z</time></trkpt><trkpt lat="41.4292006" lon="12.8146308"><ele>3.0</ele><time>2026-04-25T14:45:33.103Z</time></trkpt><trkpt lat="41.4292894" lon="12.8146827"><ele>3.0</ele><time>2026-04-25T14:45:34.104Z</time></trkpt><trkpt lat="41.4293715" lon="12.8147327"><ele>3.0</ele><time>2026-04-25T14:45:35.104Z</time></trkpt><trkpt lat="41.4294544" lon="12.8147842"><ele>3.0</ele><time>2026-04-25T14:45:36.103Z</time></trkpt><trkpt lat="41.4295472" lon="12.8148378"><ele>3.0</ele><time>2026-04-25T14:45:37.104Z</time></trkpt><trkpt lat="41.4296353" lon="12.8148857"><ele>3.0</ele><time>2026-04-25T14:45:38.103Z</time></trkpt><trkpt lat="41.4297198" lon="12.8149401"><ele>3.0</ele><time>2026-04-25T14:45:39.103Z</time></trkpt><trkpt lat="41.4297978" lon="12.8149912"><ele>3.0</ele><time>2026-04-25T14:45:40.104Z</time></trkpt><trkpt lat="41.4298689" lon="12.8150375"><ele>3.0</ele><time>2026-04-25T14:45:41.103Z</time></trkpt><trkpt lat="41.4299362" lon="12.8150859"><ele>3.0</ele><time>2026-04-25T14:45:42.104Z</time></trkpt><trkpt lat="41.4300031" lon="12.8151183"><ele>3.0</ele><time>2026-04-25T14:45:43.104Z</time></trkpt><trkpt lat="41.4300957" lon="12.8151897"><ele>3.0</ele><time>2026-04-25T14:45:45.103Z</time></trkpt><trkpt lat="41.4301849" lon="12.8152714"><ele>3.0</ele><time>2026-04-25T14:45:47.103Z</time></trkpt><trkpt lat="41.4303142" lon="12.8152898"><ele>3.0</ele><time>2026-04-25T14:45:49.104Z</time></trkpt><trkpt lat="41.4304031" lon="12.8153066"><ele>3.0</ele><time>2026-04-25T14:45:50.104Z</time></trkpt><trkpt lat="41.4304951" lon="12.815321"><ele>3.0</ele><time>2026-04-25T14:45:51.103Z</time></trkpt><trkpt lat="41.4305976" lon="12.8153551"><ele>3.0</ele><time>2026-04-25T14:45:52.104Z</time></trkpt><trkpt lat="41.4306969" lon="12.8153642"><ele>3.0</ele><time>2026-04-25T14:45:53.104Z</time></trkpt><trkpt lat="41.4307926" lon="12.8153746"><ele>3.0</ele><time>2026-04-25T14:45:54.104Z</time></trkpt><trkpt lat="41.4308788" lon="12.815372"><ele>3.0</ele><time>2026-04-25T14:45:55.103Z</time></trkpt><trkpt lat="41.430972" lon="12.815377"><ele>3.0</ele><time>2026-04-25T14:45:56.104Z</time></trkpt><trkpt lat="41.4310662" lon="12.8153723"><ele>3.0</ele><time>2026-04-25T14:45:57.104Z</time></trkpt><trkpt lat="41.4311521" lon="12.8153578"><ele>3.0</ele><time>2026-04-25T14:45:58.104Z</time></trkpt><trkpt lat="41.4312397" lon="12.8153389"><ele>3.0</ele><time>2026-04-25T14:45:59.104Z</time></trkpt><trkpt lat="41.4313133" lon="12.8153401"><ele>2.6</ele><time>2026-04-25T14:46:00.104Z</time></trkpt><trkpt lat="41.4313931" lon="12.8153584"><ele>2.1999999999999997</ele><time>2026-04-25T14:46:01.104Z</time></trkpt><trkpt lat="41.4314842" lon="12.8153983"><ele>1.8</ele><time>2026-04-25T14:46:02.104Z</time></trkpt><trkpt lat="41.4315889" lon="12.8154275"><ele>1.4</ele><time>2026-04-25T14:46:03.103Z</time></trkpt><trkpt lat="41.4316962" lon="12.8154629"><ele>1.0</ele><time>2026-04-25T14:46:04.104Z</time></trkpt><trkpt lat="41.4318218" lon="12.8154782"><ele>1.0</ele><time>2026-04-25T14:46:05.104Z</time></trkpt><trkpt lat="41.4319542" lon="12.8154944"><ele>1.0</ele><time>2026-04-25T14:46:06.104Z</time></trkpt><trkpt lat="41.4320931" lon="12.8155236"><ele>1.0</ele><time>2026-04-25T14:46:07.104Z</time></trkpt><trkpt lat="41.4322316" lon="12.8155516"><ele>1.0</ele><time>2026-04-25T14:46:08.103Z</time></trkpt><trkpt lat="41.4323523" lon="12.815567"><ele>1.0</ele><time>2026-04-25T14:46:09.104Z</time></trkpt><trkpt lat="41.4324621" lon="12.8155623"><ele>1.0</ele><time>2026-04-25T14:46:10.104Z</time></trkpt><trkpt lat="41.4325916" lon="12.8155396"><ele>1.0</ele><time>2026-04-25T14:46:11.103Z</time></trkpt><trkpt lat="41.4327006" lon="12.8155111"><ele>1.0</ele><time>2026-04-25T14:46:12.104Z</time></trkpt><trkpt lat="41.4328134" lon="12.8154954"><ele>1.0</ele><time>2026-04-25T14:46:13.104Z</time></trkpt><trkpt lat="41.4329098" lon="12.8154502"><ele>1.0</ele><time>2026-04-25T14:46:14.104Z</time></trkpt><trkpt lat="41.4330075" lon="12.8154091"><ele>1.0</ele><time>2026-04-25T14:46:15.103Z</time></trkpt><trkpt lat="41.4330944" lon="12.8153646"><ele>1.0</ele><time>2026-04-25T14:46:16.103Z</time></trkpt><trkpt lat="41.4331904" lon="12.8153088"><ele>1.0</ele><time>2026-04-25T14:46:17.103Z</time></trkpt><trkpt lat="41.4332758" lon="12.8152615"><ele>1.4</ele><time>2026-04-25T14:46:18.104Z</time></trkpt><trkpt lat="41.4333741" lon="12.8151909"><ele>1.8</ele><time>2026-04-25T14:46:19.103Z</time></trkpt><trkpt lat="41.4334489" lon="12.815132"><ele>2.1999999999999997</ele><time>2026-04-25T14:46:20.104Z</time></trkpt><trkpt lat="41.4335419" lon="12.8150715"><ele>2.6</ele><time>2026-04-25T14:46:21.104Z</time></trkpt><trkpt lat="41.4336287" lon="12.8150156"><ele>3.0</ele><time>2026-04-25T14:46:22.104Z</time></trkpt><trkpt lat="41.4337108" lon="12.8149571"><ele>2.8</ele><time>2026-04-25T14:46:23.104Z</time></trkpt><trkpt lat="41.4337912" lon="12.8148886"><ele>2.5999999999999996</ele><time>2026-04-25T14:46:24.104Z</time></trkpt><trkpt lat="41.4338715" lon="12.8148051"><ele>2.4000000000000004</ele><time>2026-04-25T14:46:25.104Z</time></trkpt><trkpt lat="41.4339479" lon="12.8147346"><ele>2.2</ele><time>2026-04-25T14:46:26.104Z</time></trkpt><trkpt lat="41.434026" lon="12.8146531"><ele>2.0</ele><time>2026-04-25T14:46:27.104Z</time></trkpt><trkpt lat="41.4341135" lon="12.8145553"><ele>2.0</ele><time>2026-04-25T14:46:28.103Z</time></trkpt><trkpt lat="41.4341864" lon="12.814464"><ele>2.0</ele><time>2026-04-25T14:46:29.104Z</time></trkpt><trkpt lat="41.4342505" lon="12.8143588"><ele>2.0</ele><time>2026-04-25T14:46:30.104Z</time></trkpt><trkpt lat="41.4343206" lon="12.8142551"><ele>2.0</ele><time>2026-04-25T14:46:31.103Z</time></trkpt><trkpt lat="41.4343863" lon="12.8141392"><ele>2.0</ele><time>2026-04-25T14:46:32.104Z</time></trkpt><trkpt lat="41.4344477" lon="12.8140301"><ele>2.0</ele><time>2026-04-25T14:46:33.104Z</time></trkpt><trkpt lat="41.4344998" lon="12.8139333"><ele>2.0</ele><time>2026-04-25T14:46:34.104Z</time></trkpt><trkpt lat="41.434552" lon="12.8138095"><ele>2.0</ele><time>2026-04-25T14:46:35.104Z</time></trkpt><trkpt lat="41.4346017" lon="12.8136772"><ele>2.0</ele><time>2026-04-25T14:46:36.104Z</time></trkpt><trkpt lat="41.4346423" lon="12.8135345"><ele>2.0</ele><time>2026-04-25T14:46:37.103Z</time></trkpt><trkpt lat="41.4346955" lon="12.8133625"><ele>2.0</ele><time>2026-04-25T14:46:38.104Z</time></trkpt><trkpt lat="41.4347446" lon="12.8132107"><ele>2.0</ele><time>2026-04-25T14:46:39.104Z</time></trkpt><trkpt lat="41.4347805" lon="12.8130626"><ele>2.0</ele><time>2026-04-25T14:46:40.103Z</time></trkpt><trkpt lat="41.4348059" lon="12.8129317"><ele>2.0</ele><time>2026-04-25T14:46:41.104Z</time></trkpt><trkpt lat="41.4348437" lon="12.8127866"><ele>2.0</ele><time>2026-04-25T14:46:42.104Z</time></trkpt><trkpt lat="41.4348883" lon="12.8126528"><ele>2.0</ele><time>2026-04-25T14:46:43.104Z</time></trkpt><trkpt lat="41.4349351" lon="12.8125164"><ele>2.0</ele><time>2026-04-25T14:46:44.104Z</time></trkpt><trkpt lat="41.4349682" lon="12.8123983"><ele>2.0</ele><time>2026-04-25T14:46:45.104Z</time></trkpt><trkpt lat="41.4350094" lon="12.8122751"><ele>2.0</ele><time>2026-04-25T14:46:46.104Z</time></trkpt><trkpt lat="41.4350409" lon="12.8121583"><ele>2.0</ele><time>2026-04-25T14:46:47.104Z</time></trkpt><trkpt lat="41.4350755" lon="12.8120447"><ele>2.0</ele><time>2026-04-25T14:46:48.104Z</time></trkpt><trkpt lat="41.4351148" lon="12.8119375"><ele>2.0</ele><time>2026-04-25T14:46:49.104Z</time></trkpt><trkpt lat="41.435161" lon="12.8118319"><ele>2.0</ele><time>2026-04-25T14:46:50.104Z</time></trkpt><trkpt lat="41.435218" lon="12.8116959"><ele>2.0</ele><time>2026-04-25T14:46:51.104Z</time></trkpt><trkpt lat="41.4352649" lon="12.8115924"><ele>2.2</ele><time>2026-04-25T14:46:52.103Z</time></trkpt><trkpt lat="41.4353125" lon="12.811478"><ele>2.4000000000000004</ele><time>2026-04-25T14:46:53.104Z</time></trkpt><trkpt lat="41.4353509" lon="12.8113834"><ele>2.5999999999999996</ele><time>2026-04-25T14:46:54.104Z</time></trkpt><trkpt lat="41.4354044" lon="12.8112551"><ele>2.8</ele><time>2026-04-25T14:46:55.104Z</time></trkpt><trkpt lat="41.4354494" lon="12.8111315"><ele>3.0</ele><time>2026-04-25T14:46:56.104Z</time></trkpt><trkpt lat="41.4354919" lon="12.8110202"><ele>3.0</ele><time>2026-04-25T14:46:57.104Z</time></trkpt><trkpt lat="41.4355287" lon="12.8109166"><ele>3.0</ele><time>2026-04-25T14:46:58.104Z</time></trkpt><trkpt lat="41.4355571" lon="12.810815"><ele>3.0</ele><time>2026-04-25T14:46:59.104Z</time></trkpt><trkpt lat="41.4355889" lon="12.8107079"><ele>3.0</ele><time>2026-04-25T14:47:00.104Z</time></trkpt><trkpt lat="41.4356241" lon="12.8105822"><ele>3.0</ele><time>2026-04-25T14:47:01.104Z</time></trkpt><trkpt lat="41.4356593" lon="12.8104829"><ele>3.0</ele><time>2026-04-25T14:47:02.104Z</time></trkpt><trkpt lat="41.4356871" lon="12.8103835"><ele>3.0</ele><time>2026-04-25T14:47:03.104Z</time></trkpt><trkpt lat="41.435717" lon="12.8102835"><ele>3.0</ele><time>2026-04-25T14:47:04.104Z</time></trkpt><trkpt lat="41.4357398" lon="12.8101866"><ele>3.0</ele><time>2026-04-25T14:47:05.104Z</time></trkpt><trkpt lat="41.4357657" lon="12.8100849"><ele>3.0</ele><time>2026-04-25T14:47:06.103Z</time></trkpt><trkpt lat="41.4357851" lon="12.8099925"><ele>3.0</ele><time>2026-04-25T14:47:07.104Z</time></trkpt><trkpt lat="41.4358152" lon="12.8098789"><ele>3.0</ele><time>2026-04-25T14:47:08.104Z</time></trkpt><trkpt lat="41.4358583" lon="12.8097818"><ele>3.0</ele><time>2026-04-25T14:47:09.104Z</time></trkpt><trkpt lat="41.4359084" lon="12.8096755"><ele>3.0</ele><time>2026-04-25T14:47:10.103Z</time></trkpt><trkpt lat="41.4359336" lon="12.8095905"><ele>3.0</ele><time>2026-04-25T14:47:11.104Z</time></trkpt><trkpt lat="41.4359669" lon="12.8094706"><ele>3.0</ele><time>2026-04-25T14:47:12.104Z</time></trkpt><trkpt lat="41.4359966" lon="12.8093463"><ele>3.0</ele><time>2026-04-25T14:47:13.103Z</time></trkpt><trkpt lat="41.4360293" lon="12.8092193"><ele>3.5</ele><time>2026-04-25T14:47:14.104Z</time></trkpt><trkpt lat="41.4360763" lon="12.8090673"><ele>4.0</ele><time>2026-04-25T14:47:15.104Z</time></trkpt><trkpt lat="41.4361259" lon="12.8089257"><ele>4.5</ele><time>2026-04-25T14:47:16.104Z</time></trkpt><trkpt lat="41.4361964" lon="12.8087717"><ele>5.0</ele><time>2026-04-25T14:47:17.104Z</time></trkpt><trkpt lat="41.4362467" lon="12.8086222"><ele>5.0</ele><time>2026-04-25T14:47:18.104Z</time></trkpt><trkpt lat="41.4363015" lon="12.8084967"><ele>5.0</ele><time>2026-04-25T14:47:19.104Z</time></trkpt><trkpt lat="41.43637" lon="12.8083641"><ele>5.0</ele><time>2026-04-25T14:47:20.104Z</time></trkpt><trkpt lat="41.4364378" lon="12.8082411"><ele>5.0</ele><time>2026-04-25T14:47:21.103Z</time></trkpt><trkpt lat="41.4365048" lon="12.8081259"><ele>5.0</ele><time>2026-04-25T14:47:22.104Z</time></trkpt><trkpt lat="41.4365704" lon="12.8080071"><ele>5.0</ele><time>2026-04-25T14:47:23.104Z</time></trkpt><trkpt lat="41.4366455" lon="12.8078768"><ele>5.0</ele><time>2026-04-25T14:47:24.104Z</time></trkpt><trkpt lat="41.4367201" lon="12.8077407"><ele>5.0</ele><time>2026-04-25T14:47:25.104Z</time></trkpt><trkpt lat="41.4367921" lon="12.8076322"><ele>5.166666666666667</ele><time>2026-04-25T14:47:26.104Z</time></trkpt><trkpt lat="41.4368725" lon="12.8075406"><ele>5.333333333333334</ele><time>2026-04-25T14:47:27.104Z</time></trkpt><trkpt lat="41.4369412" lon="12.8074384"><ele>5.5</ele><time>2026-04-25T14:47:28.103Z</time></trkpt><trkpt lat="41.4369849" lon="12.8073604"><ele>5.666666666666667</ele><time>2026-04-25T14:47:29.104Z</time></trkpt><trkpt lat="41.4369491" lon="12.8072518"><ele>5.833333333333333</ele><time>2026-04-25T14:47:30.104Z</time></trkpt><trkpt lat="41.4369527" lon="12.8071573"><ele>6.0</ele><time>2026-04-25T14:47:31.104Z</time></trkpt><trkpt lat="41.4369469" lon="12.8070698"><ele>6.0</ele><time>2026-04-25T14:47:32.104Z</time></trkpt><trkpt lat="41.4369372" lon="12.8069524"><ele>6.0</ele><time>2026-04-25T14:47:33.104Z</time></trkpt><trkpt lat="41.436927" lon="12.8068433"><ele>6.0</ele><time>2026-04-25T14:47:34.104Z</time></trkpt><trkpt lat="41.4369283" lon="12.806732"><ele>6.0</ele><time>2026-04-25T14:47:35.104Z</time></trkpt><trkpt lat="41.4369291" lon="12.8065913"><ele>6.0</ele><time>2026-04-25T14:47:36.104Z</time></trkpt><trkpt lat="41.4369267" lon="12.8064741"><ele>6.0</ele><time>2026-04-25T14:47:37.104Z</time></trkpt><trkpt lat="41.43693" lon="12.8063382"><ele>6.199999999999999</ele><time>2026-04-25T14:47:38.104Z</time></trkpt><trkpt lat="41.4369356" lon="12.8062149"><ele>6.3999999999999995</ele><time>2026-04-25T14:47:39.104Z</time></trkpt><trkpt lat="41.4369368" lon="12.8060815"><ele>6.6</ele><time>2026-04-25T14:47:40.104Z</time></trkpt><trkpt lat="41.4369338" lon="12.8059545"><ele>6.8</ele><time>2026-04-25T14:47:41.103Z</time></trkpt><trkpt lat="41.4369283" lon="12.8058481"><ele>7.0</ele><time>2026-04-25T14:47:42.104Z</time></trkpt><trkpt lat="41.4369321" lon="12.8057232"><ele>6.8</ele><time>2026-04-25T14:47:43.104Z</time></trkpt><trkpt lat="41.4369247" lon="12.8055992"><ele>6.6</ele><time>2026-04-25T14:47:44.104Z</time></trkpt><trkpt lat="41.4369245" lon="12.805467"><ele>6.3999999999999995</ele><time>2026-04-25T14:47:45.104Z</time></trkpt><trkpt lat="41.4369237" lon="12.8053379"><ele>6.199999999999999</ele><time>2026-04-25T14:47:46.103Z</time></trkpt><trkpt lat="41.4369263" lon="12.8052115"><ele>6.0</ele><time>2026-04-25T14:47:47.104Z</time></trkpt><trkpt lat="41.4369263" lon="12.8051036"><ele>6.0</ele><time>2026-04-25T14:47:48.104Z</time></trkpt><trkpt lat="41.4369283" lon="12.8050023"><ele>6.0</ele><time>2026-04-25T14:47:49.104Z</time></trkpt><trkpt lat="41.4369213" lon="12.8049014"><ele>6.0</ele><time>2026-04-25T14:47:50.104Z</time></trkpt><trkpt lat="41.4369196" lon="12.8047587"><ele>6.0</ele><time>2026-04-25T14:47:52.104Z</time></trkpt><trkpt lat="41.4369428" lon="12.8046794"><ele>6.0</ele><time>2026-04-25T14:47:53.103Z</time></trkpt><trkpt lat="41.4370203" lon="12.804628"><ele>6.0</ele><time>2026-04-25T14:47:55.103Z</time></trkpt><trkpt lat="41.4370519" lon="12.8045425"><ele>6.0</ele><time>2026-04-25T14:47:57.103Z</time></trkpt><trkpt lat="41.4371237" lon="12.8045174"><ele>6.0</ele><time>2026-04-25T14:47:59.104Z</time></trkpt><trkpt lat="41.4372254" lon="12.8045101"><ele>6.0</ele><time>2026-04-25T14:48:01.104Z</time></trkpt><trkpt lat="41.4373004" lon="12.8045046"><ele>6.0</ele><time>2026-04-25T14:48:02.103Z</time></trkpt><trkpt lat="41.4374185" lon="12.8044987"><ele>6.0</ele><time>2026-04-25T14:48:04.103Z</time></trkpt><trkpt lat="41.4374846" lon="12.8045075"><ele>6.0</ele><time>2026-04-25T14:48:05.103Z</time></trkpt><trkpt lat="41.4375585" lon="12.8045082"><ele>6.0</ele><time>2026-04-25T14:48:06.103Z</time></trkpt><trkpt lat="41.4376282" lon="12.8045103"><ele>6.0</ele><time>2026-04-25T14:48:07.104Z</time></trkpt><trkpt lat="41.4376941" lon="12.8045084"><ele>6.0</ele><time>2026-04-25T14:48:08.104Z</time></trkpt><trkpt lat="41.4378063" lon="12.8044986"><ele>6.0</ele><time>2026-04-25T14:48:10.104Z</time></trkpt><trkpt lat="41.4379164" lon="12.8045115"><ele>6.0</ele><time>2026-04-25T14:48:12.104Z</time></trkpt><trkpt lat="41.4380533" lon="12.8045344"><ele>6.0</ele><time>2026-04-25T14:48:14.103Z</time></trkpt><trkpt lat="41.4381184" lon="12.8045443"><ele>6.0</ele><time>2026-04-25T14:48:15.104Z</time></trkpt><trkpt lat="41.4381914" lon="12.8045381"><ele>6.0</ele><time>2026-04-25T14:48:16.104Z</time></trkpt><trkpt lat="41.4382669" lon="12.8045233"><ele>6.0</ele><time>2026-04-25T14:48:17.103Z</time></trkpt><trkpt lat="41.4383387" lon="12.8045294"><ele>6.0</ele><time>2026-04-25T14:48:18.104Z</time></trkpt><trkpt lat="41.4384054" lon="12.8045263"><ele>6.0</ele><time>2026-04-25T14:48:19.104Z</time></trkpt><trkpt lat="41.438506" lon="12.8045507"><ele>6.0</ele><time>2026-04-25T14:48:21.104Z</time></trkpt><trkpt lat="41.4385432" lon="12.8046315"><ele>6.0</ele><time>2026-04-25T14:48:23.104Z</time></trkpt><trkpt lat="41.4386591" lon="12.8046402"><ele>6.0</ele><time>2026-04-25T14:48:25.104Z</time></trkpt><trkpt lat="41.4387312" lon="12.8046056"><ele>6.0</ele><time>2026-04-25T14:48:26.104Z</time></trkpt><trkpt lat="41.4388042" lon="12.8045828"><ele>6.0</ele><time>2026-04-25T14:48:27.104Z</time></trkpt><trkpt lat="41.438886" lon="12.8045514"><ele>6.0</ele><time>2026-04-25T14:48:28.104Z</time></trkpt><trkpt lat="41.4389634" lon="12.8045116"><ele>6.199999999999999</ele><time>2026-04-25T14:48:29.104Z</time></trkpt><trkpt lat="41.4390477" lon="12.8044675"><ele>6.3999999999999995</ele><time>2026-04-25T14:48:30.104Z</time></trkpt><trkpt lat="41.4391318" lon="12.804403"><ele>6.6</ele><time>2026-04-25T14:48:31.104Z</time></trkpt><trkpt lat="41.4392304" lon="12.8043107"><ele>6.8</ele><time>2026-04-25T14:48:32.104Z</time></trkpt><trkpt lat="41.4393186" lon="12.8042382"><ele>7.0</ele><time>2026-04-25T14:48:33.104Z</time></trkpt><trkpt lat="41.4394036" lon="12.8041606"><ele>7.166666666666667</ele><time>2026-04-25T14:48:34.104Z</time></trkpt><trkpt lat="41.4394851" lon="12.8040841"><ele>7.333333333333334</ele><time>2026-04-25T14:48:35.104Z</time></trkpt><trkpt lat="41.4395583" lon="12.8040168"><ele>7.5</ele><time>2026-04-25T14:48:36.104Z</time></trkpt><trkpt lat="41.4396336" lon="12.8039539"><ele>7.666666666666666</ele><time>2026-04-25T14:48:37.104Z</time></trkpt><trkpt lat="41.4397128" lon="12.8039202"><ele>7.833333333333333</ele><time>2026-04-25T14:48:38.104Z</time></trkpt><trkpt lat="41.439798" lon="12.8039171"><ele>8.0</ele><time>2026-04-25T14:48:39.104Z</time></trkpt><trkpt lat="41.4398829" lon="12.8038936"><ele>7.6000000000000005</ele><time>2026-04-25T14:48:40.103Z</time></trkpt><trkpt lat="41.4399574" lon="12.8039379"><ele>7.200000000000001</ele><time>2026-04-25T14:48:41.104Z</time></trkpt><trkpt lat="41.4400306" lon="12.8039558"><ele>6.8</ele><time>2026-04-25T14:48:42.104Z</time></trkpt><trkpt lat="41.4401732" lon="12.8039655"><ele>6.4</ele><time>2026-04-25T14:48:44.104Z</time></trkpt><trkpt lat="41.440248" lon="12.8039575"><ele>6.0</ele><time>2026-04-25T14:48:45.103Z</time></trkpt><trkpt lat="41.4403445" lon="12.8039093"><ele>6.0</ele><time>2026-04-25T14:48:47.104Z</time></trkpt><trkpt lat="41.4404083" lon="12.8038902"><ele>6.0</ele><time>2026-04-25T14:48:49.104Z</time></trkpt><trkpt lat="41.4404795" lon="12.8040157"><ele>6.0</ele><time>2026-04-25T14:48:51.103Z</time></trkpt><trkpt lat="41.440503" lon="12.8041294"><ele>6.0</ele><time>2026-04-25T14:48:52.104Z</time></trkpt><trkpt lat="41.4405423" lon="12.8042626"><ele>6.0</ele><time>2026-04-25T14:48:53.104Z</time></trkpt><trkpt lat="41.4405839" lon="12.8044438"><ele>6.25</ele><time>2026-04-25T14:48:54.104Z</time></trkpt><trkpt lat="41.44063" lon="12.8046085"><ele>6.5</ele><time>2026-04-25T14:48:55.104Z</time></trkpt><trkpt lat="41.4406587" lon="12.8047723"><ele>6.75</ele><time>2026-04-25T14:48:56.104Z</time></trkpt><trkpt lat="41.4406911" lon="12.8049143"><ele>7.0</ele><time>2026-04-25T14:48:57.103Z</time></trkpt><trkpt lat="41.4407233" lon="12.8050195"><ele>7.0</ele><time>2026-04-25T14:48:58.104Z</time></trkpt><trkpt lat="41.4407705" lon="12.805118"><ele>6.999999999999999</ele><time>2026-04-25T14:48:59.104Z</time></trkpt><trkpt lat="41.440813" lon="12.8052156"><ele>6.999999999999999</ele><time>2026-04-25T14:49:00.104Z</time></trkpt><trkpt lat="41.4409371" lon="12.8051991"><ele>7.0</ele><time>2026-04-25T14:49:02.104Z</time></trkpt><trkpt lat="41.4410239" lon="12.8051863"><ele>7.0</ele><time>2026-04-25T14:49:03.104Z</time></trkpt><trkpt lat="41.4411061" lon="12.8051821"><ele>6.666666666666667</ele><time>2026-04-25T14:49:04.104Z</time></trkpt><trkpt lat="41.441181" lon="12.8051837"><ele>6.333333333333334</ele><time>2026-04-25T14:49:05.104Z</time></trkpt><trkpt lat="41.4412811" lon="12.8051711"><ele>6.0</ele><time>2026-04-25T14:49:06.104Z</time></trkpt><trkpt lat="41.4413654" lon="12.8051641"><ele>5.666666666666667</ele><time>2026-04-25T14:49:07.104Z</time></trkpt><trkpt lat="41.4414616" lon="12.8051565"><ele>5.333333333333334</ele><time>2026-04-25T14:49:08.103Z</time></trkpt><trkpt lat="41.4415469" lon="12.8051511"><ele>5.0</ele><time>2026-04-25T14:49:09.104Z</time></trkpt><trkpt lat="41.4416426" lon="12.8051516"><ele>4.833333333333334</ele><time>2026-04-25T14:49:10.104Z</time></trkpt><trkpt lat="41.4417271" lon="12.8051523"><ele>4.666666666666667</ele><time>2026-04-25T14:49:11.104Z</time></trkpt><trkpt lat="41.4418133" lon="12.8051584"><ele>4.5</ele><time>2026-04-25T14:49:12.104Z</time></trkpt><trkpt lat="41.4418936" lon="12.8051697"><ele>4.333333333333333</ele><time>2026-04-25T14:49:13.104Z</time></trkpt><trkpt lat="41.4419738" lon="12.8051825"><ele>4.166666666666666</ele><time>2026-04-25T14:49:14.104Z</time></trkpt><trkpt lat="41.4420504" lon="12.8051913"><ele>4.0</ele><time>2026-04-25T14:49:15.104Z</time></trkpt><trkpt lat="41.4421131" lon="12.8052109"><ele>4.0</ele><time>2026-04-25T14:49:16.104Z</time></trkpt><trkpt lat="41.4422225" lon="12.8052419"><ele>4.0</ele><time>2026-04-25T14:49:18.104Z</time></trkpt><trkpt lat="41.442303" lon="12.8053034"><ele>4.0</ele><time>2026-04-25T14:49:20.104Z</time></trkpt><trkpt lat="41.4423826" lon="12.8053875"><ele>4.0</ele><time>2026-04-25T14:49:22.104Z</time></trkpt><trkpt lat="41.4424484" lon="12.8054452"><ele>4.0</ele><time>2026-04-25T14:49:24.104Z</time></trkpt><trkpt lat="41.4425218" lon="12.8055213"><ele>4.0</ele><time>2026-04-25T14:49:26.104Z</time></trkpt><trkpt lat="41.4426348" lon="12.8055722"><ele>4.0</ele><time>2026-04-25T14:49:29.104Z</time></trkpt><trkpt lat="41.4427337" lon="12.8055803"><ele>4.0</ele><time>2026-04-25T14:49:31.109Z</time></trkpt><trkpt lat="41.4428336" lon="12.8055353"><ele>4.0</ele><time>2026-04-25T14:49:33.107Z</time></trkpt><trkpt lat="41.4429422" lon="12.8055792"><ele>4.0</ele><time>2026-04-25T14:49:35.113Z</time></trkpt><trkpt lat="41.4430759" lon="12.8056445"><ele>4.0</ele><time>2026-04-25T14:49:37.108Z</time></trkpt><trkpt lat="41.4431906" lon="12.8057177"><ele>4.0</ele><time>2026-04-25T14:49:38.109Z</time></trkpt><trkpt lat="41.4433091" lon="12.8057888"><ele>4.0</ele><time>2026-04-25T14:49:39.109Z</time></trkpt><trkpt lat="41.443423" lon="12.8058568"><ele>4.0</ele><time>2026-04-25T14:49:40.109Z</time></trkpt><trkpt lat="41.4435339" lon="12.8059151"><ele>4.0</ele><time>2026-04-25T14:49:41.109Z</time></trkpt><trkpt lat="41.4436259" lon="12.8059769"><ele>4.0</ele><time>2026-04-25T14:49:42.109Z</time></trkpt><trkpt lat="41.4436999" lon="12.8060196"><ele>4.0</ele><time>2026-04-25T14:49:43.108Z</time></trkpt><trkpt lat="41.4437699" lon="12.8060455"><ele>4.0</ele><time>2026-04-25T14:49:44.109Z</time></trkpt><trkpt lat="41.4438862" lon="12.8060824"><ele>4.0</ele><time>2026-04-25T14:49:46.108Z</time></trkpt><trkpt lat="41.4439735" lon="12.8061778"><ele>4.0</ele><time>2026-04-25T14:49:48.109Z</time></trkpt><trkpt lat="41.4441044" lon="12.8062897"><ele>4.0</ele><time>2026-04-25T14:49:50.108Z</time></trkpt><trkpt lat="41.444204" lon="12.8063515"><ele>4.0</ele><time>2026-04-25T14:49:51.109Z</time></trkpt><trkpt lat="41.4443089" lon="12.8064257"><ele>4.0</ele><time>2026-04-25T14:49:52.109Z</time></trkpt><trkpt lat="41.4444101" lon="12.8064913"><ele>4.0</ele><time>2026-04-25T14:49:53.108Z</time></trkpt><trkpt lat="41.4444999" lon="12.8065417"><ele>4.0</ele><time>2026-04-25T14:49:54.109Z</time></trkpt><trkpt lat="41.4445905" lon="12.8065874"><ele>4.0</ele><time>2026-04-25T14:49:55.109Z</time></trkpt><trkpt lat="41.4446706" lon="12.806636"><ele>4.0</ele><time>2026-04-25T14:49:56.109Z</time></trkpt><trkpt lat="41.4447563" lon="12.8066866"><ele>4.0</ele><time>2026-04-25T14:49:57.109Z</time></trkpt><trkpt lat="41.4448508" lon="12.8067687"><ele>4.5</ele><time>2026-04-25T14:49:58.109Z</time></trkpt><trkpt lat="41.4449626" lon="12.8068322"><ele>5.0</ele><time>2026-04-25T14:49:59.109Z</time></trkpt><trkpt lat="41.4450685" lon="12.8069044"><ele>5.5</ele><time>2026-04-25T14:50:00.109Z</time></trkpt><trkpt lat="41.4451781" lon="12.8069827"><ele>6.0</ele><time>2026-04-25T14:50:01.108Z</time></trkpt><trkpt lat="41.4453115" lon="12.8070557"><ele>6.0</ele><time>2026-04-25T14:50:02.109Z</time></trkpt><trkpt lat="41.4454468" lon="12.8071428"><ele>6.0</ele><time>2026-04-25T14:50:03.109Z</time></trkpt><trkpt lat="41.4455803" lon="12.8072246"><ele>6.0</ele><time>2026-04-25T14:50:04.109Z</time></trkpt><trkpt lat="41.445698" lon="12.8073116"><ele>6.0</ele><time>2026-04-25T14:50:05.108Z</time></trkpt><trkpt lat="41.4458183" lon="12.807394"><ele>6.0</ele><time>2026-04-25T14:50:06.109Z</time></trkpt><trkpt lat="41.4459414" lon="12.8074787"><ele>6.0</ele><time>2026-04-25T14:50:07.109Z</time></trkpt><trkpt lat="41.4460432" lon="12.807537"><ele>6.0</ele><time>2026-04-25T14:50:08.109Z</time></trkpt><trkpt lat="41.4461406" lon="12.8076037"><ele>6.0</ele><time>2026-04-25T14:50:09.108Z</time></trkpt><trkpt lat="41.4462321" lon="12.8076715"><ele>6.166666666666667</ele><time>2026-04-25T14:50:10.109Z</time></trkpt><trkpt lat="41.4463163" lon="12.8077186"><ele>6.333333333333334</ele><time>2026-04-25T14:50:11.109Z</time></trkpt><trkpt lat="41.4464015" lon="12.8077706"><ele>6.5</ele><time>2026-04-25T14:50:12.109Z</time></trkpt><trkpt lat="41.4464828" lon="12.8078295"><ele>6.666666666666667</ele><time>2026-04-25T14:50:13.108Z</time></trkpt><trkpt lat="41.4465671" lon="12.8078788"><ele>6.833333333333334</ele><time>2026-04-25T14:50:14.109Z</time></trkpt><trkpt lat="41.4466361" lon="12.8079197"><ele>7.0</ele><time>2026-04-25T14:50:15.109Z</time></trkpt><trkpt lat="41.4467361" lon="12.8079764"><ele>7.0</ele><time>2026-04-25T14:50:17.109Z</time></trkpt><trkpt lat="41.4468303" lon="12.8079666"><ele>6.999999999999999</ele><time>2026-04-25T14:50:19.108Z</time></trkpt><trkpt lat="41.4468969" lon="12.8079352"><ele>6.999999999999999</ele><time>2026-04-25T14:50:21.109Z</time></trkpt><trkpt lat="41.44697" lon="12.8080145"><ele>7.0</ele><time>2026-04-25T14:50:23.109Z</time></trkpt><trkpt lat="41.4470413" lon="12.80808"><ele>7.0</ele><time>2026-04-25T14:50:24.108Z</time></trkpt><trkpt lat="41.4471695" lon="12.8081743"><ele>7.25</ele><time>2026-04-25T14:50:26.109Z</time></trkpt><trkpt lat="41.4472409" lon="12.8082388"><ele>7.5</ele><time>2026-04-25T14:50:27.109Z</time></trkpt><trkpt lat="41.4473682" lon="12.8083207"><ele>7.75</ele><time>2026-04-25T14:50:28.109Z</time></trkpt><trkpt lat="41.4475192" lon="12.8083476"><ele>8.0</ele><time>2026-04-25T14:50:29.109Z</time></trkpt><trkpt lat="41.4475859" lon="12.808382"><ele>8.0</ele><time>2026-04-25T14:50:30.109Z</time></trkpt><trkpt lat="41.4476802" lon="12.808435"><ele>8.0</ele><time>2026-04-25T14:50:31.109Z</time></trkpt><trkpt lat="41.4477591" lon="12.8084651"><ele>8.0</ele><time>2026-04-25T14:50:32.109Z</time></trkpt><trkpt lat="41.4478691" lon="12.8084818"><ele>8.0</ele><time>2026-04-25T14:50:34.109Z</time></trkpt><trkpt lat="41.4479734" lon="12.8085255"><ele>8.0</ele><time>2026-04-25T14:50:36.109Z</time></trkpt><trkpt lat="41.448011" lon="12.8086414"><ele>7.800000000000001</ele><time>2026-04-25T14:50:39.109Z</time></trkpt><trkpt lat="41.4480952" lon="12.8087212"><ele>7.6000000000000005</ele><time>2026-04-25T14:50:41.109Z</time></trkpt><trkpt lat="41.4482087" lon="12.8087802"><ele>7.3999999999999995</ele><time>2026-04-25T14:50:42.109Z</time></trkpt><trkpt lat="41.4482792" lon="12.8088082"><ele>7.199999999999999</ele><time>2026-04-25T14:50:43.109Z</time></trkpt><trkpt lat="41.4483608" lon="12.8088718"><ele>7.0</ele><time>2026-04-25T14:50:44.109Z</time></trkpt><trkpt lat="41.4484475" lon="12.8089132"><ele>7.0</ele><time>2026-04-25T14:50:45.109Z</time></trkpt><trkpt lat="41.4485355" lon="12.8090014"><ele>6.999999999999999</ele><time>2026-04-25T14:50:46.109Z</time></trkpt><trkpt lat="41.4486067" lon="12.8090629"><ele>6.999999999999999</ele><time>2026-04-25T14:50:47.108Z</time></trkpt><trkpt lat="41.4486896" lon="12.809131"><ele>7.0</ele><time>2026-04-25T14:50:48.108Z</time></trkpt><trkpt lat="41.4487557" lon="12.8092147"><ele>7.0</ele><time>2026-04-25T14:50:49.109Z</time></trkpt><trkpt lat="41.448812" lon="12.8092623"><ele>7.0</ele><time>2026-04-25T14:50:50.108Z</time></trkpt><trkpt lat="41.4488747" lon="12.8093174"><ele>6.999999999999999</ele><time>2026-04-25T14:50:51.109Z</time></trkpt><trkpt lat="41.4489305" lon="12.8093755"><ele>6.999999999999999</ele><time>2026-04-25T14:50:52.108Z</time></trkpt><trkpt lat="41.4490487" lon="12.8094367"><ele>7.0</ele><time>2026-04-25T14:50:54.109Z</time></trkpt><trkpt lat="41.4491133" lon="12.8094661"><ele>7.0</ele><time>2026-04-25T14:50:56.108Z</time></trkpt><trkpt lat="41.4489986" lon="12.8093576"><ele>7.0</ele><time>2026-04-25T14:51:18.108Z</time></trkpt><trkpt lat="41.4489329" lon="12.8093048"><ele>6.999999999999999</ele><time>2026-04-25T14:51:19.109Z</time></trkpt><trkpt lat="41.4488564" lon="12.8092327"><ele>6.999999999999999</ele><time>2026-04-25T14:51:20.109Z</time></trkpt><trkpt lat="41.4487592" lon="12.8091599"><ele>7.0</ele><time>2026-04-25T14:51:21.109Z</time></trkpt><trkpt lat="41.4486512" lon="12.8091062"><ele>7.0</ele><time>2026-04-25T14:51:22.108Z</time></trkpt><trkpt lat="41.4485533" lon="12.8090395"><ele>7.0</ele><time>2026-04-25T14:51:23.109Z</time></trkpt><trkpt lat="41.4484558" lon="12.8089888"><ele>6.999999999999999</ele><time>2026-04-25T14:51:24.109Z</time></trkpt><trkpt lat="41.4483602" lon="12.8089296"><ele>6.999999999999999</ele><time>2026-04-25T14:51:25.108Z</time></trkpt><trkpt lat="41.4482962" lon="12.8088768"><ele>7.0</ele><time>2026-04-25T14:51:26.108Z</time></trkpt><trkpt lat="41.4482147" lon="12.8088127"><ele>7.0</ele><time>2026-04-25T14:51:27.108Z</time></trkpt><trkpt lat="41.4481403" lon="12.8087755"><ele>7.000000000000001</ele><time>2026-04-25T14:51:28.109Z</time></trkpt><trkpt lat="41.4480582" lon="12.8086931"><ele>7.0</ele><time>2026-04-25T14:51:30.109Z</time></trkpt><trkpt lat="41.4480482" lon="12.8085968"><ele>7.0</ele><time>2026-04-25T14:51:32.109Z</time></trkpt><trkpt lat="41.4480064" lon="12.8085128"><ele>7.0</ele><time>2026-04-25T14:51:34.109Z</time></trkpt><trkpt lat="41.4479192" lon="12.8084975"><ele>7.000000000000001</ele><time>2026-04-25T14:51:36.109Z</time></trkpt><trkpt lat="41.4478357" lon="12.8085422"><ele>7.0</ele><time>2026-04-25T14:51:38.109Z</time></trkpt><trkpt lat="41.4477982" lon="12.8086309"><ele>7.0</ele><time>2026-04-25T14:51:40.109Z</time></trkpt><trkpt lat="41.4477622" lon="12.808735"><ele>6.999999999999999</ele><time>2026-04-25T14:51:43.109Z</time></trkpt><trkpt lat="41.4478334" lon="12.8088254"><ele>6.999999999999999</ele><time>2026-04-25T14:51:46.109Z</time></trkpt><trkpt lat="41.4479282" lon="12.8089135"><ele>7.0</ele><time>2026-04-25T14:51:48.109Z</time></trkpt><trkpt lat="41.4480028" lon="12.8089451"><ele>7.0</ele><time>2026-04-25T14:51:49.109Z</time></trkpt><trkpt lat="41.448083" lon="12.8089786"><ele>7.0</ele><time>2026-04-25T14:51:50.109Z</time></trkpt><trkpt lat="41.4481433" lon="12.8090369"><ele>7.0</ele><time>2026-04-25T14:51:51.109Z</time></trkpt><trkpt lat="41.4482047" lon="12.8090815"><ele>7.0</ele><time>2026-04-25T14:51:52.109Z</time></trkpt><trkpt lat="41.448274" lon="12.8091128"><ele>7.0</ele><time>2026-04-25T14:51:53.109Z</time></trkpt><trkpt lat="41.4483436" lon="12.8091599"><ele>7.0</ele><time>2026-04-25T14:51:54.108Z</time></trkpt><trkpt lat="41.4484062" lon="12.8091922"><ele>7.0</ele><time>2026-04-25T14:51:55.108Z</time></trkpt><trkpt lat="41.4484675" lon="12.809236"><ele>7.0</ele><time>2026-04-25T14:51:56.109Z</time></trkpt><trkpt lat="41.4485185" lon="12.8092876"><ele>7.0</ele><time>2026-04-25T14:51:57.109Z</time></trkpt><trkpt lat="41.4485975" lon="12.8092974"><ele>6.999999999999999</ele><time>2026-04-25T14:51:58.109Z</time></trkpt><trkpt lat="41.4486649" lon="12.8093408"><ele>6.999999999999999</ele><time>2026-04-25T14:51:59.109Z</time></trkpt><trkpt lat="41.4487904" lon="12.8094108"><ele>7.0</ele><time>2026-04-25T14:52:01.108Z</time></trkpt><trkpt lat="41.4488553" lon="12.8094506"><ele>7.0</ele><time>2026-04-25T14:52:02.109Z</time></trkpt><trkpt lat="41.4489467" lon="12.8094891"><ele>7.0</ele><time>2026-04-25T14:52:04.108Z</time></trkpt><trkpt lat="41.4490366" lon="12.8095581"><ele>6.999999999999999</ele><time>2026-04-25T14:52:05.109Z</time></trkpt><trkpt lat="41.4491418" lon="12.8096217"><ele>6.999999999999999</ele><time>2026-04-25T14:52:07.108Z</time></trkpt><trkpt lat="41.449204" lon="12.8096771"><ele>7.0</ele><time>2026-04-25T14:52:08.108Z</time></trkpt><trkpt lat="41.4493008" lon="12.8097587"><ele>7.0</ele><time>2026-04-25T14:52:10.109Z</time></trkpt><trkpt lat="41.4493638" lon="12.8098056"><ele>7.000000000000001</ele><time>2026-04-25T14:52:11.109Z</time></trkpt><trkpt lat="41.4494322" lon="12.8098577"><ele>7.0</ele><time>2026-04-25T14:52:12.109Z</time></trkpt><trkpt lat="41.4495165" lon="12.8099022"><ele>7.0</ele><time>2026-04-25T14:52:14.108Z</time></trkpt><trkpt lat="41.4496299" lon="12.809935"><ele>7.0</ele><time>2026-04-25T14:52:16.109Z</time></trkpt><trkpt lat="41.449695" lon="12.809944"><ele>7.000000000000001</ele><time>2026-04-25T14:52:17.109Z</time></trkpt><trkpt lat="41.4497652" lon="12.8099646"><ele>7.0</ele><time>2026-04-25T14:52:18.109Z</time></trkpt><trkpt lat="41.4498563" lon="12.8100246"><ele>7.333333333333334</ele><time>2026-04-25T14:52:20.109Z</time></trkpt><trkpt lat="41.4499263" lon="12.8100938"><ele>7.666666666666667</ele><time>2026-04-25T14:52:21.109Z</time></trkpt><trkpt lat="41.4500039" lon="12.8101617"><ele>8.0</ele><time>2026-04-25T14:52:22.109Z</time></trkpt><trkpt lat="41.4500768" lon="12.8102348"><ele>8.333333333333334</ele><time>2026-04-25T14:52:23.109Z</time></trkpt><trkpt lat="41.4501448" lon="12.8103023"><ele>8.666666666666666</ele><time>2026-04-25T14:52:24.109Z</time></trkpt><trkpt lat="41.4502018" lon="12.8103544"><ele>9.0</ele><time>2026-04-25T14:52:25.109Z</time></trkpt><trkpt lat="41.4503199" lon="12.8104132"><ele>9.0</ele><time>2026-04-25T14:52:27.109Z</time></trkpt><trkpt lat="41.4503809" lon="12.8104426"><ele>9.0</ele><time>2026-04-25T14:52:28.109Z</time></trkpt><trkpt lat="41.4504861" lon="12.8104814"><ele>9.0</ele><time>2026-04-25T14:52:30.108Z</time></trkpt><trkpt lat="41.4505771" lon="12.810459"><ele>9.0</ele><time>2026-04-25T14:52:32.109Z</time></trkpt><trkpt lat="41.4506487" lon="12.8104838"><ele>9.0</ele><time>2026-04-25T14:52:34.109Z</time></trkpt><trkpt lat="41.4507211" lon="12.8105717"><ele>9.0</ele><time>2026-04-25T14:52:36.109Z</time></trkpt><trkpt lat="41.4507641" lon="12.8106446"><ele>9.0</ele><time>2026-04-25T14:52:37.109Z</time></trkpt><trkpt lat="41.4508473" lon="12.8106907"><ele>9.0</ele><time>2026-04-25T14:52:39.109Z</time></trkpt><trkpt lat="41.4509346" lon="12.8107003"><ele>9.0</ele><time>2026-04-25T14:52:40.109Z</time></trkpt><trkpt lat="41.4510072" lon="12.8107257"><ele>9.0</ele><time>2026-04-25T14:52:41.108Z</time></trkpt><trkpt lat="41.451072" lon="12.8107366"><ele>9.0</ele><time>2026-04-25T14:52:42.109Z</time></trkpt><trkpt lat="41.4511427" lon="12.8107511"><ele>9.0</ele><time>2026-04-25T14:52:43.108Z</time></trkpt><trkpt lat="41.4512123" lon="12.8107655"><ele>9.000000000000002</ele><time>2026-04-25T14:52:44.108Z</time></trkpt><trkpt lat="41.451279" lon="12.8107766"><ele>9.0</ele><time>2026-04-25T14:52:45.109Z</time></trkpt><trkpt lat="41.4513541" lon="12.8107911"><ele>9.0</ele><time>2026-04-25T14:52:46.109Z</time></trkpt><trkpt lat="41.4514183" lon="12.8108169"><ele>9.0</ele><time>2026-04-25T14:52:47.109Z</time></trkpt><trkpt lat="41.4514928" lon="12.8108349"><ele>9.0</ele><time>2026-04-25T14:52:48.108Z</time></trkpt><trkpt lat="41.4515659" lon="12.8108482"><ele>9.000000000000002</ele><time>2026-04-25T14:52:49.109Z</time></trkpt><trkpt lat="41.45164" lon="12.810874"><ele>9.0</ele><time>2026-04-25T14:52:50.109Z</time></trkpt><trkpt lat="41.4517144" lon="12.8108998"><ele>9.166666666666666</ele><time>2026-04-25T14:52:51.109Z</time></trkpt><trkpt lat="41.4518531" lon="12.8109225"><ele>9.333333333333334</ele><time>2026-04-25T14:52:53.108Z</time></trkpt><trkpt lat="41.4519197" lon="12.8109386"><ele>9.5</ele><time>2026-04-25T14:52:54.109Z</time></trkpt><trkpt lat="41.4519858" lon="12.8109542"><ele>9.666666666666668</ele><time>2026-04-25T14:52:55.109Z</time></trkpt><trkpt lat="41.4520539" lon="12.8109684"><ele>9.833333333333334</ele><time>2026-04-25T14:52:56.109Z</time></trkpt><trkpt lat="41.4521247" lon="12.8109808"><ele>10.0</ele><time>2026-04-25T14:52:57.108Z</time></trkpt><trkpt lat="41.4521962" lon="12.811"><ele>10.0</ele><time>2026-04-25T14:52:58.109Z</time></trkpt><trkpt lat="41.4522722" lon="12.8110073"><ele>10.0</ele><time>2026-04-25T14:52:59.109Z</time></trkpt><trkpt lat="41.4523898" lon="12.8110347"><ele>10.0</ele><time>2026-04-25T14:53:01.109Z</time></trkpt><trkpt lat="41.4525132" lon="12.8110408"><ele>10.0</ele><time>2026-04-25T14:53:03.109Z</time></trkpt><trkpt lat="41.4525796" lon="12.8110472"><ele>10.0</ele><time>2026-04-25T14:53:04.109Z</time></trkpt><trkpt lat="41.4526866" lon="12.8110728"><ele>10.0</ele><time>2026-04-25T14:53:06.109Z</time></trkpt><trkpt lat="41.4527613" lon="12.8111201"><ele>10.0</ele><time>2026-04-25T14:53:08.109Z</time></trkpt><trkpt lat="41.4527952" lon="12.8112053"><ele>10.0</ele><time>2026-04-25T14:53:10.108Z</time></trkpt><trkpt lat="41.4527957" lon="12.8113368"><ele>10.0</ele><time>2026-04-25T14:53:12.109Z</time></trkpt><trkpt lat="41.4527949" lon="12.8114921"><ele>10.0</ele><time>2026-04-25T14:53:14.109Z</time></trkpt><trkpt lat="41.4527922" lon="12.8115935"><ele>10.0</ele><time>2026-04-25T14:53:15.109Z</time></trkpt><trkpt lat="41.4527856" lon="12.8116898"><ele>10.0</ele><time>2026-04-25T14:53:16.109Z</time></trkpt><trkpt lat="41.4527696" lon="12.8117925"><ele>10.0</ele><time>2026-04-25T14:53:17.108Z</time></trkpt><trkpt lat="41.4527474" lon="12.8118966"><ele>10.0</ele><time>2026-04-25T14:53:18.109Z</time></trkpt><trkpt lat="41.4527332" lon="12.8119856"><ele>10.0</ele><time>2026-04-25T14:53:19.109Z</time></trkpt><trkpt lat="41.4527244" lon="12.8120843"><ele>10.0</ele><time>2026-04-25T14:53:20.109Z</time></trkpt><trkpt lat="41.4527114" lon="12.8121926"><ele>10.0</ele><time>2026-04-25T14:53:21.109Z</time></trkpt><trkpt lat="41.4526955" lon="12.8123006"><ele>9.666666666666668</ele><time>2026-04-25T14:53:22.108Z</time></trkpt><trkpt lat="41.4526882" lon="12.8123967"><ele>9.333333333333334</ele><time>2026-04-25T14:53:23.108Z</time></trkpt><trkpt lat="41.4526827" lon="12.8125094"><ele>9.0</ele><time>2026-04-25T14:53:24.109Z</time></trkpt><trkpt lat="41.4526676" lon="12.8126241"><ele>8.666666666666666</ele><time>2026-04-25T14:53:25.109Z</time></trkpt><trkpt lat="41.4526435" lon="12.8127422"><ele>8.333333333333332</ele><time>2026-04-25T14:53:26.108Z</time></trkpt><trkpt lat="41.4526373" lon="12.8128293"><ele>8.0</ele><time>2026-04-25T14:53:27.109Z</time></trkpt><trkpt lat="41.4526138" lon="12.8129762"><ele>8.0</ele><time>2026-04-25T14:53:29.109Z</time></trkpt><trkpt lat="41.4526464" lon="12.8131364"><ele>8.0</ele><time>2026-04-25T14:53:31.109Z</time></trkpt><trkpt lat="41.4527535" lon="12.8132607"><ele>8.0</ele><time>2026-04-25T14:53:33.109Z</time></trkpt><trkpt lat="41.4528211" lon="12.8133353"><ele>8.0</ele><time>2026-04-25T14:53:34.109Z</time></trkpt><trkpt lat="41.452891" lon="12.8134247"><ele>8.200000000000001</ele><time>2026-04-25T14:53:35.109Z</time></trkpt><trkpt lat="41.4529659" lon="12.813507"><ele>8.4</ele><time>2026-04-25T14:53:36.109Z</time></trkpt><trkpt lat="41.4530426" lon="12.8135847"><ele>8.600000000000001</ele><time>2026-04-25T14:53:37.109Z</time></trkpt><trkpt lat="41.4531214" lon="12.8136683"><ele>8.8</ele><time>2026-04-25T14:53:38.109Z</time></trkpt><trkpt lat="41.4531977" lon="12.8137385"><ele>9.0</ele><time>2026-04-25T14:53:39.109Z</time></trkpt><trkpt lat="41.4532669" lon="12.8138126"><ele>9.0</ele><time>2026-04-25T14:53:40.109Z</time></trkpt><trkpt lat="41.4533235" lon="12.8138697"><ele>9.0</ele><time>2026-04-25T14:53:41.109Z</time></trkpt><trkpt lat="41.4533973" lon="12.8139443"><ele>9.0</ele><time>2026-04-25T14:53:42.109Z</time></trkpt><trkpt lat="41.4534641" lon="12.814002"><ele>9.0</ele><time>2026-04-25T14:53:43.108Z</time></trkpt><trkpt lat="41.4535325" lon="12.8140522"><ele>9.0</ele><time>2026-04-25T14:53:44.109Z</time></trkpt><trkpt lat="41.4535954" lon="12.8141029"><ele>9.0</ele><time>2026-04-25T14:53:45.108Z</time></trkpt><trkpt lat="41.453701" lon="12.8141978"><ele>9.0</ele><time>2026-04-25T14:53:47.109Z</time></trkpt><trkpt lat="41.4537613" lon="12.8142542"><ele>9.0</ele><time>2026-04-25T14:53:48.109Z</time></trkpt><trkpt lat="41.4538384" lon="12.8143079"><ele>9.0</ele><time>2026-04-25T14:53:49.109Z</time></trkpt><trkpt lat="41.4539073" lon="12.8143403"><ele>9.0</ele><time>2026-04-25T14:53:50.108Z</time></trkpt><trkpt lat="41.4540451" lon="12.8144156"><ele>9.0</ele><time>2026-04-25T14:53:52.109Z</time></trkpt><trkpt lat="41.4541012" lon="12.8144827"><ele>9.4</ele><time>2026-04-25T14:53:54.109Z</time></trkpt><trkpt lat="41.4541119" lon="12.8146215"><ele>9.8</ele><time>2026-04-25T14:53:57.109Z</time></trkpt><trkpt lat="41.4541723" lon="12.8147189"><ele>10.200000000000001</ele><time>2026-04-25T14:53:59.108Z</time></trkpt><trkpt lat="41.4542365" lon="12.8147754"><ele>10.600000000000001</ele><time>2026-04-25T14:54:00.108Z</time></trkpt><trkpt lat="41.4543055" lon="12.81481"><ele>11.0</ele><time>2026-04-25T14:54:01.109Z</time></trkpt><trkpt lat="41.454404" lon="12.8148921"><ele>11.0</ele><time>2026-04-25T14:54:02.109Z</time></trkpt><trkpt lat="41.4544667" lon="12.8149414"><ele>11.0</ele><time>2026-04-25T14:54:03.109Z</time></trkpt><trkpt lat="41.4545481" lon="12.8150025"><ele>11.0</ele><time>2026-04-25T14:54:04.109Z</time></trkpt><trkpt lat="41.4546136" lon="12.8150497"><ele>11.0</ele><time>2026-04-25T14:54:05.109Z</time></trkpt><trkpt lat="41.4547352" lon="12.8150888"><ele>11.0</ele><time>2026-04-25T14:54:07.109Z</time></trkpt><trkpt lat="41.4548076" lon="12.8151232"><ele>11.0</ele><time>2026-04-25T14:54:08.108Z</time></trkpt><trkpt lat="41.4548823" lon="12.8151643"><ele>10.5</ele><time>2026-04-25T14:54:09.109Z</time></trkpt><trkpt lat="41.4549535" lon="12.8152112"><ele>10.0</ele><time>2026-04-25T14:54:10.109Z</time></trkpt><trkpt lat="41.4550149" lon="12.8152306"><ele>9.5</ele><time>2026-04-25T14:54:11.108Z</time></trkpt><trkpt lat="41.4551392" lon="12.8152416"><ele>9.0</ele><time>2026-04-25T14:54:13.109Z</time></trkpt><trkpt lat="41.4552319" lon="12.8152477"><ele>8.5</ele><time>2026-04-25T14:54:14.109Z</time></trkpt><trkpt lat="41.4553055" lon="12.8152525"><ele>8.0</ele><time>2026-04-25T14:54:15.109Z</time></trkpt><trkpt lat="41.4553833" lon="12.8152595"><ele>8.166666666666666</ele><time>2026-04-25T14:54:16.109Z</time></trkpt><trkpt lat="41.4554543" lon="12.8152655"><ele>8.333333333333332</ele><time>2026-04-25T14:54:17.109Z</time></trkpt><trkpt lat="41.45554" lon="12.8152671"><ele>8.5</ele><time>2026-04-25T14:54:18.109Z</time></trkpt><trkpt lat="41.45562" lon="12.8152464"><ele>8.666666666666666</ele><time>2026-04-25T14:54:19.109Z</time></trkpt><trkpt lat="41.45571" lon="12.8152245"><ele>8.833333333333334</ele><time>2026-04-25T14:54:20.108Z</time></trkpt><trkpt lat="41.4557975" lon="12.8152176"><ele>9.0</ele><time>2026-04-25T14:54:21.109Z</time></trkpt><trkpt lat="41.4558769" lon="12.8152109"><ele>9.0</ele><time>2026-04-25T14:54:22.109Z</time></trkpt><trkpt lat="41.4559762" lon="12.8152029"><ele>9.0</ele><time>2026-04-25T14:54:23.109Z</time></trkpt><trkpt lat="41.4560447" lon="12.8151838"><ele>9.0</ele><time>2026-04-25T14:54:24.109Z</time></trkpt><trkpt lat="41.456122" lon="12.8151482"><ele>9.0</ele><time>2026-04-25T14:54:25.109Z</time></trkpt><trkpt lat="41.456207" lon="12.8151135"><ele>9.0</ele><time>2026-04-25T14:54:26.109Z</time></trkpt><trkpt lat="41.4562764" lon="12.8150906"><ele>9.0</ele><time>2026-04-25T14:54:27.109Z</time></trkpt><trkpt lat="41.4563461" lon="12.815032"><ele>9.333333333333334</ele><time>2026-04-25T14:54:28.109Z</time></trkpt><trkpt lat="41.4564057" lon="12.8149961"><ele>9.666666666666666</ele><time>2026-04-25T14:54:29.109Z</time></trkpt><trkpt lat="41.456465" lon="12.814953"><ele>10.0</ele><time>2026-04-25T14:54:30.109Z</time></trkpt><trkpt lat="41.4565677" lon="12.8148849"><ele>10.333333333333332</ele><time>2026-04-25T14:54:32.109Z</time></trkpt><trkpt lat="41.4566688" lon="12.8148342"><ele>10.666666666666666</ele><time>2026-04-25T14:54:34.109Z</time></trkpt><trkpt lat="41.4567533" lon="12.8147845"><ele>11.0</ele><time>2026-04-25T14:54:36.109Z</time></trkpt><trkpt lat="41.4568053" lon="12.814694"><ele>11.0</ele><time>2026-04-25T14:54:38.109Z</time></trkpt><trkpt lat="41.4568155" lon="12.8146103"><ele>11.0</ele><time>2026-04-25T14:54:40.109Z</time></trkpt><trkpt lat="41.4568351" lon="12.8145264"><ele>11.0</ele><time>2026-04-25T14:54:43.108Z</time></trkpt><trkpt lat="41.4568963" lon="12.8144592"><ele>11.0</ele><time>2026-04-25T14:54:45.109Z</time></trkpt><trkpt lat="41.4569978" lon="12.8143758"><ele>11.0</ele><time>2026-04-25T14:54:47.108Z</time></trkpt><trkpt lat="41.4570734" lon="12.8143194"><ele>11.0</ele><time>2026-04-25T14:54:48.109Z</time></trkpt><trkpt lat="41.4571501" lon="12.8142754"><ele>11.75</ele><time>2026-04-25T14:54:49.109Z</time></trkpt><trkpt lat="41.4572485" lon="12.8142133"><ele>12.5</ele><time>2026-04-25T14:54:50.109Z</time></trkpt><trkpt lat="41.4573587" lon="12.8141193"><ele>13.25</ele><time>2026-04-25T14:54:51.109Z</time></trkpt><trkpt lat="41.4574883" lon="12.8140402"><ele>14.0</ele><time>2026-04-25T14:54:52.109Z</time></trkpt><trkpt lat="41.4576243" lon="12.813918"><ele>14.0</ele><time>2026-04-25T14:54:53.108Z</time></trkpt><trkpt lat="41.4577577" lon="12.813797"><ele>14.0</ele><time>2026-04-25T14:54:54.109Z</time></trkpt><trkpt lat="41.4578741" lon="12.8136928"><ele>14.0</ele><time>2026-04-25T14:54:55.109Z</time></trkpt><trkpt lat="41.4579881" lon="12.8135885"><ele>14.0</ele><time>2026-04-25T14:54:56.109Z</time></trkpt><trkpt lat="41.458113" lon="12.8134922"><ele>14.0</ele><time>2026-04-25T14:54:57.109Z</time></trkpt><trkpt lat="41.4582322" lon="12.8133953"><ele>14.0</ele><time>2026-04-25T14:54:58.109Z</time></trkpt><trkpt lat="41.4583505" lon="12.8132989"><ele>14.0</ele><time>2026-04-25T14:54:59.109Z</time></trkpt><trkpt lat="41.4584609" lon="12.8132134"><ele>14.0</ele><time>2026-04-25T14:55:00.109Z</time></trkpt><trkpt lat="41.4585736" lon="12.813123"><ele>14.0</ele><time>2026-04-25T14:55:01.109Z</time></trkpt><trkpt lat="41.4586856" lon="12.8130325"><ele>14.0</ele><time>2026-04-25T14:55:02.109Z</time></trkpt><trkpt lat="41.4587895" lon="12.8129426"><ele>14.0</ele><time>2026-04-25T14:55:03.109Z</time></trkpt><trkpt lat="41.4588907" lon="12.8128611"><ele>14.0</ele><time>2026-04-25T14:55:04.108Z</time></trkpt><trkpt lat="41.4589968" lon="12.8127825"><ele>14.0</ele><time>2026-04-25T14:55:05.108Z</time></trkpt><trkpt lat="41.459101" lon="12.8126928"><ele>14.0</ele><time>2026-04-25T14:55:06.109Z</time></trkpt><trkpt lat="41.4592089" lon="12.8126099"><ele>14.0</ele><time>2026-04-25T14:55:07.109Z</time></trkpt><trkpt lat="41.4593091" lon="12.8125268"><ele>14.0</ele><time>2026-04-25T14:55:08.109Z</time></trkpt><trkpt lat="41.4594035" lon="12.8124572"><ele>14.0</ele><time>2026-04-25T14:55:09.109Z</time></trkpt><trkpt lat="41.4594945" lon="12.8123806"><ele>13.999999999999998</ele><time>2026-04-25T14:55:10.109Z</time></trkpt><trkpt lat="41.4595849" lon="12.812306"><ele>13.999999999999998</ele><time>2026-04-25T14:55:11.108Z</time></trkpt><trkpt lat="41.459666" lon="12.8122336"><ele>14.0</ele><time>2026-04-25T14:55:12.109Z</time></trkpt><trkpt lat="41.4597381" lon="12.8121728"><ele>14.0</ele><time>2026-04-25T14:55:13.108Z</time></trkpt><trkpt lat="41.4598111" lon="12.8121222"><ele>14.142857142857142</ele><time>2026-04-25T14:55:14.109Z</time></trkpt><trkpt lat="41.4598761" lon="12.8120645"><ele>14.285714285714285</ele><time>2026-04-25T14:55:15.108Z</time></trkpt><trkpt lat="41.459938" lon="12.8120186"><ele>14.428571428571429</ele><time>2026-04-25T14:55:16.109Z</time></trkpt><trkpt lat="41.4599937" lon="12.8119607"><ele>14.571428571428571</ele><time>2026-04-25T14:55:17.109Z</time></trkpt><trkpt lat="41.4600504" lon="12.8118983"><ele>14.714285714285714</ele><time>2026-04-25T14:55:18.109Z</time></trkpt><trkpt lat="41.4601013" lon="12.811846"><ele>14.857142857142858</ele><time>2026-04-25T14:55:19.109Z</time></trkpt><trkpt lat="41.4601586" lon="12.8117898"><ele>15.0</ele><time>2026-04-25T14:55:20.109Z</time></trkpt><trkpt lat="41.4602158" lon="12.811748"><ele>15.0</ele><time>2026-04-25T14:55:21.108Z</time></trkpt><trkpt lat="41.4602761" lon="12.8116971"><ele>15.0</ele><time>2026-04-25T14:55:22.108Z</time></trkpt><trkpt lat="41.4603274" lon="12.8116484"><ele>15.0</ele><time>2026-04-25T14:55:23.109Z</time></trkpt><trkpt lat="41.4603798" lon="12.8115987"><ele>15.0</ele><time>2026-04-25T14:55:24.109Z</time></trkpt><trkpt lat="41.4604443" lon="12.8115455"><ele>15.0</ele><time>2026-04-25T14:55:25.109Z</time></trkpt><trkpt lat="41.4605018" lon="12.8115008"><ele>15.0</ele><time>2026-04-25T14:55:26.109Z</time></trkpt><trkpt lat="41.4605622" lon="12.8114592"><ele>15.0</ele><time>2026-04-25T14:55:27.109Z</time></trkpt><trkpt lat="41.4606472" lon="12.811421"><ele>14.666666666666666</ele><time>2026-04-25T14:55:29.109Z</time></trkpt><trkpt lat="41.4607191" lon="12.8114602"><ele>14.333333333333332</ele><time>2026-04-25T14:55:31.109Z</time></trkpt><trkpt lat="41.4608096" lon="12.8114292"><ele>14.0</ele><time>2026-04-25T14:55:33.109Z</time></trkpt><trkpt lat="41.4608908" lon="12.811391"><ele>13.666666666666666</ele><time>2026-04-25T14:55:34.109Z</time></trkpt><trkpt lat="41.4609609" lon="12.8113404"><ele>13.333333333333332</ele><time>2026-04-25T14:55:35.109Z</time></trkpt><trkpt lat="41.4610247" lon="12.8112825"><ele>13.0</ele><time>2026-04-25T14:55:36.109Z</time></trkpt><trkpt lat="41.461109" lon="12.811215"><ele>13.0</ele><time>2026-04-25T14:55:37.109Z</time></trkpt><trkpt lat="41.4611774" lon="12.8111736"><ele>13.0</ele><time>2026-04-25T14:55:38.108Z</time></trkpt><trkpt lat="41.4612809" lon="12.8111015"><ele>13.0</ele><time>2026-04-25T14:55:40.109Z</time></trkpt><trkpt lat="41.4613784" lon="12.8110459"><ele>13.0</ele><time>2026-04-25T14:55:42.108Z</time></trkpt><trkpt lat="41.4614481" lon="12.8110116"><ele>13.0</ele><time>2026-04-25T14:55:43.109Z</time></trkpt><trkpt lat="41.4615269" lon="12.8109723"><ele>13.666666666666666</ele><time>2026-04-25T14:55:44.109Z</time></trkpt><trkpt lat="41.4616565" lon="12.8109199"><ele>14.333333333333332</ele><time>2026-04-25T14:55:46.109Z</time></trkpt><trkpt lat="41.4617214" lon="12.8108883"><ele>15.0</ele><time>2026-04-25T14:55:47.109Z</time></trkpt><trkpt lat="41.4617872" lon="12.8108652"><ele>15.666666666666668</ele><time>2026-04-25T14:55:48.108Z</time></trkpt><trkpt lat="41.4618493" lon="12.8108504"><ele>16.333333333333336</ele><time>2026-04-25T14:55:49.109Z</time></trkpt><trkpt lat="41.461922" lon="12.8108173"><ele>17.0</ele><time>2026-04-25T14:55:50.108Z</time></trkpt><trkpt lat="41.4619912" lon="12.810785"><ele>16.999999999999996</ele><time>2026-04-25T14:55:51.109Z</time></trkpt><trkpt lat="41.4620574" lon="12.8107601"><ele>17.0</ele><time>2026-04-25T14:55:52.109Z</time></trkpt><trkpt lat="41.4621284" lon="12.8107409"><ele>17.0</ele><time>2026-04-25T14:55:53.109Z</time></trkpt><trkpt lat="41.462202" lon="12.8107291"><ele>17.0</ele><time>2026-04-25T14:55:54.109Z</time></trkpt><trkpt lat="41.4622661" lon="12.8107165"><ele>17.0</ele><time>2026-04-25T14:55:55.108Z</time></trkpt><trkpt lat="41.4623312" lon="12.810704"><ele>16.999999999999996</ele><time>2026-04-25T14:55:56.109Z</time></trkpt><trkpt lat="41.4623966" lon="12.8106925"><ele>17.0</ele><time>2026-04-25T14:55:57.109Z</time></trkpt><trkpt lat="41.4624663" lon="12.8106823"><ele>16.857142857142854</ele><time>2026-04-25T14:55:58.109Z</time></trkpt><trkpt lat="41.4625311" lon="12.8106669"><ele>16.714285714285715</ele><time>2026-04-25T14:55:59.109Z</time></trkpt><trkpt lat="41.462599" lon="12.8106518"><ele>16.57142857142857</ele><time>2026-04-25T14:56:00.108Z</time></trkpt><trkpt lat="41.4626669" lon="12.8106371"><ele>16.428571428571427</ele><time>2026-04-25T14:56:01.109Z</time></trkpt><trkpt lat="41.4627317" lon="12.8106168"><ele>16.285714285714285</ele><time>2026-04-25T14:56:02.109Z</time></trkpt><trkpt lat="41.4627931" lon="12.8105972"><ele>16.142857142857142</ele><time>2026-04-25T14:56:03.109Z</time></trkpt><trkpt lat="41.4629012" lon="12.8105756"><ele>16.0</ele><time>2026-04-25T14:56:05.109Z</time></trkpt><trkpt lat="41.4629792" lon="12.8105401"><ele>15.833333333333332</ele><time>2026-04-25T14:56:07.109Z</time></trkpt><trkpt lat="41.4630503" lon="12.810523"><ele>15.666666666666666</ele><time>2026-04-25T14:56:10.109Z</time></trkpt><trkpt lat="41.463065" lon="12.810668"><ele>15.5</ele><time>2026-04-25T14:56:14.109Z</time></trkpt><trkpt lat="41.463069" lon="12.8107786"><ele>15.333333333333332</ele><time>2026-04-25T14:56:15.109Z</time></trkpt><trkpt lat="41.4630781" lon="12.8108961"><ele>15.166666666666666</ele><time>2026-04-25T14:56:16.109Z</time></trkpt><trkpt lat="41.4630866" lon="12.8110105"><ele>15.0</ele><time>2026-04-25T14:56:17.109Z</time></trkpt><trkpt lat="41.4630925" lon="12.8111158"><ele>15.0</ele><time>2026-04-25T14:56:18.109Z</time></trkpt><trkpt lat="41.4631069" lon="12.8112232"><ele>15.0</ele><time>2026-04-25T14:56:19.109Z</time></trkpt><trkpt lat="41.4631106" lon="12.8113209"><ele>15.0</ele><time>2026-04-25T14:56:20.109Z</time></trkpt><trkpt lat="41.4631204" lon="12.8114083"><ele>15.0</ele><time>2026-04-25T14:56:21.109Z</time></trkpt><trkpt lat="41.4630997" lon="12.8115313"><ele>15.0</ele><time>2026-04-25T14:56:23.109Z</time></trkpt><trkpt lat="41.4631637" lon="12.8115402"><ele>15.0</ele><time>2026-04-25T14:56:49.109Z</time></trkpt><trkpt lat="41.4632578" lon="12.8114862"><ele>15.0</ele><time>2026-04-25T14:56:50.109Z</time></trkpt><trkpt lat="41.4633632" lon="12.8114396"><ele>15.0</ele><time>2026-04-25T14:56:51.109Z</time></trkpt><trkpt lat="41.4635117" lon="12.8114019"><ele>15.0</ele><time>2026-04-25T14:56:52.109Z</time></trkpt><trkpt lat="41.4636716" lon="12.8113922"><ele>15.0</ele><time>2026-04-25T14:56:53.109Z</time></trkpt><trkpt lat="41.4638323" lon="12.8113826"><ele>14.75</ele><time>2026-04-25T14:56:54.109Z</time></trkpt><trkpt lat="41.463971" lon="12.811396"><ele>14.5</ele><time>2026-04-25T14:56:55.109Z</time></trkpt><trkpt lat="41.4640984" lon="12.8114142"><ele>14.25</ele><time>2026-04-25T14:56:56.108Z</time></trkpt><trkpt lat="41.4642127" lon="12.8114373"><ele>14.0</ele><time>2026-04-25T14:56:57.109Z</time></trkpt><trkpt lat="41.4643115" lon="12.8114779"><ele>14.0</ele><time>2026-04-25T14:56:58.109Z</time></trkpt><trkpt lat="41.4643722" lon="12.8115222"><ele>13.999999999999998</ele><time>2026-04-25T14:56:59.108Z</time></trkpt><trkpt lat="41.4644261" lon="12.8116005"><ele>13.999999999999998</ele><time>2026-04-25T14:57:00.109Z</time></trkpt><trkpt lat="41.4644833" lon="12.8116893"><ele>14.0</ele><time>2026-04-25T14:57:01.109Z</time></trkpt><trkpt lat="41.4645574" lon="12.8117993"><ele>14.0</ele><time>2026-04-25T14:57:02.109Z</time></trkpt><trkpt lat="41.4646582" lon="12.8118972"><ele>14.0</ele><time>2026-04-25T14:57:03.108Z</time></trkpt><trkpt lat="41.4647749" lon="12.8120214"><ele>14.0</ele><time>2026-04-25T14:57:04.108Z</time></trkpt><trkpt lat="41.4649018" lon="12.8121318"><ele>14.0</ele><time>2026-04-25T14:57:05.108Z</time></trkpt><trkpt lat="41.4650107" lon="12.8122498"><ele>14.0</ele><time>2026-04-25T14:57:06.109Z</time></trkpt><trkpt lat="41.4651206" lon="12.8123781"><ele>14.0</ele><time>2026-04-25T14:57:07.109Z</time></trkpt><trkpt lat="41.4652234" lon="12.812522"><ele>14.0</ele><time>2026-04-25T14:57:08.108Z</time></trkpt><trkpt lat="41.4653215" lon="12.812647"><ele>14.0</ele><time>2026-04-25T14:57:09.109Z</time></trkpt><trkpt lat="41.4654208" lon="12.8127473"><ele>14.0</ele><time>2026-04-25T14:57:10.109Z</time></trkpt><trkpt lat="41.4655347" lon="12.8128413"><ele>14.25</ele><time>2026-04-25T14:57:11.109Z</time></trkpt><trkpt lat="41.4656594" lon="12.8129118"><ele>14.5</ele><time>2026-04-25T14:57:12.109Z</time></trkpt><trkpt lat="41.4657896" lon="12.813"><ele>14.75</ele><time>2026-04-25T14:57:13.109Z</time></trkpt><trkpt lat="41.4659166" lon="12.8130703"><ele>15.0</ele><time>2026-04-25T14:57:14.109Z</time></trkpt><trkpt lat="41.4660365" lon="12.8131228"><ele>15.0</ele><time>2026-04-25T14:57:15.109Z</time></trkpt><trkpt lat="41.4661608" lon="12.8131733"><ele>15.0</ele><time>2026-04-25T14:57:16.109Z</time></trkpt><trkpt lat="41.4663002" lon="12.8132193"><ele>15.0</ele><time>2026-04-25T14:57:17.109Z</time></trkpt><trkpt lat="41.4664153" lon="12.8132637"><ele>15.0</ele><time>2026-04-25T14:57:18.109Z</time></trkpt><trkpt lat="41.46653" lon="12.8132837"><ele>15.166666666666666</ele><time>2026-04-25T14:57:19.108Z</time></trkpt><trkpt lat="41.4666246" lon="12.813287"><ele>15.333333333333332</ele><time>2026-04-25T14:57:20.109Z</time></trkpt><trkpt lat="41.4667042" lon="12.8132834"><ele>15.5</ele><time>2026-04-25T14:57:21.109Z</time></trkpt><trkpt lat="41.4667912" lon="12.8132692"><ele>15.666666666666666</ele><time>2026-04-25T14:57:22.109Z</time></trkpt><trkpt lat="41.4668635" lon="12.8132749"><ele>15.833333333333332</ele><time>2026-04-25T14:57:23.108Z</time></trkpt><trkpt lat="41.4669612" lon="12.8133132"><ele>16.0</ele><time>2026-04-25T14:57:25.109Z</time></trkpt><trkpt lat="41.467037" lon="12.8133715"><ele>16.0</ele><time>2026-04-25T14:57:27.108Z</time></trkpt><trkpt lat="41.4671819" lon="12.8133719"><ele>16.0</ele><time>2026-04-25T14:57:29.109Z</time></trkpt><trkpt lat="41.4672696" lon="12.8133677"><ele>16.0</ele><time>2026-04-25T14:57:30.109Z</time></trkpt><trkpt lat="41.4673748" lon="12.8133702"><ele>16.0</ele><time>2026-04-25T14:57:31.108Z</time></trkpt><trkpt lat="41.4674724" lon="12.8133561"><ele>16.0</ele><time>2026-04-25T14:57:32.108Z</time></trkpt><trkpt lat="41.4675781" lon="12.813339"><ele>16.0</ele><time>2026-04-25T14:57:33.108Z</time></trkpt><trkpt lat="41.4676824" lon="12.8133417"><ele>16.0</ele><time>2026-04-25T14:57:34.109Z</time></trkpt><trkpt lat="41.4677716" lon="12.8133385"><ele>16.0</ele><time>2026-04-25T14:57:35.109Z</time></trkpt><trkpt lat="41.4678613" lon="12.8133404"><ele>16.0</ele><time>2026-04-25T14:57:36.109Z</time></trkpt><trkpt lat="41.4679487" lon="12.8133171"><ele>16.0</ele><time>2026-04-25T14:57:37.109Z</time></trkpt><trkpt lat="41.4680259" lon="12.8133281"><ele>15.8</ele><time>2026-04-25T14:57:38.109Z</time></trkpt><trkpt lat="41.4680916" lon="12.8133258"><ele>15.600000000000001</ele><time>2026-04-25T14:57:39.109Z</time></trkpt><trkpt lat="41.4681647" lon="12.813191"><ele>15.4</ele><time>2026-04-25T14:57:41.109Z</time></trkpt><trkpt lat="41.4681916" lon="12.8130674"><ele>15.2</ele><time>2026-04-25T14:57:43.109Z</time></trkpt><trkpt lat="41.4682875" lon="12.8130422"><ele>15.0</ele><time>2026-04-25T14:57:45.109Z</time></trkpt><trkpt lat="41.4683956" lon="12.8131429"><ele>15.0</ele><time>2026-04-25T14:57:47.109Z</time></trkpt><trkpt lat="41.4684526" lon="12.8132049"><ele>15.0</ele><time>2026-04-25T14:57:48.109Z</time></trkpt><trkpt lat="41.4685131" lon="12.8132827"><ele>15.0</ele><time>2026-04-25T14:57:49.109Z</time></trkpt><trkpt lat="41.468577" lon="12.8133613"><ele>15.0</ele><time>2026-04-25T14:57:50.108Z</time></trkpt><trkpt lat="41.4686243" lon="12.8134575"><ele>15.0</ele><time>2026-04-25T14:57:51.109Z</time></trkpt><trkpt lat="41.4686795" lon="12.8135371"><ele>15.0</ele><time>2026-04-25T14:57:52.109Z</time></trkpt><trkpt lat="41.4687372" lon="12.8136372"><ele>15.0</ele><time>2026-04-25T14:57:53.109Z</time></trkpt><trkpt lat="41.4687643" lon="12.8137206"><ele>15.0</ele><time>2026-04-25T14:57:54.109Z</time></trkpt><trkpt lat="41.468796" lon="12.8138108"><ele>15.0</ele><time>2026-04-25T14:57:55.109Z</time></trkpt><trkpt lat="41.4688267" lon="12.8139212"><ele>15.0</ele><time>2026-04-25T14:57:56.109Z</time></trkpt><trkpt lat="41.4688576" lon="12.8140209"><ele>15.0</ele><time>2026-04-25T14:57:57.109Z</time></trkpt><trkpt lat="41.4688881" lon="12.8141207"><ele>15.0</ele><time>2026-04-25T14:57:58.109Z</time></trkpt><trkpt lat="41.4689185" lon="12.8142087"><ele>15.0</ele><time>2026-04-25T14:57:59.109Z</time></trkpt><trkpt lat="41.4689439" lon="12.8143058"><ele>15.0</ele><time>2026-04-25T14:58:00.109Z</time></trkpt><trkpt lat="41.468978" lon="12.8143955"><ele>15.0</ele><time>2026-04-25T14:58:01.109Z</time></trkpt><trkpt lat="41.4690174" lon="12.8144881"><ele>15.0</ele><time>2026-04-25T14:58:02.108Z</time></trkpt><trkpt lat="41.4690573" lon="12.8145895"><ele>15.0</ele><time>2026-04-25T14:58:03.109Z</time></trkpt><trkpt lat="41.4690973" lon="12.8147019"><ele>15.0</ele><time>2026-04-25T14:58:04.109Z</time></trkpt><trkpt lat="41.4691533" lon="12.8148121"><ele>15.0</ele><time>2026-04-25T14:58:05.109Z</time></trkpt><trkpt lat="41.4691982" lon="12.8149209"><ele>15.0</ele><time>2026-04-25T14:58:06.109Z</time></trkpt><trkpt lat="41.4692295" lon="12.8150313"><ele>15.0</ele><time>2026-04-25T14:58:07.109Z</time></trkpt><trkpt lat="41.4692626" lon="12.8151306"><ele>15.0</ele><time>2026-04-25T14:58:08.109Z</time></trkpt><trkpt lat="41.4692929" lon="12.8152396"><ele>15.0</ele><time>2026-04-25T14:58:09.109Z</time></trkpt><trkpt lat="41.4693322" lon="12.8153466"><ele>15.0</ele><time>2026-04-25T14:58:10.109Z</time></trkpt><trkpt lat="41.4693768" lon="12.8154602"><ele>15.4</ele><time>2026-04-25T14:58:11.109Z</time></trkpt><trkpt lat="41.469422" lon="12.8155784"><ele>15.8</ele><time>2026-04-25T14:58:12.109Z</time></trkpt><trkpt lat="41.4694721" lon="12.8156912"><ele>16.2</ele><time>2026-04-25T14:58:13.109Z</time></trkpt><trkpt lat="41.4695084" lon="12.8158063"><ele>16.6</ele><time>2026-04-25T14:58:14.108Z</time></trkpt><trkpt lat="41.469558" lon="12.8159301"><ele>17.0</ele><time>2026-04-25T14:58:15.109Z</time></trkpt><trkpt lat="41.4695998" lon="12.8160686"><ele>16.4</ele><time>2026-04-25T14:58:16.108Z</time></trkpt><trkpt lat="41.4696397" lon="12.8162005"><ele>15.799999999999999</ele><time>2026-04-25T14:58:17.109Z</time></trkpt><trkpt lat="41.4696826" lon="12.8163154"><ele>15.2</ele><time>2026-04-25T14:58:18.108Z</time></trkpt><trkpt lat="41.4697242" lon="12.81644"><ele>14.6</ele><time>2026-04-25T14:58:19.109Z</time></trkpt><trkpt lat="41.4697722" lon="12.8165609"><ele>14.0</ele><time>2026-04-25T14:58:20.109Z</time></trkpt><trkpt lat="41.4698179" lon="12.816677"><ele>14.000000000000002</ele><time>2026-04-25T14:58:21.109Z</time></trkpt><trkpt lat="41.4698626" lon="12.8167885"><ele>14.0</ele><time>2026-04-25T14:58:22.108Z</time></trkpt><trkpt lat="41.4698979" lon="12.8168921"><ele>14.0</ele><time>2026-04-25T14:58:23.109Z</time></trkpt><trkpt lat="41.46993" lon="12.8169824"><ele>14.0</ele><time>2026-04-25T14:58:24.109Z</time></trkpt><trkpt lat="41.4699623" lon="12.8170816"><ele>14.000000000000002</ele><time>2026-04-25T14:58:25.109Z</time></trkpt><trkpt lat="41.4699885" lon="12.8171839"><ele>14.0</ele><time>2026-04-25T14:58:26.109Z</time></trkpt><trkpt lat="41.470021" lon="12.817295"><ele>14.399999999999999</ele><time>2026-04-25T14:58:27.109Z</time></trkpt><trkpt lat="41.4700619" lon="12.8174087"><ele>14.799999999999999</ele><time>2026-04-25T14:58:28.109Z</time></trkpt><trkpt lat="41.4701119" lon="12.817525"><ele>15.200000000000001</ele><time>2026-04-25T14:58:29.108Z</time></trkpt><trkpt lat="41.4701534" lon="12.8176406"><ele>15.600000000000001</ele><time>2026-04-25T14:58:30.109Z</time></trkpt><trkpt lat="41.4701858" lon="12.8177485"><ele>16.0</ele><time>2026-04-25T14:58:31.109Z</time></trkpt><trkpt lat="41.4702203" lon="12.8178677"><ele>16.333333333333332</ele><time>2026-04-25T14:58:32.108Z</time></trkpt><trkpt lat="41.4702576" lon="12.8179695"><ele>16.666666666666664</ele><time>2026-04-25T14:58:33.109Z</time></trkpt><trkpt lat="41.470286" lon="12.8180627"><ele>17.0</ele><time>2026-04-25T14:58:34.109Z</time></trkpt><trkpt lat="41.4703185" lon="12.8181595"><ele>17.333333333333332</ele><time>2026-04-25T14:58:35.109Z</time></trkpt><trkpt lat="41.4703505" lon="12.8182497"><ele>17.666666666666668</ele><time>2026-04-25T14:58:36.109Z</time></trkpt><trkpt lat="41.4703941" lon="12.81836"><ele>18.0</ele><time>2026-04-25T14:58:38.109Z</time></trkpt><trkpt lat="41.4704063" lon="12.8184567"><ele>18.4</ele><time>2026-04-25T14:58:40.109Z</time></trkpt><trkpt lat="41.4703722" lon="12.8185469"><ele>18.8</ele><time>2026-04-25T14:58:42.109Z</time></trkpt><trkpt lat="41.4702978" lon="12.8186607"><ele>19.2</ele><time>2026-04-25T14:58:44.109Z</time></trkpt><trkpt lat="41.4702816" lon="12.8187521"><ele>19.6</ele><time>2026-04-25T14:58:46.109Z</time></trkpt><trkpt lat="41.4702801" lon="12.818849"><ele>20.0</ele><time>2026-04-25T14:58:48.109Z</time></trkpt><trkpt lat="41.4704488" lon="12.8188908"><ele>19.4</ele><time>2026-04-25T14:58:53.108Z</time></trkpt><trkpt lat="41.4705536" lon="12.8189552"><ele>18.8</ele><time>2026-04-25T14:58:55.109Z</time></trkpt><trkpt lat="41.4705766" lon="12.8190625"><ele>18.2</ele><time>2026-04-25T14:58:56.108Z</time></trkpt><trkpt lat="41.4706148" lon="12.8191756"><ele>17.6</ele><time>2026-04-25T14:58:57.108Z</time></trkpt><trkpt lat="41.4706484" lon="12.8192884"><ele>17.0</ele><time>2026-04-25T14:58:58.108Z</time></trkpt><trkpt lat="41.4706793" lon="12.8194105"><ele>17.0</ele><time>2026-04-25T14:58:59.109Z</time></trkpt><trkpt lat="41.4707234" lon="12.8195088"><ele>17.0</ele><time>2026-04-25T14:59:00.109Z</time></trkpt><trkpt lat="41.4707589" lon="12.819598"><ele>17.0</ele><time>2026-04-25T14:59:01.109Z</time></trkpt><trkpt lat="41.4707964" lon="12.8196935"><ele>17.0</ele><time>2026-04-25T14:59:02.109Z</time></trkpt><trkpt lat="41.4708409" lon="12.8197836"><ele>17.0</ele><time>2026-04-25T14:59:03.108Z</time></trkpt><trkpt lat="41.4708565" lon="12.8198849"><ele>17.0</ele><time>2026-04-25T14:59:04.109Z</time></trkpt><trkpt lat="41.4708872" lon="12.8199946"><ele>17.0</ele><time>2026-04-25T14:59:05.108Z</time></trkpt><trkpt lat="41.4709142" lon="12.8200861"><ele>17.0</ele><time>2026-04-25T14:59:06.108Z</time></trkpt><trkpt lat="41.4709765" lon="12.8202582"><ele>17.0</ele><time>2026-04-25T14:59:08.109Z</time></trkpt><trkpt lat="41.4710216" lon="12.8203939"><ele>17.0</ele><time>2026-04-25T14:59:09.109Z</time></trkpt><trkpt lat="41.4710427" lon="12.8205066"><ele>17.0</ele><time>2026-04-25T14:59:10.109Z</time></trkpt><trkpt lat="41.4710881" lon="12.8206316"><ele>17.0</ele><time>2026-04-25T14:59:11.109Z</time></trkpt><trkpt lat="41.471132" lon="12.820744"><ele>17.0</ele><time>2026-04-25T14:59:12.108Z</time></trkpt><trkpt lat="41.4711638" lon="12.8208275"><ele>17.0</ele><time>2026-04-25T14:59:13.109Z</time></trkpt><trkpt lat="41.4712141" lon="12.8208994"><ele>17.0</ele><time>2026-04-25T14:59:14.109Z</time></trkpt><trkpt lat="41.4712702" lon="12.8209706"><ele>17.0</ele><time>2026-04-25T14:59:15.109Z</time></trkpt><trkpt lat="41.4713279" lon="12.8210347"><ele>17.0</ele><time>2026-04-25T14:59:16.108Z</time></trkpt><trkpt lat="41.471391" lon="12.8210907"><ele>17.0</ele><time>2026-04-25T14:59:17.109Z</time></trkpt><trkpt lat="41.471449" lon="12.8211613"><ele>17.0</ele><time>2026-04-25T14:59:18.109Z</time></trkpt><trkpt lat="41.4715052" lon="12.8212283"><ele>17.0</ele><time>2026-04-25T14:59:19.109Z</time></trkpt><trkpt lat="41.4715707" lon="12.8213004"><ele>17.0</ele><time>2026-04-25T14:59:20.109Z</time></trkpt><trkpt lat="41.4716332" lon="12.821352"><ele>17.0</ele><time>2026-04-25T14:59:21.108Z</time></trkpt><trkpt lat="41.4717319" lon="12.8214271"><ele>17.0</ele><time>2026-04-25T14:59:23.108Z</time></trkpt><trkpt lat="41.4717839" lon="12.8214758"><ele>17.0</ele><time>2026-04-25T14:59:25.109Z</time></trkpt><trkpt lat="41.4718625" lon="12.8215152"><ele>17.0</ele><time>2026-04-25T15:00:20.108Z</time></trkpt><trkpt lat="41.4719579" lon="12.8216022"><ele>17.0</ele><time>2026-04-25T15:02:23.109Z</time></trkpt><trkpt lat="41.4720498" lon="12.8216154"><ele>17.0</ele><time>2026-04-25T15:02:24.109Z</time></trkpt><trkpt lat="41.472124" lon="12.8216351"><ele>17.0</ele><time>2026-04-25T15:02:25.109Z</time></trkpt><trkpt lat="41.4722101" lon="12.8216582"><ele>16.8</ele><time>2026-04-25T15:02:26.109Z</time></trkpt><trkpt lat="41.4722919" lon="12.8216808"><ele>16.6</ele><time>2026-04-25T15:02:27.109Z</time></trkpt><trkpt lat="41.4723889" lon="12.8216853"><ele>16.400000000000002</ele><time>2026-04-25T15:02:28.109Z</time></trkpt><trkpt lat="41.4724999" lon="12.8216876"><ele>16.2</ele><time>2026-04-25T15:02:29.108Z</time></trkpt><trkpt lat="41.4726113" lon="12.8216867"><ele>16.0</ele><time>2026-04-25T15:02:30.109Z</time></trkpt><trkpt lat="41.4727278" lon="12.8216818"><ele>16.0</ele><time>2026-04-25T15:02:31.109Z</time></trkpt><trkpt lat="41.4728402" lon="12.8216765"><ele>16.0</ele><time>2026-04-25T15:02:32.108Z</time></trkpt><trkpt lat="41.472949" lon="12.8216658"><ele>16.0</ele><time>2026-04-25T15:02:33.109Z</time></trkpt><trkpt lat="41.4730629" lon="12.8216523"><ele>16.0</ele><time>2026-04-25T15:02:34.109Z</time></trkpt><trkpt lat="41.4731657" lon="12.821642"><ele>16.0</ele><time>2026-04-25T15:02:35.109Z</time></trkpt><trkpt lat="41.4732734" lon="12.821635"><ele>16.2</ele><time>2026-04-25T15:02:36.108Z</time></trkpt><trkpt lat="41.4733747" lon="12.8216193"><ele>16.400000000000002</ele><time>2026-04-25T15:02:37.109Z</time></trkpt><trkpt lat="41.4734816" lon="12.8216067"><ele>16.6</ele><time>2026-04-25T15:02:38.109Z</time></trkpt><trkpt lat="41.4735923" lon="12.821601"><ele>16.8</ele><time>2026-04-25T15:02:39.109Z</time></trkpt><trkpt lat="41.473709" lon="12.8215902"><ele>17.0</ele><time>2026-04-25T15:02:40.109Z</time></trkpt><trkpt lat="41.4738251" lon="12.8215797"><ele>17.0</ele><time>2026-04-25T15:02:41.109Z</time></trkpt><trkpt lat="41.4739727" lon="12.8215718"><ele>17.0</ele><time>2026-04-25T15:02:42.109Z</time></trkpt><trkpt lat="41.4741102" lon="12.8215652"><ele>17.0</ele><time>2026-04-25T15:02:43.109Z</time></trkpt><trkpt lat="41.4742427" lon="12.821559"><ele>17.0</ele><time>2026-04-25T15:02:44.109Z</time></trkpt><trkpt lat="41.47437" lon="12.8215571"><ele>17.0</ele><time>2026-04-25T15:02:45.109Z</time></trkpt><trkpt lat="41.4744897" lon="12.8215466"><ele>17.0</ele><time>2026-04-25T15:02:46.109Z</time></trkpt><trkpt lat="41.4746058" lon="12.8215409"><ele>17.0</ele><time>2026-04-25T15:02:47.109Z</time></trkpt><trkpt lat="41.4747073" lon="12.8215324"><ele>17.0</ele><time>2026-04-25T15:02:48.108Z</time></trkpt><trkpt lat="41.4748009" lon="12.8215182"><ele>17.0</ele><time>2026-04-25T15:02:49.109Z</time></trkpt><trkpt lat="41.4748912" lon="12.8215088"><ele>17.166666666666668</ele><time>2026-04-25T15:02:50.109Z</time></trkpt><trkpt lat="41.474971" lon="12.8215085"><ele>17.333333333333336</ele><time>2026-04-25T15:02:51.109Z</time></trkpt><trkpt lat="41.4750467" lon="12.8215106"><ele>17.5</ele><time>2026-04-25T15:02:52.109Z</time></trkpt><trkpt lat="41.4751279" lon="12.8215184"><ele>17.666666666666668</ele><time>2026-04-25T15:02:53.109Z</time></trkpt><trkpt lat="41.4752044" lon="12.8215318"><ele>17.833333333333332</ele><time>2026-04-25T15:02:54.109Z</time></trkpt><trkpt lat="41.4752789" lon="12.8215566"><ele>18.0</ele><time>2026-04-25T15:02:55.108Z</time></trkpt><trkpt lat="41.475353" lon="12.8215992"><ele>18.0</ele><time>2026-04-25T15:02:56.109Z</time></trkpt><trkpt lat="41.4754348" lon="12.8216489"><ele>18.0</ele><time>2026-04-25T15:02:57.109Z</time></trkpt><trkpt lat="41.4755044" lon="12.8216971"><ele>18.0</ele><time>2026-04-25T15:02:58.109Z</time></trkpt><trkpt lat="41.4755739" lon="12.8217439"><ele>18.0</ele><time>2026-04-25T15:02:59.109Z</time></trkpt><trkpt lat="41.4756467" lon="12.8217859"><ele>18.0</ele><time>2026-04-25T15:03:00.108Z</time></trkpt><trkpt lat="41.4757142" lon="12.8218409"><ele>18.0</ele><time>2026-04-25T15:03:01.109Z</time></trkpt><trkpt lat="41.4757729" lon="12.8218823"><ele>18.0</ele><time>2026-04-25T15:03:02.109Z</time></trkpt><trkpt lat="41.4758331" lon="12.8219486"><ele>18.0</ele><time>2026-04-25T15:03:03.109Z</time></trkpt><trkpt lat="41.4758856" lon="12.8220218"><ele>18.0</ele><time>2026-04-25T15:03:04.109Z</time></trkpt><trkpt lat="41.4759423" lon="12.8221034"><ele>18.0</ele><time>2026-04-25T15:03:05.109Z</time></trkpt><trkpt lat="41.4759954" lon="12.8221916"><ele>18.0</ele><time>2026-04-25T15:03:06.109Z</time></trkpt><trkpt lat="41.4760436" lon="12.822282"><ele>18.0</ele><time>2026-04-25T15:03:07.109Z</time></trkpt><trkpt lat="41.4760833" lon="12.8223689"><ele>18.0</ele><time>2026-04-25T15:03:08.109Z</time></trkpt><trkpt lat="41.4761139" lon="12.8224696"><ele>18.0</ele><time>2026-04-25T15:03:09.109Z</time></trkpt><trkpt lat="41.4761495" lon="12.8225887"><ele>18.0</ele><time>2026-04-25T15:03:10.109Z</time></trkpt><trkpt lat="41.4761911" lon="12.8227125"><ele>18.0</ele><time>2026-04-25T15:03:11.109Z</time></trkpt><trkpt lat="41.4762307" lon="12.8228743"><ele>18.0</ele><time>2026-04-25T15:03:12.109Z</time></trkpt><trkpt lat="41.4762596" lon="12.8230411"><ele>18.0</ele><time>2026-04-25T15:03:13.109Z</time></trkpt><trkpt lat="41.4762737" lon="12.8232032"><ele>18.0</ele><time>2026-04-25T15:03:14.109Z</time></trkpt><trkpt lat="41.4762871" lon="12.8233885"><ele>18.0</ele><time>2026-04-25T15:03:15.108Z</time></trkpt><trkpt lat="41.4762843" lon="12.823561"><ele>18.0</ele><time>2026-04-25T15:03:16.109Z</time></trkpt><trkpt lat="41.4762768" lon="12.8237301"><ele>17.75</ele><time>2026-04-25T15:03:17.109Z</time></trkpt><trkpt lat="41.4762688" lon="12.8239032"><ele>17.5</ele><time>2026-04-25T15:03:18.109Z</time></trkpt><trkpt lat="41.4762645" lon="12.8240782"><ele>17.25</ele><time>2026-04-25T15:03:19.108Z</time></trkpt><trkpt lat="41.4762524" lon="12.8242397"><ele>17.0</ele><time>2026-04-25T15:03:20.109Z</time></trkpt><trkpt lat="41.4762422" lon="12.8243921"><ele>17.4</ele><time>2026-04-25T15:03:21.109Z</time></trkpt><trkpt lat="41.4762346" lon="12.8245411"><ele>17.799999999999997</ele><time>2026-04-25T15:03:22.109Z</time></trkpt><trkpt lat="41.4762303" lon="12.8246659"><ele>18.2</ele><time>2026-04-25T15:03:23.109Z</time></trkpt><trkpt lat="41.4762435" lon="12.8248115"><ele>18.599999999999998</ele><time>2026-04-25T15:03:24.109Z</time></trkpt><trkpt lat="41.4762472" lon="12.8249695"><ele>19.0</ele><time>2026-04-25T15:03:25.109Z</time></trkpt><trkpt lat="41.4762377" lon="12.8251428"><ele>19.0</ele><time>2026-04-25T15:03:26.109Z</time></trkpt><trkpt lat="41.4762385" lon="12.8253081"><ele>19.0</ele><time>2026-04-25T15:03:27.108Z</time></trkpt><trkpt lat="41.476233" lon="12.8254621"><ele>19.0</ele><time>2026-04-25T15:03:28.109Z</time></trkpt><trkpt lat="41.4762259" lon="12.8256183"><ele>19.0</ele><time>2026-04-25T15:03:29.108Z</time></trkpt><trkpt lat="41.4762225" lon="12.8257811"><ele>19.0</ele><time>2026-04-25T15:03:30.109Z</time></trkpt><trkpt lat="41.4762058" lon="12.8259286"><ele>19.0</ele><time>2026-04-25T15:03:31.109Z</time></trkpt><trkpt lat="41.476183" lon="12.8260694"><ele>19.0</ele><time>2026-04-25T15:03:32.109Z</time></trkpt><trkpt lat="41.4761608" lon="12.8262131"><ele>19.0</ele><time>2026-04-25T15:03:33.108Z</time></trkpt><trkpt lat="41.476144" lon="12.8263612"><ele>19.0</ele><time>2026-04-25T15:03:34.109Z</time></trkpt><trkpt lat="41.4761243" lon="12.8264955"><ele>19.0</ele><time>2026-04-25T15:03:35.109Z</time></trkpt><trkpt lat="41.4760973" lon="12.8266286"><ele>19.0</ele><time>2026-04-25T15:03:36.109Z</time></trkpt><trkpt lat="41.4760636" lon="12.826774"><ele>19.0</ele><time>2026-04-25T15:03:37.108Z</time></trkpt><trkpt lat="41.4760095" lon="12.8269387"><ele>19.0</ele><time>2026-04-25T15:03:38.109Z</time></trkpt><trkpt lat="41.4759588" lon="12.8271181"><ele>19.0</ele><time>2026-04-25T15:03:39.109Z</time></trkpt><trkpt lat="41.4759099" lon="12.8272758"><ele>19.0</ele><time>2026-04-25T15:03:40.109Z</time></trkpt><trkpt lat="41.4758687" lon="12.8274361"><ele>19.0</ele><time>2026-04-25T15:03:41.109Z</time></trkpt><trkpt lat="41.4758296" lon="12.8276026"><ele>19.0</ele><time>2026-04-25T15:03:42.108Z</time></trkpt><trkpt lat="41.4757861" lon="12.8277672"><ele>19.0</ele><time>2026-04-25T15:03:43.109Z</time></trkpt><trkpt lat="41.4757359" lon="12.8279173"><ele>19.0</ele><time>2026-04-25T15:03:44.109Z</time></trkpt><trkpt lat="41.4756867" lon="12.8280779"><ele>19.0</ele><time>2026-04-25T15:03:45.108Z</time></trkpt><trkpt lat="41.4756298" lon="12.8282332"><ele>19.0</ele><time>2026-04-25T15:03:46.109Z</time></trkpt><trkpt lat="41.4755744" lon="12.8283953"><ele>19.0</ele><time>2026-04-25T15:03:47.109Z</time></trkpt><trkpt lat="41.4755219" lon="12.8285484"><ele>19.0</ele><time>2026-04-25T15:03:48.109Z</time></trkpt><trkpt lat="41.4754737" lon="12.8287024"><ele>19.0</ele><time>2026-04-25T15:03:49.108Z</time></trkpt><trkpt lat="41.4754195" lon="12.8288523"><ele>19.0</ele><time>2026-04-25T15:03:50.108Z</time></trkpt><trkpt lat="41.4753694" lon="12.8289932"><ele>19.0</ele><time>2026-04-25T15:03:51.109Z</time></trkpt><trkpt lat="41.4753268" lon="12.8291397"><ele>19.0</ele><time>2026-04-25T15:03:52.109Z</time></trkpt><trkpt lat="41.4752798" lon="12.8292713"><ele>19.0</ele><time>2026-04-25T15:03:53.109Z</time></trkpt><trkpt lat="41.4752281" lon="12.8293935"><ele>19.0</ele><time>2026-04-25T15:03:54.108Z</time></trkpt><trkpt lat="41.4751856" lon="12.8295179"><ele>19.0</ele><time>2026-04-25T15:03:55.109Z</time></trkpt><trkpt lat="41.4751369" lon="12.8296374"><ele>18.8</ele><time>2026-04-25T15:03:56.109Z</time></trkpt><trkpt lat="41.4750814" lon="12.8297678"><ele>18.599999999999998</ele><time>2026-04-25T15:03:57.108Z</time></trkpt><trkpt lat="41.4750374" lon="12.8299004"><ele>18.4</ele><time>2026-04-25T15:03:58.109Z</time></trkpt><trkpt lat="41.4749877" lon="12.8300247"><ele>18.2</ele><time>2026-04-25T15:03:59.108Z</time></trkpt><trkpt lat="41.4749437" lon="12.8301379"><ele>18.0</ele><time>2026-04-25T15:04:00.108Z</time></trkpt><trkpt lat="41.4749088" lon="12.8302262"><ele>18.0</ele><time>2026-04-25T15:04:01.108Z</time></trkpt><trkpt lat="41.4748863" lon="12.8303428"><ele>18.0</ele><time>2026-04-25T15:04:03.109Z</time></trkpt><trkpt lat="41.4749283" lon="12.8304594"><ele>18.0</ele><time>2026-04-25T15:04:05.109Z</time></trkpt><trkpt lat="41.4748927" lon="12.8306304"><ele>18.0</ele><time>2026-04-25T15:04:07.109Z</time></trkpt><trkpt lat="41.4748553" lon="12.8307568"><ele>18.0</ele><time>2026-04-25T15:04:08.109Z</time></trkpt><trkpt lat="41.4748029" lon="12.830905"><ele>18.25</ele><time>2026-04-25T15:04:09.109Z</time></trkpt><trkpt lat="41.4747583" lon="12.8310625"><ele>18.5</ele><time>2026-04-25T15:04:10.109Z</time></trkpt><trkpt lat="41.47471" lon="12.8312176"><ele>18.75</ele><time>2026-04-25T15:04:11.109Z</time></trkpt><trkpt lat="41.474659" lon="12.8313648"><ele>19.0</ele><time>2026-04-25T15:04:12.109Z</time></trkpt><trkpt lat="41.4746091" lon="12.8315053"><ele>19.25</ele><time>2026-04-25T15:04:13.109Z</time></trkpt><trkpt lat="41.4745612" lon="12.8316466"><ele>19.5</ele><time>2026-04-25T15:04:14.109Z</time></trkpt><trkpt lat="41.4745093" lon="12.8317855"><ele>19.75</ele><time>2026-04-25T15:04:15.109Z</time></trkpt><trkpt lat="41.4744642" lon="12.8319227"><ele>20.0</ele><time>2026-04-25T15:04:16.109Z</time></trkpt><trkpt lat="41.4744221" lon="12.8320547"><ele>19.6</ele><time>2026-04-25T15:04:17.108Z</time></trkpt><trkpt lat="41.4743789" lon="12.8321818"><ele>19.2</ele><time>2026-04-25T15:04:18.109Z</time></trkpt><trkpt lat="41.4743381" lon="12.8323091"><ele>18.8</ele><time>2026-04-25T15:04:19.109Z</time></trkpt><trkpt lat="41.4743045" lon="12.832436"><ele>18.4</ele><time>2026-04-25T15:04:20.109Z</time></trkpt><trkpt lat="41.4742705" lon="12.8325548"><ele>18.0</ele><time>2026-04-25T15:04:21.109Z</time></trkpt><trkpt lat="41.4742507" lon="12.8326803"><ele>18.0</ele><time>2026-04-25T15:04:22.109Z</time></trkpt><trkpt lat="41.4742377" lon="12.832809"><ele>18.0</ele><time>2026-04-25T15:04:23.109Z</time></trkpt><trkpt lat="41.474229" lon="12.8329378"><ele>18.0</ele><time>2026-04-25T15:04:24.109Z</time></trkpt><trkpt lat="41.4742265" lon="12.8330622"><ele>18.0</ele><time>2026-04-25T15:04:25.109Z</time></trkpt><trkpt lat="41.4742296" lon="12.8331926"><ele>18.0</ele><time>2026-04-25T15:04:26.109Z</time></trkpt><trkpt lat="41.4742408" lon="12.8333263"><ele>18.0</ele><time>2026-04-25T15:04:27.109Z</time></trkpt><trkpt lat="41.4742495" lon="12.8334492"><ele>18.0</ele><time>2026-04-25T15:04:28.109Z</time></trkpt><trkpt lat="41.4742585" lon="12.8335658"><ele>18.0</ele><time>2026-04-25T15:04:29.109Z</time></trkpt><trkpt lat="41.4742712" lon="12.8336736"><ele>18.0</ele><time>2026-04-25T15:04:30.109Z</time></trkpt><trkpt lat="41.4742901" lon="12.8337733"><ele>18.0</ele><time>2026-04-25T15:04:31.108Z</time></trkpt><trkpt lat="41.4743186" lon="12.8338694"><ele>18.0</ele><time>2026-04-25T15:04:32.108Z</time></trkpt><trkpt lat="41.4743571" lon="12.8339828"><ele>18.75</ele><time>2026-04-25T15:04:33.109Z</time></trkpt><trkpt lat="41.4744049" lon="12.8341103"><ele>19.5</ele><time>2026-04-25T15:04:34.108Z</time></trkpt><trkpt lat="41.4744748" lon="12.8342675"><ele>20.25</ele><time>2026-04-25T15:04:35.108Z</time></trkpt><trkpt lat="41.4745518" lon="12.834402"><ele>21.0</ele><time>2026-04-25T15:04:36.109Z</time></trkpt><trkpt lat="41.474633" lon="12.8345325"><ele>21.0</ele><time>2026-04-25T15:04:37.109Z</time></trkpt><trkpt lat="41.4747176" lon="12.8346324"><ele>21.0</ele><time>2026-04-25T15:04:38.108Z</time></trkpt><trkpt lat="41.4748277" lon="12.8347387"><ele>21.0</ele><time>2026-04-25T15:04:39.109Z</time></trkpt><trkpt lat="41.4749196" lon="12.8348235"><ele>21.0</ele><time>2026-04-25T15:04:40.108Z</time></trkpt><trkpt lat="41.4750321" lon="12.834915"><ele>21.0</ele><time>2026-04-25T15:04:41.109Z</time></trkpt><trkpt lat="41.4751365" lon="12.8349908"><ele>21.0</ele><time>2026-04-25T15:04:42.109Z</time></trkpt><trkpt lat="41.4752526" lon="12.8350469"><ele>21.0</ele><time>2026-04-25T15:04:43.109Z</time></trkpt><trkpt lat="41.475374" lon="12.8350903"><ele>21.0</ele><time>2026-04-25T15:04:44.109Z</time></trkpt><trkpt lat="41.4754957" lon="12.835141"><ele>21.25</ele><time>2026-04-25T15:04:45.109Z</time></trkpt><trkpt lat="41.4756119" lon="12.8351854"><ele>21.5</ele><time>2026-04-25T15:04:46.109Z</time></trkpt><trkpt lat="41.4757268" lon="12.8352279"><ele>21.75</ele><time>2026-04-25T15:04:47.109Z</time></trkpt><trkpt lat="41.4758416" lon="12.8352707"><ele>22.0</ele><time>2026-04-25T15:04:48.109Z</time></trkpt><trkpt lat="41.4759538" lon="12.8353239"><ele>22.0</ele><time>2026-04-25T15:04:49.109Z</time></trkpt><trkpt lat="41.4760646" lon="12.8353656"><ele>22.0</ele><time>2026-04-25T15:04:50.109Z</time></trkpt><trkpt lat="41.4761724" lon="12.835404"><ele>22.0</ele><time>2026-04-25T15:04:51.109Z</time></trkpt><trkpt lat="41.4762802" lon="12.8354469"><ele>22.0</ele><time>2026-04-25T15:04:52.108Z</time></trkpt><trkpt lat="41.4763809" lon="12.8354771"><ele>22.0</ele><time>2026-04-25T15:04:53.109Z</time></trkpt><trkpt lat="41.4764776" lon="12.8355122"><ele>22.166666666666664</ele><time>2026-04-25T15:04:54.109Z</time></trkpt><trkpt lat="41.4765728" lon="12.8355475"><ele>22.333333333333332</ele><time>2026-04-25T15:04:55.109Z</time></trkpt><trkpt lat="41.4766507" lon="12.8355826"><ele>22.5</ele><time>2026-04-25T15:04:56.109Z</time></trkpt><trkpt lat="41.4767226" lon="12.8356187"><ele>22.666666666666668</ele><time>2026-04-25T15:04:57.108Z</time></trkpt><trkpt lat="41.4767909" lon="12.8356488"><ele>22.833333333333336</ele><time>2026-04-25T15:04:58.108Z</time></trkpt><trkpt lat="41.4768588" lon="12.8356578"><ele>23.0</ele><time>2026-04-25T15:04:59.109Z</time></trkpt><trkpt lat="41.4769225" lon="12.835671"><ele>23.0</ele><time>2026-04-25T15:05:00.109Z</time></trkpt><trkpt lat="41.477033" lon="12.8357167"><ele>23.0</ele><time>2026-04-25T15:05:02.109Z</time></trkpt><trkpt lat="41.4770998" lon="12.8357427"><ele>23.0</ele><time>2026-04-25T15:05:03.109Z</time></trkpt><trkpt lat="41.4771649" lon="12.835763"><ele>23.0</ele><time>2026-04-25T15:05:04.109Z</time></trkpt><trkpt lat="41.4772909" lon="12.8358036"><ele>23.0</ele><time>2026-04-25T15:05:06.109Z</time></trkpt><trkpt lat="41.4773522" lon="12.8358322"><ele>23.0</ele><time>2026-04-25T15:05:07.109Z</time></trkpt><trkpt lat="41.4774199" lon="12.8358484"><ele>23.0</ele><time>2026-04-25T15:05:08.109Z</time></trkpt><trkpt lat="41.4774871" lon="12.8358694"><ele>23.0</ele><time>2026-04-25T15:05:09.109Z</time></trkpt><trkpt lat="41.4775599" lon="12.8358918"><ele>23.0</ele><time>2026-04-25T15:05:10.109Z</time></trkpt><trkpt lat="41.4776303" lon="12.835916"><ele>23.0</ele><time>2026-04-25T15:05:11.109Z</time></trkpt><trkpt lat="41.4777019" lon="12.835942"><ele>23.0</ele><time>2026-04-25T15:05:12.109Z</time></trkpt><trkpt lat="41.4777691" lon="12.8359668"><ele>23.0</ele><time>2026-04-25T15:05:13.109Z</time></trkpt><trkpt lat="41.4778352" lon="12.8359935"><ele>23.0</ele><time>2026-04-25T15:05:14.109Z</time></trkpt><trkpt lat="41.4779056" lon="12.836017"><ele>22.666666666666668</ele><time>2026-04-25T15:05:15.109Z</time></trkpt><trkpt lat="41.4779757" lon="12.8360482"><ele>22.333333333333336</ele><time>2026-04-25T15:05:16.108Z</time></trkpt><trkpt lat="41.4780418" lon="12.8360716"><ele>22.0</ele><time>2026-04-25T15:05:17.109Z</time></trkpt><trkpt lat="41.4781068" lon="12.8360997"><ele>21.666666666666668</ele><time>2026-04-25T15:05:18.109Z</time></trkpt><trkpt lat="41.4781687" lon="12.8361248"><ele>21.333333333333332</ele><time>2026-04-25T15:05:19.108Z</time></trkpt><trkpt lat="41.4782961" lon="12.8361791"><ele>21.0</ele><time>2026-04-25T15:05:21.108Z</time></trkpt><trkpt lat="41.4783618" lon="12.8361951"><ele>21.0</ele><time>2026-04-25T15:05:22.109Z</time></trkpt><trkpt lat="41.4784917" lon="12.8362297"><ele>21.0</ele><time>2026-04-25T15:05:24.109Z</time></trkpt><trkpt lat="41.4785584" lon="12.8362522"><ele>21.0</ele><time>2026-04-25T15:05:25.108Z</time></trkpt><trkpt lat="41.4786304" lon="12.8362644"><ele>21.0</ele><time>2026-04-25T15:05:26.109Z</time></trkpt><trkpt lat="41.4786961" lon="12.8362835"><ele>21.0</ele><time>2026-04-25T15:05:27.108Z</time></trkpt><trkpt lat="41.4787634" lon="12.8362959"><ele>21.0</ele><time>2026-04-25T15:05:28.109Z</time></trkpt><trkpt lat="41.4788276" lon="12.8363164"><ele>21.142857142857142</ele><time>2026-04-25T15:05:29.109Z</time></trkpt><trkpt lat="41.4788925" lon="12.8363342"><ele>21.285714285714285</ele><time>2026-04-25T15:05:30.109Z</time></trkpt><trkpt lat="41.4789592" lon="12.8363546"><ele>21.42857142857143</ele><time>2026-04-25T15:05:31.109Z</time></trkpt><trkpt lat="41.4790281" lon="12.8363686"><ele>21.57142857142857</ele><time>2026-04-25T15:05:32.109Z</time></trkpt><trkpt lat="41.4790965" lon="12.8363792"><ele>21.714285714285715</ele><time>2026-04-25T15:05:33.109Z</time></trkpt><trkpt lat="41.4791638" lon="12.836397"><ele>21.857142857142858</ele><time>2026-04-25T15:05:34.109Z</time></trkpt><trkpt lat="41.479233" lon="12.8364115"><ele>22.0</ele><time>2026-04-25T15:05:35.109Z</time></trkpt><trkpt lat="41.4793037" lon="12.8364327"><ele>22.0</ele><time>2026-04-25T15:05:36.109Z</time></trkpt><trkpt lat="41.4793697" lon="12.8364458"><ele>22.0</ele><time>2026-04-25T15:05:37.109Z</time></trkpt><trkpt lat="41.4794922" lon="12.8364914"><ele>22.0</ele><time>2026-04-25T15:05:39.109Z</time></trkpt><trkpt lat="41.4795998" lon="12.8365371"><ele>22.0</ele><time>2026-04-25T15:05:41.109Z</time></trkpt><trkpt lat="41.4797061" lon="12.8365333"><ele>22.0</ele><time>2026-04-25T15:05:43.109Z</time></trkpt><trkpt lat="41.4798269" lon="12.8365055"><ele>22.0</ele><time>2026-04-25T15:05:45.109Z</time></trkpt><trkpt lat="41.4799524" lon="12.8364755"><ele>22.0</ele><time>2026-04-25T15:05:47.109Z</time></trkpt><trkpt lat="41.4800174" lon="12.8364597"><ele>22.0</ele><time>2026-04-25T15:05:48.109Z</time></trkpt><trkpt lat="41.4800854" lon="12.8364431"><ele>22.0</ele><time>2026-04-25T15:05:49.109Z</time></trkpt><trkpt lat="41.4801549" lon="12.8364261"><ele>22.0</ele><time>2026-04-25T15:05:50.109Z</time></trkpt><trkpt lat="41.4802208" lon="12.8364141"><ele>22.0</ele><time>2026-04-25T15:05:51.109Z</time></trkpt><trkpt lat="41.4803464" lon="12.8363845"><ele>21.6</ele><time>2026-04-25T15:05:53.109Z</time></trkpt><trkpt lat="41.4804628" lon="12.8363535"><ele>21.200000000000003</ele><time>2026-04-25T15:05:55.108Z</time></trkpt><trkpt lat="41.4805319" lon="12.8363317"><ele>20.8</ele><time>2026-04-25T15:05:56.109Z</time></trkpt><trkpt lat="41.4806549" lon="12.8362982"><ele>20.4</ele><time>2026-04-25T15:05:58.108Z</time></trkpt><trkpt lat="41.4807196" lon="12.8362771"><ele>20.0</ele><time>2026-04-25T15:05:59.109Z</time></trkpt><trkpt lat="41.4808387" lon="12.8362402"><ele>20.0</ele><time>2026-04-25T15:06:01.109Z</time></trkpt><trkpt lat="41.4809538" lon="12.8362051"><ele>20.0</ele><time>2026-04-25T15:06:03.109Z</time></trkpt><trkpt lat="41.4810739" lon="12.8361691"><ele>20.0</ele><time>2026-04-25T15:06:05.109Z</time></trkpt><trkpt lat="41.4811932" lon="12.8361236"><ele>20.0</ele><time>2026-04-25T15:06:07.108Z</time></trkpt><trkpt lat="41.4813115" lon="12.8360729"><ele>20.2</ele><time>2026-04-25T15:06:09.109Z</time></trkpt><trkpt lat="41.4813768" lon="12.8360573"><ele>20.4</ele><time>2026-04-25T15:06:10.109Z</time></trkpt><trkpt lat="41.4814381" lon="12.8360353"><ele>20.6</ele><time>2026-04-25T15:06:11.109Z</time></trkpt><trkpt lat="41.4815485" lon="12.836"><ele>20.8</ele><time>2026-04-25T15:06:13.109Z</time></trkpt><trkpt lat="41.4816561" lon="12.8359274"><ele>21.0</ele><time>2026-04-25T15:06:15.109Z</time></trkpt><trkpt lat="41.4817642" lon="12.8358482"><ele>21.0</ele><time>2026-04-25T15:06:17.109Z</time></trkpt><trkpt lat="41.4818744" lon="12.8357698"><ele>21.0</ele><time>2026-04-25T15:06:19.109Z</time></trkpt><trkpt lat="41.4819344" lon="12.8357358"><ele>21.0</ele><time>2026-04-25T15:06:20.108Z</time></trkpt><trkpt lat="41.4820447" lon="12.8356852"><ele>21.0</ele><time>2026-04-25T15:06:22.109Z</time></trkpt><trkpt lat="41.4821577" lon="12.8356306"><ele>21.0</ele><time>2026-04-25T15:06:24.109Z</time></trkpt><trkpt lat="41.482218" lon="12.8355977"><ele>21.6</ele><time>2026-04-25T15:06:25.109Z</time></trkpt><trkpt lat="41.4823312" lon="12.8355293"><ele>22.200000000000003</ele><time>2026-04-25T15:06:27.108Z</time></trkpt><trkpt lat="41.4824424" lon="12.8354674"><ele>22.799999999999997</ele><time>2026-04-25T15:06:29.109Z</time></trkpt><trkpt lat="41.4825023" lon="12.8354306"><ele>23.4</ele><time>2026-04-25T15:06:30.108Z</time></trkpt><trkpt lat="41.4826078" lon="12.8353601"><ele>24.0</ele><time>2026-04-25T15:06:32.109Z</time></trkpt><trkpt lat="41.4827165" lon="12.8352943"><ele>24.0</ele><time>2026-04-25T15:06:34.109Z</time></trkpt><trkpt lat="41.4828163" lon="12.8352467"><ele>24.0</ele><time>2026-04-25T15:06:36.109Z</time></trkpt><trkpt lat="41.4829236" lon="12.8351827"><ele>24.0</ele><time>2026-04-25T15:06:38.109Z</time></trkpt><trkpt lat="41.4830238" lon="12.8351142"><ele>24.0</ele><time>2026-04-25T15:06:40.108Z</time></trkpt><trkpt lat="41.4831126" lon="12.8350791"><ele>24.0</ele><time>2026-04-25T15:06:42.109Z</time></trkpt><trkpt lat="41.4831987" lon="12.8350346"><ele>23.5</ele><time>2026-04-25T15:06:44.109Z</time></trkpt><trkpt lat="41.4832939" lon="12.8349707"><ele>23.0</ele><time>2026-04-25T15:06:46.109Z</time></trkpt><trkpt lat="41.4833989" lon="12.8349028"><ele>22.5</ele><time>2026-04-25T15:06:48.109Z</time></trkpt><trkpt lat="41.483506" lon="12.8348321"><ele>22.0</ele><time>2026-04-25T15:06:50.109Z</time></trkpt><trkpt lat="41.483611" lon="12.8347714"><ele>22.0</ele><time>2026-04-25T15:06:52.108Z</time></trkpt><trkpt lat="41.4837093" lon="12.834707"><ele>22.0</ele><time>2026-04-25T15:06:54.109Z</time></trkpt><trkpt lat="41.4838064" lon="12.8346444"><ele>22.0</ele><time>2026-04-25T15:06:56.109Z</time></trkpt><trkpt lat="41.4839018" lon="12.8345896"><ele>22.0</ele><time>2026-04-25T15:06:58.109Z</time></trkpt><trkpt lat="41.4839635" lon="12.8345618"><ele>22.0</ele><time>2026-04-25T15:06:59.109Z</time></trkpt><trkpt lat="41.4840429" lon="12.8345098"><ele>22.200000000000003</ele><time>2026-04-25T15:07:01.108Z</time></trkpt><trkpt lat="41.484142" lon="12.8344486"><ele>22.4</ele><time>2026-04-25T15:07:03.108Z</time></trkpt><trkpt lat="41.4842391" lon="12.8343901"><ele>22.6</ele><time>2026-04-25T15:07:05.108Z</time></trkpt><trkpt lat="41.4843399" lon="12.8343432"><ele>22.799999999999997</ele><time>2026-04-25T15:07:07.109Z</time></trkpt><trkpt lat="41.4844281" lon="12.8342918"><ele>23.0</ele><time>2026-04-25T15:07:09.109Z</time></trkpt><trkpt lat="41.4845175" lon="12.8342332"><ele>23.2</ele><time>2026-04-25T15:07:11.108Z</time></trkpt><trkpt lat="41.4846145" lon="12.8341773"><ele>23.4</ele><time>2026-04-25T15:07:13.109Z</time></trkpt><trkpt lat="41.4847111" lon="12.8341277"><ele>23.599999999999998</ele><time>2026-04-25T15:07:15.109Z</time></trkpt><trkpt lat="41.4848082" lon="12.8340871"><ele>23.799999999999997</ele><time>2026-04-25T15:07:17.109Z</time></trkpt><trkpt lat="41.4849146" lon="12.8340398"><ele>24.0</ele><time>2026-04-25T15:07:19.109Z</time></trkpt><trkpt lat="41.4850186" lon="12.8339984"><ele>24.0</ele><time>2026-04-25T15:07:21.109Z</time></trkpt><trkpt lat="41.4851197" lon="12.8339603"><ele>24.0</ele><time>2026-04-25T15:07:23.108Z</time></trkpt><trkpt lat="41.4852041" lon="12.833926"><ele>24.0</ele><time>2026-04-25T15:07:25.109Z</time></trkpt><trkpt lat="41.4853019" lon="12.8338681"><ele>24.0</ele><time>2026-04-25T15:07:27.109Z</time></trkpt><trkpt lat="41.4853923" lon="12.8338066"><ele>24.0</ele><time>2026-04-25T15:07:29.109Z</time></trkpt><trkpt lat="41.4854767" lon="12.8337404"><ele>24.4</ele><time>2026-04-25T15:07:31.109Z</time></trkpt><trkpt lat="41.4855761" lon="12.8336898"><ele>24.799999999999997</ele><time>2026-04-25T15:07:33.109Z</time></trkpt><trkpt lat="41.4856676" lon="12.8336322"><ele>25.200000000000003</ele><time>2026-04-25T15:07:35.109Z</time></trkpt><trkpt lat="41.4857568" lon="12.833585"><ele>25.6</ele><time>2026-04-25T15:07:37.109Z</time></trkpt><trkpt lat="41.4858409" lon="12.8335372"><ele>26.0</ele><time>2026-04-25T15:07:39.109Z</time></trkpt><trkpt lat="41.4859212" lon="12.8334878"><ele>25.999999999999996</ele><time>2026-04-25T15:07:41.109Z</time></trkpt><trkpt lat="41.4859995" lon="12.8334508"><ele>26.0</ele><time>2026-04-25T15:07:43.109Z</time></trkpt><trkpt lat="41.4860801" lon="12.8334185"><ele>26.0</ele><time>2026-04-25T15:07:45.109Z</time></trkpt><trkpt lat="41.4861649" lon="12.8333733"><ele>26.0</ele><time>2026-04-25T15:07:47.109Z</time></trkpt><trkpt lat="41.4862459" lon="12.8333365"><ele>25.999999999999996</ele><time>2026-04-25T15:07:49.109Z</time></trkpt><trkpt lat="41.486336" lon="12.8333048"><ele>26.0</ele><time>2026-04-25T15:07:51.108Z</time></trkpt><trkpt lat="41.4864201" lon="12.8332597"><ele>26.200000000000003</ele><time>2026-04-25T15:07:53.109Z</time></trkpt><trkpt lat="41.4864941" lon="12.8332202"><ele>26.400000000000002</ele><time>2026-04-25T15:07:55.108Z</time></trkpt><trkpt lat="41.4865827" lon="12.8331705"><ele>26.6</ele><time>2026-04-25T15:07:57.108Z</time></trkpt><trkpt lat="41.4866695" lon="12.8331136"><ele>26.8</ele><time>2026-04-25T15:07:59.109Z</time></trkpt><trkpt lat="41.4867536" lon="12.8330723"><ele>27.0</ele><time>2026-04-25T15:08:01.109Z</time></trkpt><trkpt lat="41.4868415" lon="12.8330308"><ele>27.0</ele><time>2026-04-25T15:08:03.109Z</time></trkpt><trkpt lat="41.4869437" lon="12.8329936"><ele>27.000000000000004</ele><time>2026-04-25T15:08:05.108Z</time></trkpt><trkpt lat="41.48704" lon="12.8329735"><ele>27.000000000000004</ele><time>2026-04-25T15:08:07.109Z</time></trkpt><trkpt lat="41.4871349" lon="12.8329544"><ele>27.0</ele><time>2026-04-25T15:08:09.109Z</time></trkpt><trkpt lat="41.4872271" lon="12.8329232"><ele>27.0</ele><time>2026-04-25T15:08:11.108Z</time></trkpt><trkpt lat="41.4873225" lon="12.8328789"><ele>26.6</ele><time>2026-04-25T15:08:13.109Z</time></trkpt><trkpt lat="41.4874177" lon="12.8328351"><ele>26.200000000000003</ele><time>2026-04-25T15:08:15.109Z</time></trkpt><trkpt lat="41.4875102" lon="12.8328044"><ele>25.8</ele><time>2026-04-25T15:08:17.109Z</time></trkpt><trkpt lat="41.4875923" lon="12.832784"><ele>25.4</ele><time>2026-04-25T15:08:19.109Z</time></trkpt><trkpt lat="41.4876955" lon="12.8327536"><ele>25.0</ele><time>2026-04-25T15:08:21.108Z</time></trkpt><trkpt lat="41.4877996" lon="12.8327386"><ele>25.0</ele><time>2026-04-25T15:08:23.109Z</time></trkpt><trkpt lat="41.4879158" lon="12.8327145"><ele>25.0</ele><time>2026-04-25T15:08:25.109Z</time></trkpt><trkpt lat="41.4880176" lon="12.8327007"><ele>25.0</ele><time>2026-04-25T15:08:27.108Z</time></trkpt><trkpt lat="41.4881214" lon="12.8326848"><ele>25.0</ele><time>2026-04-25T15:08:29.109Z</time></trkpt><trkpt lat="41.488227" lon="12.8326653"><ele>25.0</ele><time>2026-04-25T15:08:31.109Z</time></trkpt><trkpt lat="41.4883441" lon="12.8326403"><ele>24.833333333333336</ele><time>2026-04-25T15:08:33.108Z</time></trkpt><trkpt lat="41.4884665" lon="12.8326269"><ele>24.666666666666668</ele><time>2026-04-25T15:08:35.109Z</time></trkpt><trkpt lat="41.4885441" lon="12.8326272"><ele>24.5</ele><time>2026-04-25T15:08:36.109Z</time></trkpt><trkpt lat="41.4886185" lon="12.8326228"><ele>24.333333333333336</ele><time>2026-04-25T15:08:37.109Z</time></trkpt><trkpt lat="41.4886994" lon="12.8326156"><ele>24.166666666666668</ele><time>2026-04-25T15:08:38.109Z</time></trkpt><trkpt lat="41.4887794" lon="12.8326195"><ele>24.0</ele><time>2026-04-25T15:08:39.109Z</time></trkpt><trkpt lat="41.4888507" lon="12.8326197"><ele>23.999999999999996</ele><time>2026-04-25T15:08:40.109Z</time></trkpt><trkpt lat="41.4889247" lon="12.8326253"><ele>24.0</ele><time>2026-04-25T15:08:41.109Z</time></trkpt><trkpt lat="41.4889989" lon="12.8326238"><ele>24.0</ele><time>2026-04-25T15:08:42.109Z</time></trkpt><trkpt lat="41.4890703" lon="12.8326319"><ele>24.0</ele><time>2026-04-25T15:08:43.108Z</time></trkpt><trkpt lat="41.4891436" lon="12.8326295"><ele>24.0</ele><time>2026-04-25T15:08:44.108Z</time></trkpt><trkpt lat="41.4892207" lon="12.8326312"><ele>23.999999999999996</ele><time>2026-04-25T15:08:45.109Z</time></trkpt><trkpt lat="41.4892916" lon="12.8326301"><ele>24.0</ele><time>2026-04-25T15:08:46.109Z</time></trkpt><trkpt lat="41.4893674" lon="12.8326409"><ele>23.999999999999996</ele><time>2026-04-25T15:08:47.108Z</time></trkpt><trkpt lat="41.4894428" lon="12.8326484"><ele>24.0</ele><time>2026-04-25T15:08:48.109Z</time></trkpt><trkpt lat="41.4895096" lon="12.8326533"><ele>24.0</ele><time>2026-04-25T15:08:49.109Z</time></trkpt><trkpt lat="41.489582" lon="12.8326594"><ele>24.0</ele><time>2026-04-25T15:08:50.109Z</time></trkpt><trkpt lat="41.4896516" lon="12.8326652"><ele>24.0</ele><time>2026-04-25T15:08:51.109Z</time></trkpt><trkpt lat="41.4897187" lon="12.8326795"><ele>23.999999999999996</ele><time>2026-04-25T15:08:52.108Z</time></trkpt><trkpt lat="41.4897843" lon="12.8326941"><ele>24.0</ele><time>2026-04-25T15:08:53.109Z</time></trkpt><trkpt lat="41.4898527" lon="12.8327024"><ele>24.2</ele><time>2026-04-25T15:08:54.109Z</time></trkpt><trkpt lat="41.4899181" lon="12.8327175"><ele>24.4</ele><time>2026-04-25T15:08:55.109Z</time></trkpt><trkpt lat="41.4900467" lon="12.832724"><ele>24.6</ele><time>2026-04-25T15:08:57.109Z</time></trkpt><trkpt lat="41.490117" lon="12.8327212"><ele>24.8</ele><time>2026-04-25T15:08:58.109Z</time></trkpt><trkpt lat="41.4901813" lon="12.8327239"><ele>25.0</ele><time>2026-04-25T15:08:59.108Z</time></trkpt><trkpt lat="41.4903011" lon="12.8327444"><ele>25.000000000000004</ele><time>2026-04-25T15:09:01.109Z</time></trkpt><trkpt lat="41.4903664" lon="12.8327524"><ele>25.0</ele><time>2026-04-25T15:09:02.109Z</time></trkpt><trkpt lat="41.4904792" lon="12.8327628"><ele>25.0</ele><time>2026-04-25T15:09:04.109Z</time></trkpt><trkpt lat="41.4906057" lon="12.8327674"><ele>25.0</ele><time>2026-04-25T15:09:06.109Z</time></trkpt><trkpt lat="41.4906741" lon="12.8327732"><ele>25.000000000000004</ele><time>2026-04-25T15:09:07.109Z</time></trkpt><trkpt lat="41.490742" lon="12.8327685"><ele>25.0</ele><time>2026-04-25T15:09:08.108Z</time></trkpt><trkpt lat="41.4908727" lon="12.8327586"><ele>25.6</ele><time>2026-04-25T15:09:10.109Z</time></trkpt><trkpt lat="41.4909394" lon="12.83277"><ele>26.2</ele><time>2026-04-25T15:09:11.109Z</time></trkpt><trkpt lat="41.4910773" lon="12.8327743"><ele>26.799999999999997</ele><time>2026-04-25T15:09:13.109Z</time></trkpt><trkpt lat="41.4912029" lon="12.832787"><ele>27.4</ele><time>2026-04-25T15:09:15.109Z</time></trkpt><trkpt lat="41.4912669" lon="12.832797"><ele>28.0</ele><time>2026-04-25T15:09:16.108Z</time></trkpt><trkpt lat="41.4913829" lon="12.8328075"><ele>28.000000000000004</ele><time>2026-04-25T15:09:18.109Z</time></trkpt><trkpt lat="41.4915037" lon="12.8328175"><ele>28.0</ele><time>2026-04-25T15:09:20.109Z</time></trkpt><trkpt lat="41.4915694" lon="12.8328267"><ele>28.0</ele><time>2026-04-25T15:09:21.109Z</time></trkpt><trkpt lat="41.4916403" lon="12.8328388"><ele>28.0</ele><time>2026-04-25T15:09:22.109Z</time></trkpt><trkpt lat="41.4917098" lon="12.8328429"><ele>28.000000000000004</ele><time>2026-04-25T15:09:23.109Z</time></trkpt><trkpt lat="41.4917788" lon="12.832843"><ele>28.0</ele><time>2026-04-25T15:09:24.109Z</time></trkpt><trkpt lat="41.4918446" lon="12.832855"><ele>28.0</ele><time>2026-04-25T15:09:25.108Z</time></trkpt><trkpt lat="41.4919081" lon="12.8328656"><ele>27.999999999999996</ele><time>2026-04-25T15:09:26.109Z</time></trkpt><trkpt lat="41.492036" lon="12.8328848"><ele>27.999999999999996</ele><time>2026-04-25T15:09:28.108Z</time></trkpt><trkpt lat="41.4921635" lon="12.8329052"><ele>28.0</ele><time>2026-04-25T15:09:30.108Z</time></trkpt><trkpt lat="41.4922275" lon="12.83292"><ele>28.0</ele><time>2026-04-25T15:09:31.109Z</time></trkpt><trkpt lat="41.4923354" lon="12.83293"><ele>28.2</ele><time>2026-04-25T15:09:33.109Z</time></trkpt><trkpt lat="41.4924521" lon="12.8329061"><ele>28.4</ele><time>2026-04-25T15:09:35.109Z</time></trkpt><trkpt lat="41.4925169" lon="12.8328853"><ele>28.599999999999998</ele><time>2026-04-25T15:09:36.108Z</time></trkpt><trkpt lat="41.4926392" lon="12.8328574"><ele>28.799999999999997</ele><time>2026-04-25T15:09:38.109Z</time></trkpt><trkpt lat="41.4927398" lon="12.8327915"><ele>29.0</ele><time>2026-04-25T15:09:40.109Z</time></trkpt><trkpt lat="41.4928434" lon="12.8327748"><ele>28.799999999999997</ele><time>2026-04-25T15:09:42.109Z</time></trkpt><trkpt lat="41.4929454" lon="12.8327867"><ele>28.599999999999998</ele><time>2026-04-25T15:09:44.109Z</time></trkpt><trkpt lat="41.4930414" lon="12.8327812"><ele>28.4</ele><time>2026-04-25T15:09:46.109Z</time></trkpt><trkpt lat="41.4931334" lon="12.8327907"><ele>28.2</ele><time>2026-04-25T15:09:48.109Z</time></trkpt><trkpt lat="41.4932475" lon="12.832808"><ele>28.0</ele><time>2026-04-25T15:09:50.109Z</time></trkpt><trkpt lat="41.4933623" lon="12.8328252"><ele>28.0</ele><time>2026-04-25T15:09:52.109Z</time></trkpt><trkpt lat="41.4934248" lon="12.8328367"><ele>27.999999999999996</ele><time>2026-04-25T15:09:53.109Z</time></trkpt><trkpt lat="41.4935438" lon="12.8328978"><ele>27.999999999999996</ele><time>2026-04-25T15:09:55.108Z</time></trkpt><trkpt lat="41.4936328" lon="12.832923"><ele>28.0</ele><time>2026-04-25T15:09:56.109Z</time></trkpt><trkpt lat="41.4937253" lon="12.8329353"><ele>28.0</ele><time>2026-04-25T15:09:57.108Z</time></trkpt><trkpt lat="41.4938401" lon="12.8329632"><ele>27.799999999999997</ele><time>2026-04-25T15:09:58.109Z</time></trkpt><trkpt lat="41.4939319" lon="12.8329918"><ele>27.599999999999998</ele><time>2026-04-25T15:09:59.109Z</time></trkpt><trkpt lat="41.4940231" lon="12.8330289"><ele>27.400000000000002</ele><time>2026-04-25T15:10:00.109Z</time></trkpt><trkpt lat="41.4941082" lon="12.8330466"><ele>27.200000000000003</ele><time>2026-04-25T15:10:01.109Z</time></trkpt><trkpt lat="41.4941807" lon="12.8330671"><ele>27.0</ele><time>2026-04-25T15:10:02.109Z</time></trkpt><trkpt lat="41.4942993" lon="12.8331263"><ele>27.0</ele><time>2026-04-25T15:10:04.109Z</time></trkpt><trkpt lat="41.4943554" lon="12.8331716"><ele>27.000000000000004</ele><time>2026-04-25T15:10:05.109Z</time></trkpt><trkpt lat="41.4944523" lon="12.8332423"><ele>27.000000000000004</ele><time>2026-04-25T15:10:07.109Z</time></trkpt><trkpt lat="41.4945709" lon="12.8332137"><ele>27.0</ele><time>2026-04-25T15:10:09.109Z</time></trkpt><trkpt lat="41.494648" lon="12.8332182"><ele>27.0</ele><time>2026-04-25T15:10:10.109Z</time></trkpt><trkpt lat="41.4947414" lon="12.8332412"><ele>26.400000000000002</ele><time>2026-04-25T15:10:11.109Z</time></trkpt><trkpt lat="41.4948356" lon="12.8332695"><ele>25.800000000000004</ele><time>2026-04-25T15:10:12.109Z</time></trkpt><trkpt lat="41.4949252" lon="12.8333069"><ele>25.2</ele><time>2026-04-25T15:10:13.109Z</time></trkpt><trkpt lat="41.4950062" lon="12.833335"><ele>24.6</ele><time>2026-04-25T15:10:14.109Z</time></trkpt><trkpt lat="41.4950947" lon="12.833366"><ele>24.0</ele><time>2026-04-25T15:10:15.109Z</time></trkpt><trkpt lat="41.4951848" lon="12.833393"><ele>24.0</ele><time>2026-04-25T15:10:16.109Z</time></trkpt><trkpt lat="41.495278" lon="12.8334177"><ele>24.0</ele><time>2026-04-25T15:10:17.109Z</time></trkpt><trkpt lat="41.4953737" lon="12.8334436"><ele>24.0</ele><time>2026-04-25T15:10:18.109Z</time></trkpt><trkpt lat="41.4954666" lon="12.8334657"><ele>24.0</ele><time>2026-04-25T15:10:19.109Z</time></trkpt><trkpt lat="41.4955664" lon="12.8334883"><ele>24.0</ele><time>2026-04-25T15:10:20.109Z</time></trkpt><trkpt lat="41.4956653" lon="12.8335067"><ele>24.5</ele><time>2026-04-25T15:10:21.109Z</time></trkpt><trkpt lat="41.4957618" lon="12.833532"><ele>25.0</ele><time>2026-04-25T15:10:22.108Z</time></trkpt><trkpt lat="41.4958545" lon="12.8335542"><ele>25.5</ele><time>2026-04-25T15:10:23.108Z</time></trkpt><trkpt lat="41.4959394" lon="12.8335708"><ele>26.0</ele><time>2026-04-25T15:10:24.109Z</time></trkpt><trkpt lat="41.4960104" lon="12.833588"><ele>26.5</ele><time>2026-04-25T15:10:25.109Z</time></trkpt><trkpt lat="41.4960842" lon="12.8336075"><ele>27.0</ele><time>2026-04-25T15:10:26.109Z</time></trkpt><trkpt lat="41.4961511" lon="12.8336209"><ele>27.0</ele><time>2026-04-25T15:10:27.108Z</time></trkpt><trkpt lat="41.4962197" lon="12.8336403"><ele>27.0</ele><time>2026-04-25T15:10:28.109Z</time></trkpt><trkpt lat="41.4963346" lon="12.8336649"><ele>27.0</ele><time>2026-04-25T15:10:30.108Z</time></trkpt><trkpt lat="41.4964243" lon="12.8336829"><ele>27.0</ele><time>2026-04-25T15:10:32.109Z</time></trkpt><trkpt lat="41.4965067" lon="12.8336937"><ele>27.0</ele><time>2026-04-25T15:10:34.109Z</time></trkpt><trkpt lat="41.4965703" lon="12.8337001"><ele>27.0</ele><time>2026-04-25T15:10:37.109Z</time></trkpt><trkpt lat="41.4965229" lon="12.8336076"><ele>27.0</ele><time>2026-04-25T15:10:41.108Z</time></trkpt><trkpt lat="41.4964639" lon="12.8335524"><ele>27.0</ele><time>2026-04-25T15:10:44.109Z</time></trkpt><trkpt lat="41.4963885" lon="12.8335511"><ele>27.0</ele><time>2026-04-25T15:10:49.109Z</time></trkpt><trkpt lat="41.496315" lon="12.8335338"><ele>27.0</ele><time>2026-04-25T15:10:53.108Z</time></trkpt><trkpt lat="41.4962392" lon="12.8335051"><ele>27.0</ele><time>2026-04-25T15:10:56.109Z</time></trkpt><trkpt lat="41.4961467" lon="12.8334637"><ele>27.0</ele><time>2026-04-25T15:10:59.109Z</time></trkpt><trkpt lat="41.4960798" lon="12.8334517"><ele>27.0</ele><time>2026-04-25T15:11:01.109Z</time></trkpt><trkpt lat="41.4960125" lon="12.8334485"><ele>27.0</ele><time>2026-04-25T15:11:03.109Z</time></trkpt><trkpt lat="41.4959542" lon="12.8334945"><ele>27.0</ele><time>2026-04-25T15:11:06.109Z</time></trkpt><trkpt lat="41.4959633" lon="12.8335859"><ele>27.0</ele><time>2026-04-25T15:11:10.109Z</time></trkpt><trkpt lat="41.4960326" lon="12.8335945"><ele>27.0</ele><time>2026-04-25T15:11:11.109Z</time></trkpt><trkpt lat="41.4960976" lon="12.8336191"><ele>27.0</ele><time>2026-04-25T15:11:12.109Z</time></trkpt><trkpt lat="41.4961618" lon="12.8336307"><ele>27.0</ele><time>2026-04-25T15:11:13.109Z</time></trkpt><trkpt lat="41.4962329" lon="12.8336447"><ele>27.0</ele><time>2026-04-25T15:11:14.109Z</time></trkpt><trkpt lat="41.4963147" lon="12.8336614"><ele>27.0</ele><time>2026-04-25T15:11:15.109Z</time></trkpt><trkpt lat="41.4963927" lon="12.8336792"><ele>27.0</ele><time>2026-04-25T15:11:16.109Z</time></trkpt><trkpt lat="41.4964751" lon="12.8336945"><ele>27.0</ele><time>2026-04-25T15:11:17.109Z</time></trkpt><trkpt lat="41.4965636" lon="12.8337124"><ele>27.0</ele><time>2026-04-25T15:11:18.108Z</time></trkpt><trkpt lat="41.4966529" lon="12.8337297"><ele>27.0</ele><time>2026-04-25T15:11:19.109Z</time></trkpt><trkpt lat="41.4967388" lon="12.8337396"><ele>27.0</ele><time>2026-04-25T15:11:20.109Z</time></trkpt><trkpt lat="41.4968244" lon="12.8337637"><ele>27.0</ele><time>2026-04-25T15:11:21.109Z</time></trkpt><trkpt lat="41.4969074" lon="12.8337719"><ele>27.0</ele><time>2026-04-25T15:11:22.108Z</time></trkpt><trkpt lat="41.4969897" lon="12.8337928"><ele>27.0</ele><time>2026-04-25T15:11:23.109Z</time></trkpt><trkpt lat="41.4970796" lon="12.8338094"><ele>27.0</ele><time>2026-04-25T15:11:24.109Z</time></trkpt><trkpt lat="41.4971657" lon="12.8338379"><ele>27.0</ele><time>2026-04-25T15:11:25.109Z</time></trkpt><trkpt lat="41.4972318" lon="12.8338549"><ele>27.0</ele><time>2026-04-25T15:11:26.109Z</time></trkpt><trkpt lat="41.4973019" lon="12.8338766"><ele>27.0</ele><time>2026-04-25T15:11:27.109Z</time></trkpt><trkpt lat="41.4973728" lon="12.8338853"><ele>27.0</ele><time>2026-04-25T15:11:28.109Z</time></trkpt><trkpt lat="41.4974421" lon="12.833889"><ele>27.0</ele><time>2026-04-25T15:11:29.109Z</time></trkpt><trkpt lat="41.4975689" lon="12.8339275"><ele>27.0</ele><time>2026-04-25T15:11:31.109Z</time></trkpt><trkpt lat="41.4976301" lon="12.8339566"><ele>27.0</ele><time>2026-04-25T15:11:32.109Z</time></trkpt><trkpt lat="41.4977444" lon="12.8339832"><ele>27.0</ele><time>2026-04-25T15:11:34.109Z</time></trkpt><trkpt lat="41.4978575" lon="12.8339884"><ele>27.0</ele><time>2026-04-25T15:11:36.109Z</time></trkpt><trkpt lat="41.497963" lon="12.8340329"><ele>27.0</ele><time>2026-04-25T15:11:38.109Z</time></trkpt><trkpt lat="41.4980212" lon="12.8340698"><ele>27.0</ele><time>2026-04-25T15:11:39.109Z</time></trkpt><trkpt lat="41.4980815" lon="12.8341055"><ele>27.0</ele><time>2026-04-25T15:11:40.108Z</time></trkpt><trkpt lat="41.4981435" lon="12.8341273"><ele>27.0</ele><time>2026-04-25T15:11:41.109Z</time></trkpt><trkpt lat="41.498218" lon="12.8341535"><ele>26.400000000000002</ele><time>2026-04-25T15:11:42.109Z</time></trkpt><trkpt lat="41.4983098" lon="12.8341772"><ele>25.800000000000004</ele><time>2026-04-25T15:11:43.109Z</time></trkpt><trkpt lat="41.4984059" lon="12.834191"><ele>25.2</ele><time>2026-04-25T15:11:44.109Z</time></trkpt><trkpt lat="41.4985179" lon="12.8342181"><ele>24.6</ele><time>2026-04-25T15:11:45.109Z</time></trkpt><trkpt lat="41.4986288" lon="12.8342521"><ele>24.0</ele><time>2026-04-25T15:11:46.108Z</time></trkpt><trkpt lat="41.498737" lon="12.8342669"><ele>23.833333333333332</ele><time>2026-04-25T15:11:47.109Z</time></trkpt><trkpt lat="41.4988285" lon="12.8342891"><ele>23.666666666666668</ele><time>2026-04-25T15:11:48.109Z</time></trkpt><trkpt lat="41.4989175" lon="12.8343074"><ele>23.5</ele><time>2026-04-25T15:11:49.109Z</time></trkpt><trkpt lat="41.4990111" lon="12.8343279"><ele>23.333333333333336</ele><time>2026-04-25T15:11:50.109Z</time></trkpt><trkpt lat="41.4990864" lon="12.8343442"><ele>23.166666666666668</ele><time>2026-04-25T15:11:51.109Z</time></trkpt><trkpt lat="41.4991624" lon="12.8343585"><ele>23.0</ele><time>2026-04-25T15:11:52.108Z</time></trkpt><trkpt lat="41.4992364" lon="12.8343857"><ele>23.333333333333336</ele><time>2026-04-25T15:11:53.109Z</time></trkpt><trkpt lat="41.4993111" lon="12.8344185"><ele>23.666666666666668</ele><time>2026-04-25T15:11:54.109Z</time></trkpt><trkpt lat="41.4993908" lon="12.8344516"><ele>24.0</ele><time>2026-04-25T15:11:55.109Z</time></trkpt><trkpt lat="41.4994704" lon="12.8344779"><ele>24.333333333333336</ele><time>2026-04-25T15:11:56.109Z</time></trkpt><trkpt lat="41.4995579" lon="12.8344974"><ele>24.666666666666668</ele><time>2026-04-25T15:11:57.109Z</time></trkpt><trkpt lat="41.499652" lon="12.8345078"><ele>25.0</ele><time>2026-04-25T15:11:58.109Z</time></trkpt><trkpt lat="41.4997443" lon="12.8345337"><ele>25.0</ele><time>2026-04-25T15:11:59.109Z</time></trkpt><trkpt lat="41.4998386" lon="12.8345534"><ele>25.0</ele><time>2026-04-25T15:12:00.109Z</time></trkpt><trkpt lat="41.4999295" lon="12.8345829"><ele>25.0</ele><time>2026-04-25T15:12:01.109Z</time></trkpt><trkpt lat="41.5000233" lon="12.8346045"><ele>25.0</ele><time>2026-04-25T15:12:02.109Z</time></trkpt><trkpt lat="41.5001202" lon="12.8346333"><ele>25.0</ele><time>2026-04-25T15:12:03.109Z</time></trkpt><trkpt lat="41.5002144" lon="12.8346569"><ele>25.0</ele><time>2026-04-25T15:12:04.109Z</time></trkpt><trkpt lat="41.5003119" lon="12.8346811"><ele>25.0</ele><time>2026-04-25T15:12:05.109Z</time></trkpt><trkpt lat="41.5004061" lon="12.8347043"><ele>25.0</ele><time>2026-04-25T15:12:06.109Z</time></trkpt><trkpt lat="41.5005037" lon="12.8347348"><ele>25.0</ele><time>2026-04-25T15:12:07.109Z</time></trkpt><trkpt lat="41.5005981" lon="12.8347525"><ele>25.0</ele><time>2026-04-25T15:12:08.109Z</time></trkpt><trkpt lat="41.5006992" lon="12.8347786"><ele>25.2</ele><time>2026-04-25T15:12:09.108Z</time></trkpt><trkpt lat="41.5008073" lon="12.8348024"><ele>25.4</ele><time>2026-04-25T15:12:10.109Z</time></trkpt><trkpt lat="41.500922" lon="12.8348392"><ele>25.6</ele><time>2026-04-25T15:12:11.109Z</time></trkpt><trkpt lat="41.501031" lon="12.8348679"><ele>25.8</ele><time>2026-04-25T15:12:12.109Z</time></trkpt><trkpt lat="41.5011376" lon="12.8348995"><ele>26.0</ele><time>2026-04-25T15:12:13.108Z</time></trkpt><trkpt lat="41.5012467" lon="12.8349309"><ele>26.0</ele><time>2026-04-25T15:12:14.109Z</time></trkpt><trkpt lat="41.5013482" lon="12.8349584"><ele>26.0</ele><time>2026-04-25T15:12:15.109Z</time></trkpt><trkpt lat="41.5014548" lon="12.834991"><ele>26.0</ele><time>2026-04-25T15:12:16.109Z</time></trkpt><trkpt lat="41.5015611" lon="12.835008"><ele>26.0</ele><time>2026-04-25T15:12:17.109Z</time></trkpt><trkpt lat="41.5016641" lon="12.8350399"><ele>26.0</ele><time>2026-04-25T15:12:18.109Z</time></trkpt><trkpt lat="41.5017673" lon="12.8350605"><ele>26.0</ele><time>2026-04-25T15:12:19.108Z</time></trkpt><trkpt lat="41.5018798" lon="12.8350973"><ele>26.0</ele><time>2026-04-25T15:12:20.109Z</time></trkpt><trkpt lat="41.501991" lon="12.8351265"><ele>26.0</ele><time>2026-04-25T15:12:21.108Z</time></trkpt><trkpt lat="41.5021075" lon="12.8351632"><ele>26.0</ele><time>2026-04-25T15:12:22.109Z</time></trkpt><trkpt lat="41.5022192" lon="12.8352012"><ele>26.0</ele><time>2026-04-25T15:12:23.109Z</time></trkpt><trkpt lat="41.5023376" lon="12.8352307"><ele>26.0</ele><time>2026-04-25T15:12:24.109Z</time></trkpt><trkpt lat="41.5024556" lon="12.8352655"><ele>26.0</ele><time>2026-04-25T15:12:25.108Z</time></trkpt><trkpt lat="41.5025748" lon="12.8352927"><ele>26.0</ele><time>2026-04-25T15:12:26.109Z</time></trkpt><trkpt lat="41.5026973" lon="12.8353263"><ele>26.0</ele><time>2026-04-25T15:12:27.109Z</time></trkpt><trkpt lat="41.502815" lon="12.835358"><ele>26.0</ele><time>2026-04-25T15:12:28.109Z</time></trkpt><trkpt lat="41.5029303" lon="12.8353886"><ele>26.0</ele><time>2026-04-25T15:12:29.108Z</time></trkpt><trkpt lat="41.5030545" lon="12.8354183"><ele>26.0</ele><time>2026-04-25T15:12:30.109Z</time></trkpt><trkpt lat="41.5031923" lon="12.8354539"><ele>26.0</ele><time>2026-04-25T15:12:31.109Z</time></trkpt><trkpt lat="41.5033261" lon="12.835489"><ele>26.0</ele><time>2026-04-25T15:12:32.109Z</time></trkpt><trkpt lat="41.5034661" lon="12.8355262"><ele>26.0</ele><time>2026-04-25T15:12:33.109Z</time></trkpt><trkpt lat="41.503592" lon="12.8355561"><ele>26.0</ele><time>2026-04-25T15:12:34.109Z</time></trkpt><trkpt lat="41.5037244" lon="12.8356038"><ele>26.0</ele><time>2026-04-25T15:12:35.108Z</time></trkpt><trkpt lat="41.5038562" lon="12.8356415"><ele>26.0</ele><time>2026-04-25T15:12:36.109Z</time></trkpt><trkpt lat="41.5039885" lon="12.8356773"><ele>26.0</ele><time>2026-04-25T15:12:37.109Z</time></trkpt><trkpt lat="41.5041242" lon="12.8357057"><ele>26.0</ele><time>2026-04-25T15:12:38.109Z</time></trkpt><trkpt lat="41.5042569" lon="12.8357373"><ele>26.0</ele><time>2026-04-25T15:12:39.109Z</time></trkpt><trkpt lat="41.5043945" lon="12.8357765"><ele>26.0</ele><time>2026-04-25T15:12:40.108Z</time></trkpt><trkpt lat="41.5045287" lon="12.8358168"><ele>26.0</ele><time>2026-04-25T15:12:41.108Z</time></trkpt><trkpt lat="41.504658" lon="12.8358566"><ele>26.0</ele><time>2026-04-25T15:12:42.109Z</time></trkpt><trkpt lat="41.5047862" lon="12.8358879"><ele>25.75</ele><time>2026-04-25T15:12:43.108Z</time></trkpt><trkpt lat="41.5049192" lon="12.8359226"><ele>25.5</ele><time>2026-04-25T15:12:44.109Z</time></trkpt><trkpt lat="41.5050492" lon="12.8359613"><ele>25.25</ele><time>2026-04-25T15:12:45.109Z</time></trkpt><trkpt lat="41.5051752" lon="12.8359956"><ele>25.0</ele><time>2026-04-25T15:12:46.109Z</time></trkpt><trkpt lat="41.5053024" lon="12.8360307"><ele>25.5</ele><time>2026-04-25T15:12:47.109Z</time></trkpt><trkpt lat="41.505433" lon="12.8360664"><ele>26.0</ele><time>2026-04-25T15:12:48.109Z</time></trkpt><trkpt lat="41.5055524" lon="12.8361011"><ele>26.5</ele><time>2026-04-25T15:12:49.109Z</time></trkpt><trkpt lat="41.5056763" lon="12.8361351"><ele>27.0</ele><time>2026-04-25T15:12:50.109Z</time></trkpt><trkpt lat="41.5058036" lon="12.8361697"><ele>27.0</ele><time>2026-04-25T15:12:51.109Z</time></trkpt><trkpt lat="41.5059201" lon="12.836197"><ele>27.0</ele><time>2026-04-25T15:12:52.109Z</time></trkpt><trkpt lat="41.5060491" lon="12.8362317"><ele>27.0</ele><time>2026-04-25T15:12:53.108Z</time></trkpt><trkpt lat="41.5061775" lon="12.8362691"><ele>27.0</ele><time>2026-04-25T15:12:54.108Z</time></trkpt><trkpt lat="41.5063009" lon="12.8363096"><ele>26.75</ele><time>2026-04-25T15:12:55.109Z</time></trkpt><trkpt lat="41.5064221" lon="12.8363422"><ele>26.5</ele><time>2026-04-25T15:12:56.108Z</time></trkpt><trkpt lat="41.5065476" lon="12.8363807"><ele>26.25</ele><time>2026-04-25T15:12:57.109Z</time></trkpt><trkpt lat="41.5066769" lon="12.8364182"><ele>26.0</ele><time>2026-04-25T15:12:58.109Z</time></trkpt><trkpt lat="41.5067995" lon="12.8364552"><ele>26.0</ele><time>2026-04-25T15:12:59.109Z</time></trkpt><trkpt lat="41.5069347" lon="12.8364891"><ele>26.0</ele><time>2026-04-25T15:13:00.109Z</time></trkpt><trkpt lat="41.507056" lon="12.83652"><ele>26.0</ele><time>2026-04-25T15:13:01.109Z</time></trkpt><trkpt lat="41.5071827" lon="12.8365511"><ele>26.0</ele><time>2026-04-25T15:13:02.109Z</time></trkpt><trkpt lat="41.5073247" lon="12.836588"><ele>25.75</ele><time>2026-04-25T15:13:03.109Z</time></trkpt><trkpt lat="41.5074523" lon="12.8366174"><ele>25.5</ele><time>2026-04-25T15:13:04.109Z</time></trkpt><trkpt lat="41.5075848" lon="12.8366487"><ele>25.25</ele><time>2026-04-25T15:13:05.109Z</time></trkpt><trkpt lat="41.5077079" lon="12.8366794"><ele>25.0</ele><time>2026-04-25T15:13:06.109Z</time></trkpt><trkpt lat="41.5078297" lon="12.8367103"><ele>25.2</ele><time>2026-04-25T15:13:07.109Z</time></trkpt><trkpt lat="41.5079388" lon="12.8367365"><ele>25.4</ele><time>2026-04-25T15:13:08.108Z</time></trkpt><trkpt lat="41.5080468" lon="12.8367673"><ele>25.6</ele><time>2026-04-25T15:13:09.109Z</time></trkpt><trkpt lat="41.5081555" lon="12.8367965"><ele>25.8</ele><time>2026-04-25T15:13:10.109Z</time></trkpt><trkpt lat="41.508262" lon="12.836825"><ele>26.0</ele><time>2026-04-25T15:13:11.109Z</time></trkpt><trkpt lat="41.5083658" lon="12.8368535"><ele>26.6</ele><time>2026-04-25T15:13:12.109Z</time></trkpt><trkpt lat="41.5084718" lon="12.8368831"><ele>27.200000000000003</ele><time>2026-04-25T15:13:13.109Z</time></trkpt><trkpt lat="41.5085733" lon="12.8369157"><ele>27.799999999999997</ele><time>2026-04-25T15:13:14.109Z</time></trkpt><trkpt lat="41.5086681" lon="12.8369444"><ele>28.4</ele><time>2026-04-25T15:13:15.109Z</time></trkpt><trkpt lat="41.5087612" lon="12.83698"><ele>29.0</ele><time>2026-04-25T15:13:16.109Z</time></trkpt><trkpt lat="41.5088468" lon="12.83702"><ele>29.333333333333332</ele><time>2026-04-25T15:13:17.109Z</time></trkpt><trkpt lat="41.50893" lon="12.8370617"><ele>29.666666666666664</ele><time>2026-04-25T15:13:18.109Z</time></trkpt><trkpt lat="41.509013" lon="12.8371009"><ele>30.0</ele><time>2026-04-25T15:13:19.109Z</time></trkpt><trkpt lat="41.5090917" lon="12.8371354"><ele>30.333333333333336</ele><time>2026-04-25T15:13:20.108Z</time></trkpt><trkpt lat="41.5091674" lon="12.8371665"><ele>30.666666666666668</ele><time>2026-04-25T15:13:21.109Z</time></trkpt><trkpt lat="41.5092433" lon="12.8371915"><ele>31.0</ele><time>2026-04-25T15:13:22.109Z</time></trkpt><trkpt lat="41.5093173" lon="12.837225"><ele>31.000000000000004</ele><time>2026-04-25T15:13:23.109Z</time></trkpt><trkpt lat="41.5093952" lon="12.8372638"><ele>31.0</ele><time>2026-04-25T15:13:24.109Z</time></trkpt><trkpt lat="41.5094745" lon="12.8372965"><ele>31.0</ele><time>2026-04-25T15:13:25.108Z</time></trkpt><trkpt lat="41.5095555" lon="12.8373202"><ele>31.0</ele><time>2026-04-25T15:13:26.108Z</time></trkpt><trkpt lat="41.5096316" lon="12.8373422"><ele>31.000000000000004</ele><time>2026-04-25T15:13:27.109Z</time></trkpt><trkpt lat="41.5097508" lon="12.8373695"><ele>31.0</ele><time>2026-04-25T15:13:29.109Z</time></trkpt><trkpt lat="41.5098267" lon="12.8374132"><ele>30.571428571428573</ele><time>2026-04-25T15:13:30.108Z</time></trkpt><trkpt lat="41.5098965" lon="12.8374279"><ele>30.142857142857146</ele><time>2026-04-25T15:13:31.109Z</time></trkpt><trkpt lat="41.5099642" lon="12.8374522"><ele>29.714285714285715</ele><time>2026-04-25T15:13:32.109Z</time></trkpt><trkpt lat="41.5100323" lon="12.837473"><ele>29.285714285714285</ele><time>2026-04-25T15:13:33.109Z</time></trkpt><trkpt lat="41.5101061" lon="12.8374731"><ele>28.857142857142858</ele><time>2026-04-25T15:13:34.109Z</time></trkpt><trkpt lat="41.5101931" lon="12.8374808"><ele>28.42857142857143</ele><time>2026-04-25T15:13:35.109Z</time></trkpt><trkpt lat="41.5102675" lon="12.8374843"><ele>28.0</ele><time>2026-04-25T15:13:36.109Z</time></trkpt><trkpt lat="41.5103451" lon="12.8375073"><ele>27.857142857142858</ele><time>2026-04-25T15:13:37.109Z</time></trkpt><trkpt lat="41.51042" lon="12.8375236"><ele>27.714285714285715</ele><time>2026-04-25T15:13:38.109Z</time></trkpt><trkpt lat="41.5104919" lon="12.8375397"><ele>27.57142857142857</ele><time>2026-04-25T15:13:39.109Z</time></trkpt><trkpt lat="41.5105643" lon="12.8375735"><ele>27.42857142857143</ele><time>2026-04-25T15:13:40.108Z</time></trkpt><trkpt lat="41.5106269" lon="12.8376089"><ele>27.285714285714285</ele><time>2026-04-25T15:13:41.109Z</time></trkpt><trkpt lat="41.5106959" lon="12.8376511"><ele>27.142857142857142</ele><time>2026-04-25T15:13:42.109Z</time></trkpt><trkpt lat="41.5107613" lon="12.8376802"><ele>27.0</ele><time>2026-04-25T15:13:43.109Z</time></trkpt><trkpt lat="41.5108209" lon="12.8377223"><ele>27.333333333333332</ele><time>2026-04-25T15:13:44.109Z</time></trkpt><trkpt lat="41.5108786" lon="12.8377604"><ele>27.666666666666664</ele><time>2026-04-25T15:13:45.108Z</time></trkpt><trkpt lat="41.5109732" lon="12.837828"><ele>28.0</ele><time>2026-04-25T15:13:47.109Z</time></trkpt><trkpt lat="41.5110545" lon="12.8378308"><ele>28.333333333333332</ele><time>2026-04-25T15:13:50.109Z</time></trkpt><trkpt lat="41.5111124" lon="12.837789"><ele>28.666666666666664</ele><time>2026-04-25T15:13:53.109Z</time></trkpt><trkpt lat="41.511146" lon="12.8377098"><ele>29.0</ele><time>2026-04-25T15:13:56.109Z</time></trkpt><trkpt lat="41.5111992" lon="12.8376559"><ele>28.999999999999996</ele><time>2026-04-25T15:13:58.109Z</time></trkpt><trkpt lat="41.5112796" lon="12.8376387"><ele>29.0</ele><time>2026-04-25T15:14:01.109Z</time></trkpt><trkpt lat="41.5113363" lon="12.8377058"><ele>29.0</ele><time>2026-04-25T15:14:03.109Z</time></trkpt><trkpt lat="41.5114234" lon="12.837758"><ele>29.0</ele><time>2026-04-25T15:14:06.109Z</time></trkpt><trkpt lat="41.5114984" lon="12.8378079"><ele>28.999999999999996</ele><time>2026-04-25T15:14:08.109Z</time></trkpt><trkpt lat="41.5115645" lon="12.837852"><ele>29.0</ele><time>2026-04-25T15:14:11.109Z</time></trkpt><trkpt lat="41.5116227" lon="12.8378923"><ele>28.999999999999996</ele><time>2026-04-25T15:14:15.108Z</time></trkpt><trkpt lat="41.5116952" lon="12.8378378"><ele>29.0</ele><time>2026-04-25T15:14:19.109Z</time></trkpt><trkpt lat="41.5117659" lon="12.8378163"><ele>29.0</ele><time>2026-04-25T15:14:21.108Z</time></trkpt><trkpt lat="41.5118436" lon="12.8378695"><ele>29.0</ele><time>2026-04-25T15:14:23.109Z</time></trkpt><trkpt lat="41.511904" lon="12.837939"><ele>28.999999999999996</ele><time>2026-04-25T15:14:25.109Z</time></trkpt><trkpt lat="41.5120051" lon="12.8380098"><ele>29.0</ele><time>2026-04-25T15:14:27.109Z</time></trkpt><trkpt lat="41.512099" lon="12.8380686"><ele>28.6</ele><time>2026-04-25T15:14:29.108Z</time></trkpt><trkpt lat="41.5121582" lon="12.838114"><ele>28.2</ele><time>2026-04-25T15:14:30.109Z</time></trkpt><trkpt lat="41.5122471" lon="12.8381788"><ele>27.800000000000004</ele><time>2026-04-25T15:14:32.109Z</time></trkpt><trkpt lat="41.5123113" lon="12.8382802"><ele>27.400000000000002</ele><time>2026-04-25T15:14:34.108Z</time></trkpt><trkpt lat="41.5123955" lon="12.8383689"><ele>27.0</ele><time>2026-04-25T15:14:36.109Z</time></trkpt><trkpt lat="41.5124885" lon="12.8384535"><ele>27.0</ele><time>2026-04-25T15:14:38.109Z</time></trkpt><trkpt lat="41.5125813" lon="12.8385289"><ele>27.000000000000004</ele><time>2026-04-25T15:14:40.109Z</time></trkpt><trkpt lat="41.5126675" lon="12.8386077"><ele>27.000000000000004</ele><time>2026-04-25T15:14:42.109Z</time></trkpt><trkpt lat="41.5127544" lon="12.8386893"><ele>27.0</ele><time>2026-04-25T15:14:44.109Z</time></trkpt><trkpt lat="41.5128512" lon="12.8387878"><ele>27.0</ele><time>2026-04-25T15:14:46.108Z</time></trkpt><trkpt lat="41.5129399" lon="12.838885"><ele>27.0</ele><time>2026-04-25T15:14:48.109Z</time></trkpt><trkpt lat="41.5130429" lon="12.8389856"><ele>27.0</ele><time>2026-04-25T15:14:50.109Z</time></trkpt><trkpt lat="41.5130987" lon="12.8390444"><ele>27.0</ele><time>2026-04-25T15:14:51.109Z</time></trkpt><trkpt lat="41.5131527" lon="12.8391129"><ele>27.0</ele><time>2026-04-25T15:14:52.108Z</time></trkpt><trkpt lat="41.5132031" lon="12.8391713"><ele>27.0</ele><time>2026-04-25T15:14:53.108Z</time></trkpt><trkpt lat="41.5132526" lon="12.8392275"><ele>27.0</ele><time>2026-04-25T15:14:54.109Z</time></trkpt><trkpt lat="41.5133009" lon="12.8392891"><ele>27.142857142857142</ele><time>2026-04-25T15:14:55.108Z</time></trkpt><trkpt lat="41.5133449" lon="12.8393496"><ele>27.285714285714285</ele><time>2026-04-25T15:14:56.109Z</time></trkpt><trkpt lat="41.5133925" lon="12.8394131"><ele>27.42857142857143</ele><time>2026-04-25T15:14:57.109Z</time></trkpt><trkpt lat="41.5134403" lon="12.8394755"><ele>27.57142857142857</ele><time>2026-04-25T15:14:58.108Z</time></trkpt><trkpt lat="41.5134895" lon="12.8395352"><ele>27.714285714285715</ele><time>2026-04-25T15:14:59.109Z</time></trkpt><trkpt lat="41.5135624" lon="12.8396059"><ele>27.857142857142858</ele><time>2026-04-25T15:15:01.109Z</time></trkpt><trkpt lat="41.5136261" lon="12.8395958"><ele>28.0</ele><time>2026-04-25T15:15:06.109Z</time></trkpt><trkpt lat="41.5137103" lon="12.8395198"><ele>27.833333333333336</ele><time>2026-04-25T15:15:11.109Z</time></trkpt><trkpt lat="41.5137624" lon="12.8394503"><ele>27.666666666666668</ele><time>2026-04-25T15:15:13.109Z</time></trkpt><trkpt lat="41.5138266" lon="12.8395043"><ele>27.5</ele><time>2026-04-25T15:15:15.109Z</time></trkpt><trkpt lat="41.513909" lon="12.8396175"><ele>27.333333333333336</ele><time>2026-04-25T15:15:17.109Z</time></trkpt><trkpt lat="41.5139605" lon="12.8396843"><ele>27.166666666666668</ele><time>2026-04-25T15:15:18.109Z</time></trkpt><trkpt lat="41.5140164" lon="12.8397432"><ele>27.0</ele><time>2026-04-25T15:15:19.108Z</time></trkpt><trkpt lat="41.5140681" lon="12.8398082"><ele>27.0</ele><time>2026-04-25T15:15:20.109Z</time></trkpt><trkpt lat="41.5141242" lon="12.8398733"><ele>27.0</ele><time>2026-04-25T15:15:21.109Z</time></trkpt><trkpt lat="41.5141792" lon="12.8399459"><ele>27.0</ele><time>2026-04-25T15:15:22.109Z</time></trkpt><trkpt lat="41.5142414" lon="12.8400541"><ele>27.0</ele><time>2026-04-25T15:15:23.109Z</time></trkpt><trkpt lat="41.5143133" lon="12.840156"><ele>27.0</ele><time>2026-04-25T15:15:24.109Z</time></trkpt><trkpt lat="41.5143554" lon="12.8402297"><ele>27.0</ele><time>2026-04-25T15:15:25.109Z</time></trkpt><trkpt lat="41.5144275" lon="12.8403256"><ele>27.166666666666668</ele><time>2026-04-25T15:15:27.109Z</time></trkpt><trkpt lat="41.5144915" lon="12.8404165"><ele>27.333333333333336</ele><time>2026-04-25T15:15:29.109Z</time></trkpt><trkpt lat="41.5145502" lon="12.8405002"><ele>27.5</ele><time>2026-04-25T15:15:31.109Z</time></trkpt><trkpt lat="41.5146099" lon="12.8405821"><ele>27.666666666666668</ele><time>2026-04-25T15:15:33.109Z</time></trkpt><trkpt lat="41.514655" lon="12.8406423"><ele>27.833333333333336</ele><time>2026-04-25T15:15:36.108Z</time></trkpt><trkpt lat="41.5147345" lon="12.8407372"><ele>28.0</ele><time>2026-04-25T15:15:39.109Z</time></trkpt><trkpt lat="41.5148108" lon="12.8408096"><ele>27.599999999999998</ele><time>2026-04-25T15:15:41.109Z</time></trkpt><trkpt lat="41.5148928" lon="12.8408885"><ele>27.199999999999996</ele><time>2026-04-25T15:15:43.109Z</time></trkpt><trkpt lat="41.5149677" lon="12.840994"><ele>26.8</ele><time>2026-04-25T15:15:45.109Z</time></trkpt><trkpt lat="41.5150349" lon="12.8411044"><ele>26.4</ele><time>2026-04-25T15:15:47.108Z</time></trkpt><trkpt lat="41.5151241" lon="12.8412176"><ele>26.0</ele><time>2026-04-25T15:15:49.106Z</time></trkpt><trkpt lat="41.5152072" lon="12.8413248"><ele>25.999999999999996</ele><time>2026-04-25T15:15:51.105Z</time></trkpt><trkpt lat="41.5152593" lon="12.8413793"><ele>26.0</ele><time>2026-04-25T15:15:52.105Z</time></trkpt><trkpt lat="41.5153113" lon="12.8414365"><ele>26.0</ele><time>2026-04-25T15:15:53.105Z</time></trkpt><trkpt lat="41.5154107" lon="12.841554"><ele>26.0</ele><time>2026-04-25T15:15:55.105Z</time></trkpt><trkpt lat="41.5154591" lon="12.8416139"><ele>25.999999999999996</ele><time>2026-04-25T15:15:56.105Z</time></trkpt><trkpt lat="41.5155022" lon="12.8416778"><ele>26.0</ele><time>2026-04-25T15:15:57.105Z</time></trkpt><trkpt lat="41.515555" lon="12.841754"><ele>26.333333333333332</ele><time>2026-04-25T15:15:58.105Z</time></trkpt><trkpt lat="41.5156173" lon="12.8418349"><ele>26.666666666666664</ele><time>2026-04-25T15:15:59.105Z</time></trkpt><trkpt lat="41.5156801" lon="12.8419086"><ele>27.0</ele><time>2026-04-25T15:16:00.105Z</time></trkpt><trkpt lat="41.515731" lon="12.8419789"><ele>27.333333333333336</ele><time>2026-04-25T15:16:01.105Z</time></trkpt><trkpt lat="41.5157836" lon="12.8420527"><ele>27.666666666666668</ele><time>2026-04-25T15:16:02.105Z</time></trkpt><trkpt lat="41.5158352" lon="12.8421201"><ele>28.0</ele><time>2026-04-25T15:16:03.105Z</time></trkpt><trkpt lat="41.5158874" lon="12.8421881"><ele>28.0</ele><time>2026-04-25T15:16:04.105Z</time></trkpt><trkpt lat="41.5159357" lon="12.8422623"><ele>28.0</ele><time>2026-04-25T15:16:05.105Z</time></trkpt><trkpt lat="41.515986" lon="12.8423244"><ele>28.0</ele><time>2026-04-25T15:16:06.105Z</time></trkpt><trkpt lat="41.5160383" lon="12.8423854"><ele>28.0</ele><time>2026-04-25T15:16:07.105Z</time></trkpt><trkpt lat="41.5160952" lon="12.8424577"><ele>28.0</ele><time>2026-04-25T15:16:08.105Z</time></trkpt><trkpt lat="41.5161435" lon="12.8425258"><ele>28.0</ele><time>2026-04-25T15:16:09.104Z</time></trkpt><trkpt lat="41.5161905" lon="12.842584"><ele>28.0</ele><time>2026-04-25T15:16:10.105Z</time></trkpt><trkpt lat="41.5162379" lon="12.8426439"><ele>27.833333333333336</ele><time>2026-04-25T15:16:11.105Z</time></trkpt><trkpt lat="41.5162958" lon="12.8427101"><ele>27.666666666666668</ele><time>2026-04-25T15:16:12.105Z</time></trkpt><trkpt lat="41.5163417" lon="12.8427891"><ele>27.5</ele><time>2026-04-25T15:16:13.105Z</time></trkpt><trkpt lat="41.5163817" lon="12.8428628"><ele>27.333333333333336</ele><time>2026-04-25T15:16:14.105Z</time></trkpt><trkpt lat="41.5164256" lon="12.8429258"><ele>27.166666666666668</ele><time>2026-04-25T15:16:15.105Z</time></trkpt><trkpt lat="41.5165239" lon="12.8430418"><ele>27.0</ele><time>2026-04-25T15:16:17.105Z</time></trkpt><trkpt lat="41.5165678" lon="12.8431156"><ele>27.0</ele><time>2026-04-25T15:16:18.105Z</time></trkpt><trkpt lat="41.5166139" lon="12.8431848"><ele>27.0</ele><time>2026-04-25T15:16:19.104Z</time></trkpt><trkpt lat="41.5166887" lon="12.8433267"><ele>27.0</ele><time>2026-04-25T15:16:21.104Z</time></trkpt><trkpt lat="41.5167404" lon="12.8433921"><ele>27.0</ele><time>2026-04-25T15:16:22.105Z</time></trkpt><trkpt lat="41.5167948" lon="12.8434621"><ele>27.0</ele><time>2026-04-25T15:16:23.105Z</time></trkpt><trkpt lat="41.5168446" lon="12.843529"><ele>27.0</ele><time>2026-04-25T15:16:24.105Z</time></trkpt><trkpt lat="41.5168945" lon="12.8435875"><ele>27.166666666666668</ele><time>2026-04-25T15:16:25.105Z</time></trkpt><trkpt lat="41.5169461" lon="12.8436491"><ele>27.333333333333336</ele><time>2026-04-25T15:16:26.104Z</time></trkpt><trkpt lat="41.5169992" lon="12.8436964"><ele>27.5</ele><time>2026-04-25T15:16:27.105Z</time></trkpt><trkpt lat="41.5170531" lon="12.843772"><ele>27.666666666666668</ele><time>2026-04-25T15:16:28.105Z</time></trkpt><trkpt lat="41.5170999" lon="12.8438442"><ele>27.833333333333336</ele><time>2026-04-25T15:16:29.105Z</time></trkpt><trkpt lat="41.5171751" lon="12.8439771"><ele>28.0</ele><time>2026-04-25T15:16:31.105Z</time></trkpt><trkpt lat="41.5172462" lon="12.8441052"><ele>28.0</ele><time>2026-04-25T15:16:33.105Z</time></trkpt><trkpt lat="41.5173177" lon="12.8441893"><ele>27.999999999999996</ele><time>2026-04-25T15:16:35.104Z</time></trkpt><trkpt lat="41.5173746" lon="12.8442677"><ele>27.999999999999996</ele><time>2026-04-25T15:16:37.105Z</time></trkpt><trkpt lat="41.5174496" lon="12.8443297"><ele>28.0</ele><time>2026-04-25T15:16:40.105Z</time></trkpt><trkpt lat="41.5175244" lon="12.8443932"><ele>28.0</ele><time>2026-04-25T15:16:42.105Z</time></trkpt><trkpt lat="41.5175953" lon="12.8444972"><ele>27.799999999999997</ele><time>2026-04-25T15:16:44.104Z</time></trkpt><trkpt lat="41.5176773" lon="12.8446046"><ele>27.599999999999998</ele><time>2026-04-25T15:16:46.105Z</time></trkpt><trkpt lat="41.5177534" lon="12.8447033"><ele>27.400000000000002</ele><time>2026-04-25T15:16:48.104Z</time></trkpt><trkpt lat="41.5178334" lon="12.8447951"><ele>27.200000000000003</ele><time>2026-04-25T15:16:50.105Z</time></trkpt><trkpt lat="41.5178954" lon="12.8448831"><ele>27.0</ele><time>2026-04-25T15:16:52.105Z</time></trkpt><trkpt lat="41.5179617" lon="12.8449894"><ele>27.200000000000003</ele><time>2026-04-25T15:16:54.105Z</time></trkpt><trkpt lat="41.5180329" lon="12.8450873"><ele>27.400000000000002</ele><time>2026-04-25T15:16:56.104Z</time></trkpt><trkpt lat="41.5181202" lon="12.845189"><ele>27.599999999999998</ele><time>2026-04-25T15:16:58.105Z</time></trkpt><trkpt lat="41.5182057" lon="12.84528"><ele>27.799999999999997</ele><time>2026-04-25T15:17:00.105Z</time></trkpt><trkpt lat="41.5182853" lon="12.8453723"><ele>28.0</ele><time>2026-04-25T15:17:02.105Z</time></trkpt><trkpt lat="41.518358" lon="12.8454574"><ele>28.0</ele><time>2026-04-25T15:17:04.104Z</time></trkpt><trkpt lat="41.5184511" lon="12.8455452"><ele>27.999999999999996</ele><time>2026-04-25T15:17:06.105Z</time></trkpt><trkpt lat="41.5185293" lon="12.8456471"><ele>27.999999999999996</ele><time>2026-04-25T15:17:08.105Z</time></trkpt><trkpt lat="41.5186082" lon="12.8457471"><ele>28.0</ele><time>2026-04-25T15:17:10.105Z</time></trkpt><trkpt lat="41.5186772" lon="12.8458312"><ele>28.0</ele><time>2026-04-25T15:17:12.105Z</time></trkpt><trkpt lat="41.5187503" lon="12.8459102"><ele>27.599999999999998</ele><time>2026-04-25T15:17:14.105Z</time></trkpt><trkpt lat="41.5188241" lon="12.8459903"><ele>27.199999999999996</ele><time>2026-04-25T15:17:16.105Z</time></trkpt><trkpt lat="41.5188978" lon="12.8460803"><ele>26.8</ele><time>2026-04-25T15:17:18.105Z</time></trkpt><trkpt lat="41.5189559" lon="12.8461708"><ele>26.4</ele><time>2026-04-25T15:17:20.105Z</time></trkpt><trkpt lat="41.5190181" lon="12.8462634"><ele>26.0</ele><time>2026-04-25T15:17:22.104Z</time></trkpt><trkpt lat="41.519089" lon="12.8463639"><ele>25.999999999999996</ele><time>2026-04-25T15:17:24.105Z</time></trkpt><trkpt lat="41.5191636" lon="12.8464663"><ele>26.0</ele><time>2026-04-25T15:17:26.105Z</time></trkpt><trkpt lat="41.5192291" lon="12.8465569"><ele>26.0</ele><time>2026-04-25T15:17:28.105Z</time></trkpt><trkpt lat="41.5192789" lon="12.8466392"><ele>26.0</ele><time>2026-04-25T15:17:30.105Z</time></trkpt><trkpt lat="41.519313" lon="12.8467179"><ele>25.999999999999996</ele><time>2026-04-25T15:17:32.105Z</time></trkpt><trkpt lat="41.5193743" lon="12.8468086"><ele>26.0</ele><time>2026-04-25T15:17:35.105Z</time></trkpt><trkpt lat="41.519418" lon="12.8469027"><ele>26.499999999999996</ele><time>2026-04-25T15:17:38.105Z</time></trkpt><trkpt lat="41.51947" lon="12.8469907"><ele>27.0</ele><time>2026-04-25T15:17:41.105Z</time></trkpt><trkpt lat="41.5195416" lon="12.8470573"><ele>27.5</ele><time>2026-04-25T15:17:43.105Z</time></trkpt><trkpt lat="41.5195986" lon="12.8471175"><ele>28.0</ele><time>2026-04-25T15:17:45.104Z</time></trkpt><trkpt lat="41.5196628" lon="12.8471908"><ele>28.499999999999996</ele><time>2026-04-25T15:17:48.105Z</time></trkpt><trkpt lat="41.5197145" lon="12.8472491"><ele>29.0</ele><time>2026-04-25T15:17:50.105Z</time></trkpt><trkpt lat="41.5197674" lon="12.8473267"><ele>28.999999999999996</ele><time>2026-04-25T15:17:53.105Z</time></trkpt><trkpt lat="41.5198178" lon="12.8474191"><ele>29.0</ele><time>2026-04-25T15:17:56.105Z</time></trkpt><trkpt lat="41.5198523" lon="12.8474997"><ele>29.0</ele><time>2026-04-25T15:17:58.105Z</time></trkpt><trkpt lat="41.5199147" lon="12.8475886"><ele>29.0</ele><time>2026-04-25T15:18:01.105Z</time></trkpt><trkpt lat="41.5199721" lon="12.8476528"><ele>28.999999999999996</ele><time>2026-04-25T15:18:03.105Z</time></trkpt><trkpt lat="41.5200189" lon="12.8477178"><ele>29.0</ele><time>2026-04-25T15:18:05.105Z</time></trkpt><trkpt lat="41.5200584" lon="12.8477943"><ele>28.85714285714286</ele><time>2026-04-25T15:18:07.104Z</time></trkpt><trkpt lat="41.5201202" lon="12.8478405"><ele>28.714285714285715</ele><time>2026-04-25T15:18:09.105Z</time></trkpt><trkpt lat="41.5201785" lon="12.8478725"><ele>28.571428571428573</ele><time>2026-04-25T15:18:11.105Z</time></trkpt><trkpt lat="41.520262" lon="12.8479121"><ele>28.42857142857143</ele><time>2026-04-25T15:18:14.105Z</time></trkpt><trkpt lat="41.5203129" lon="12.8479724"><ele>28.285714285714285</ele><time>2026-04-25T15:18:16.105Z</time></trkpt><trkpt lat="41.5203628" lon="12.8480407"><ele>28.142857142857142</ele><time>2026-04-25T15:18:18.105Z</time></trkpt><trkpt lat="41.5204107" lon="12.8480997"><ele>28.0</ele><time>2026-04-25T15:18:20.105Z</time></trkpt><trkpt lat="41.5204553" lon="12.8481623"><ele>28.000000000000004</ele><time>2026-04-25T15:18:22.105Z</time></trkpt><trkpt lat="41.5205141" lon="12.8482468"><ele>28.0</ele><time>2026-04-25T15:18:25.105Z</time></trkpt><trkpt lat="41.5205633" lon="12.8483231"><ele>28.0</ele><time>2026-04-25T15:18:28.105Z</time></trkpt><trkpt lat="41.520598" lon="12.848408"><ele>28.0</ele><time>2026-04-25T15:18:31.105Z</time></trkpt><trkpt lat="41.5206476" lon="12.8485028"><ele>28.000000000000004</ele><time>2026-04-25T15:18:34.105Z</time></trkpt><trkpt lat="41.5207095" lon="12.8486007"><ele>28.0</ele><time>2026-04-25T15:18:37.105Z</time></trkpt><trkpt lat="41.5207632" lon="12.8486728"><ele>28.142857142857142</ele><time>2026-04-25T15:18:39.105Z</time></trkpt><trkpt lat="41.5208131" lon="12.8487305"><ele>28.285714285714285</ele><time>2026-04-25T15:18:41.105Z</time></trkpt><trkpt lat="41.5208592" lon="12.8488025"><ele>28.42857142857143</ele><time>2026-04-25T15:18:43.105Z</time></trkpt><trkpt lat="41.5209098" lon="12.8488693"><ele>28.571428571428573</ele><time>2026-04-25T15:18:45.105Z</time></trkpt><trkpt lat="41.5209646" lon="12.8489372"><ele>28.714285714285715</ele><time>2026-04-25T15:18:47.105Z</time></trkpt><trkpt lat="41.5210184" lon="12.848984"><ele>28.85714285714286</ele><time>2026-04-25T15:18:49.105Z</time></trkpt><trkpt lat="41.521081" lon="12.8490633"><ele>29.000000000000004</ele><time>2026-04-25T15:18:52.104Z</time></trkpt><trkpt lat="41.5211206" lon="12.8491367"><ele>29.000000000000004</ele><time>2026-04-25T15:18:54.105Z</time></trkpt><trkpt lat="41.5211737" lon="12.8491942"><ele>29.0</ele><time>2026-04-25T15:18:56.105Z</time></trkpt><trkpt lat="41.5212243" lon="12.849246"><ele>29.000000000000004</ele><time>2026-04-25T15:18:58.105Z</time></trkpt><trkpt lat="41.5212796" lon="12.8493102"><ele>29.000000000000004</ele><time>2026-04-25T15:19:00.105Z</time></trkpt><trkpt lat="41.5213531" lon="12.8493899"><ele>29.0</ele><time>2026-04-25T15:19:03.105Z</time></trkpt><trkpt lat="41.5213953" lon="12.8494526"><ele>29.000000000000004</ele><time>2026-04-25T15:19:05.105Z</time></trkpt><trkpt lat="41.5214483" lon="12.8495397"><ele>29.000000000000004</ele><time>2026-04-25T15:19:07.104Z</time></trkpt><trkpt lat="41.5215159" lon="12.8496283"><ele>28.333333333333332</ele><time>2026-04-25T15:19:10.105Z</time></trkpt><trkpt lat="41.5215755" lon="12.8497206"><ele>27.666666666666664</ele><time>2026-04-25T15:19:13.104Z</time></trkpt><trkpt lat="41.5216392" lon="12.8497977"><ele>27.0</ele><time>2026-04-25T15:19:16.105Z</time></trkpt><trkpt lat="41.5217008" lon="12.849829"><ele>26.333333333333336</ele><time>2026-04-25T15:19:18.105Z</time></trkpt><trkpt lat="41.521777" lon="12.8498875"><ele>25.666666666666668</ele><time>2026-04-25T15:19:20.105Z</time></trkpt><trkpt lat="41.5218469" lon="12.8499797"><ele>25.0</ele><time>2026-04-25T15:19:22.105Z</time></trkpt><trkpt lat="41.5219211" lon="12.8500841"><ele>25.333333333333336</ele><time>2026-04-25T15:19:24.105Z</time></trkpt><trkpt lat="41.5219715" lon="12.8501392"><ele>25.666666666666668</ele><time>2026-04-25T15:19:25.105Z</time></trkpt><trkpt lat="41.522052" lon="12.8502278"><ele>26.0</ele><time>2026-04-25T15:19:27.105Z</time></trkpt><trkpt lat="41.5221338" lon="12.8503222"><ele>26.333333333333336</ele><time>2026-04-25T15:19:29.104Z</time></trkpt><trkpt lat="41.5221898" lon="12.850399"><ele>26.666666666666668</ele><time>2026-04-25T15:19:31.105Z</time></trkpt><trkpt lat="41.5222443" lon="12.8504684"><ele>27.0</ele><time>2026-04-25T15:19:33.105Z</time></trkpt><trkpt lat="41.5222948" lon="12.8505442"><ele>27.166666666666668</ele><time>2026-04-25T15:19:36.105Z</time></trkpt><trkpt lat="41.5223414" lon="12.8506078"><ele>27.333333333333336</ele><time>2026-04-25T15:19:38.105Z</time></trkpt><trkpt lat="41.5223845" lon="12.8506983"><ele>27.5</ele><time>2026-04-25T15:19:40.105Z</time></trkpt><trkpt lat="41.5224419" lon="12.8507887"><ele>27.666666666666668</ele><time>2026-04-25T15:19:42.105Z</time></trkpt><trkpt lat="41.5225067" lon="12.8508821"><ele>27.833333333333336</ele><time>2026-04-25T15:19:44.104Z</time></trkpt><trkpt lat="41.522571" lon="12.8509326"><ele>28.0</ele><time>2026-04-25T15:19:46.105Z</time></trkpt><trkpt lat="41.5226127" lon="12.8510054"><ele>28.599999999999998</ele><time>2026-04-25T15:19:49.105Z</time></trkpt><trkpt lat="41.5225951" lon="12.8510918"><ele>29.199999999999996</ele><time>2026-04-25T15:19:53.105Z</time></trkpt><trkpt lat="41.5225468" lon="12.8511921"><ele>29.8</ele><time>2026-04-25T15:19:56.105Z</time></trkpt><trkpt lat="41.5226094" lon="12.8513114"><ele>30.4</ele><time>2026-04-25T15:19:59.105Z</time></trkpt><trkpt lat="41.5226988" lon="12.8514336"><ele>31.0</ele><time>2026-04-25T15:20:00.105Z</time></trkpt><trkpt lat="41.5227702" lon="12.8515321"><ele>31.000000000000004</ele><time>2026-04-25T15:20:01.105Z</time></trkpt><trkpt lat="41.5228337" lon="12.8516195"><ele>31.0</ele><time>2026-04-25T15:20:02.105Z</time></trkpt><trkpt lat="41.5229005" lon="12.8517038"><ele>31.0</ele><time>2026-04-25T15:20:03.105Z</time></trkpt><trkpt lat="41.5229675" lon="12.8517722"><ele>31.0</ele><time>2026-04-25T15:20:04.105Z</time></trkpt><trkpt lat="41.5230319" lon="12.8518506"><ele>31.000000000000004</ele><time>2026-04-25T15:20:05.105Z</time></trkpt><trkpt lat="41.523095" lon="12.8519274"><ele>31.0</ele><time>2026-04-25T15:20:06.105Z</time></trkpt><trkpt lat="41.5231543" lon="12.8519997"><ele>30.500000000000004</ele><time>2026-04-25T15:20:07.105Z</time></trkpt><trkpt lat="41.5232531" lon="12.8520955"><ele>30.0</ele><time>2026-04-25T15:20:09.105Z</time></trkpt><trkpt lat="41.5233098" lon="12.8521534"><ele>29.5</ele><time>2026-04-25T15:20:10.104Z</time></trkpt><trkpt lat="41.5233546" lon="12.8522214"><ele>29.0</ele><time>2026-04-25T15:20:11.105Z</time></trkpt><trkpt lat="41.5233988" lon="12.8522859"><ele>28.500000000000004</ele><time>2026-04-25T15:20:12.105Z</time></trkpt><trkpt lat="41.5234413" lon="12.8523497"><ele>28.0</ele><time>2026-04-25T15:20:13.104Z</time></trkpt><trkpt lat="41.5234807" lon="12.852421"><ele>28.0</ele><time>2026-04-25T15:20:14.105Z</time></trkpt><trkpt lat="41.5235217" lon="12.8525048"><ele>27.999999999999996</ele><time>2026-04-25T15:20:15.105Z</time></trkpt><trkpt lat="41.5235884" lon="12.8526112"><ele>27.999999999999996</ele><time>2026-04-25T15:20:17.105Z</time></trkpt><trkpt lat="41.5236611" lon="12.8527065"><ele>28.0</ele><time>2026-04-25T15:20:19.105Z</time></trkpt><trkpt lat="41.5237093" lon="12.8528012"><ele>28.0</ele><time>2026-04-25T15:20:21.105Z</time></trkpt><trkpt lat="41.5237597" lon="12.8529501"><ele>28.166666666666668</ele><time>2026-04-25T15:20:23.105Z</time></trkpt><trkpt lat="41.5237814" lon="12.8530446"><ele>28.333333333333336</ele><time>2026-04-25T15:20:24.104Z</time></trkpt><trkpt lat="41.5238171" lon="12.853138"><ele>28.5</ele><time>2026-04-25T15:20:25.105Z</time></trkpt><trkpt lat="41.5238465" lon="12.8532409"><ele>28.666666666666664</ele><time>2026-04-25T15:20:26.105Z</time></trkpt><trkpt lat="41.5238736" lon="12.8533354"><ele>28.833333333333332</ele><time>2026-04-25T15:20:27.105Z</time></trkpt><trkpt lat="41.5238907" lon="12.8534359"><ele>29.0</ele><time>2026-04-25T15:20:28.105Z</time></trkpt><trkpt lat="41.5239073" lon="12.8535218"><ele>28.999999999999996</ele><time>2026-04-25T15:20:29.105Z</time></trkpt><trkpt lat="41.523928" lon="12.8536083"><ele>29.0</ele><time>2026-04-25T15:20:30.104Z</time></trkpt><trkpt lat="41.5239664" lon="12.8536854"><ele>29.0</ele><time>2026-04-25T15:20:31.104Z</time></trkpt><trkpt lat="41.5240114" lon="12.8537453"><ele>29.0</ele><time>2026-04-25T15:20:32.105Z</time></trkpt><trkpt lat="41.5241011" lon="12.8538615"><ele>28.999999999999996</ele><time>2026-04-25T15:20:34.105Z</time></trkpt><trkpt lat="41.5241517" lon="12.8539267"><ele>29.0</ele><time>2026-04-25T15:20:35.105Z</time></trkpt><trkpt lat="41.5242004" lon="12.8539858"><ele>28.999999999999996</ele><time>2026-04-25T15:20:36.105Z</time></trkpt><trkpt lat="41.5242581" lon="12.8540611"><ele>29.0</ele><time>2026-04-25T15:20:37.105Z</time></trkpt><trkpt lat="41.5243085" lon="12.8541332"><ele>29.0</ele><time>2026-04-25T15:20:38.105Z</time></trkpt><trkpt lat="41.5243561" lon="12.854212"><ele>29.0</ele><time>2026-04-25T15:20:39.104Z</time></trkpt><trkpt lat="41.5244151" lon="12.8542782"><ele>28.999999999999996</ele><time>2026-04-25T15:20:40.104Z</time></trkpt><trkpt lat="41.5244766" lon="12.8543501"><ele>29.0</ele><time>2026-04-25T15:20:41.105Z</time></trkpt><trkpt lat="41.5245363" lon="12.8544239"><ele>29.2</ele><time>2026-04-25T15:20:42.105Z</time></trkpt><trkpt lat="41.5245939" lon="12.8545043"><ele>29.4</ele><time>2026-04-25T15:20:43.105Z</time></trkpt><trkpt lat="41.5246526" lon="12.8545877"><ele>29.6</ele><time>2026-04-25T15:20:44.104Z</time></trkpt><trkpt lat="41.5247192" lon="12.854672"><ele>29.8</ele><time>2026-04-25T15:20:45.105Z</time></trkpt><trkpt lat="41.5247868" lon="12.854757"><ele>30.0</ele><time>2026-04-25T15:20:46.105Z</time></trkpt><trkpt lat="41.5248597" lon="12.8548433"><ele>30.0</ele><time>2026-04-25T15:20:47.104Z</time></trkpt><trkpt lat="41.5249345" lon="12.8549501"><ele>30.0</ele><time>2026-04-25T15:20:48.105Z</time></trkpt><trkpt lat="41.5250066" lon="12.8550534"><ele>30.0</ele><time>2026-04-25T15:20:49.105Z</time></trkpt><trkpt lat="41.5250806" lon="12.8551583"><ele>30.0</ele><time>2026-04-25T15:20:50.105Z</time></trkpt><trkpt lat="41.525153" lon="12.8552606"><ele>30.0</ele><time>2026-04-25T15:20:51.105Z</time></trkpt><trkpt lat="41.525222" lon="12.8553558"><ele>30.2</ele><time>2026-04-25T15:20:52.105Z</time></trkpt><trkpt lat="41.5252922" lon="12.855458"><ele>30.4</ele><time>2026-04-25T15:20:53.105Z</time></trkpt><trkpt lat="41.5253609" lon="12.8555575"><ele>30.6</ele><time>2026-04-25T15:20:54.105Z</time></trkpt><trkpt lat="41.5254213" lon="12.8556553"><ele>30.8</ele><time>2026-04-25T15:20:55.105Z</time></trkpt><trkpt lat="41.5254914" lon="12.8557436"><ele>31.0</ele><time>2026-04-25T15:20:56.105Z</time></trkpt><trkpt lat="41.5255574" lon="12.8558422"><ele>31.166666666666668</ele><time>2026-04-25T15:20:57.105Z</time></trkpt><trkpt lat="41.5256188" lon="12.8559245"><ele>31.333333333333336</ele><time>2026-04-25T15:20:58.105Z</time></trkpt><trkpt lat="41.5256832" lon="12.856008"><ele>31.5</ele><time>2026-04-25T15:20:59.105Z</time></trkpt><trkpt lat="41.5257445" lon="12.8560898"><ele>31.666666666666664</ele><time>2026-04-25T15:21:00.105Z</time></trkpt><trkpt lat="41.5258117" lon="12.856173"><ele>31.833333333333332</ele><time>2026-04-25T15:21:01.105Z</time></trkpt><trkpt lat="41.5258756" lon="12.8562485"><ele>32.0</ele><time>2026-04-25T15:21:02.104Z</time></trkpt><trkpt lat="41.5259336" lon="12.8563309"><ele>31.999999999999996</ele><time>2026-04-25T15:21:03.105Z</time></trkpt><trkpt lat="41.5259892" lon="12.8564108"><ele>32.0</ele><time>2026-04-25T15:21:04.105Z</time></trkpt><trkpt lat="41.526045" lon="12.8565084"><ele>32.0</ele><time>2026-04-25T15:21:05.105Z</time></trkpt><trkpt lat="41.5261043" lon="12.8565916"><ele>32.0</ele><time>2026-04-25T15:21:06.105Z</time></trkpt><trkpt lat="41.526162" lon="12.8566716"><ele>31.999999999999996</ele><time>2026-04-25T15:21:07.105Z</time></trkpt><trkpt lat="41.5262294" lon="12.8567588"><ele>32.0</ele><time>2026-04-25T15:21:08.105Z</time></trkpt><trkpt lat="41.526293" lon="12.856826"><ele>32.5</ele><time>2026-04-25T15:21:09.105Z</time></trkpt><trkpt lat="41.5263565" lon="12.8568999"><ele>33.0</ele><time>2026-04-25T15:21:10.105Z</time></trkpt><trkpt lat="41.5264149" lon="12.8569671"><ele>33.5</ele><time>2026-04-25T15:21:11.105Z</time></trkpt><trkpt lat="41.5264695" lon="12.8570266"><ele>34.0</ele><time>2026-04-25T15:21:12.105Z</time></trkpt><trkpt lat="41.5265602" lon="12.8571003"><ele>34.5</ele><time>2026-04-25T15:21:14.105Z</time></trkpt><trkpt lat="41.5266386" lon="12.857129"><ele>35.0</ele><time>2026-04-25T15:21:17.105Z</time></trkpt><trkpt lat="41.5267137" lon="12.8571046"><ele>35.0</ele><time>2026-04-25T15:21:20.105Z</time></trkpt><trkpt lat="41.526775" lon="12.8570735"><ele>35.0</ele><time>2026-04-25T15:21:22.104Z</time></trkpt><trkpt lat="41.5268192" lon="12.8570117"><ele>35.0</ele><time>2026-04-25T15:21:25.105Z</time></trkpt><trkpt lat="41.526879" lon="12.8569675"><ele>35.0</ele><time>2026-04-25T15:21:32.105Z</time></trkpt><trkpt lat="41.5269544" lon="12.8569979"><ele>35.0</ele><time>2026-04-25T15:21:35.105Z</time></trkpt><trkpt lat="41.5270181" lon="12.8570512"><ele>35.0</ele><time>2026-04-25T15:21:37.105Z</time></trkpt><trkpt lat="41.5270898" lon="12.857063"><ele>35.0</ele><time>2026-04-25T15:21:42.104Z</time></trkpt><trkpt lat="41.5271754" lon="12.8570159"><ele>34.8</ele><time>2026-04-25T15:21:46.105Z</time></trkpt><trkpt lat="41.5272735" lon="12.8570481"><ele>34.6</ele><time>2026-04-25T15:21:49.105Z</time></trkpt><trkpt lat="41.5273687" lon="12.8571239"><ele>34.4</ele><time>2026-04-25T15:21:51.105Z</time></trkpt><trkpt lat="41.5274705" lon="12.8571858"><ele>34.2</ele><time>2026-04-25T15:21:53.105Z</time></trkpt><trkpt lat="41.5275794" lon="12.8572554"><ele>34.0</ele><time>2026-04-25T15:21:55.105Z</time></trkpt><trkpt lat="41.5276789" lon="12.857332"><ele>34.0</ele><time>2026-04-25T15:21:57.105Z</time></trkpt><trkpt lat="41.5277744" lon="12.8573882"><ele>34.0</ele><time>2026-04-25T15:21:59.105Z</time></trkpt><trkpt lat="41.5278323" lon="12.8574259"><ele>34.0</ele><time>2026-04-25T15:22:00.105Z</time></trkpt><trkpt lat="41.5279487" lon="12.8574908"><ele>34.0</ele><time>2026-04-25T15:22:02.104Z</time></trkpt><trkpt lat="41.528067" lon="12.8575306"><ele>34.0</ele><time>2026-04-25T15:22:04.105Z</time></trkpt><trkpt lat="41.5281765" lon="12.8575977"><ele>34.0</ele><time>2026-04-25T15:22:06.104Z</time></trkpt><trkpt lat="41.5282751" lon="12.8576536"><ele>34.0</ele><time>2026-04-25T15:22:08.105Z</time></trkpt><trkpt lat="41.5283907" lon="12.8577145"><ele>34.0</ele><time>2026-04-25T15:22:10.105Z</time></trkpt><trkpt lat="41.5284505" lon="12.8577436"><ele>34.0</ele><time>2026-04-25T15:22:11.105Z</time></trkpt><trkpt lat="41.5285485" lon="12.8577692"><ele>34.0</ele><time>2026-04-25T15:22:13.104Z</time></trkpt><trkpt lat="41.5286557" lon="12.857836"><ele>34.0</ele><time>2026-04-25T15:22:15.105Z</time></trkpt><trkpt lat="41.5287098" lon="12.8578817"><ele>34.0</ele><time>2026-04-25T15:22:16.105Z</time></trkpt><trkpt lat="41.5287686" lon="12.8579165"><ele>34.0</ele><time>2026-04-25T15:22:17.105Z</time></trkpt><trkpt lat="41.5288839" lon="12.8579904"><ele>34.0</ele><time>2026-04-25T15:22:19.104Z</time></trkpt><trkpt lat="41.52899" lon="12.8580585"><ele>34.0</ele><time>2026-04-25T15:22:21.105Z</time></trkpt><trkpt lat="41.529047" lon="12.8580983"><ele>34.0</ele><time>2026-04-25T15:22:22.105Z</time></trkpt><trkpt lat="41.5291114" lon="12.8581117"><ele>33.333333333333336</ele><time>2026-04-25T15:22:23.105Z</time></trkpt><trkpt lat="41.5291795" lon="12.8581455"><ele>32.66666666666667</ele><time>2026-04-25T15:22:24.105Z</time></trkpt><trkpt lat="41.5292475" lon="12.8581795"><ele>32.0</ele><time>2026-04-25T15:22:25.105Z</time></trkpt><trkpt lat="41.5293174" lon="12.8582009"><ele>31.333333333333336</ele><time>2026-04-25T15:22:26.105Z</time></trkpt><trkpt lat="41.529399" lon="12.8582446"><ele>30.666666666666668</ele><time>2026-04-25T15:22:27.104Z</time></trkpt><trkpt lat="41.529484" lon="12.858288"><ele>30.0</ele><time>2026-04-25T15:22:28.105Z</time></trkpt><trkpt lat="41.5295779" lon="12.8583427"><ele>29.8</ele><time>2026-04-25T15:22:29.104Z</time></trkpt><trkpt lat="41.5296768" lon="12.8583874"><ele>29.6</ele><time>2026-04-25T15:22:30.105Z</time></trkpt><trkpt lat="41.5297753" lon="12.8584566"><ele>29.4</ele><time>2026-04-25T15:22:31.105Z</time></trkpt><trkpt lat="41.5298637" lon="12.8584919"><ele>29.2</ele><time>2026-04-25T15:22:32.105Z</time></trkpt><trkpt lat="41.5299603" lon="12.8585466"><ele>29.0</ele><time>2026-04-25T15:22:33.104Z</time></trkpt><trkpt lat="41.5300509" lon="12.8585859"><ele>29.333333333333332</ele><time>2026-04-25T15:22:34.105Z</time></trkpt><trkpt lat="41.5301384" lon="12.8586374"><ele>29.666666666666664</ele><time>2026-04-25T15:22:35.105Z</time></trkpt><trkpt lat="41.5302044" lon="12.8586708"><ele>30.0</ele><time>2026-04-25T15:22:36.104Z</time></trkpt><trkpt lat="41.5302787" lon="12.8587215"><ele>30.333333333333336</ele><time>2026-04-25T15:22:37.104Z</time></trkpt><trkpt lat="41.5303595" lon="12.8587747"><ele>30.666666666666668</ele><time>2026-04-25T15:22:38.105Z</time></trkpt><trkpt lat="41.5304344" lon="12.8588084"><ele>31.0</ele><time>2026-04-25T15:22:39.104Z</time></trkpt><trkpt lat="41.5305081" lon="12.858847"><ele>31.000000000000004</ele><time>2026-04-25T15:22:40.104Z</time></trkpt><trkpt lat="41.5305803" lon="12.8588827"><ele>31.0</ele><time>2026-04-25T15:22:41.105Z</time></trkpt><trkpt lat="41.5306476" lon="12.8589161"><ele>31.0</ele><time>2026-04-25T15:22:42.105Z</time></trkpt><trkpt lat="41.5307143" lon="12.8589525"><ele>31.0</ele><time>2026-04-25T15:22:43.105Z</time></trkpt><trkpt lat="41.5308147" lon="12.8590006"><ele>31.000000000000004</ele><time>2026-04-25T15:22:45.105Z</time></trkpt><trkpt lat="41.5309057" lon="12.85904"><ele>31.0</ele><time>2026-04-25T15:22:47.105Z</time></trkpt><trkpt lat="41.5309901" lon="12.8590808"><ele>31.0</ele><time>2026-04-25T15:22:49.104Z</time></trkpt><trkpt lat="41.5310871" lon="12.8591391"><ele>31.0</ele><time>2026-04-25T15:22:51.105Z</time></trkpt><trkpt lat="41.5311948" lon="12.859175"><ele>31.0</ele><time>2026-04-25T15:22:53.105Z</time></trkpt><trkpt lat="41.5313132" lon="12.8592197"><ele>31.0</ele><time>2026-04-25T15:22:55.105Z</time></trkpt><trkpt lat="41.5313797" lon="12.8592493"><ele>31.0</ele><time>2026-04-25T15:22:56.105Z</time></trkpt><trkpt lat="41.531453" lon="12.8592915"><ele>31.166666666666668</ele><time>2026-04-25T15:22:57.105Z</time></trkpt><trkpt lat="41.5315219" lon="12.859335"><ele>31.333333333333336</ele><time>2026-04-25T15:22:58.105Z</time></trkpt><trkpt lat="41.5316009" lon="12.8593737"><ele>31.5</ele><time>2026-04-25T15:22:59.105Z</time></trkpt><trkpt lat="41.5316821" lon="12.8594208"><ele>31.666666666666664</ele><time>2026-04-25T15:23:00.105Z</time></trkpt><trkpt lat="41.531768" lon="12.8594631"><ele>31.833333333333332</ele><time>2026-04-25T15:23:01.105Z</time></trkpt><trkpt lat="41.5318624" lon="12.8595272"><ele>32.0</ele><time>2026-04-25T15:23:02.105Z</time></trkpt><trkpt lat="41.5319546" lon="12.8595755"><ele>31.999999999999996</ele><time>2026-04-25T15:23:03.104Z</time></trkpt><trkpt lat="41.532041" lon="12.85962"><ele>32.0</ele><time>2026-04-25T15:23:04.105Z</time></trkpt><trkpt lat="41.5321225" lon="12.8596662"><ele>32.0</ele><time>2026-04-25T15:23:05.104Z</time></trkpt><trkpt lat="41.5322005" lon="12.8597085"><ele>32.0</ele><time>2026-04-25T15:23:06.105Z</time></trkpt><trkpt lat="41.5322866" lon="12.8597421"><ele>31.999999999999996</ele><time>2026-04-25T15:23:07.105Z</time></trkpt><trkpt lat="41.5323662" lon="12.8597867"><ele>32.0</ele><time>2026-04-25T15:23:08.105Z</time></trkpt><trkpt lat="41.5324453" lon="12.859829"><ele>31.833333333333332</ele><time>2026-04-25T15:23:09.105Z</time></trkpt><trkpt lat="41.5325338" lon="12.8598742"><ele>31.666666666666664</ele><time>2026-04-25T15:23:10.105Z</time></trkpt><trkpt lat="41.5326162" lon="12.8599211"><ele>31.5</ele><time>2026-04-25T15:23:11.104Z</time></trkpt><trkpt lat="41.5326907" lon="12.8599467"><ele>31.333333333333336</ele><time>2026-04-25T15:23:12.105Z</time></trkpt><trkpt lat="41.5327704" lon="12.8599834"><ele>31.166666666666668</ele><time>2026-04-25T15:23:13.105Z</time></trkpt><trkpt lat="41.5328574" lon="12.8600285"><ele>31.0</ele><time>2026-04-25T15:23:14.105Z</time></trkpt><trkpt lat="41.5329397" lon="12.8600625"><ele>31.000000000000004</ele><time>2026-04-25T15:23:15.105Z</time></trkpt><trkpt lat="41.5330213" lon="12.8601035"><ele>31.0</ele><time>2026-04-25T15:23:16.104Z</time></trkpt><trkpt lat="41.5330999" lon="12.8601394"><ele>31.0</ele><time>2026-04-25T15:23:17.105Z</time></trkpt><trkpt lat="41.5331752" lon="12.8601806"><ele>31.0</ele><time>2026-04-25T15:23:18.104Z</time></trkpt><trkpt lat="41.5332511" lon="12.8602264"><ele>31.000000000000004</ele><time>2026-04-25T15:23:19.105Z</time></trkpt><trkpt lat="41.533324" lon="12.8602654"><ele>31.0</ele><time>2026-04-25T15:23:20.105Z</time></trkpt><trkpt lat="41.5333939" lon="12.8602988"><ele>31.000000000000004</ele><time>2026-04-25T15:23:21.105Z</time></trkpt><trkpt lat="41.5334577" lon="12.8603328"><ele>31.0</ele><time>2026-04-25T15:23:22.105Z</time></trkpt><trkpt lat="41.5335229" lon="12.8603716"><ele>31.0</ele><time>2026-04-25T15:23:23.104Z</time></trkpt><trkpt lat="41.5335997" lon="12.8604066"><ele>31.0</ele><time>2026-04-25T15:23:24.104Z</time></trkpt><trkpt lat="41.5336618" lon="12.8604421"><ele>31.000000000000004</ele><time>2026-04-25T15:23:25.105Z</time></trkpt><trkpt lat="41.5337241" lon="12.8604749"><ele>31.0</ele><time>2026-04-25T15:23:26.105Z</time></trkpt><trkpt lat="41.5338295" lon="12.860516"><ele>31.200000000000003</ele><time>2026-04-25T15:23:28.105Z</time></trkpt><trkpt lat="41.5339354" lon="12.8605711"><ele>31.400000000000002</ele><time>2026-04-25T15:23:30.104Z</time></trkpt><trkpt lat="41.5340117" lon="12.8606143"><ele>31.6</ele><time>2026-04-25T15:23:32.105Z</time></trkpt><trkpt lat="41.5340876" lon="12.8606741"><ele>31.8</ele><time>2026-04-25T15:23:34.104Z</time></trkpt><trkpt lat="41.534179" lon="12.8607147"><ele>32.0</ele><time>2026-04-25T15:23:36.105Z</time></trkpt><trkpt lat="41.5342581" lon="12.860754"><ele>31.999999999999996</ele><time>2026-04-25T15:23:38.105Z</time></trkpt><trkpt lat="41.5343376" lon="12.8607814"><ele>32.0</ele><time>2026-04-25T15:23:40.104Z</time></trkpt><trkpt lat="41.5344214" lon="12.860837"><ele>32.0</ele><time>2026-04-25T15:23:42.105Z</time></trkpt><trkpt lat="41.5345008" lon="12.8608777"><ele>32.0</ele><time>2026-04-25T15:23:44.105Z</time></trkpt><trkpt lat="41.534581" lon="12.8609117"><ele>31.999999999999996</ele><time>2026-04-25T15:23:46.105Z</time></trkpt><trkpt lat="41.5346463" lon="12.8609514"><ele>32.0</ele><time>2026-04-25T15:23:48.105Z</time></trkpt><trkpt lat="41.5347078" lon="12.861034"><ele>32.33333333333333</ele><time>2026-04-25T15:23:50.105Z</time></trkpt><trkpt lat="41.5347602" lon="12.8611149"><ele>32.666666666666664</ele><time>2026-04-25T15:23:52.104Z</time></trkpt><trkpt lat="41.5348038" lon="12.8611899"><ele>33.0</ele><time>2026-04-25T15:24:02.104Z</time></trkpt><trkpt lat="41.5348521" lon="12.8612503"><ele>33.333333333333336</ele><time>2026-04-25T15:24:06.105Z</time></trkpt><trkpt lat="41.5347796" lon="12.8611974"><ele>33.66666666666667</ele><time>2026-04-25T15:24:21.104Z</time></trkpt><trkpt lat="41.5347216" lon="12.8611137"><ele>34.0</ele><time>2026-04-25T15:24:24.105Z</time></trkpt><trkpt lat="41.5346763" lon="12.8610479"><ele>34.0</ele><time>2026-04-25T15:24:26.104Z</time></trkpt><trkpt lat="41.5346183" lon="12.8609768"><ele>34.0</ele><time>2026-04-25T15:24:28.105Z</time></trkpt><trkpt lat="41.5345415" lon="12.8609361"><ele>34.0</ele><time>2026-04-25T15:24:30.104Z</time></trkpt><trkpt lat="41.5344626" lon="12.8608994"><ele>34.0</ele><time>2026-04-25T15:24:32.105Z</time></trkpt><trkpt lat="41.5343858" lon="12.8608497"><ele>34.0</ele><time>2026-04-25T15:24:34.105Z</time></trkpt><trkpt lat="41.5343338" lon="12.8608003"><ele>34.0</ele><time>2026-04-25T15:24:36.104Z</time></trkpt><trkpt lat="41.5342803" lon="12.86073"><ele>33.66666666666667</ele><time>2026-04-25T15:24:39.105Z</time></trkpt><trkpt lat="41.5342056" lon="12.8606736"><ele>33.333333333333336</ele><time>2026-04-25T15:25:06.105Z</time></trkpt><trkpt lat="41.5341257" lon="12.8606321"><ele>33.0</ele><time>2026-04-25T15:25:09.104Z</time></trkpt><trkpt lat="41.5340798" lon="12.8607023"><ele>32.666666666666664</ele><time>2026-04-25T15:40:47.105Z</time></trkpt><trkpt lat="41.5340091" lon="12.8607185"><ele>32.33333333333333</ele><time>2026-04-25T15:40:49.105Z</time></trkpt><trkpt lat="41.5339258" lon="12.8606153"><ele>32.0</ele><time>2026-04-25T15:40:51.105Z</time></trkpt><trkpt lat="41.5338566" lon="12.8605272"><ele>31.999999999999996</ele><time>2026-04-25T15:40:53.105Z</time></trkpt><trkpt lat="41.5337942" lon="12.8604766"><ele>32.0</ele><time>2026-04-25T15:40:55.105Z</time></trkpt><trkpt lat="41.5337273" lon="12.8604529"><ele>32.0</ele><time>2026-04-25T15:40:57.105Z</time></trkpt><trkpt lat="41.5336602" lon="12.8604079"><ele>32.0</ele><time>2026-04-25T15:40:59.105Z</time></trkpt><trkpt lat="41.5335658" lon="12.8603567"><ele>31.999999999999996</ele><time>2026-04-25T15:41:01.105Z</time></trkpt><trkpt lat="41.5334547" lon="12.860301"><ele>32.0</ele><time>2026-04-25T15:41:03.105Z</time></trkpt><trkpt lat="41.5333515" lon="12.8602495"><ele>31.833333333333332</ele><time>2026-04-25T15:41:05.105Z</time></trkpt><trkpt lat="41.5332891" lon="12.8602303"><ele>31.666666666666664</ele><time>2026-04-25T15:41:06.105Z</time></trkpt><trkpt lat="41.5331992" lon="12.8602032"><ele>31.5</ele><time>2026-04-25T15:41:07.105Z</time></trkpt><trkpt lat="41.5330859" lon="12.8601526"><ele>31.333333333333336</ele><time>2026-04-25T15:41:09.104Z</time></trkpt><trkpt lat="41.5330248" lon="12.860111"><ele>31.166666666666668</ele><time>2026-04-25T15:41:10.105Z</time></trkpt><trkpt lat="41.5329633" lon="12.8600743"><ele>31.0</ele><time>2026-04-25T15:41:11.105Z</time></trkpt><trkpt lat="41.5328479" lon="12.8600086"><ele>31.0</ele><time>2026-04-25T15:41:13.104Z</time></trkpt><trkpt lat="41.532735" lon="12.8599541"><ele>31.0</ele><time>2026-04-25T15:41:15.105Z</time></trkpt><trkpt lat="41.5326279" lon="12.8598996"><ele>31.0</ele><time>2026-04-25T15:41:17.104Z</time></trkpt><trkpt lat="41.5325219" lon="12.8598567"><ele>31.0</ele><time>2026-04-25T15:41:19.105Z</time></trkpt><trkpt lat="41.5324134" lon="12.8598093"><ele>31.0</ele><time>2026-04-25T15:41:21.104Z</time></trkpt><trkpt lat="41.532317" lon="12.8597523"><ele>31.0</ele><time>2026-04-25T15:41:23.105Z</time></trkpt><trkpt lat="41.5322151" lon="12.8596897"><ele>31.0</ele><time>2026-04-25T15:41:25.105Z</time></trkpt><trkpt lat="41.5320996" lon="12.8596196"><ele>31.0</ele><time>2026-04-25T15:41:27.105Z</time></trkpt><trkpt lat="41.5319948" lon="12.8595648"><ele>31.200000000000003</ele><time>2026-04-25T15:41:29.105Z</time></trkpt><trkpt lat="41.5318879" lon="12.8595147"><ele>31.400000000000002</ele><time>2026-04-25T15:41:31.105Z</time></trkpt><trkpt lat="41.5317715" lon="12.8594561"><ele>31.6</ele><time>2026-04-25T15:41:33.105Z</time></trkpt><trkpt lat="41.5316486" lon="12.8594132"><ele>31.8</ele><time>2026-04-25T15:41:35.105Z</time></trkpt><trkpt lat="41.5315873" lon="12.8593856"><ele>32.0</ele><time>2026-04-25T15:41:36.105Z</time></trkpt><trkpt lat="41.5315283" lon="12.8593541"><ele>31.999999999999996</ele><time>2026-04-25T15:41:37.104Z</time></trkpt><trkpt lat="41.531461" lon="12.8593246"><ele>32.0</ele><time>2026-04-25T15:41:38.105Z</time></trkpt><trkpt lat="41.5313534" lon="12.8592782"><ele>32.0</ele><time>2026-04-25T15:41:40.105Z</time></trkpt><trkpt lat="41.5312835" lon="12.8592474"><ele>32.0</ele><time>2026-04-25T15:41:42.105Z</time></trkpt><trkpt lat="41.5312214" lon="12.8591959"><ele>31.999999999999996</ele><time>2026-04-25T15:41:45.105Z</time></trkpt><trkpt lat="41.5311852" lon="12.8591135"><ele>32.0</ele><time>2026-04-25T15:41:54.105Z</time></trkpt><trkpt lat="41.5312103" lon="12.8590357"><ele>31.8</ele><time>2026-04-25T15:41:58.105Z</time></trkpt><trkpt lat="41.5313771" lon="12.8589916"><ele>31.6</ele><time>2026-04-25T15:41:59.105Z</time></trkpt><trkpt lat="41.5314421" lon="12.8590514"><ele>31.400000000000002</ele><time>2026-04-25T15:42:00.105Z</time></trkpt><trkpt lat="41.5315058" lon="12.8590989"><ele>31.200000000000003</ele><time>2026-04-25T15:42:01.105Z</time></trkpt><trkpt lat="41.5315734" lon="12.8591294"><ele>31.0</ele><time>2026-04-25T15:42:02.104Z</time></trkpt><trkpt lat="41.531646" lon="12.8591682"><ele>31.0</ele><time>2026-04-25T15:42:03.105Z</time></trkpt><trkpt lat="41.5317127" lon="12.8591992"><ele>31.000000000000004</ele><time>2026-04-25T15:42:04.105Z</time></trkpt><trkpt lat="41.5317814" lon="12.8592319"><ele>31.0</ele><time>2026-04-25T15:42:05.105Z</time></trkpt><trkpt lat="41.5318527" lon="12.8592715"><ele>31.0</ele><time>2026-04-25T15:42:06.105Z</time></trkpt><trkpt lat="41.5319228" lon="12.859313"><ele>31.000000000000004</ele><time>2026-04-25T15:42:07.105Z</time></trkpt><trkpt lat="41.5319863" lon="12.8593333"><ele>31.0</ele><time>2026-04-25T15:42:08.104Z</time></trkpt><trkpt lat="41.5320561" lon="12.8593674"><ele>31.0</ele><time>2026-04-25T15:42:09.105Z</time></trkpt><trkpt lat="41.532127" lon="12.8594015"><ele>31.000000000000004</ele><time>2026-04-25T15:42:10.105Z</time></trkpt><trkpt lat="41.5321965" lon="12.8594367"><ele>31.0</ele><time>2026-04-25T15:42:11.105Z</time></trkpt><trkpt lat="41.5322688" lon="12.8594738"><ele>31.0</ele><time>2026-04-25T15:42:12.105Z</time></trkpt><trkpt lat="41.5323344" lon="12.8595061"><ele>31.0</ele><time>2026-04-25T15:42:13.105Z</time></trkpt><trkpt lat="41.5324636" lon="12.8595674"><ele>31.000000000000004</ele><time>2026-04-25T15:42:15.105Z</time></trkpt><trkpt lat="41.5325332" lon="12.8596016"><ele>31.0</ele><time>2026-04-25T15:42:16.105Z</time></trkpt><trkpt lat="41.5325955" lon="12.8596348"><ele>31.0</ele><time>2026-04-25T15:42:17.105Z</time></trkpt><trkpt lat="41.5326611" lon="12.859662"><ele>31.000000000000004</ele><time>2026-04-25T15:42:18.105Z</time></trkpt><trkpt lat="41.5327246" lon="12.8596905"><ele>31.0</ele><time>2026-04-25T15:42:19.104Z</time></trkpt><trkpt lat="41.5327864" lon="12.8597126"><ele>31.0</ele><time>2026-04-25T15:42:20.105Z</time></trkpt><trkpt lat="41.5328609" lon="12.8597533"><ele>31.000000000000004</ele><time>2026-04-25T15:42:21.105Z</time></trkpt><trkpt lat="41.532928" lon="12.8597877"><ele>31.0</ele><time>2026-04-25T15:42:22.104Z</time></trkpt><trkpt lat="41.5329988" lon="12.8598313"><ele>31.0</ele><time>2026-04-25T15:42:23.105Z</time></trkpt><trkpt lat="41.5330609" lon="12.8598649"><ele>31.000000000000004</ele><time>2026-04-25T15:42:24.105Z</time></trkpt><trkpt lat="41.5331334" lon="12.8599078"><ele>31.0</ele><time>2026-04-25T15:42:25.105Z</time></trkpt><trkpt lat="41.5332108" lon="12.8599438"><ele>31.0</ele><time>2026-04-25T15:42:26.104Z</time></trkpt><trkpt lat="41.5332858" lon="12.8599806"><ele>31.0</ele><time>2026-04-25T15:42:27.105Z</time></trkpt><trkpt lat="41.5333537" lon="12.8600122"><ele>31.000000000000004</ele><time>2026-04-25T15:42:28.105Z</time></trkpt><trkpt lat="41.5334224" lon="12.860044"><ele>31.0</ele><time>2026-04-25T15:42:29.105Z</time></trkpt><trkpt lat="41.5334832" lon="12.8600733"><ele>31.000000000000004</ele><time>2026-04-25T15:42:30.105Z</time></trkpt><trkpt lat="41.5335497" lon="12.8601085"><ele>31.0</ele><time>2026-04-25T15:42:31.105Z</time></trkpt><trkpt lat="41.533616" lon="12.8601412"><ele>31.0</ele><time>2026-04-25T15:42:32.104Z</time></trkpt><trkpt lat="41.5336814" lon="12.8601739"><ele>31.0</ele><time>2026-04-25T15:42:33.105Z</time></trkpt><trkpt lat="41.5337481" lon="12.8601992"><ele>31.000000000000004</ele><time>2026-04-25T15:42:34.105Z</time></trkpt><trkpt lat="41.5338662" lon="12.8602511"><ele>31.0</ele><time>2026-04-25T15:42:36.105Z</time></trkpt><trkpt lat="41.5339287" lon="12.8602796"><ele>31.166666666666668</ele><time>2026-04-25T15:42:37.105Z</time></trkpt><trkpt lat="41.5340373" lon="12.8603337"><ele>31.333333333333336</ele><time>2026-04-25T15:42:39.105Z</time></trkpt><trkpt lat="41.5341184" lon="12.8603701"><ele>31.5</ele><time>2026-04-25T15:42:41.105Z</time></trkpt><trkpt lat="41.5341816" lon="12.8604136"><ele>31.666666666666664</ele><time>2026-04-25T15:42:43.104Z</time></trkpt><trkpt lat="41.5342397" lon="12.8604487"><ele>31.833333333333332</ele><time>2026-04-25T15:42:46.105Z</time></trkpt><trkpt lat="41.5342337" lon="12.8605446"><ele>32.0</ele><time>2026-04-25T15:42:58.105Z</time></trkpt><trkpt lat="41.5341538" lon="12.8603642"><ele>31.999999999999996</ele><time>2026-04-25T15:43:02.105Z</time></trkpt><trkpt lat="41.5341237" lon="12.8602823"><ele>32.0</ele><time>2026-04-25T15:43:04.104Z</time></trkpt><trkpt lat="41.5340381" lon="12.8602287"><ele>32.0</ele><time>2026-04-25T15:43:06.105Z</time></trkpt><trkpt lat="41.5339422" lon="12.8601793"><ele>32.0</ele><time>2026-04-25T15:43:08.104Z</time></trkpt><trkpt lat="41.5338541" lon="12.8601368"><ele>31.999999999999996</ele><time>2026-04-25T15:43:10.105Z</time></trkpt><trkpt lat="41.5337941" lon="12.8601065"><ele>32.0</ele><time>2026-04-25T15:43:12.105Z</time></trkpt><trkpt lat="41.5337129" lon="12.8600668"><ele>31.833333333333332</ele><time>2026-04-25T15:43:15.105Z</time></trkpt><trkpt lat="41.5336502" lon="12.8599573"><ele>31.666666666666664</ele><time>2026-04-25T15:43:17.105Z</time></trkpt><trkpt lat="41.5335822" lon="12.8598886"><ele>31.5</ele><time>2026-04-25T15:43:19.105Z</time></trkpt><trkpt lat="41.5335152" lon="12.8598651"><ele>31.333333333333336</ele><time>2026-04-25T15:43:21.105Z</time></trkpt><trkpt lat="41.5334364" lon="12.859864"><ele>31.166666666666668</ele><time>2026-04-25T15:43:24.105Z</time></trkpt><trkpt lat="41.5333625" lon="12.8598789"><ele>31.0</ele><time>2026-04-25T15:43:28.105Z</time></trkpt><trkpt lat="41.533312" lon="12.8599344"><ele>31.000000000000004</ele><time>2026-04-25T15:43:34.104Z</time></trkpt><trkpt lat="41.5332523" lon="12.859993"><ele>31.0</ele><time>2026-04-25T15:43:37.105Z</time></trkpt><trkpt lat="41.533174" lon="12.8599638"><ele>31.0</ele><time>2026-04-25T15:43:39.105Z</time></trkpt><trkpt lat="41.5331186" lon="12.8598725"><ele>31.0</ele><time>2026-04-25T15:43:41.105Z</time></trkpt><trkpt lat="41.5330465" lon="12.8597423"><ele>31.000000000000004</ele><time>2026-04-25T15:43:43.105Z</time></trkpt><trkpt lat="41.5329707" lon="12.8596984"><ele>31.0</ele><time>2026-04-25T15:43:45.105Z</time></trkpt><trkpt lat="41.532898" lon="12.8597219"><ele>31.000000000000004</ele><time>2026-04-25T15:43:47.105Z</time></trkpt><trkpt lat="41.5328161" lon="12.8597753"><ele>31.0</ele><time>2026-04-25T15:43:49.105Z</time></trkpt><trkpt lat="41.5327457" lon="12.8597586"><ele>31.0</ele><time>2026-04-25T15:43:51.105Z</time></trkpt><trkpt lat="41.5326901" lon="12.8597023"><ele>31.0</ele><time>2026-04-25T15:43:53.105Z</time></trkpt><trkpt lat="41.5326558" lon="12.8595741"><ele>31.000000000000004</ele><time>2026-04-25T15:43:55.105Z</time></trkpt><trkpt lat="41.5326272" lon="12.8594872"><ele>31.0</ele><time>2026-04-25T15:43:57.105Z</time></trkpt><trkpt lat="41.5325995" lon="12.8593964"><ele>31.000000000000004</ele><time>2026-04-25T15:43:59.105Z</time></trkpt><trkpt lat="41.5326597" lon="12.8593354"><ele>31.0</ele><time>2026-04-25T15:44:06.105Z</time></trkpt><trkpt lat="41.5326954" lon="12.8594232"><ele>31.0</ele><time>2026-04-25T15:44:11.105Z</time></trkpt><trkpt lat="41.5326739" lon="12.8595182"><ele>31.0</ele><time>2026-04-25T15:44:15.105Z</time></trkpt><trkpt lat="41.5326284" lon="12.8596142"><ele>31.000000000000004</ele><time>2026-04-25T15:44:18.105Z</time></trkpt><trkpt lat="41.5325355" lon="12.8596664"><ele>31.0</ele><time>2026-04-25T15:44:21.105Z</time></trkpt><trkpt lat="41.5324748" lon="12.8595866"><ele>31.0</ele><time>2026-04-25T15:44:22.105Z</time></trkpt><trkpt lat="41.5323535" lon="12.8595164"><ele>31.0</ele><time>2026-04-25T15:44:24.105Z</time></trkpt><trkpt lat="41.5322728" lon="12.8594797"><ele>31.0</ele><time>2026-04-25T15:44:25.105Z</time></trkpt><trkpt lat="41.5321734" lon="12.8594315"><ele>31.0</ele><time>2026-04-25T15:44:26.104Z</time></trkpt><trkpt lat="41.5320857" lon="12.8593875"><ele>31.0</ele><time>2026-04-25T15:44:27.105Z</time></trkpt><trkpt lat="41.5319942" lon="12.8593423"><ele>31.000000000000004</ele><time>2026-04-25T15:44:28.105Z</time></trkpt><trkpt lat="41.5319084" lon="12.8592982"><ele>31.0</ele><time>2026-04-25T15:44:29.105Z</time></trkpt><trkpt lat="41.5318268" lon="12.8592541"><ele>31.0</ele><time>2026-04-25T15:44:30.105Z</time></trkpt><trkpt lat="41.5317462" lon="12.8592152"><ele>31.0</ele><time>2026-04-25T15:44:31.105Z</time></trkpt><trkpt lat="41.5316782" lon="12.8591907"><ele>31.000000000000004</ele><time>2026-04-25T15:44:32.104Z</time></trkpt><trkpt lat="41.5316087" lon="12.8591464"><ele>31.0</ele><time>2026-04-25T15:44:33.104Z</time></trkpt><trkpt lat="41.531531" lon="12.8591113"><ele>31.000000000000004</ele><time>2026-04-25T15:44:34.105Z</time></trkpt><trkpt lat="41.5314567" lon="12.8590731"><ele>31.0</ele><time>2026-04-25T15:44:35.105Z</time></trkpt><trkpt lat="41.531392" lon="12.8590407"><ele>31.0</ele><time>2026-04-25T15:44:36.105Z</time></trkpt><trkpt lat="41.5313242" lon="12.8590031"><ele>31.0</ele><time>2026-04-25T15:44:37.105Z</time></trkpt><trkpt lat="41.5312541" lon="12.8589598"><ele>31.000000000000004</ele><time>2026-04-25T15:44:38.105Z</time></trkpt><trkpt lat="41.5311768" lon="12.8589181"><ele>31.0</ele><time>2026-04-25T15:44:39.105Z</time></trkpt><trkpt lat="41.5310874" lon="12.8588787"><ele>31.000000000000004</ele><time>2026-04-25T15:44:40.104Z</time></trkpt><trkpt lat="41.5310067" lon="12.8588398"><ele>31.0</ele><time>2026-04-25T15:44:41.105Z</time></trkpt><trkpt lat="41.530934" lon="12.8588043"><ele>31.0</ele><time>2026-04-25T15:44:42.105Z</time></trkpt><trkpt lat="41.530861" lon="12.8587627"><ele>31.0</ele><time>2026-04-25T15:44:43.105Z</time></trkpt><trkpt lat="41.530783" lon="12.8587245"><ele>31.000000000000004</ele><time>2026-04-25T15:44:44.105Z</time></trkpt><trkpt lat="41.5306959" lon="12.8586758"><ele>31.0</ele><time>2026-04-25T15:44:45.105Z</time></trkpt><trkpt lat="41.5306117" lon="12.8586315"><ele>31.000000000000004</ele><time>2026-04-25T15:44:46.105Z</time></trkpt><trkpt lat="41.5305323" lon="12.8585858"><ele>31.0</ele><time>2026-04-25T15:44:47.105Z</time></trkpt><trkpt lat="41.5304533" lon="12.8585421"><ele>31.0</ele><time>2026-04-25T15:44:48.105Z</time></trkpt><trkpt lat="41.5303651" lon="12.8585008"><ele>31.0</ele><time>2026-04-25T15:44:49.104Z</time></trkpt><trkpt lat="41.5302803" lon="12.8584543"><ele>31.000000000000004</ele><time>2026-04-25T15:44:50.105Z</time></trkpt><trkpt lat="41.5301981" lon="12.8584091"><ele>31.0</ele><time>2026-04-25T15:44:51.105Z</time></trkpt><trkpt lat="41.5301151" lon="12.8583741"><ele>30.6</ele><time>2026-04-25T15:44:52.105Z</time></trkpt><trkpt lat="41.5300298" lon="12.858335"><ele>30.200000000000003</ele><time>2026-04-25T15:44:53.105Z</time></trkpt><trkpt lat="41.5299359" lon="12.8582897"><ele>29.799999999999997</ele><time>2026-04-25T15:44:54.105Z</time></trkpt><trkpt lat="41.5298481" lon="12.8582478"><ele>29.4</ele><time>2026-04-25T15:44:55.104Z</time></trkpt><trkpt lat="41.5297551" lon="12.8581944"><ele>29.0</ele><time>2026-04-25T15:44:56.105Z</time></trkpt><trkpt lat="41.5296596" lon="12.8581475"><ele>28.999999999999996</ele><time>2026-04-25T15:44:57.105Z</time></trkpt><trkpt lat="41.5295694" lon="12.8581022"><ele>29.0</ele><time>2026-04-25T15:44:58.105Z</time></trkpt><trkpt lat="41.52948" lon="12.8580616"><ele>29.0</ele><time>2026-04-25T15:44:59.105Z</time></trkpt><trkpt lat="41.5293977" lon="12.8580173"><ele>29.0</ele><time>2026-04-25T15:45:00.104Z</time></trkpt><trkpt lat="41.5293202" lon="12.857979"><ele>28.999999999999996</ele><time>2026-04-25T15:45:01.105Z</time></trkpt><trkpt lat="41.5292403" lon="12.8579403"><ele>29.0</ele><time>2026-04-25T15:45:02.105Z</time></trkpt><trkpt lat="41.529164" lon="12.857902"><ele>29.2</ele><time>2026-04-25T15:45:03.105Z</time></trkpt><trkpt lat="41.5290933" lon="12.8578724"><ele>29.4</ele><time>2026-04-25T15:45:04.104Z</time></trkpt><trkpt lat="41.5290089" lon="12.8578445"><ele>29.6</ele><time>2026-04-25T15:45:05.105Z</time></trkpt><trkpt lat="41.5289221" lon="12.8577955"><ele>29.8</ele><time>2026-04-25T15:45:06.105Z</time></trkpt><trkpt lat="41.5288242" lon="12.8577483"><ele>30.0</ele><time>2026-04-25T15:45:07.105Z</time></trkpt><trkpt lat="41.5287152" lon="12.8576945"><ele>30.2</ele><time>2026-04-25T15:45:08.105Z</time></trkpt><trkpt lat="41.5286135" lon="12.8576404"><ele>30.4</ele><time>2026-04-25T15:45:09.105Z</time></trkpt><trkpt lat="41.5285115" lon="12.8575939"><ele>30.6</ele><time>2026-04-25T15:45:10.105Z</time></trkpt><trkpt lat="41.5284198" lon="12.8575485"><ele>30.8</ele><time>2026-04-25T15:45:11.105Z</time></trkpt><trkpt lat="41.528328" lon="12.8575028"><ele>31.0</ele><time>2026-04-25T15:45:12.105Z</time></trkpt><trkpt lat="41.5282392" lon="12.8574637"><ele>31.0</ele><time>2026-04-25T15:45:13.105Z</time></trkpt><trkpt lat="41.5281472" lon="12.8574206"><ele>31.0</ele><time>2026-04-25T15:45:14.105Z</time></trkpt><trkpt lat="41.5280576" lon="12.857374"><ele>31.0</ele><time>2026-04-25T15:45:15.105Z</time></trkpt><trkpt lat="41.527965" lon="12.8573258"><ele>31.0</ele><time>2026-04-25T15:45:16.105Z</time></trkpt><trkpt lat="41.5278742" lon="12.8572751"><ele>31.0</ele><time>2026-04-25T15:45:17.105Z</time></trkpt><trkpt lat="41.5277854" lon="12.8572222"><ele>31.500000000000004</ele><time>2026-04-25T15:45:18.105Z</time></trkpt><trkpt lat="41.5276995" lon="12.85717"><ele>32.0</ele><time>2026-04-25T15:45:19.105Z</time></trkpt><trkpt lat="41.5276034" lon="12.8571112"><ele>32.5</ele><time>2026-04-25T15:45:21.105Z</time></trkpt><trkpt lat="41.5275352" lon="12.8570769"><ele>33.0</ele><time>2026-04-25T15:45:25.105Z</time></trkpt><trkpt lat="41.5274537" lon="12.8570156"><ele>33.5</ele><time>2026-04-25T15:45:27.104Z</time></trkpt><trkpt lat="41.5273883" lon="12.85696"><ele>34.0</ele><time>2026-04-25T15:45:28.104Z</time></trkpt><trkpt lat="41.5273187" lon="12.8568938"><ele>34.0</ele><time>2026-04-25T15:45:29.105Z</time></trkpt><trkpt lat="41.5272515" lon="12.8568309"><ele>34.0</ele><time>2026-04-25T15:45:30.104Z</time></trkpt><trkpt lat="41.5271741" lon="12.8567524"><ele>34.0</ele><time>2026-04-25T15:45:31.105Z</time></trkpt><trkpt lat="41.5270901" lon="12.8566854"><ele>34.0</ele><time>2026-04-25T15:45:32.105Z</time></trkpt><trkpt lat="41.527014" lon="12.8566136"><ele>34.0</ele><time>2026-04-25T15:45:33.105Z</time></trkpt><trkpt lat="41.5269457" lon="12.856547"><ele>33.5</ele><time>2026-04-25T15:45:34.104Z</time></trkpt><trkpt lat="41.52688" lon="12.8564822"><ele>33.0</ele><time>2026-04-25T15:45:35.105Z</time></trkpt><trkpt lat="41.5268173" lon="12.8564146"><ele>32.5</ele><time>2026-04-25T15:45:36.104Z</time></trkpt><trkpt lat="41.5267518" lon="12.8563487"><ele>32.0</ele><time>2026-04-25T15:45:37.104Z</time></trkpt><trkpt lat="41.5266939" lon="12.8562805"><ele>31.500000000000004</ele><time>2026-04-25T15:45:38.105Z</time></trkpt><trkpt lat="41.5266424" lon="12.8562159"><ele>31.0</ele><time>2026-04-25T15:45:39.104Z</time></trkpt><trkpt lat="41.5265885" lon="12.8561535"><ele>31.000000000000004</ele><time>2026-04-25T15:45:40.105Z</time></trkpt><trkpt lat="41.5265345" lon="12.856086"><ele>31.0</ele><time>2026-04-25T15:45:41.105Z</time></trkpt><trkpt lat="41.5264824" lon="12.8560165"><ele>31.0</ele><time>2026-04-25T15:45:42.105Z</time></trkpt><trkpt lat="41.5264284" lon="12.8559522"><ele>31.0</ele><time>2026-04-25T15:45:43.104Z</time></trkpt><trkpt lat="41.526371" lon="12.8558796"><ele>31.000000000000004</ele><time>2026-04-25T15:45:44.105Z</time></trkpt><trkpt lat="41.5263097" lon="12.8557928"><ele>31.0</ele><time>2026-04-25T15:45:45.105Z</time></trkpt><trkpt lat="41.5262494" lon="12.855716"><ele>30.714285714285715</ele><time>2026-04-25T15:45:46.105Z</time></trkpt><trkpt lat="41.5261873" lon="12.8556403"><ele>30.42857142857143</ele><time>2026-04-25T15:45:47.105Z</time></trkpt><trkpt lat="41.5261342" lon="12.8555741"><ele>30.142857142857146</ele><time>2026-04-25T15:45:48.105Z</time></trkpt><trkpt lat="41.5260835" lon="12.8555114"><ele>29.85714285714286</ele><time>2026-04-25T15:45:49.105Z</time></trkpt><trkpt lat="41.526032" lon="12.8554603"><ele>29.571428571428573</ele><time>2026-04-25T15:45:50.105Z</time></trkpt><trkpt lat="41.5259792" lon="12.8554067"><ele>29.285714285714292</ele><time>2026-04-25T15:45:51.104Z</time></trkpt><trkpt lat="41.5259278" lon="12.8553397"><ele>29.000000000000004</ele><time>2026-04-25T15:45:52.104Z</time></trkpt><trkpt lat="41.5258773" lon="12.8552556"><ele>28.999999999999996</ele><time>2026-04-25T15:45:53.104Z</time></trkpt><trkpt lat="41.5258136" lon="12.8551749"><ele>29.0</ele><time>2026-04-25T15:45:54.104Z</time></trkpt><trkpt lat="41.5257483" lon="12.8550897"><ele>29.0</ele><time>2026-04-25T15:45:55.105Z</time></trkpt><trkpt lat="41.5256878" lon="12.8550069"><ele>29.0</ele><time>2026-04-25T15:45:56.105Z</time></trkpt><trkpt lat="41.5256216" lon="12.8549239"><ele>28.999999999999996</ele><time>2026-04-25T15:45:57.105Z</time></trkpt><trkpt lat="41.5255589" lon="12.8548411"><ele>29.0</ele><time>2026-04-25T15:45:58.105Z</time></trkpt><trkpt lat="41.5254858" lon="12.8547574"><ele>28.999999999999996</ele><time>2026-04-25T15:45:59.104Z</time></trkpt><trkpt lat="41.5254245" lon="12.8546765"><ele>29.0</ele><time>2026-04-25T15:46:00.104Z</time></trkpt><trkpt lat="41.5253545" lon="12.8545888"><ele>29.0</ele><time>2026-04-25T15:46:01.104Z</time></trkpt><trkpt lat="41.5252909" lon="12.8545128"><ele>29.0</ele><time>2026-04-25T15:46:02.105Z</time></trkpt><trkpt lat="41.525229" lon="12.8544357"><ele>28.999999999999996</ele><time>2026-04-25T15:46:03.104Z</time></trkpt><trkpt lat="41.5251738" lon="12.8543617"><ele>29.0</ele><time>2026-04-25T15:46:04.105Z</time></trkpt><trkpt lat="41.5251195" lon="12.8542857"><ele>28.999999999999996</ele><time>2026-04-25T15:46:05.105Z</time></trkpt><trkpt lat="41.5250574" lon="12.8542094"><ele>29.0</ele><time>2026-04-25T15:46:06.105Z</time></trkpt><trkpt lat="41.524993" lon="12.8541224"><ele>29.0</ele><time>2026-04-25T15:46:07.105Z</time></trkpt><trkpt lat="41.5249338" lon="12.8540494"><ele>29.0</ele><time>2026-04-25T15:46:08.104Z</time></trkpt><trkpt lat="41.5248708" lon="12.8539792"><ele>28.999999999999996</ele><time>2026-04-25T15:46:09.105Z</time></trkpt><trkpt lat="41.5248071" lon="12.8539089"><ele>29.0</ele><time>2026-04-25T15:46:10.105Z</time></trkpt><trkpt lat="41.5247538" lon="12.8538198"><ele>28.999999999999996</ele><time>2026-04-25T15:46:11.105Z</time></trkpt><trkpt lat="41.5247009" lon="12.8537482"><ele>29.0</ele><time>2026-04-25T15:46:12.105Z</time></trkpt><trkpt lat="41.5246122" lon="12.8536324"><ele>29.0</ele><time>2026-04-25T15:46:14.105Z</time></trkpt><trkpt lat="41.5245519" lon="12.8535577"><ele>29.0</ele><time>2026-04-25T15:46:15.105Z</time></trkpt><trkpt lat="41.5244932" lon="12.8534742"><ele>28.999999999999996</ele><time>2026-04-25T15:46:16.105Z</time></trkpt><trkpt lat="41.5244415" lon="12.8534146"><ele>29.0</ele><time>2026-04-25T15:46:17.105Z</time></trkpt><trkpt lat="41.5243891" lon="12.8533513"><ele>28.999999999999996</ele><time>2026-04-25T15:46:18.104Z</time></trkpt><trkpt lat="41.5243407" lon="12.8532853"><ele>29.0</ele><time>2026-04-25T15:46:19.104Z</time></trkpt><trkpt lat="41.5242934" lon="12.8532134"><ele>29.0</ele><time>2026-04-25T15:46:20.105Z</time></trkpt><trkpt lat="41.5242326" lon="12.8531317"><ele>29.0</ele><time>2026-04-25T15:46:21.105Z</time></trkpt><trkpt lat="41.524169" lon="12.8530553"><ele>28.999999999999996</ele><time>2026-04-25T15:46:22.105Z</time></trkpt><trkpt lat="41.5241203" lon="12.8529676"><ele>29.0</ele><time>2026-04-25T15:46:23.105Z</time></trkpt><trkpt lat="41.5240664" lon="12.8528924"><ele>28.999999999999996</ele><time>2026-04-25T15:46:24.105Z</time></trkpt><trkpt lat="41.5240092" lon="12.8528163"><ele>29.0</ele><time>2026-04-25T15:46:25.105Z</time></trkpt><trkpt lat="41.5239498" lon="12.8527486"><ele>29.0</ele><time>2026-04-25T15:46:26.105Z</time></trkpt><trkpt lat="41.5238973" lon="12.8526698"><ele>29.0</ele><time>2026-04-25T15:46:27.104Z</time></trkpt><trkpt lat="41.5238484" lon="12.8526015"><ele>28.999999999999996</ele><time>2026-04-25T15:46:28.104Z</time></trkpt><trkpt lat="41.5237988" lon="12.8525398"><ele>29.0</ele><time>2026-04-25T15:46:29.104Z</time></trkpt><trkpt lat="41.5237417" lon="12.8524626"><ele>28.799999999999997</ele><time>2026-04-25T15:46:31.105Z</time></trkpt><trkpt lat="41.5236882" lon="12.8523887"><ele>28.599999999999998</ele><time>2026-04-25T15:46:34.105Z</time></trkpt><trkpt lat="41.5236302" lon="12.8523119"><ele>28.4</ele><time>2026-04-25T15:46:36.104Z</time></trkpt><trkpt lat="41.5235447" lon="12.8522231"><ele>28.2</ele><time>2026-04-25T15:46:38.105Z</time></trkpt><trkpt lat="41.5234539" lon="12.8521123"><ele>28.0</ele><time>2026-04-25T15:46:40.104Z</time></trkpt><trkpt lat="41.5234091" lon="12.8520457"><ele>28.0</ele><time>2026-04-25T15:46:41.105Z</time></trkpt><trkpt lat="41.5233281" lon="12.851943"><ele>27.999999999999996</ele><time>2026-04-25T15:46:43.105Z</time></trkpt><trkpt lat="41.5232559" lon="12.8518498"><ele>27.999999999999996</ele><time>2026-04-25T15:46:45.105Z</time></trkpt><trkpt lat="41.5231889" lon="12.8517584"><ele>28.0</ele><time>2026-04-25T15:46:47.105Z</time></trkpt><trkpt lat="41.5230995" lon="12.8516682"><ele>28.0</ele><time>2026-04-25T15:46:49.105Z</time></trkpt><trkpt lat="41.523019" lon="12.8515768"><ele>28.599999999999998</ele><time>2026-04-25T15:46:51.105Z</time></trkpt><trkpt lat="41.5229515" lon="12.8514936"><ele>29.199999999999996</ele><time>2026-04-25T15:46:53.105Z</time></trkpt><trkpt lat="41.5228757" lon="12.8514052"><ele>29.8</ele><time>2026-04-25T15:46:55.105Z</time></trkpt><trkpt lat="41.5227965" lon="12.85132"><ele>30.4</ele><time>2026-04-25T15:46:57.104Z</time></trkpt><trkpt lat="41.5227192" lon="12.8512144"><ele>31.0</ele><time>2026-04-25T15:46:59.105Z</time></trkpt><trkpt lat="41.5226571" lon="12.8511296"><ele>31.000000000000004</ele><time>2026-04-25T15:47:01.105Z</time></trkpt><trkpt lat="41.522594" lon="12.8510965"><ele>31.0</ele><time>2026-04-25T15:47:07.105Z</time></trkpt><trkpt lat="41.5225172" lon="12.8511784"><ele>31.0</ele><time>2026-04-25T15:47:10.105Z</time></trkpt><trkpt lat="41.522429" lon="12.851154"><ele>31.0</ele><time>2026-04-25T15:47:13.105Z</time></trkpt><trkpt lat="41.5223455" lon="12.8510492"><ele>31.000000000000004</ele><time>2026-04-25T15:47:15.104Z</time></trkpt><trkpt lat="41.5222944" lon="12.8509933"><ele>31.0</ele><time>2026-04-25T15:47:16.105Z</time></trkpt><trkpt lat="41.5222234" lon="12.8509141"><ele>30.500000000000004</ele><time>2026-04-25T15:47:18.105Z</time></trkpt><trkpt lat="41.5221691" lon="12.8508367"><ele>30.0</ele><time>2026-04-25T15:47:20.105Z</time></trkpt><trkpt lat="41.5221097" lon="12.8507607"><ele>29.5</ele><time>2026-04-25T15:47:22.104Z</time></trkpt><trkpt lat="41.5220349" lon="12.8506797"><ele>29.0</ele><time>2026-04-25T15:47:24.104Z</time></trkpt><trkpt lat="41.5219972" lon="12.850588"><ele>28.500000000000004</ele><time>2026-04-25T15:47:26.105Z</time></trkpt><trkpt lat="41.5219445" lon="12.8505178"><ele>28.0</ele><time>2026-04-25T15:47:28.105Z</time></trkpt><trkpt lat="41.5218776" lon="12.8504686"><ele>27.833333333333336</ele><time>2026-04-25T15:47:30.105Z</time></trkpt><trkpt lat="41.5218147" lon="12.8503953"><ele>27.666666666666668</ele><time>2026-04-25T15:47:32.104Z</time></trkpt><trkpt lat="41.5217618" lon="12.8503305"><ele>27.5</ele><time>2026-04-25T15:47:34.105Z</time></trkpt><trkpt lat="41.5217234" lon="12.850255"><ele>27.333333333333336</ele><time>2026-04-25T15:47:36.105Z</time></trkpt><trkpt lat="41.521678" lon="12.8501757"><ele>27.166666666666668</ele><time>2026-04-25T15:47:38.105Z</time></trkpt><trkpt lat="41.5216044" lon="12.8500931"><ele>27.0</ele><time>2026-04-25T15:47:41.104Z</time></trkpt><trkpt lat="41.5215499" lon="12.850001"><ele>26.6</ele><time>2026-04-25T15:47:43.105Z</time></trkpt><trkpt lat="41.5214817" lon="12.849926"><ele>26.200000000000003</ele><time>2026-04-25T15:47:45.105Z</time></trkpt><trkpt lat="41.521408" lon="12.8498416"><ele>25.8</ele><time>2026-04-25T15:47:47.105Z</time></trkpt><trkpt lat="41.5213575" lon="12.8497854"><ele>25.4</ele><time>2026-04-25T15:47:48.105Z</time></trkpt><trkpt lat="41.521272" lon="12.8496749"><ele>25.0</ele><time>2026-04-25T15:47:50.105Z</time></trkpt><trkpt lat="41.5211901" lon="12.8495757"><ele>25.8</ele><time>2026-04-25T15:47:52.105Z</time></trkpt><trkpt lat="41.5211133" lon="12.8494936"><ele>26.6</ele><time>2026-04-25T15:47:54.105Z</time></trkpt><trkpt lat="41.5210517" lon="12.8493912"><ele>27.4</ele><time>2026-04-25T15:47:56.104Z</time></trkpt><trkpt lat="41.5209944" lon="12.8493038"><ele>28.2</ele><time>2026-04-25T15:47:58.105Z</time></trkpt><trkpt lat="41.520926" lon="12.8492104"><ele>29.0</ele><time>2026-04-25T15:48:00.105Z</time></trkpt><trkpt lat="41.520855" lon="12.8491087"><ele>29.0</ele><time>2026-04-25T15:48:02.105Z</time></trkpt><trkpt lat="41.5207725" lon="12.8490177"><ele>29.0</ele><time>2026-04-25T15:48:04.105Z</time></trkpt><trkpt lat="41.5207005" lon="12.8489264"><ele>29.0</ele><time>2026-04-25T15:48:06.105Z</time></trkpt><trkpt lat="41.5206288" lon="12.8488268"><ele>29.0</ele><time>2026-04-25T15:48:08.105Z</time></trkpt><trkpt lat="41.520578" lon="12.8487309"><ele>29.0</ele><time>2026-04-25T15:48:10.105Z</time></trkpt><trkpt lat="41.5205134" lon="12.8486368"><ele>29.000000000000004</ele><time>2026-04-25T15:48:12.104Z</time></trkpt><trkpt lat="41.5204602" lon="12.8485635"><ele>29.0</ele><time>2026-04-25T15:48:14.105Z</time></trkpt><trkpt lat="41.5204032" lon="12.8484939"><ele>29.000000000000004</ele><time>2026-04-25T15:48:16.104Z</time></trkpt><trkpt lat="41.5203657" lon="12.8484194"><ele>29.000000000000004</ele><time>2026-04-25T15:48:19.105Z</time></trkpt><trkpt lat="41.520346" lon="12.8483195"><ele>29.0</ele><time>2026-04-25T15:48:23.105Z</time></trkpt><trkpt lat="41.5202961" lon="12.8482581"><ele>29.000000000000004</ele><time>2026-04-25T15:48:25.104Z</time></trkpt><trkpt lat="41.5202413" lon="12.8481873"><ele>29.000000000000004</ele><time>2026-04-25T15:48:28.104Z</time></trkpt><trkpt lat="41.5202051" lon="12.8482717"><ele>28.999999999999996</ele><time>2026-04-25T15:48:33.105Z</time></trkpt><trkpt lat="41.5202338" lon="12.8483856"><ele>29.0</ele><time>2026-04-25T15:48:35.105Z</time></trkpt><trkpt lat="41.5202615" lon="12.8484869"><ele>29.0</ele><time>2026-04-25T15:48:37.105Z</time></trkpt><trkpt lat="41.520246" lon="12.8486081"><ele>29.0</ele><time>2026-04-25T15:48:40.105Z</time></trkpt><trkpt lat="41.5201834" lon="12.8486867"><ele>28.999999999999996</ele><time>2026-04-25T15:48:43.105Z</time></trkpt><trkpt lat="41.5201223" lon="12.848655"><ele>29.0</ele><time>2026-04-25T15:48:45.105Z</time></trkpt><trkpt lat="41.5200924" lon="12.8485537"><ele>28.666666666666664</ele><time>2026-04-25T15:48:47.105Z</time></trkpt><trkpt lat="41.5200621" lon="12.848451"><ele>28.333333333333332</ele><time>2026-04-25T15:48:49.105Z</time></trkpt><trkpt lat="41.520002" lon="12.8483421"><ele>28.0</ele><time>2026-04-25T15:48:51.105Z</time></trkpt><trkpt lat="41.5199326" lon="12.8482637"><ele>27.666666666666664</ele><time>2026-04-25T15:48:53.105Z</time></trkpt><trkpt lat="41.519889" lon="12.8481757"><ele>27.333333333333332</ele><time>2026-04-25T15:48:55.105Z</time></trkpt><trkpt lat="41.5198435" lon="12.8480965"><ele>27.0</ele><time>2026-04-25T15:48:57.105Z</time></trkpt><trkpt lat="41.5197727" lon="12.8480215"><ele>27.0</ele><time>2026-04-25T15:48:59.105Z</time></trkpt><trkpt lat="41.5196979" lon="12.8479423"><ele>27.0</ele><time>2026-04-25T15:49:01.105Z</time></trkpt><trkpt lat="41.5196273" lon="12.8478857"><ele>27.0</ele><time>2026-04-25T15:49:03.104Z</time></trkpt><trkpt lat="41.5195447" lon="12.847839"><ele>27.0</ele><time>2026-04-25T15:49:05.105Z</time></trkpt><trkpt lat="41.5194822" lon="12.8477877"><ele>27.0</ele><time>2026-04-25T15:49:07.104Z</time></trkpt><trkpt lat="41.519417" lon="12.8477173"><ele>27.0</ele><time>2026-04-25T15:49:09.105Z</time></trkpt><trkpt lat="41.5193567" lon="12.8476334"><ele>27.333333333333332</ele><time>2026-04-25T15:49:11.105Z</time></trkpt><trkpt lat="41.5192986" lon="12.8475501"><ele>27.666666666666664</ele><time>2026-04-25T15:49:13.105Z</time></trkpt><trkpt lat="41.5192565" lon="12.8474713"><ele>28.0</ele><time>2026-04-25T15:49:15.105Z</time></trkpt><trkpt lat="41.5192161" lon="12.8473813"><ele>28.333333333333332</ele><time>2026-04-25T15:49:17.105Z</time></trkpt><trkpt lat="41.5191572" lon="12.8472901"><ele>28.666666666666664</ele><time>2026-04-25T15:49:19.104Z</time></trkpt><trkpt lat="41.5191122" lon="12.8472077"><ele>29.0</ele><time>2026-04-25T15:49:21.105Z</time></trkpt><trkpt lat="41.5190511" lon="12.8471321"><ele>29.0</ele><time>2026-04-25T15:49:23.105Z</time></trkpt><trkpt lat="41.5189828" lon="12.8470562"><ele>29.0</ele><time>2026-04-25T15:49:25.105Z</time></trkpt><trkpt lat="41.5189052" lon="12.8469657"><ele>29.0</ele><time>2026-04-25T15:49:27.104Z</time></trkpt><trkpt lat="41.5188299" lon="12.8468699"><ele>29.0</ele><time>2026-04-25T15:49:29.105Z</time></trkpt><trkpt lat="41.5187465" lon="12.8467694"><ele>29.0</ele><time>2026-04-25T15:49:31.105Z</time></trkpt><trkpt lat="41.5186642" lon="12.8466658"><ele>29.4</ele><time>2026-04-25T15:49:33.105Z</time></trkpt><trkpt lat="41.518574" lon="12.8465546"><ele>29.799999999999997</ele><time>2026-04-25T15:49:35.104Z</time></trkpt><trkpt lat="41.5185092" lon="12.846448"><ele>30.200000000000003</ele><time>2026-04-25T15:49:37.105Z</time></trkpt><trkpt lat="41.518431" lon="12.8463465"><ele>30.6</ele><time>2026-04-25T15:49:39.105Z</time></trkpt><trkpt lat="41.5183645" lon="12.8462542"><ele>31.0</ele><time>2026-04-25T15:49:41.105Z</time></trkpt><trkpt lat="41.518286" lon="12.8461471"><ele>31.0</ele><time>2026-04-25T15:49:43.105Z</time></trkpt><trkpt lat="41.5182116" lon="12.8460511"><ele>31.0</ele><time>2026-04-25T15:49:45.105Z</time></trkpt><trkpt lat="41.518135" lon="12.8459504"><ele>31.0</ele><time>2026-04-25T15:49:47.105Z</time></trkpt><trkpt lat="41.5180488" lon="12.8458636"><ele>31.0</ele><time>2026-04-25T15:49:49.105Z</time></trkpt><trkpt lat="41.5179772" lon="12.8457775"><ele>31.0</ele><time>2026-04-25T15:49:51.105Z</time></trkpt><trkpt lat="41.5179162" lon="12.8456895"><ele>31.0</ele><time>2026-04-25T15:49:53.105Z</time></trkpt><trkpt lat="41.5178453" lon="12.8456062"><ele>31.0</ele><time>2026-04-25T15:49:55.105Z</time></trkpt><trkpt lat="41.5177735" lon="12.8455182"><ele>31.0</ele><time>2026-04-25T15:49:57.105Z</time></trkpt><trkpt lat="41.5176947" lon="12.8454219"><ele>31.0</ele><time>2026-04-25T15:49:59.105Z</time></trkpt><trkpt lat="41.517625" lon="12.845321"><ele>31.0</ele><time>2026-04-25T15:50:01.105Z</time></trkpt><trkpt lat="41.5175644" lon="12.8452311"><ele>31.0</ele><time>2026-04-25T15:50:03.105Z</time></trkpt><trkpt lat="41.5175161" lon="12.8451468"><ele>31.0</ele><time>2026-04-25T15:50:05.105Z</time></trkpt><trkpt lat="41.5174468" lon="12.8450524"><ele>31.0</ele><time>2026-04-25T15:50:07.105Z</time></trkpt><trkpt lat="41.5173682" lon="12.8449524"><ele>31.0</ele><time>2026-04-25T15:50:09.105Z</time></trkpt><trkpt lat="41.5172879" lon="12.8448623"><ele>31.0</ele><time>2026-04-25T15:50:11.104Z</time></trkpt><trkpt lat="41.517211" lon="12.8447675"><ele>30.8</ele><time>2026-04-25T15:50:13.105Z</time></trkpt><trkpt lat="41.5171271" lon="12.8446708"><ele>30.6</ele><time>2026-04-25T15:50:15.105Z</time></trkpt><trkpt lat="41.5170383" lon="12.8445721"><ele>30.4</ele><time>2026-04-25T15:50:17.105Z</time></trkpt><trkpt lat="41.5169631" lon="12.8444711"><ele>30.2</ele><time>2026-04-25T15:50:19.105Z</time></trkpt><trkpt lat="41.5168876" lon="12.844378"><ele>30.0</ele><time>2026-04-25T15:50:21.105Z</time></trkpt><trkpt lat="41.5168233" lon="12.8442904"><ele>29.8</ele><time>2026-04-25T15:50:23.105Z</time></trkpt><trkpt lat="41.5167546" lon="12.8442025"><ele>29.6</ele><time>2026-04-25T15:50:25.105Z</time></trkpt><trkpt lat="41.5166925" lon="12.8441376"><ele>29.4</ele><time>2026-04-25T15:50:27.105Z</time></trkpt><trkpt lat="41.5166211" lon="12.8440568"><ele>29.2</ele><time>2026-04-25T15:50:29.105Z</time></trkpt><trkpt lat="41.516551" lon="12.8439564"><ele>29.0</ele><time>2026-04-25T15:50:31.105Z</time></trkpt><trkpt lat="41.5164856" lon="12.843866"><ele>29.0</ele><time>2026-04-25T15:50:33.105Z</time></trkpt><trkpt lat="41.5164111" lon="12.8437675"><ele>29.0</ele><time>2026-04-25T15:50:35.105Z</time></trkpt><trkpt lat="41.516361" lon="12.8437101"><ele>29.0</ele><time>2026-04-25T15:50:36.105Z</time></trkpt><trkpt lat="41.5162853" lon="12.8436089"><ele>29.0</ele><time>2026-04-25T15:50:38.105Z</time></trkpt><trkpt lat="41.5162065" lon="12.8435111"><ele>29.0</ele><time>2026-04-25T15:50:40.105Z</time></trkpt><trkpt lat="41.5161438" lon="12.8434007"><ele>29.0</ele><time>2026-04-25T15:50:42.105Z</time></trkpt><trkpt lat="41.51605" lon="12.8432549"><ele>29.0</ele><time>2026-04-25T15:50:44.105Z</time></trkpt><trkpt lat="41.5159703" lon="12.8431632"><ele>29.0</ele><time>2026-04-25T15:50:45.104Z</time></trkpt><trkpt lat="41.5158978" lon="12.8430789"><ele>29.0</ele><time>2026-04-25T15:50:46.104Z</time></trkpt><trkpt lat="41.5158336" lon="12.8429947"><ele>29.0</ele><time>2026-04-25T15:50:47.105Z</time></trkpt><trkpt lat="41.5157759" lon="12.8429132"><ele>28.999999999999996</ele><time>2026-04-25T15:50:48.105Z</time></trkpt><trkpt lat="41.5157219" lon="12.8428334"><ele>29.0</ele><time>2026-04-25T15:50:49.105Z</time></trkpt><trkpt lat="41.5156663" lon="12.842762"><ele>29.0</ele><time>2026-04-25T15:50:50.105Z</time></trkpt><trkpt lat="41.5156117" lon="12.8426969"><ele>29.0</ele><time>2026-04-25T15:50:51.105Z</time></trkpt><trkpt lat="41.5155585" lon="12.8426365"><ele>28.999999999999996</ele><time>2026-04-25T15:50:52.105Z</time></trkpt><trkpt lat="41.5154686" lon="12.8425225"><ele>29.0</ele><time>2026-04-25T15:50:54.104Z</time></trkpt><trkpt lat="41.5154191" lon="12.8424588"><ele>29.333333333333332</ele><time>2026-04-25T15:50:55.105Z</time></trkpt><trkpt lat="41.5153632" lon="12.8423829"><ele>29.666666666666664</ele><time>2026-04-25T15:50:56.105Z</time></trkpt><trkpt lat="41.5153055" lon="12.8423083"><ele>30.0</ele><time>2026-04-25T15:50:57.105Z</time></trkpt><trkpt lat="41.5152524" lon="12.8422376"><ele>30.333333333333336</ele><time>2026-04-25T15:50:58.105Z</time></trkpt><trkpt lat="41.5152009" lon="12.8421737"><ele>30.666666666666668</ele><time>2026-04-25T15:50:59.105Z</time></trkpt><trkpt lat="41.51515" lon="12.8421095"><ele>31.0</ele><time>2026-04-25T15:51:00.105Z</time></trkpt><trkpt lat="41.5150672" lon="12.8420102"><ele>31.0</ele><time>2026-04-25T15:51:02.105Z</time></trkpt><trkpt lat="41.5149942" lon="12.8419343"><ele>31.0</ele><time>2026-04-25T15:51:04.105Z</time></trkpt><trkpt lat="41.5149219" lon="12.8418484"><ele>31.0</ele><time>2026-04-25T15:51:06.105Z</time></trkpt><trkpt lat="41.5148282" lon="12.8417542"><ele>31.0</ele><time>2026-04-25T15:51:08.091Z</time></trkpt><trkpt lat="41.5147685" lon="12.8416899"><ele>31.0</ele><time>2026-04-25T15:51:09.094Z</time></trkpt><trkpt lat="41.5146973" lon="12.8416066"><ele>30.833333333333336</ele><time>2026-04-25T15:51:10.096Z</time></trkpt><trkpt lat="41.5146305" lon="12.8415393"><ele>30.666666666666668</ele><time>2026-04-25T15:51:11.098Z</time></trkpt><trkpt lat="41.5145701" lon="12.8414757"><ele>30.5</ele><time>2026-04-25T15:51:12.096Z</time></trkpt><trkpt lat="41.5145068" lon="12.8414064"><ele>30.333333333333336</ele><time>2026-04-25T15:51:13.096Z</time></trkpt><trkpt lat="41.5144534" lon="12.8413472"><ele>30.166666666666668</ele><time>2026-04-25T15:51:14.095Z</time></trkpt><trkpt lat="41.5144032" lon="12.8412876"><ele>30.0</ele><time>2026-04-25T15:51:15.096Z</time></trkpt><trkpt lat="41.5143468" lon="12.8412176"><ele>30.0</ele><time>2026-04-25T15:51:16.095Z</time></trkpt><trkpt lat="41.514295" lon="12.8411513"><ele>30.0</ele><time>2026-04-25T15:51:17.095Z</time></trkpt><trkpt lat="41.5142501" lon="12.8410915"><ele>30.0</ele><time>2026-04-25T15:51:18.096Z</time></trkpt><trkpt lat="41.5141991" lon="12.8410357"><ele>30.0</ele><time>2026-04-25T15:51:19.095Z</time></trkpt><trkpt lat="41.5141482" lon="12.8409771"><ele>30.0</ele><time>2026-04-25T15:51:20.095Z</time></trkpt><trkpt lat="41.5140606" lon="12.8408786"><ele>30.0</ele><time>2026-04-25T15:51:22.095Z</time></trkpt><trkpt lat="41.5139787" lon="12.8407834"><ele>29.666666666666668</ele><time>2026-04-25T15:51:24.096Z</time></trkpt><trkpt lat="41.5139018" lon="12.8407046"><ele>29.333333333333336</ele><time>2026-04-25T15:51:26.096Z</time></trkpt><trkpt lat="41.5138464" lon="12.8406262"><ele>29.0</ele><time>2026-04-25T15:51:28.096Z</time></trkpt><trkpt lat="41.5138254" lon="12.8405432"><ele>28.666666666666668</ele><time>2026-04-25T15:51:30.096Z</time></trkpt><trkpt lat="41.5138019" lon="12.8404555"><ele>28.333333333333336</ele><time>2026-04-25T15:51:32.096Z</time></trkpt><trkpt lat="41.5137702" lon="12.8403603"><ele>28.0</ele><time>2026-04-25T15:51:34.096Z</time></trkpt><trkpt lat="41.5136895" lon="12.8402501"><ele>28.0</ele><time>2026-04-25T15:51:36.096Z</time></trkpt><trkpt lat="41.5136419" lon="12.8401882"><ele>27.999999999999996</ele><time>2026-04-25T15:51:37.096Z</time></trkpt><trkpt lat="41.5135607" lon="12.8400753"><ele>27.999999999999996</ele><time>2026-04-25T15:51:39.096Z</time></trkpt><trkpt lat="41.5134813" lon="12.8399842"><ele>28.0</ele><time>2026-04-25T15:51:41.096Z</time></trkpt><trkpt lat="41.5134109" lon="12.8398883"><ele>28.0</ele><time>2026-04-25T15:51:43.096Z</time></trkpt><trkpt lat="41.5133521" lon="12.8398181"><ele>28.000000000000004</ele><time>2026-04-25T15:51:45.096Z</time></trkpt><trkpt lat="41.5132909" lon="12.839842"><ele>28.0</ele><time>2026-04-25T15:51:48.096Z</time></trkpt><trkpt lat="41.5133243" lon="12.8399193"><ele>28.0</ele><time>2026-04-25T15:51:50.096Z</time></trkpt><trkpt lat="41.5134071" lon="12.8399429"><ele>28.0</ele><time>2026-04-25T15:51:52.095Z</time></trkpt><trkpt lat="41.5134938" lon="12.8399937"><ele>28.000000000000004</ele><time>2026-04-25T15:51:54.095Z</time></trkpt><trkpt lat="41.5135605" lon="12.8400687"><ele>28.0</ele><time>2026-04-25T15:51:56.096Z</time></trkpt><trkpt lat="41.5136064" lon="12.840129"><ele>28.000000000000004</ele><time>2026-04-25T15:51:58.096Z</time></trkpt><trkpt lat="41.5136859" lon="12.8401243"><ele>28.0</ele><time>2026-04-25T15:52:01.095Z</time></trkpt><trkpt lat="41.5137316" lon="12.8400624"><ele>28.0</ele><time>2026-04-25T15:52:03.096Z</time></trkpt><trkpt lat="41.5137545" lon="12.8399733"><ele>28.0</ele><time>2026-04-25T15:52:05.096Z</time></trkpt><trkpt lat="41.5137163" lon="12.8398892"><ele>28.000000000000004</ele><time>2026-04-25T15:52:06.095Z</time></trkpt><trkpt lat="41.5136598" lon="12.8397681"><ele>28.0</ele><time>2026-04-25T15:52:08.095Z</time></trkpt><trkpt lat="41.513607" lon="12.8396641"><ele>28.0</ele><time>2026-04-25T15:52:10.096Z</time></trkpt><trkpt lat="41.5135373" lon="12.8395831"><ele>27.999999999999996</ele><time>2026-04-25T15:52:12.095Z</time></trkpt><trkpt lat="41.513454" lon="12.8394883"><ele>27.999999999999996</ele><time>2026-04-25T15:52:14.096Z</time></trkpt><trkpt lat="41.5133491" lon="12.8393696"><ele>28.0</ele><time>2026-04-25T15:52:16.096Z</time></trkpt><trkpt lat="41.5132962" lon="12.8393094"><ele>28.0</ele><time>2026-04-25T15:52:17.096Z</time></trkpt><trkpt lat="41.5132487" lon="12.8392435"><ele>28.0</ele><time>2026-04-25T15:52:18.096Z</time></trkpt><trkpt lat="41.513186" lon="12.8391721"><ele>28.0</ele><time>2026-04-25T15:52:19.095Z</time></trkpt><trkpt lat="41.5131304" lon="12.8391053"><ele>28.0</ele><time>2026-04-25T15:52:20.095Z</time></trkpt><trkpt lat="41.5130727" lon="12.8390429"><ele>28.0</ele><time>2026-04-25T15:52:21.095Z</time></trkpt><trkpt lat="41.5130192" lon="12.838987"><ele>28.0</ele><time>2026-04-25T15:52:22.096Z</time></trkpt><trkpt lat="41.5129607" lon="12.8389265"><ele>28.0</ele><time>2026-04-25T15:52:23.096Z</time></trkpt><trkpt lat="41.512904" lon="12.8388621"><ele>28.0</ele><time>2026-04-25T15:52:24.095Z</time></trkpt><trkpt lat="41.5128471" lon="12.8388033"><ele>28.000000000000004</ele><time>2026-04-25T15:52:25.096Z</time></trkpt><trkpt lat="41.512791" lon="12.8387421"><ele>28.0</ele><time>2026-04-25T15:52:26.096Z</time></trkpt><trkpt lat="41.5127299" lon="12.838689"><ele>28.0</ele><time>2026-04-25T15:52:27.096Z</time></trkpt><trkpt lat="41.5126616" lon="12.8386295"><ele>28.0</ele><time>2026-04-25T15:52:28.095Z</time></trkpt><trkpt lat="41.5125998" lon="12.838572"><ele>28.000000000000004</ele><time>2026-04-25T15:52:29.095Z</time></trkpt><trkpt lat="41.5125355" lon="12.8385151"><ele>28.0</ele><time>2026-04-25T15:52:30.096Z</time></trkpt><trkpt lat="41.5124702" lon="12.8384592"><ele>27.833333333333336</ele><time>2026-04-25T15:52:31.096Z</time></trkpt><trkpt lat="41.5124078" lon="12.8384094"><ele>27.666666666666668</ele><time>2026-04-25T15:52:32.096Z</time></trkpt><trkpt lat="41.5123175" lon="12.8382963"><ele>27.5</ele><time>2026-04-25T15:52:34.095Z</time></trkpt><trkpt lat="41.5122756" lon="12.8382324"><ele>27.333333333333336</ele><time>2026-04-25T15:52:35.096Z</time></trkpt><trkpt lat="41.5122231" lon="12.8381811"><ele>27.166666666666668</ele><time>2026-04-25T15:52:36.096Z</time></trkpt><trkpt lat="41.5121213" lon="12.8380973"><ele>27.0</ele><time>2026-04-25T15:52:38.095Z</time></trkpt><trkpt lat="41.5120592" lon="12.8380605"><ele>27.285714285714285</ele><time>2026-04-25T15:52:39.096Z</time></trkpt><trkpt lat="41.5119977" lon="12.8380233"><ele>27.57142857142857</ele><time>2026-04-25T15:52:40.096Z</time></trkpt><trkpt lat="41.5119357" lon="12.8379867"><ele>27.85714285714286</ele><time>2026-04-25T15:52:41.096Z</time></trkpt><trkpt lat="41.5118748" lon="12.8379446"><ele>28.142857142857146</ele><time>2026-04-25T15:52:42.096Z</time></trkpt><trkpt lat="41.5118143" lon="12.8379115"><ele>28.42857142857143</ele><time>2026-04-25T15:52:43.095Z</time></trkpt><trkpt lat="41.5117542" lon="12.8378792"><ele>28.71428571428572</ele><time>2026-04-25T15:52:44.096Z</time></trkpt><trkpt lat="41.5116906" lon="12.837844"><ele>29.000000000000004</ele><time>2026-04-25T15:52:45.095Z</time></trkpt><trkpt lat="41.5116248" lon="12.8378046"><ele>29.0</ele><time>2026-04-25T15:52:46.095Z</time></trkpt><trkpt lat="41.5115609" lon="12.8377645"><ele>29.0</ele><time>2026-04-25T15:52:47.096Z</time></trkpt><trkpt lat="41.5115022" lon="12.8377328"><ele>29.0</ele><time>2026-04-25T15:52:48.096Z</time></trkpt><trkpt lat="41.5114008" lon="12.8376688"><ele>29.0</ele><time>2026-04-25T15:52:50.095Z</time></trkpt><trkpt lat="41.5112997" lon="12.8376033"><ele>29.0</ele><time>2026-04-25T15:52:52.096Z</time></trkpt><trkpt lat="41.5112" lon="12.8375569"><ele>28.666666666666664</ele><time>2026-04-25T15:52:54.096Z</time></trkpt><trkpt lat="41.5110819" lon="12.8375063"><ele>28.333333333333332</ele><time>2026-04-25T15:52:56.096Z</time></trkpt><trkpt lat="41.5109783" lon="12.8374399"><ele>28.0</ele><time>2026-04-25T15:52:58.096Z</time></trkpt><trkpt lat="41.5109188" lon="12.8374097"><ele>27.666666666666664</ele><time>2026-04-25T15:52:59.096Z</time></trkpt><trkpt lat="41.5108536" lon="12.8373725"><ele>27.333333333333332</ele><time>2026-04-25T15:53:00.096Z</time></trkpt><trkpt lat="41.5107897" lon="12.8373461"><ele>27.0</ele><time>2026-04-25T15:53:01.096Z</time></trkpt><trkpt lat="41.5107299" lon="12.8373184"><ele>27.0</ele><time>2026-04-25T15:53:02.096Z</time></trkpt><trkpt lat="41.5106672" lon="12.8372985"><ele>27.0</ele><time>2026-04-25T15:53:03.096Z</time></trkpt><trkpt lat="41.5105536" lon="12.8372677"><ele>27.0</ele><time>2026-04-25T15:53:05.096Z</time></trkpt><trkpt lat="41.5104457" lon="12.8372311"><ele>27.0</ele><time>2026-04-25T15:53:07.095Z</time></trkpt><trkpt lat="41.5103667" lon="12.837226"><ele>27.0</ele><time>2026-04-25T15:53:09.096Z</time></trkpt><trkpt lat="41.5104315" lon="12.8371679"><ele>27.0</ele><time>2026-04-25T15:53:13.095Z</time></trkpt><trkpt lat="41.5104924" lon="12.8372092"><ele>27.0</ele><time>2026-04-25T15:53:16.095Z</time></trkpt><trkpt lat="41.5104734" lon="12.8373048"><ele>27.000000000000004</ele><time>2026-04-25T15:53:18.096Z</time></trkpt><trkpt lat="41.5104005" lon="12.8373283"><ele>27.000000000000004</ele><time>2026-04-25T15:53:21.096Z</time></trkpt><trkpt lat="41.5102962" lon="12.8372864"><ele>27.0</ele><time>2026-04-25T15:53:23.095Z</time></trkpt><trkpt lat="41.5101901" lon="12.837256"><ele>27.0</ele><time>2026-04-25T15:53:25.096Z</time></trkpt><trkpt lat="41.5100986" lon="12.8372328"><ele>27.200000000000003</ele><time>2026-04-25T15:53:27.096Z</time></trkpt><trkpt lat="41.5100139" lon="12.8372059"><ele>27.400000000000002</ele><time>2026-04-25T15:53:29.096Z</time></trkpt><trkpt lat="41.5099225" lon="12.8371799"><ele>27.599999999999998</ele><time>2026-04-25T15:53:31.096Z</time></trkpt><trkpt lat="41.509829" lon="12.8371534"><ele>27.799999999999997</ele><time>2026-04-25T15:53:33.096Z</time></trkpt><trkpt lat="41.5097342" lon="12.8371275"><ele>28.0</ele><time>2026-04-25T15:53:35.095Z</time></trkpt><trkpt lat="41.509648" lon="12.8371101"><ele>28.599999999999998</ele><time>2026-04-25T15:53:37.096Z</time></trkpt><trkpt lat="41.5095617" lon="12.8370888"><ele>29.199999999999996</ele><time>2026-04-25T15:53:39.096Z</time></trkpt><trkpt lat="41.5094691" lon="12.8370658"><ele>29.8</ele><time>2026-04-25T15:53:41.096Z</time></trkpt><trkpt lat="41.5093645" lon="12.8370292"><ele>30.4</ele><time>2026-04-25T15:53:43.096Z</time></trkpt><trkpt lat="41.5092608" lon="12.8369962"><ele>31.0</ele><time>2026-04-25T15:53:45.096Z</time></trkpt><trkpt lat="41.5091484" lon="12.8369608"><ele>31.000000000000004</ele><time>2026-04-25T15:53:47.096Z</time></trkpt><trkpt lat="41.5090401" lon="12.8369362"><ele>31.0</ele><time>2026-04-25T15:53:49.096Z</time></trkpt><trkpt lat="41.5089393" lon="12.8369079"><ele>31.0</ele><time>2026-04-25T15:53:51.096Z</time></trkpt><trkpt lat="41.5088665" lon="12.8368933"><ele>31.0</ele><time>2026-04-25T15:53:53.096Z</time></trkpt><trkpt lat="41.5087994" lon="12.8369122"><ele>31.000000000000004</ele><time>2026-04-25T15:53:55.096Z</time></trkpt><trkpt lat="41.5087138" lon="12.836942"><ele>31.0</ele><time>2026-04-25T15:53:57.096Z</time></trkpt><trkpt lat="41.5085937" lon="12.8369239"><ele>30.5</ele><time>2026-04-25T15:53:59.095Z</time></trkpt><trkpt lat="41.5084945" lon="12.8368988"><ele>30.0</ele><time>2026-04-25T15:54:00.096Z</time></trkpt><trkpt lat="41.5083841" lon="12.8368637"><ele>29.5</ele><time>2026-04-25T15:54:01.096Z</time></trkpt><trkpt lat="41.5082574" lon="12.8368323"><ele>29.0</ele><time>2026-04-25T15:54:02.096Z</time></trkpt><trkpt lat="41.5081122" lon="12.8367958"><ele>28.0</ele><time>2026-04-25T15:54:03.096Z</time></trkpt><trkpt lat="41.5079479" lon="12.8367506"><ele>27.0</ele><time>2026-04-25T15:54:04.096Z</time></trkpt><trkpt lat="41.5077914" lon="12.8367082"><ele>26.0</ele><time>2026-04-25T15:54:05.096Z</time></trkpt><trkpt lat="41.507643" lon="12.8366703"><ele>25.75</ele><time>2026-04-25T15:54:06.096Z</time></trkpt><trkpt lat="41.5075026" lon="12.836633"><ele>25.5</ele><time>2026-04-25T15:54:07.096Z</time></trkpt><trkpt lat="41.5073693" lon="12.8365966"><ele>25.25</ele><time>2026-04-25T15:54:08.096Z</time></trkpt><trkpt lat="41.5072419" lon="12.8365644"><ele>25.0</ele><time>2026-04-25T15:54:09.095Z</time></trkpt><trkpt lat="41.5071167" lon="12.8365344"><ele>25.25</ele><time>2026-04-25T15:54:10.095Z</time></trkpt><trkpt lat="41.5069927" lon="12.836502"><ele>25.5</ele><time>2026-04-25T15:54:11.096Z</time></trkpt><trkpt lat="41.5068667" lon="12.8364721"><ele>25.75</ele><time>2026-04-25T15:54:12.095Z</time></trkpt><trkpt lat="41.5067442" lon="12.8364418"><ele>26.0</ele><time>2026-04-25T15:54:13.096Z</time></trkpt><trkpt lat="41.50662" lon="12.8364038"><ele>26.0</ele><time>2026-04-25T15:54:14.096Z</time></trkpt><trkpt lat="41.5064883" lon="12.8363637"><ele>26.0</ele><time>2026-04-25T15:54:15.096Z</time></trkpt><trkpt lat="41.5063579" lon="12.8363247"><ele>26.0</ele><time>2026-04-25T15:54:16.096Z</time></trkpt><trkpt lat="41.5062267" lon="12.8362917"><ele>26.0</ele><time>2026-04-25T15:54:17.096Z</time></trkpt><trkpt lat="41.5060972" lon="12.8362517"><ele>26.333333333333332</ele><time>2026-04-25T15:54:18.096Z</time></trkpt><trkpt lat="41.505958" lon="12.8362099"><ele>26.666666666666664</ele><time>2026-04-25T15:54:19.096Z</time></trkpt><trkpt lat="41.5058072" lon="12.8361726"><ele>27.0</ele><time>2026-04-25T15:54:20.096Z</time></trkpt><trkpt lat="41.505652" lon="12.8361331"><ele>27.0</ele><time>2026-04-25T15:54:21.096Z</time></trkpt><trkpt lat="41.5055113" lon="12.836093"><ele>27.0</ele><time>2026-04-25T15:54:22.096Z</time></trkpt><trkpt lat="41.5053752" lon="12.8360534"><ele>27.0</ele><time>2026-04-25T15:54:23.096Z</time></trkpt><trkpt lat="41.5052358" lon="12.8360128"><ele>27.0</ele><time>2026-04-25T15:54:24.096Z</time></trkpt><trkpt lat="41.5050887" lon="12.8359748"><ele>26.333333333333336</ele><time>2026-04-25T15:54:25.096Z</time></trkpt><trkpt lat="41.504938" lon="12.8359354"><ele>25.666666666666668</ele><time>2026-04-25T15:54:26.096Z</time></trkpt><trkpt lat="41.50479" lon="12.8358975"><ele>25.0</ele><time>2026-04-25T15:54:27.096Z</time></trkpt><trkpt lat="41.5046271" lon="12.8358502"><ele>25.333333333333336</ele><time>2026-04-25T15:54:28.096Z</time></trkpt><trkpt lat="41.5044468" lon="12.8358001"><ele>25.666666666666664</ele><time>2026-04-25T15:54:29.096Z</time></trkpt><trkpt lat="41.5042597" lon="12.8357505"><ele>26.0</ele><time>2026-04-25T15:54:30.096Z</time></trkpt><trkpt lat="41.5040891" lon="12.8357079"><ele>26.0</ele><time>2026-04-25T15:54:31.096Z</time></trkpt><trkpt lat="41.5039227" lon="12.8356659"><ele>26.0</ele><time>2026-04-25T15:54:32.096Z</time></trkpt><trkpt lat="41.503768" lon="12.8356239"><ele>26.0</ele><time>2026-04-25T15:54:33.096Z</time></trkpt><trkpt lat="41.5036229" lon="12.8355852"><ele>26.0</ele><time>2026-04-25T15:54:34.096Z</time></trkpt><trkpt lat="41.5034787" lon="12.835545"><ele>26.0</ele><time>2026-04-25T15:54:35.096Z</time></trkpt><trkpt lat="41.5033434" lon="12.8355064"><ele>26.0</ele><time>2026-04-25T15:54:36.096Z</time></trkpt><trkpt lat="41.5032144" lon="12.8354732"><ele>26.0</ele><time>2026-04-25T15:54:37.096Z</time></trkpt><trkpt lat="41.5030785" lon="12.8354395"><ele>26.0</ele><time>2026-04-25T15:54:38.096Z</time></trkpt><trkpt lat="41.5029338" lon="12.8354011"><ele>26.0</ele><time>2026-04-25T15:54:39.095Z</time></trkpt><trkpt lat="41.5027981" lon="12.8353665"><ele>26.0</ele><time>2026-04-25T15:54:40.096Z</time></trkpt><trkpt lat="41.5026641" lon="12.835331"><ele>26.0</ele><time>2026-04-25T15:54:41.095Z</time></trkpt><trkpt lat="41.5025373" lon="12.8352964"><ele>26.0</ele><time>2026-04-25T15:54:42.095Z</time></trkpt><trkpt lat="41.5024023" lon="12.8352614"><ele>26.0</ele><time>2026-04-25T15:54:43.096Z</time></trkpt><trkpt lat="41.5022616" lon="12.8352226"><ele>26.0</ele><time>2026-04-25T15:54:44.096Z</time></trkpt><trkpt lat="41.5021277" lon="12.8351823"><ele>26.0</ele><time>2026-04-25T15:54:45.096Z</time></trkpt><trkpt lat="41.5019989" lon="12.8351478"><ele>26.0</ele><time>2026-04-25T15:54:46.096Z</time></trkpt><trkpt lat="41.5018618" lon="12.8351148"><ele>26.0</ele><time>2026-04-25T15:54:47.096Z</time></trkpt><trkpt lat="41.5017271" lon="12.8350747"><ele>26.0</ele><time>2026-04-25T15:54:48.096Z</time></trkpt><trkpt lat="41.5015793" lon="12.8350316"><ele>26.0</ele><time>2026-04-25T15:54:49.095Z</time></trkpt><trkpt lat="41.5014374" lon="12.8349925"><ele>26.0</ele><time>2026-04-25T15:54:50.096Z</time></trkpt><trkpt lat="41.5013011" lon="12.8349562"><ele>26.0</ele><time>2026-04-25T15:54:51.096Z</time></trkpt><trkpt lat="41.5011713" lon="12.8349194"><ele>26.0</ele><time>2026-04-25T15:54:52.096Z</time></trkpt><trkpt lat="41.5010472" lon="12.8348832"><ele>26.0</ele><time>2026-04-25T15:54:53.096Z</time></trkpt><trkpt lat="41.5009168" lon="12.8348492"><ele>26.0</ele><time>2026-04-25T15:54:54.096Z</time></trkpt><trkpt lat="41.5007896" lon="12.8348141"><ele>26.0</ele><time>2026-04-25T15:54:55.096Z</time></trkpt><trkpt lat="41.5006624" lon="12.8347787"><ele>26.0</ele><time>2026-04-25T15:54:56.095Z</time></trkpt><trkpt lat="41.5005394" lon="12.8347437"><ele>26.0</ele><time>2026-04-25T15:54:57.096Z</time></trkpt><trkpt lat="41.5004139" lon="12.8347115"><ele>25.75</ele><time>2026-04-25T15:54:58.096Z</time></trkpt><trkpt lat="41.5002922" lon="12.8346829"><ele>25.5</ele><time>2026-04-25T15:54:59.096Z</time></trkpt><trkpt lat="41.5001713" lon="12.8346527"><ele>25.25</ele><time>2026-04-25T15:55:00.096Z</time></trkpt><trkpt lat="41.5000563" lon="12.8346236"><ele>25.0</ele><time>2026-04-25T15:55:01.096Z</time></trkpt><trkpt lat="41.4999461" lon="12.8345949"><ele>25.000000000000004</ele><time>2026-04-25T15:55:02.096Z</time></trkpt><trkpt lat="41.4998452" lon="12.8345636"><ele>25.0</ele><time>2026-04-25T15:55:03.095Z</time></trkpt><trkpt lat="41.4997508" lon="12.8345363"><ele>25.0</ele><time>2026-04-25T15:55:04.096Z</time></trkpt><trkpt lat="41.4996642" lon="12.8345147"><ele>25.0</ele><time>2026-04-25T15:55:05.096Z</time></trkpt><trkpt lat="41.4995793" lon="12.8344966"><ele>25.000000000000004</ele><time>2026-04-25T15:55:06.096Z</time></trkpt><trkpt lat="41.4995068" lon="12.8344913"><ele>25.0</ele><time>2026-04-25T15:55:07.095Z</time></trkpt><trkpt lat="41.499429" lon="12.8344701"><ele>25.166666666666668</ele><time>2026-04-25T15:55:08.096Z</time></trkpt><trkpt lat="41.4993629" lon="12.8344497"><ele>25.333333333333336</ele><time>2026-04-25T15:55:09.096Z</time></trkpt><trkpt lat="41.4992857" lon="12.8344124"><ele>25.5</ele><time>2026-04-25T15:55:10.096Z</time></trkpt><trkpt lat="41.4992132" lon="12.8343859"><ele>25.666666666666664</ele><time>2026-04-25T15:55:11.096Z</time></trkpt><trkpt lat="41.499139" lon="12.8343569"><ele>25.833333333333332</ele><time>2026-04-25T15:55:12.096Z</time></trkpt><trkpt lat="41.4990511" lon="12.8343419"><ele>26.0</ele><time>2026-04-25T15:55:13.096Z</time></trkpt><trkpt lat="41.4989626" lon="12.834323"><ele>25.6</ele><time>2026-04-25T15:55:14.096Z</time></trkpt><trkpt lat="41.498871" lon="12.8343023"><ele>25.200000000000003</ele><time>2026-04-25T15:55:15.096Z</time></trkpt><trkpt lat="41.4987825" lon="12.8342843"><ele>24.799999999999997</ele><time>2026-04-25T15:55:16.096Z</time></trkpt><trkpt lat="41.4986943" lon="12.834262"><ele>24.4</ele><time>2026-04-25T15:55:17.096Z</time></trkpt><trkpt lat="41.4985997" lon="12.8342409"><ele>24.0</ele><time>2026-04-25T15:55:18.096Z</time></trkpt><trkpt lat="41.4985062" lon="12.8342168"><ele>24.0</ele><time>2026-04-25T15:55:19.096Z</time></trkpt><trkpt lat="41.4984097" lon="12.8341954"><ele>24.0</ele><time>2026-04-25T15:55:20.096Z</time></trkpt><trkpt lat="41.4983164" lon="12.8341782"><ele>24.0</ele><time>2026-04-25T15:55:21.096Z</time></trkpt><trkpt lat="41.4982237" lon="12.834161"><ele>24.0</ele><time>2026-04-25T15:55:22.096Z</time></trkpt><trkpt lat="41.498133" lon="12.8341383"><ele>24.0</ele><time>2026-04-25T15:55:23.096Z</time></trkpt><trkpt lat="41.4980562" lon="12.83411"><ele>23.999999999999996</ele><time>2026-04-25T15:55:24.096Z</time></trkpt><trkpt lat="41.4979846" lon="12.8340655"><ele>24.0</ele><time>2026-04-25T15:55:25.095Z</time></trkpt><trkpt lat="41.497916" lon="12.8340211"><ele>24.0</ele><time>2026-04-25T15:55:26.096Z</time></trkpt><trkpt lat="41.4978465" lon="12.8339912"><ele>24.0</ele><time>2026-04-25T15:55:27.096Z</time></trkpt><trkpt lat="41.4977709" lon="12.8339811"><ele>24.0</ele><time>2026-04-25T15:55:28.096Z</time></trkpt><trkpt lat="41.4976983" lon="12.8339717"><ele>23.999999999999996</ele><time>2026-04-25T15:55:29.096Z</time></trkpt><trkpt lat="41.4976282" lon="12.8339581"><ele>24.0</ele><time>2026-04-25T15:55:30.096Z</time></trkpt><trkpt lat="41.4975597" lon="12.8339271"><ele>24.428571428571427</ele><time>2026-04-25T15:55:31.095Z</time></trkpt><trkpt lat="41.497485" lon="12.8338912"><ele>24.857142857142858</ele><time>2026-04-25T15:55:32.095Z</time></trkpt><trkpt lat="41.4974166" lon="12.8338778"><ele>25.285714285714285</ele><time>2026-04-25T15:55:33.096Z</time></trkpt><trkpt lat="41.4973498" lon="12.8338713"><ele>25.714285714285715</ele><time>2026-04-25T15:55:34.096Z</time></trkpt><trkpt lat="41.4972852" lon="12.8338652"><ele>26.142857142857142</ele><time>2026-04-25T15:55:35.096Z</time></trkpt><trkpt lat="41.4972158" lon="12.8338491"><ele>26.57142857142857</ele><time>2026-04-25T15:55:36.096Z</time></trkpt><trkpt lat="41.4971504" lon="12.8338347"><ele>27.0</ele><time>2026-04-25T15:55:37.095Z</time></trkpt><trkpt lat="41.4970787" lon="12.8338175"><ele>27.0</ele><time>2026-04-25T15:55:38.096Z</time></trkpt><trkpt lat="41.4969965" lon="12.833797"><ele>27.0</ele><time>2026-04-25T15:55:39.096Z</time></trkpt><trkpt lat="41.4969187" lon="12.8337781"><ele>27.0</ele><time>2026-04-25T15:55:40.096Z</time></trkpt><trkpt lat="41.4968368" lon="12.8337595"><ele>27.0</ele><time>2026-04-25T15:55:41.096Z</time></trkpt><trkpt lat="41.4967376" lon="12.8337414"><ele>27.0</ele><time>2026-04-25T15:55:42.096Z</time></trkpt><trkpt lat="41.4966367" lon="12.8337261"><ele>27.0</ele><time>2026-04-25T15:55:43.096Z</time></trkpt><trkpt lat="41.4965364" lon="12.8337134"><ele>27.0</ele><time>2026-04-25T15:55:44.096Z</time></trkpt><trkpt lat="41.4964383" lon="12.8336971"><ele>27.000000000000004</ele><time>2026-04-25T15:55:45.096Z</time></trkpt><trkpt lat="41.4963418" lon="12.8336823"><ele>27.000000000000004</ele><time>2026-04-25T15:55:46.096Z</time></trkpt><trkpt lat="41.4962478" lon="12.8336659"><ele>27.0</ele><time>2026-04-25T15:55:47.096Z</time></trkpt><trkpt lat="41.4961616" lon="12.8336424"><ele>27.0</ele><time>2026-04-25T15:55:48.095Z</time></trkpt><trkpt lat="41.4960721" lon="12.8336221"><ele>27.0</ele><time>2026-04-25T15:55:49.096Z</time></trkpt><trkpt lat="41.4959803" lon="12.8335972"><ele>27.000000000000004</ele><time>2026-04-25T15:55:50.096Z</time></trkpt><trkpt lat="41.4958946" lon="12.8335831"><ele>27.000000000000004</ele><time>2026-04-25T15:55:51.096Z</time></trkpt><trkpt lat="41.4958044" lon="12.833551"><ele>27.0</ele><time>2026-04-25T15:55:52.096Z</time></trkpt><trkpt lat="41.4957103" lon="12.833528"><ele>27.0</ele><time>2026-04-25T15:55:53.096Z</time></trkpt><trkpt lat="41.4956179" lon="12.8335015"><ele>27.0</ele><time>2026-04-25T15:55:54.096Z</time></trkpt><trkpt lat="41.4955293" lon="12.8334763"><ele>27.000000000000004</ele><time>2026-04-25T15:55:55.096Z</time></trkpt><trkpt lat="41.4954362" lon="12.8334506"><ele>27.000000000000004</ele><time>2026-04-25T15:55:56.096Z</time></trkpt><trkpt lat="41.4953409" lon="12.8334232"><ele>27.0</ele><time>2026-04-25T15:55:57.096Z</time></trkpt><trkpt lat="41.4952463" lon="12.8334008"><ele>27.0</ele><time>2026-04-25T15:55:58.095Z</time></trkpt><trkpt lat="41.4951603" lon="12.8333736"><ele>26.5</ele><time>2026-04-25T15:55:59.096Z</time></trkpt><trkpt lat="41.4950764" lon="12.8333555"><ele>26.0</ele><time>2026-04-25T15:56:00.096Z</time></trkpt><trkpt lat="41.4949884" lon="12.833331"><ele>25.5</ele><time>2026-04-25T15:56:01.096Z</time></trkpt><trkpt lat="41.4948952" lon="12.833293"><ele>25.0</ele><time>2026-04-25T15:56:02.096Z</time></trkpt><trkpt lat="41.4948145" lon="12.8332706"><ele>24.5</ele><time>2026-04-25T15:56:03.096Z</time></trkpt><trkpt lat="41.4947328" lon="12.8332487"><ele>24.0</ele><time>2026-04-25T15:56:04.095Z</time></trkpt><trkpt lat="41.4946597" lon="12.8332307"><ele>24.0</ele><time>2026-04-25T15:56:05.096Z</time></trkpt><trkpt lat="41.4945962" lon="12.8332192"><ele>24.0</ele><time>2026-04-25T15:56:06.096Z</time></trkpt><trkpt lat="41.4945264" lon="12.8332301"><ele>24.0</ele><time>2026-04-25T15:56:07.096Z</time></trkpt><trkpt lat="41.494423" lon="12.8332541"><ele>24.0</ele><time>2026-04-25T15:56:09.096Z</time></trkpt><trkpt lat="41.4943208" lon="12.8331669"><ele>24.0</ele><time>2026-04-25T15:56:11.095Z</time></trkpt><trkpt lat="41.4942605" lon="12.8331232"><ele>24.0</ele><time>2026-04-25T15:56:12.096Z</time></trkpt><trkpt lat="41.4942002" lon="12.8330859"><ele>24.5</ele><time>2026-04-25T15:56:13.096Z</time></trkpt><trkpt lat="41.4941107" lon="12.8330521"><ele>25.0</ele><time>2026-04-25T15:56:14.096Z</time></trkpt><trkpt lat="41.4940221" lon="12.833033"><ele>25.5</ele><time>2026-04-25T15:56:15.096Z</time></trkpt><trkpt lat="41.493938" lon="12.8330083"><ele>26.0</ele><time>2026-04-25T15:56:16.096Z</time></trkpt><trkpt lat="41.4938549" lon="12.8329861"><ele>26.5</ele><time>2026-04-25T15:56:17.096Z</time></trkpt><trkpt lat="41.4937769" lon="12.8329637"><ele>27.0</ele><time>2026-04-25T15:56:18.096Z</time></trkpt><trkpt lat="41.493707" lon="12.8329473"><ele>27.200000000000003</ele><time>2026-04-25T15:56:19.095Z</time></trkpt><trkpt lat="41.4936387" lon="12.832936"><ele>27.400000000000002</ele><time>2026-04-25T15:56:20.096Z</time></trkpt><trkpt lat="41.4935221" lon="12.8329055"><ele>27.599999999999998</ele><time>2026-04-25T15:56:22.096Z</time></trkpt><trkpt lat="41.4934149" lon="12.8328626"><ele>27.799999999999997</ele><time>2026-04-25T15:56:24.096Z</time></trkpt><trkpt lat="41.4933185" lon="12.8328277"><ele>28.0</ele><time>2026-04-25T15:56:26.095Z</time></trkpt><trkpt lat="41.4931964" lon="12.8328079"><ele>28.0</ele><time>2026-04-25T15:56:28.095Z</time></trkpt><trkpt lat="41.4929946" lon="12.8328127"><ele>27.999999999999996</ele><time>2026-04-25T15:56:31.096Z</time></trkpt><trkpt lat="41.4929231" lon="12.8328032"><ele>27.999999999999996</ele><time>2026-04-25T15:56:32.096Z</time></trkpt><trkpt lat="41.4928595" lon="12.8328001"><ele>28.0</ele><time>2026-04-25T15:56:33.096Z</time></trkpt><trkpt lat="41.4927966" lon="12.8327913"><ele>28.0</ele><time>2026-04-25T15:56:34.096Z</time></trkpt><trkpt lat="41.492701" lon="12.8328361"><ele>28.2</ele><time>2026-04-25T15:56:36.095Z</time></trkpt><trkpt lat="41.492593" lon="12.8328911"><ele>28.4</ele><time>2026-04-25T15:56:38.095Z</time></trkpt><trkpt lat="41.4925228" lon="12.8329024"><ele>28.599999999999998</ele><time>2026-04-25T15:56:39.096Z</time></trkpt><trkpt lat="41.4924103" lon="12.8329436"><ele>28.799999999999997</ele><time>2026-04-25T15:56:41.096Z</time></trkpt><trkpt lat="41.4923104" lon="12.832946"><ele>29.0</ele><time>2026-04-25T15:56:43.096Z</time></trkpt><trkpt lat="41.4922022" lon="12.8329284"><ele>28.999999999999996</ele><time>2026-04-25T15:56:45.096Z</time></trkpt><trkpt lat="41.4920932" lon="12.8329158"><ele>29.0</ele><time>2026-04-25T15:56:47.096Z</time></trkpt><trkpt lat="41.4920284" lon="12.8329081"><ele>29.0</ele><time>2026-04-25T15:56:48.096Z</time></trkpt><trkpt lat="41.4919609" lon="12.8328888"><ele>29.0</ele><time>2026-04-25T15:56:49.096Z</time></trkpt><trkpt lat="41.4918316" lon="12.8328619"><ele>28.999999999999996</ele><time>2026-04-25T15:56:51.096Z</time></trkpt><trkpt lat="41.4917662" lon="12.8328523"><ele>29.0</ele><time>2026-04-25T15:56:52.096Z</time></trkpt><trkpt lat="41.4916997" lon="12.832842"><ele>28.833333333333332</ele><time>2026-04-25T15:56:53.096Z</time></trkpt><trkpt lat="41.4916309" lon="12.832837"><ele>28.666666666666664</ele><time>2026-04-25T15:56:54.096Z</time></trkpt><trkpt lat="41.4915606" lon="12.8328354"><ele>28.5</ele><time>2026-04-25T15:56:55.096Z</time></trkpt><trkpt lat="41.4914919" lon="12.8328246"><ele>28.333333333333336</ele><time>2026-04-25T15:56:56.096Z</time></trkpt><trkpt lat="41.4914288" lon="12.8328202"><ele>28.166666666666668</ele><time>2026-04-25T15:56:57.095Z</time></trkpt><trkpt lat="41.4913148" lon="12.832816"><ele>28.0</ele><time>2026-04-25T15:56:59.096Z</time></trkpt><trkpt lat="41.4911937" lon="12.8328038"><ele>28.0</ele><time>2026-04-25T15:57:01.096Z</time></trkpt><trkpt lat="41.4910812" lon="12.8327896"><ele>27.999999999999996</ele><time>2026-04-25T15:57:03.096Z</time></trkpt><trkpt lat="41.4910162" lon="12.8327846"><ele>27.999999999999996</ele><time>2026-04-25T15:57:04.096Z</time></trkpt><trkpt lat="41.490948" lon="12.8327819"><ele>28.0</ele><time>2026-04-25T15:57:05.096Z</time></trkpt><trkpt lat="41.4908384" lon="12.832779"><ele>28.0</ele><time>2026-04-25T15:57:07.096Z</time></trkpt><trkpt lat="41.4907441" lon="12.8327796"><ele>28.0</ele><time>2026-04-25T15:57:09.096Z</time></trkpt><trkpt lat="41.4906345" lon="12.8327725"><ele>27.999999999999996</ele><time>2026-04-25T15:57:11.096Z</time></trkpt><trkpt lat="41.4905206" lon="12.8327665"><ele>27.999999999999996</ele><time>2026-04-25T15:57:13.096Z</time></trkpt><trkpt lat="41.4904219" lon="12.8327418"><ele>28.0</ele><time>2026-04-25T15:57:15.095Z</time></trkpt><trkpt lat="41.490312" lon="12.8327246"><ele>28.0</ele><time>2026-04-25T15:57:17.096Z</time></trkpt><trkpt lat="41.4901998" lon="12.8327119"><ele>27.4</ele><time>2026-04-25T15:57:19.096Z</time></trkpt><trkpt lat="41.4900872" lon="12.8327099"><ele>26.799999999999997</ele><time>2026-04-25T15:57:21.096Z</time></trkpt><trkpt lat="41.4899819" lon="12.8327116"><ele>26.2</ele><time>2026-04-25T15:57:23.096Z</time></trkpt><trkpt lat="41.4898943" lon="12.8326997"><ele>25.6</ele><time>2026-04-25T15:57:25.096Z</time></trkpt><trkpt lat="41.4897888" lon="12.8326866"><ele>25.0</ele><time>2026-04-25T15:57:27.095Z</time></trkpt><trkpt lat="41.4896723" lon="12.8326784"><ele>25.000000000000004</ele><time>2026-04-25T15:57:29.095Z</time></trkpt><trkpt lat="41.4896083" lon="12.8326686"><ele>25.0</ele><time>2026-04-25T15:57:30.096Z</time></trkpt><trkpt lat="41.4894823" lon="12.8326596"><ele>25.0</ele><time>2026-04-25T15:57:32.095Z</time></trkpt><trkpt lat="41.489412" lon="12.8326552"><ele>25.0</ele><time>2026-04-25T15:57:33.096Z</time></trkpt><trkpt lat="41.48929" lon="12.8326475"><ele>25.000000000000004</ele><time>2026-04-25T15:57:35.096Z</time></trkpt><trkpt lat="41.4892268" lon="12.8326387"><ele>25.0</ele><time>2026-04-25T15:57:36.096Z</time></trkpt><trkpt lat="41.4890998" lon="12.8326338"><ele>24.857142857142858</ele><time>2026-04-25T15:57:38.095Z</time></trkpt><trkpt lat="41.4890312" lon="12.8326301"><ele>24.714285714285715</ele><time>2026-04-25T15:57:39.096Z</time></trkpt><trkpt lat="41.4889621" lon="12.8326237"><ele>24.57142857142857</ele><time>2026-04-25T15:57:40.095Z</time></trkpt><trkpt lat="41.4888884" lon="12.8326237"><ele>24.42857142857143</ele><time>2026-04-25T15:57:41.096Z</time></trkpt><trkpt lat="41.4888201" lon="12.8326218"><ele>24.285714285714285</ele><time>2026-04-25T15:57:42.095Z</time></trkpt><trkpt lat="41.4887467" lon="12.8326219"><ele>24.142857142857142</ele><time>2026-04-25T15:57:43.096Z</time></trkpt><trkpt lat="41.48868" lon="12.8326233"><ele>24.0</ele><time>2026-04-25T15:57:44.096Z</time></trkpt><trkpt lat="41.4886128" lon="12.8326279"><ele>24.0</ele><time>2026-04-25T15:57:45.096Z</time></trkpt><trkpt lat="41.4885461" lon="12.8326314"><ele>24.0</ele><time>2026-04-25T15:57:46.096Z</time></trkpt><trkpt lat="41.4884273" lon="12.8326272"><ele>24.0</ele><time>2026-04-25T15:57:48.095Z</time></trkpt><trkpt lat="41.488311" lon="12.8326443"><ele>24.0</ele><time>2026-04-25T15:57:50.096Z</time></trkpt><trkpt lat="41.4882473" lon="12.8326577"><ele>24.0</ele><time>2026-04-25T15:57:51.096Z</time></trkpt><trkpt lat="41.4881854" lon="12.8326731"><ele>24.0</ele><time>2026-04-25T15:57:52.096Z</time></trkpt><trkpt lat="41.4880688" lon="12.8327"><ele>24.0</ele><time>2026-04-25T15:57:54.096Z</time></trkpt><trkpt lat="41.487955" lon="12.8327194"><ele>24.0</ele><time>2026-04-25T15:57:56.096Z</time></trkpt><trkpt lat="41.487838" lon="12.8327392"><ele>24.0</ele><time>2026-04-25T15:57:58.096Z</time></trkpt><trkpt lat="41.4877331" lon="12.8327545"><ele>24.0</ele><time>2026-04-25T15:58:00.096Z</time></trkpt><trkpt lat="41.4876266" lon="12.8327738"><ele>24.0</ele><time>2026-04-25T15:58:02.096Z</time></trkpt><trkpt lat="41.4875238" lon="12.8327958"><ele>24.2</ele><time>2026-04-25T15:58:04.096Z</time></trkpt><trkpt lat="41.4874267" lon="12.8328201"><ele>24.4</ele><time>2026-04-25T15:58:06.096Z</time></trkpt><trkpt lat="41.4873317" lon="12.8328672"><ele>24.6</ele><time>2026-04-25T15:58:08.096Z</time></trkpt><trkpt lat="41.4872395" lon="12.8329172"><ele>24.8</ele><time>2026-04-25T15:58:10.095Z</time></trkpt><trkpt lat="41.4871391" lon="12.8329621"><ele>25.0</ele><time>2026-04-25T15:58:12.096Z</time></trkpt><trkpt lat="41.4870382" lon="12.8329866"><ele>25.333333333333336</ele><time>2026-04-25T15:58:14.096Z</time></trkpt><trkpt lat="41.4869247" lon="12.8330214"><ele>25.666666666666668</ele><time>2026-04-25T15:58:16.095Z</time></trkpt><trkpt lat="41.4868601" lon="12.8330462"><ele>26.0</ele><time>2026-04-25T15:58:17.096Z</time></trkpt><trkpt lat="41.4868006" lon="12.833074"><ele>26.333333333333336</ele><time>2026-04-25T15:58:18.096Z</time></trkpt><trkpt lat="41.4867084" lon="12.8331172"><ele>26.666666666666668</ele><time>2026-04-25T15:58:20.096Z</time></trkpt><trkpt lat="41.4866458" lon="12.8331433"><ele>27.0</ele><time>2026-04-25T15:58:22.096Z</time></trkpt><trkpt lat="41.4865735" lon="12.8331725"><ele>27.0</ele><time>2026-04-25T15:58:26.096Z</time></trkpt><trkpt lat="41.4864869" lon="12.8332178"><ele>27.0</ele><time>2026-04-25T15:58:28.096Z</time></trkpt><trkpt lat="41.4864" lon="12.8332608"><ele>27.0</ele><time>2026-04-25T15:58:30.095Z</time></trkpt><trkpt lat="41.48631" lon="12.8333029"><ele>27.0</ele><time>2026-04-25T15:58:32.096Z</time></trkpt><trkpt lat="41.4862271" lon="12.8333394"><ele>27.0</ele><time>2026-04-25T15:58:34.096Z</time></trkpt><trkpt lat="41.4861502" lon="12.8333707"><ele>27.0</ele><time>2026-04-25T15:58:36.096Z</time></trkpt><trkpt lat="41.486074" lon="12.8333969"><ele>26.8</ele><time>2026-04-25T15:58:38.096Z</time></trkpt><trkpt lat="41.485994" lon="12.8334333"><ele>26.6</ele><time>2026-04-25T15:58:40.096Z</time></trkpt><trkpt lat="41.4859005" lon="12.8334801"><ele>26.400000000000002</ele><time>2026-04-25T15:58:42.095Z</time></trkpt><trkpt lat="41.4858088" lon="12.8335373"><ele>26.200000000000003</ele><time>2026-04-25T15:58:44.095Z</time></trkpt><trkpt lat="41.4857099" lon="12.8335989"><ele>26.0</ele><time>2026-04-25T15:58:46.095Z</time></trkpt><trkpt lat="41.4856092" lon="12.8336633"><ele>26.0</ele><time>2026-04-25T15:58:48.096Z</time></trkpt><trkpt lat="41.4855147" lon="12.8337188"><ele>26.0</ele><time>2026-04-25T15:58:50.095Z</time></trkpt><trkpt lat="41.4854235" lon="12.8337753"><ele>26.0</ele><time>2026-04-25T15:58:52.096Z</time></trkpt><trkpt lat="41.4853368" lon="12.8338357"><ele>26.0</ele><time>2026-04-25T15:58:54.096Z</time></trkpt><trkpt lat="41.4852409" lon="12.8339094"><ele>26.0</ele><time>2026-04-25T15:58:56.096Z</time></trkpt><trkpt lat="41.4851429" lon="12.83397"><ele>25.6</ele><time>2026-04-25T15:58:58.096Z</time></trkpt><trkpt lat="41.4850507" lon="12.8340184"><ele>25.200000000000003</ele><time>2026-04-25T15:59:00.095Z</time></trkpt><trkpt lat="41.484951" lon="12.8340508"><ele>24.799999999999997</ele><time>2026-04-25T15:59:02.095Z</time></trkpt><trkpt lat="41.4848425" lon="12.8340877"><ele>24.4</ele><time>2026-04-25T15:59:04.096Z</time></trkpt><trkpt lat="41.4847253" lon="12.8341439"><ele>24.0</ele><time>2026-04-25T15:59:06.096Z</time></trkpt><trkpt lat="41.484603" lon="12.8342023"><ele>23.799999999999997</ele><time>2026-04-25T15:59:08.096Z</time></trkpt><trkpt lat="41.4845423" lon="12.8342335"><ele>23.599999999999998</ele><time>2026-04-25T15:59:09.096Z</time></trkpt><trkpt lat="41.4844379" lon="12.8343024"><ele>23.4</ele><time>2026-04-25T15:59:11.096Z</time></trkpt><trkpt lat="41.4843293" lon="12.8343643"><ele>23.2</ele><time>2026-04-25T15:59:13.095Z</time></trkpt><trkpt lat="41.4842254" lon="12.8344222"><ele>23.0</ele><time>2026-04-25T15:59:15.095Z</time></trkpt><trkpt lat="41.4841255" lon="12.8344808"><ele>22.799999999999997</ele><time>2026-04-25T15:59:17.096Z</time></trkpt><trkpt lat="41.4840654" lon="12.8345108"><ele>22.6</ele><time>2026-04-25T15:59:18.096Z</time></trkpt><trkpt lat="41.4839629" lon="12.8345689"><ele>22.4</ele><time>2026-04-25T15:59:20.096Z</time></trkpt><trkpt lat="41.4838623" lon="12.8346268"><ele>22.200000000000003</ele><time>2026-04-25T15:59:22.096Z</time></trkpt><trkpt lat="41.4837663" lon="12.8346755"><ele>22.0</ele><time>2026-04-25T15:59:24.096Z</time></trkpt><trkpt lat="41.4836647" lon="12.8347237"><ele>22.0</ele><time>2026-04-25T15:59:26.095Z</time></trkpt><trkpt lat="41.4835574" lon="12.8347875"><ele>22.0</ele><time>2026-04-25T15:59:28.096Z</time></trkpt><trkpt lat="41.4834515" lon="12.8348512"><ele>22.0</ele><time>2026-04-25T15:59:30.095Z</time></trkpt><trkpt lat="41.4833569" lon="12.8349069"><ele>22.0</ele><time>2026-04-25T15:59:32.095Z</time></trkpt><trkpt lat="41.4832778" lon="12.8349465"><ele>22.0</ele><time>2026-04-25T15:59:34.096Z</time></trkpt><trkpt lat="41.4831986" lon="12.834994"><ele>22.0</ele><time>2026-04-25T15:59:36.095Z</time></trkpt><trkpt lat="41.4831128" lon="12.8350422"><ele>22.0</ele><time>2026-04-25T15:59:38.096Z</time></trkpt><trkpt lat="41.4830192" lon="12.8350995"><ele>22.0</ele><time>2026-04-25T15:59:40.096Z</time></trkpt><trkpt lat="41.4829283" lon="12.8351578"><ele>22.0</ele><time>2026-04-25T15:59:42.095Z</time></trkpt><trkpt lat="41.4828427" lon="12.8352048"><ele>22.0</ele><time>2026-04-25T15:59:44.096Z</time></trkpt><trkpt lat="41.4827521" lon="12.8352761"><ele>22.400000000000002</ele><time>2026-04-25T15:59:46.095Z</time></trkpt><trkpt lat="41.4826659" lon="12.8353308"><ele>22.8</ele><time>2026-04-25T15:59:48.096Z</time></trkpt><trkpt lat="41.4825692" lon="12.8353922"><ele>23.2</ele><time>2026-04-25T15:59:50.096Z</time></trkpt><trkpt lat="41.482462" lon="12.8354577"><ele>23.6</ele><time>2026-04-25T15:59:52.096Z</time></trkpt><trkpt lat="41.4823537" lon="12.8355128"><ele>24.0</ele><time>2026-04-25T15:59:54.096Z</time></trkpt><trkpt lat="41.4822491" lon="12.8355777"><ele>24.0</ele><time>2026-04-25T15:59:56.096Z</time></trkpt><trkpt lat="41.4821833" lon="12.8356082"><ele>24.0</ele><time>2026-04-25T15:59:57.095Z</time></trkpt><trkpt lat="41.4821227" lon="12.8356436"><ele>24.0</ele><time>2026-04-25T15:59:58.096Z</time></trkpt><trkpt lat="41.4820161" lon="12.8357061"><ele>24.0</ele><time>2026-04-25T16:00:00.096Z</time></trkpt><trkpt lat="41.4819096" lon="12.8357675"><ele>24.0</ele><time>2026-04-25T16:00:02.095Z</time></trkpt><trkpt lat="41.4818109" lon="12.8358262"><ele>23.25</ele><time>2026-04-25T16:00:04.095Z</time></trkpt><trkpt lat="41.481701" lon="12.8359058"><ele>22.5</ele><time>2026-04-25T16:00:06.096Z</time></trkpt><trkpt lat="41.4815904" lon="12.8359816"><ele>21.75</ele><time>2026-04-25T16:00:08.095Z</time></trkpt><trkpt lat="41.4814878" lon="12.8360283"><ele>21.0</ele><time>2026-04-25T16:00:10.096Z</time></trkpt><trkpt lat="41.4813838" lon="12.836062"><ele>21.0</ele><time>2026-04-25T16:00:12.095Z</time></trkpt><trkpt lat="41.4812679" lon="12.8360981"><ele>21.0</ele><time>2026-04-25T16:00:14.096Z</time></trkpt><trkpt lat="41.4811481" lon="12.8361419"><ele>21.0</ele><time>2026-04-25T16:00:16.096Z</time></trkpt><trkpt lat="41.4810384" lon="12.8361812"><ele>21.0</ele><time>2026-04-25T16:00:18.095Z</time></trkpt><trkpt lat="41.4809271" lon="12.8362135"><ele>20.8</ele><time>2026-04-25T16:00:20.096Z</time></trkpt><trkpt lat="41.4808157" lon="12.8362507"><ele>20.6</ele><time>2026-04-25T16:00:22.096Z</time></trkpt><trkpt lat="41.480707" lon="12.8362822"><ele>20.4</ele><time>2026-04-25T16:00:24.096Z</time></trkpt><trkpt lat="41.4806422" lon="12.8363037"><ele>20.2</ele><time>2026-04-25T16:00:25.095Z</time></trkpt><trkpt lat="41.4805269" lon="12.8363371"><ele>20.0</ele><time>2026-04-25T16:00:27.096Z</time></trkpt><trkpt lat="41.4804335" lon="12.8363509"><ele>20.4</ele><time>2026-04-25T16:00:29.095Z</time></trkpt><trkpt lat="41.4803494" lon="12.8363809"><ele>20.8</ele><time>2026-04-25T16:00:31.095Z</time></trkpt><trkpt lat="41.4802377" lon="12.8364089"><ele>21.200000000000003</ele><time>2026-04-25T16:00:33.096Z</time></trkpt><trkpt lat="41.4801305" lon="12.8364338"><ele>21.6</ele><time>2026-04-25T16:00:35.096Z</time></trkpt><trkpt lat="41.4800295" lon="12.8364538"><ele>22.0</ele><time>2026-04-25T16:00:37.096Z</time></trkpt><trkpt lat="41.4799307" lon="12.8364818"><ele>22.0</ele><time>2026-04-25T16:00:39.096Z</time></trkpt><trkpt lat="41.479813" lon="12.8365083"><ele>22.0</ele><time>2026-04-25T16:00:41.096Z</time></trkpt><trkpt lat="41.4796983" lon="12.8365344"><ele>22.0</ele><time>2026-04-25T16:00:43.096Z</time></trkpt><trkpt lat="41.4795876" lon="12.8365337"><ele>22.0</ele><time>2026-04-25T16:00:45.096Z</time></trkpt><trkpt lat="41.4794807" lon="12.8364993"><ele>22.0</ele><time>2026-04-25T16:00:47.096Z</time></trkpt><trkpt lat="41.4793599" lon="12.8364489"><ele>22.0</ele><time>2026-04-25T16:00:49.096Z</time></trkpt><trkpt lat="41.4792485" lon="12.8364227"><ele>22.0</ele><time>2026-04-25T16:00:51.096Z</time></trkpt><trkpt lat="41.4791312" lon="12.8363931"><ele>22.0</ele><time>2026-04-25T16:00:53.096Z</time></trkpt><trkpt lat="41.4790103" lon="12.8363718"><ele>22.0</ele><time>2026-04-25T16:00:55.096Z</time></trkpt><trkpt lat="41.4789249" lon="12.8363466"><ele>22.0</ele><time>2026-04-25T16:00:57.096Z</time></trkpt><trkpt lat="41.4788461" lon="12.8363302"><ele>22.0</ele><time>2026-04-25T16:00:59.095Z</time></trkpt><trkpt lat="41.478752" lon="12.8363057"><ele>22.0</ele><time>2026-04-25T16:01:01.096Z</time></trkpt><trkpt lat="41.4786612" lon="12.8362866"><ele>22.0</ele><time>2026-04-25T16:01:03.096Z</time></trkpt><trkpt lat="41.4785573" lon="12.8362654"><ele>21.8</ele><time>2026-04-25T16:01:05.095Z</time></trkpt><trkpt lat="41.4784571" lon="12.8362436"><ele>21.6</ele><time>2026-04-25T16:01:07.096Z</time></trkpt><trkpt lat="41.4783564" lon="12.8362186"><ele>21.400000000000002</ele><time>2026-04-25T16:01:09.096Z</time></trkpt><trkpt lat="41.4782528" lon="12.8361788"><ele>21.200000000000003</ele><time>2026-04-25T16:01:11.096Z</time></trkpt><trkpt lat="41.4781463" lon="12.8361372"><ele>21.0</ele><time>2026-04-25T16:01:13.096Z</time></trkpt><trkpt lat="41.47804" lon="12.8360948"><ele>21.25</ele><time>2026-04-25T16:01:15.095Z</time></trkpt><trkpt lat="41.4779274" lon="12.836039"><ele>21.5</ele><time>2026-04-25T16:01:17.095Z</time></trkpt><trkpt lat="41.4778097" lon="12.8359975"><ele>21.75</ele><time>2026-04-25T16:01:19.095Z</time></trkpt><trkpt lat="41.4776971" lon="12.8359598"><ele>22.0</ele><time>2026-04-25T16:01:21.096Z</time></trkpt><trkpt lat="41.4775931" lon="12.8359219"><ele>22.166666666666664</ele><time>2026-04-25T16:01:23.096Z</time></trkpt><trkpt lat="41.4774826" lon="12.8358815"><ele>22.333333333333332</ele><time>2026-04-25T16:01:25.096Z</time></trkpt><trkpt lat="41.477421" lon="12.8358625"><ele>22.5</ele><time>2026-04-25T16:01:26.096Z</time></trkpt><trkpt lat="41.4773532" lon="12.8358432"><ele>22.666666666666668</ele><time>2026-04-25T16:01:27.096Z</time></trkpt><trkpt lat="41.4772917" lon="12.8358174"><ele>22.833333333333336</ele><time>2026-04-25T16:01:28.095Z</time></trkpt><trkpt lat="41.4772285" lon="12.8357971"><ele>23.0</ele><time>2026-04-25T16:01:29.096Z</time></trkpt><trkpt lat="41.477111" lon="12.8357581"><ele>23.0</ele><time>2026-04-25T16:01:31.095Z</time></trkpt><trkpt lat="41.4770026" lon="12.8357146"><ele>23.0</ele><time>2026-04-25T16:01:33.095Z</time></trkpt><trkpt lat="41.4768945" lon="12.8356822"><ele>23.0</ele><time>2026-04-25T16:01:35.095Z</time></trkpt><trkpt lat="41.4767819" lon="12.8356696"><ele>23.0</ele><time>2026-04-25T16:01:37.096Z</time></trkpt><trkpt lat="41.4766868" lon="12.835633"><ele>23.0</ele><time>2026-04-25T16:01:39.096Z</time></trkpt><trkpt lat="41.4766024" lon="12.8355722"><ele>23.0</ele><time>2026-04-25T16:01:41.096Z</time></trkpt><trkpt lat="41.476529" lon="12.8355381"><ele>23.0</ele><time>2026-04-25T16:01:43.095Z</time></trkpt><trkpt lat="41.476461" lon="12.8355089"><ele>23.0</ele><time>2026-04-25T16:01:46.096Z</time></trkpt><trkpt lat="41.4763689" lon="12.8354796"><ele>23.0</ele><time>2026-04-25T16:06:54.095Z</time></trkpt><trkpt lat="41.4762509" lon="12.8354303"><ele>23.0</ele><time>2026-04-25T16:06:56.096Z</time></trkpt><trkpt lat="41.4761776" lon="12.8354041"><ele>23.0</ele><time>2026-04-25T16:06:57.096Z</time></trkpt><trkpt lat="41.4760926" lon="12.8353763"><ele>22.799999999999997</ele><time>2026-04-25T16:06:58.096Z</time></trkpt><trkpt lat="41.4759791" lon="12.8353315"><ele>22.6</ele><time>2026-04-25T16:06:59.096Z</time></trkpt><trkpt lat="41.4758877" lon="12.8352945"><ele>22.4</ele><time>2026-04-25T16:07:00.096Z</time></trkpt><trkpt lat="41.4757913" lon="12.8352561"><ele>22.200000000000003</ele><time>2026-04-25T16:07:01.096Z</time></trkpt><trkpt lat="41.4757075" lon="12.8352238"><ele>22.0</ele><time>2026-04-25T16:07:02.095Z</time></trkpt><trkpt lat="41.4756146" lon="12.835193"><ele>22.0</ele><time>2026-04-25T16:07:03.096Z</time></trkpt><trkpt lat="41.4755245" lon="12.8351606"><ele>22.0</ele><time>2026-04-25T16:07:04.095Z</time></trkpt><trkpt lat="41.4754143" lon="12.8351142"><ele>22.0</ele><time>2026-04-25T16:07:05.096Z</time></trkpt><trkpt lat="41.4752194" lon="12.8350354"><ele>22.0</ele><time>2026-04-25T16:07:07.095Z</time></trkpt><trkpt lat="41.4751226" lon="12.8349813"><ele>21.8</ele><time>2026-04-25T16:07:08.096Z</time></trkpt><trkpt lat="41.4750319" lon="12.8349209"><ele>21.6</ele><time>2026-04-25T16:07:09.096Z</time></trkpt><trkpt lat="41.474931" lon="12.8348461"><ele>21.400000000000002</ele><time>2026-04-25T16:07:10.096Z</time></trkpt><trkpt lat="41.474832" lon="12.8347559"><ele>21.200000000000003</ele><time>2026-04-25T16:07:11.096Z</time></trkpt><trkpt lat="41.4747493" lon="12.8346654"><ele>21.0</ele><time>2026-04-25T16:07:12.096Z</time></trkpt><trkpt lat="41.4746656" lon="12.8345614"><ele>21.0</ele><time>2026-04-25T16:07:13.095Z</time></trkpt><trkpt lat="41.4745958" lon="12.8344559"><ele>21.0</ele><time>2026-04-25T16:07:14.096Z</time></trkpt><trkpt lat="41.4745281" lon="12.834354"><ele>21.0</ele><time>2026-04-25T16:07:15.096Z</time></trkpt><trkpt lat="41.4744738" lon="12.8342486"><ele>21.0</ele><time>2026-04-25T16:07:16.095Z</time></trkpt><trkpt lat="41.4743923" lon="12.8340734"><ele>21.0</ele><time>2026-04-25T16:07:18.096Z</time></trkpt><trkpt lat="41.4743313" lon="12.8339184"><ele>21.0</ele><time>2026-04-25T16:07:20.096Z</time></trkpt><trkpt lat="41.474304" lon="12.8338193"><ele>21.0</ele><time>2026-04-25T16:07:21.096Z</time></trkpt><trkpt lat="41.4742798" lon="12.8337047"><ele>21.0</ele><time>2026-04-25T16:07:22.096Z</time></trkpt><trkpt lat="41.4742526" lon="12.8335788"><ele>21.0</ele><time>2026-04-25T16:07:23.096Z</time></trkpt><trkpt lat="41.47424" lon="12.8334211"><ele>20.0</ele><time>2026-04-25T16:07:24.096Z</time></trkpt><trkpt lat="41.4742284" lon="12.8332294"><ele>19.0</ele><time>2026-04-25T16:07:25.096Z</time></trkpt><trkpt lat="41.4742255" lon="12.8330587"><ele>18.0</ele><time>2026-04-25T16:07:26.096Z</time></trkpt><trkpt lat="41.4742436" lon="12.8327314"><ele>18.0</ele><time>2026-04-25T16:07:28.096Z</time></trkpt><trkpt lat="41.4742704" lon="12.8325865"><ele>18.0</ele><time>2026-04-25T16:07:29.096Z</time></trkpt><trkpt lat="41.4743058" lon="12.8324435"><ele>18.0</ele><time>2026-04-25T16:07:30.095Z</time></trkpt><trkpt lat="41.4743545" lon="12.8322859"><ele>18.0</ele><time>2026-04-25T16:07:31.096Z</time></trkpt><trkpt lat="41.4744182" lon="12.8321004"><ele>18.0</ele><time>2026-04-25T16:07:32.096Z</time></trkpt><trkpt lat="41.4744801" lon="12.8318838"><ele>18.0</ele><time>2026-04-25T16:07:33.096Z</time></trkpt><trkpt lat="41.4745503" lon="12.8316913"><ele>18.0</ele><time>2026-04-25T16:07:34.095Z</time></trkpt><trkpt lat="41.4746102" lon="12.8315109"><ele>18.0</ele><time>2026-04-25T16:07:35.095Z</time></trkpt><trkpt lat="41.4746634" lon="12.8313501"><ele>18.0</ele><time>2026-04-25T16:07:36.096Z</time></trkpt><trkpt lat="41.4747147" lon="12.8312032"><ele>18.0</ele><time>2026-04-25T16:07:37.096Z</time></trkpt><trkpt lat="41.4747582" lon="12.8310688"><ele>18.0</ele><time>2026-04-25T16:07:38.096Z</time></trkpt><trkpt lat="41.4747991" lon="12.8309343"><ele>18.0</ele><time>2026-04-25T16:07:39.096Z</time></trkpt><trkpt lat="41.4748317" lon="12.8308132"><ele>18.0</ele><time>2026-04-25T16:07:40.096Z</time></trkpt><trkpt lat="41.4748627" lon="12.8307145"><ele>18.0</ele><time>2026-04-25T16:07:41.096Z</time></trkpt><trkpt lat="41.4748909" lon="12.8306287"><ele>18.0</ele><time>2026-04-25T16:07:42.096Z</time></trkpt><trkpt lat="41.4749336" lon="12.8304871"><ele>18.0</ele><time>2026-04-25T16:07:44.096Z</time></trkpt><trkpt lat="41.4748987" lon="12.8303735"><ele>18.0</ele><time>2026-04-25T16:07:46.096Z</time></trkpt><trkpt lat="41.4748376" lon="12.8302579"><ele>18.0</ele><time>2026-04-25T16:07:48.096Z</time></trkpt><trkpt lat="41.4748917" lon="12.8301336"><ele>18.0</ele><time>2026-04-25T16:07:50.096Z</time></trkpt><trkpt lat="41.4749319" lon="12.8300651"><ele>18.0</ele><time>2026-04-25T16:07:51.096Z</time></trkpt><trkpt lat="41.4749706" lon="12.829977"><ele>18.0</ele><time>2026-04-25T16:07:52.096Z</time></trkpt><trkpt lat="41.4750074" lon="12.8298688"><ele>18.0</ele><time>2026-04-25T16:07:53.095Z</time></trkpt><trkpt lat="41.4750416" lon="12.8297585"><ele>17.8</ele><time>2026-04-25T16:07:54.096Z</time></trkpt><trkpt lat="41.4750899" lon="12.8296404"><ele>17.6</ele><time>2026-04-25T16:07:55.096Z</time></trkpt><trkpt lat="41.4751366" lon="12.8295259"><ele>17.4</ele><time>2026-04-25T16:07:56.096Z</time></trkpt><trkpt lat="41.4751874" lon="12.8293957"><ele>17.2</ele><time>2026-04-25T16:07:57.096Z</time></trkpt><trkpt lat="41.4752443" lon="12.8292441"><ele>17.0</ele><time>2026-04-25T16:07:58.095Z</time></trkpt><trkpt lat="41.4752984" lon="12.8290993"><ele>17.333333333333336</ele><time>2026-04-25T16:07:59.095Z</time></trkpt><trkpt lat="41.4753532" lon="12.8289451"><ele>17.666666666666668</ele><time>2026-04-25T16:08:00.096Z</time></trkpt><trkpt lat="41.4754591" lon="12.8286371"><ele>18.0</ele><time>2026-04-25T16:08:02.096Z</time></trkpt><trkpt lat="41.4755205" lon="12.8284801"><ele>18.25</ele><time>2026-04-25T16:08:03.096Z</time></trkpt><trkpt lat="41.4755735" lon="12.8283249"><ele>18.5</ele><time>2026-04-25T16:08:04.096Z</time></trkpt><trkpt lat="41.4756227" lon="12.8281693"><ele>18.75</ele><time>2026-04-25T16:08:05.096Z</time></trkpt><trkpt lat="41.4756706" lon="12.8280053"><ele>19.0</ele><time>2026-04-25T16:08:06.096Z</time></trkpt><trkpt lat="41.4757198" lon="12.8278576"><ele>19.0</ele><time>2026-04-25T16:08:07.095Z</time></trkpt><trkpt lat="41.4757635" lon="12.8277099"><ele>19.0</ele><time>2026-04-25T16:08:08.096Z</time></trkpt><trkpt lat="41.475803" lon="12.8275743"><ele>19.0</ele><time>2026-04-25T16:08:09.096Z</time></trkpt><trkpt lat="41.4758348" lon="12.8274382"><ele>19.0</ele><time>2026-04-25T16:08:10.096Z</time></trkpt><trkpt lat="41.4758702" lon="12.8273041"><ele>19.0</ele><time>2026-04-25T16:08:11.096Z</time></trkpt><trkpt lat="41.4759053" lon="12.8271627"><ele>19.0</ele><time>2026-04-25T16:08:12.096Z</time></trkpt><trkpt lat="41.4759569" lon="12.8270488"><ele>19.0</ele><time>2026-04-25T16:08:13.096Z</time></trkpt><trkpt lat="41.475998" lon="12.8269148"><ele>19.0</ele><time>2026-04-25T16:08:14.096Z</time></trkpt><trkpt lat="41.4760392" lon="12.8267825"><ele>19.0</ele><time>2026-04-25T16:08:15.095Z</time></trkpt><trkpt lat="41.4760714" lon="12.8266383"><ele>19.0</ele><time>2026-04-25T16:08:16.096Z</time></trkpt><trkpt lat="41.4760986" lon="12.8264995"><ele>19.0</ele><time>2026-04-25T16:08:17.095Z</time></trkpt><trkpt lat="41.4761394" lon="12.8261818"><ele>19.0</ele><time>2026-04-25T16:08:19.096Z</time></trkpt><trkpt lat="41.4761582" lon="12.8260378"><ele>19.0</ele><time>2026-04-25T16:08:20.096Z</time></trkpt><trkpt lat="41.4761765" lon="12.8258962"><ele>19.0</ele><time>2026-04-25T16:08:21.096Z</time></trkpt><trkpt lat="41.476202" lon="12.8256306"><ele>19.0</ele><time>2026-04-25T16:08:23.096Z</time></trkpt><trkpt lat="41.4762059" lon="12.8254905"><ele>19.0</ele><time>2026-04-25T16:08:24.096Z</time></trkpt><trkpt lat="41.4762102" lon="12.8253487"><ele>19.0</ele><time>2026-04-25T16:08:25.096Z</time></trkpt><trkpt lat="41.4762147" lon="12.8252171"><ele>19.0</ele><time>2026-04-25T16:08:26.096Z</time></trkpt><trkpt lat="41.4762164" lon="12.8250786"><ele>19.0</ele><time>2026-04-25T16:08:27.096Z</time></trkpt><trkpt lat="41.4762196" lon="12.8249579"><ele>19.0</ele><time>2026-04-25T16:08:28.096Z</time></trkpt><trkpt lat="41.4762152" lon="12.8248498"><ele>19.0</ele><time>2026-04-25T16:08:29.096Z</time></trkpt><trkpt lat="41.476211" lon="12.8247353"><ele>19.0</ele><time>2026-04-25T16:08:30.096Z</time></trkpt><trkpt lat="41.4762055" lon="12.8246177"><ele>19.0</ele><time>2026-04-25T16:08:31.096Z</time></trkpt><trkpt lat="41.4762208" lon="12.8244881"><ele>19.0</ele><time>2026-04-25T16:08:32.095Z</time></trkpt><trkpt lat="41.476227" lon="12.824345"><ele>19.0</ele><time>2026-04-25T16:08:33.096Z</time></trkpt><trkpt lat="41.4762351" lon="12.8241948"><ele>19.0</ele><time>2026-04-25T16:08:34.095Z</time></trkpt><trkpt lat="41.476241" lon="12.8240388"><ele>19.0</ele><time>2026-04-25T16:08:35.096Z</time></trkpt><trkpt lat="41.4762475" lon="12.8238854"><ele>18.75</ele><time>2026-04-25T16:08:36.096Z</time></trkpt><trkpt lat="41.4762562" lon="12.823732"><ele>18.5</ele><time>2026-04-25T16:08:37.096Z</time></trkpt><trkpt lat="41.4762655" lon="12.8235867"><ele>18.25</ele><time>2026-04-25T16:08:38.096Z</time></trkpt><trkpt lat="41.4762645" lon="12.8234365"><ele>18.0</ele><time>2026-04-25T16:08:39.096Z</time></trkpt><trkpt lat="41.4762624" lon="12.8232686"><ele>18.0</ele><time>2026-04-25T16:08:40.096Z</time></trkpt><trkpt lat="41.4762475" lon="12.8231251"><ele>18.0</ele><time>2026-04-25T16:08:41.096Z</time></trkpt><trkpt lat="41.4762301" lon="12.8229905"><ele>18.0</ele><time>2026-04-25T16:08:42.096Z</time></trkpt><trkpt lat="41.4761987" lon="12.8228516"><ele>18.0</ele><time>2026-04-25T16:08:43.096Z</time></trkpt><trkpt lat="41.4761721" lon="12.8227238"><ele>18.0</ele><time>2026-04-25T16:08:44.096Z</time></trkpt><trkpt lat="41.476133" lon="12.8225894"><ele>18.0</ele><time>2026-04-25T16:08:45.096Z</time></trkpt><trkpt lat="41.476092" lon="12.8224647"><ele>18.0</ele><time>2026-04-25T16:08:46.095Z</time></trkpt><trkpt lat="41.4760503" lon="12.8223491"><ele>18.0</ele><time>2026-04-25T16:08:47.096Z</time></trkpt><trkpt lat="41.4759836" lon="12.8222302"><ele>18.0</ele><time>2026-04-25T16:08:48.096Z</time></trkpt><trkpt lat="41.4759177" lon="12.8221018"><ele>18.0</ele><time>2026-04-25T16:08:49.095Z</time></trkpt><trkpt lat="41.4758329" lon="12.8220067"><ele>18.0</ele><time>2026-04-25T16:08:50.095Z</time></trkpt><trkpt lat="41.4757568" lon="12.8219134"><ele>18.0</ele><time>2026-04-25T16:08:51.095Z</time></trkpt><trkpt lat="41.4756712" lon="12.8218257"><ele>18.0</ele><time>2026-04-25T16:08:52.096Z</time></trkpt><trkpt lat="41.4755726" lon="12.8217576"><ele>18.0</ele><time>2026-04-25T16:08:53.096Z</time></trkpt><trkpt lat="41.4754726" lon="12.8216929"><ele>18.0</ele><time>2026-04-25T16:08:54.095Z</time></trkpt><trkpt lat="41.4753802" lon="12.8216313"><ele>18.0</ele><time>2026-04-25T16:08:55.095Z</time></trkpt><trkpt lat="41.4752796" lon="12.821575"><ele>18.0</ele><time>2026-04-25T16:08:56.096Z</time></trkpt><trkpt lat="41.4751675" lon="12.8215384"><ele>18.0</ele><time>2026-04-25T16:08:57.096Z</time></trkpt><trkpt lat="41.4750532" lon="12.8215097"><ele>18.0</ele><time>2026-04-25T16:08:58.095Z</time></trkpt><trkpt lat="41.4749384" lon="12.8215021"><ele>18.0</ele><time>2026-04-25T16:08:59.096Z</time></trkpt><trkpt lat="41.4748028" lon="12.8215126"><ele>18.0</ele><time>2026-04-25T16:09:00.095Z</time></trkpt><trkpt lat="41.4746519" lon="12.8215196"><ele>18.0</ele><time>2026-04-25T16:09:01.096Z</time></trkpt><trkpt lat="41.4744891" lon="12.821535"><ele>17.666666666666668</ele><time>2026-04-25T16:09:02.096Z</time></trkpt><trkpt lat="41.4743057" lon="12.8215552"><ele>17.333333333333336</ele><time>2026-04-25T16:09:03.095Z</time></trkpt><trkpt lat="41.474118" lon="12.8215662"><ele>17.0</ele><time>2026-04-25T16:09:04.095Z</time></trkpt><trkpt lat="41.4739405" lon="12.8215771"><ele>17.0</ele><time>2026-04-25T16:09:05.095Z</time></trkpt><trkpt lat="41.4737718" lon="12.8215937"><ele>17.0</ele><time>2026-04-25T16:09:06.096Z</time></trkpt><trkpt lat="41.4736178" lon="12.8216059"><ele>17.0</ele><time>2026-04-25T16:09:07.096Z</time></trkpt><trkpt lat="41.4734635" lon="12.8216193"><ele>17.0</ele><time>2026-04-25T16:09:08.096Z</time></trkpt><trkpt lat="41.473317" lon="12.8216336"><ele>17.0</ele><time>2026-04-25T16:09:09.096Z</time></trkpt><trkpt lat="41.4731749" lon="12.8216473"><ele>17.0</ele><time>2026-04-25T16:09:10.096Z</time></trkpt><trkpt lat="41.473032" lon="12.821657"><ele>17.0</ele><time>2026-04-25T16:09:11.096Z</time></trkpt><trkpt lat="41.4728946" lon="12.8216701"><ele>16.75</ele><time>2026-04-25T16:09:12.095Z</time></trkpt><trkpt lat="41.4727617" lon="12.8216816"><ele>16.5</ele><time>2026-04-25T16:09:13.096Z</time></trkpt><trkpt lat="41.4726339" lon="12.8216874"><ele>16.25</ele><time>2026-04-25T16:09:14.096Z</time></trkpt><trkpt lat="41.4725068" lon="12.8216929"><ele>16.0</ele><time>2026-04-25T16:09:15.095Z</time></trkpt><trkpt lat="41.4723853" lon="12.8216996"><ele>16.0</ele><time>2026-04-25T16:09:16.095Z</time></trkpt><trkpt lat="41.4722677" lon="12.8216917"><ele>16.0</ele><time>2026-04-25T16:09:17.096Z</time></trkpt><trkpt lat="41.4721561" lon="12.8216557"><ele>16.0</ele><time>2026-04-25T16:09:18.096Z</time></trkpt><trkpt lat="41.4720365" lon="12.8216225"><ele>16.0</ele><time>2026-04-25T16:09:19.096Z</time></trkpt><trkpt lat="41.4719314" lon="12.821578"><ele>16.2</ele><time>2026-04-25T16:09:20.095Z</time></trkpt><trkpt lat="41.4718299" lon="12.8215105"><ele>16.400000000000002</ele><time>2026-04-25T16:09:21.096Z</time></trkpt><trkpt lat="41.4717263" lon="12.8214515"><ele>16.6</ele><time>2026-04-25T16:09:22.096Z</time></trkpt><trkpt lat="41.4716354" lon="12.8213728"><ele>16.8</ele><time>2026-04-25T16:09:23.096Z</time></trkpt><trkpt lat="41.4715493" lon="12.8212868"><ele>17.0</ele><time>2026-04-25T16:09:24.095Z</time></trkpt><trkpt lat="41.4714685" lon="12.8212077"><ele>17.0</ele><time>2026-04-25T16:09:25.096Z</time></trkpt><trkpt lat="41.4713981" lon="12.8211227"><ele>17.0</ele><time>2026-04-25T16:09:26.095Z</time></trkpt><trkpt lat="41.4712645" lon="12.8209774"><ele>17.0</ele><time>2026-04-25T16:09:28.096Z</time></trkpt><trkpt lat="41.4711575" lon="12.8208218"><ele>17.0</ele><time>2026-04-25T16:09:30.095Z</time></trkpt><trkpt lat="41.471112" lon="12.820723"><ele>17.0</ele><time>2026-04-25T16:09:31.096Z</time></trkpt><trkpt lat="41.4710797" lon="12.8206176"><ele>17.0</ele><time>2026-04-25T16:09:32.096Z</time></trkpt><trkpt lat="41.4710436" lon="12.8205031"><ele>17.0</ele><time>2026-04-25T16:09:33.096Z</time></trkpt><trkpt lat="41.4710094" lon="12.8203857"><ele>17.0</ele><time>2026-04-25T16:09:34.096Z</time></trkpt><trkpt lat="41.4709811" lon="12.820288"><ele>17.0</ele><time>2026-04-25T16:09:35.095Z</time></trkpt><trkpt lat="41.4709334" lon="12.8201054"><ele>17.0</ele><time>2026-04-25T16:09:37.096Z</time></trkpt><trkpt lat="41.4709066" lon="12.8200225"><ele>17.0</ele><time>2026-04-25T16:09:38.096Z</time></trkpt><trkpt lat="41.4708618" lon="12.8199348"><ele>17.0</ele><time>2026-04-25T16:09:39.096Z</time></trkpt><trkpt lat="41.4708257" lon="12.819849"><ele>17.0</ele><time>2026-04-25T16:09:40.096Z</time></trkpt><trkpt lat="41.4707989" lon="12.8197483"><ele>17.0</ele><time>2026-04-25T16:09:41.096Z</time></trkpt><trkpt lat="41.4707133" lon="12.8195247"><ele>17.0</ele><time>2026-04-25T16:09:43.096Z</time></trkpt><trkpt lat="41.4706716" lon="12.8194132"><ele>17.0</ele><time>2026-04-25T16:09:44.095Z</time></trkpt><trkpt lat="41.470598" lon="12.8191841"><ele>17.0</ele><time>2026-04-25T16:09:46.096Z</time></trkpt><trkpt lat="41.4705633" lon="12.8190873"><ele>17.0</ele><time>2026-04-25T16:09:47.096Z</time></trkpt><trkpt lat="41.470537" lon="12.8190025"><ele>17.0</ele><time>2026-04-25T16:09:48.096Z</time></trkpt><trkpt lat="41.4704727" lon="12.8188931"><ele>17.5</ele><time>2026-04-25T16:09:50.096Z</time></trkpt><trkpt lat="41.4703768" lon="12.8188738"><ele>18.0</ele><time>2026-04-25T16:09:52.096Z</time></trkpt><trkpt lat="41.4703116" lon="12.818899"><ele>18.5</ele><time>2026-04-25T16:09:54.096Z</time></trkpt><trkpt lat="41.4702524" lon="12.8188396"><ele>19.0</ele><time>2026-04-25T16:09:56.096Z</time></trkpt><trkpt lat="41.4702851" lon="12.8187027"><ele>19.5</ele><time>2026-04-25T16:09:58.095Z</time></trkpt><trkpt lat="41.4703344" lon="12.8186302"><ele>20.0</ele><time>2026-04-25T16:09:59.096Z</time></trkpt><trkpt lat="41.4703972" lon="12.8185152"><ele>19.333333333333336</ele><time>2026-04-25T16:10:01.096Z</time></trkpt><trkpt lat="41.4703921" lon="12.8183769"><ele>18.666666666666668</ele><time>2026-04-25T16:10:03.096Z</time></trkpt><trkpt lat="41.470352" lon="12.81826"><ele>18.0</ele><time>2026-04-25T16:10:04.096Z</time></trkpt><trkpt lat="41.4702375" lon="12.8178864"><ele>17.333333333333332</ele><time>2026-04-25T16:10:07.096Z</time></trkpt><trkpt lat="41.4701464" lon="12.8176274"><ele>16.666666666666664</ele><time>2026-04-25T16:10:09.096Z</time></trkpt><trkpt lat="41.4700615" lon="12.8174031"><ele>16.0</ele><time>2026-04-25T16:10:11.095Z</time></trkpt><trkpt lat="41.469978" lon="12.8171734"><ele>16.0</ele><time>2026-04-25T16:10:13.096Z</time></trkpt><trkpt lat="41.4699371" lon="12.8170546"><ele>16.0</ele><time>2026-04-25T16:10:14.096Z</time></trkpt><trkpt lat="41.4698921" lon="12.8169155"><ele>16.0</ele><time>2026-04-25T16:10:15.095Z</time></trkpt><trkpt lat="41.4698523" lon="12.8167784"><ele>16.0</ele><time>2026-04-25T16:10:16.096Z</time></trkpt><trkpt lat="41.4698076" lon="12.8166341"><ele>16.0</ele><time>2026-04-25T16:10:17.096Z</time></trkpt><trkpt lat="41.469763" lon="12.8165034"><ele>16.25</ele><time>2026-04-25T16:10:18.096Z</time></trkpt><trkpt lat="41.4697168" lon="12.8163743"><ele>16.5</ele><time>2026-04-25T16:10:19.095Z</time></trkpt><trkpt lat="41.4696231" lon="12.8161316"><ele>16.75</ele><time>2026-04-25T16:10:21.096Z</time></trkpt><trkpt lat="41.4695776" lon="12.8160072"><ele>17.0</ele><time>2026-04-25T16:10:22.096Z</time></trkpt><trkpt lat="41.4695487" lon="12.8159046"><ele>17.0</ele><time>2026-04-25T16:10:23.096Z</time></trkpt><trkpt lat="41.4694951" lon="12.8157759"><ele>17.0</ele><time>2026-04-25T16:10:24.096Z</time></trkpt><trkpt lat="41.4694544" lon="12.8156645"><ele>17.0</ele><time>2026-04-25T16:10:25.096Z</time></trkpt><trkpt lat="41.4694099" lon="12.815558"><ele>17.0</ele><time>2026-04-25T16:10:26.096Z</time></trkpt><trkpt lat="41.4693671" lon="12.8154615"><ele>17.0</ele><time>2026-04-25T16:10:27.096Z</time></trkpt><trkpt lat="41.4693197" lon="12.8153578"><ele>17.0</ele><time>2026-04-25T16:10:28.095Z</time></trkpt><trkpt lat="41.4692855" lon="12.815261"><ele>17.0</ele><time>2026-04-25T16:10:29.096Z</time></trkpt><trkpt lat="41.4692481" lon="12.8151466"><ele>17.0</ele><time>2026-04-25T16:10:30.096Z</time></trkpt><trkpt lat="41.4691664" lon="12.8149173"><ele>17.0</ele><time>2026-04-25T16:10:32.095Z</time></trkpt><trkpt lat="41.4691285" lon="12.8148186"><ele>17.0</ele><time>2026-04-25T16:10:33.096Z</time></trkpt><trkpt lat="41.4690893" lon="12.8147173"><ele>16.666666666666668</ele><time>2026-04-25T16:10:34.095Z</time></trkpt><trkpt lat="41.4690519" lon="12.8146208"><ele>16.333333333333336</ele><time>2026-04-25T16:10:35.096Z</time></trkpt><trkpt lat="41.4690182" lon="12.8145351"><ele>16.0</ele><time>2026-04-25T16:10:36.096Z</time></trkpt><trkpt lat="41.4689876" lon="12.8144424"><ele>15.666666666666668</ele><time>2026-04-25T16:10:37.096Z</time></trkpt><trkpt lat="41.4689674" lon="12.8143458"><ele>15.333333333333334</ele><time>2026-04-25T16:10:38.096Z</time></trkpt><trkpt lat="41.4689353" lon="12.8142433"><ele>15.0</ele><time>2026-04-25T16:10:39.096Z</time></trkpt><trkpt lat="41.4689033" lon="12.8141406"><ele>15.0</ele><time>2026-04-25T16:10:40.096Z</time></trkpt><trkpt lat="41.4688141" lon="12.8139505"><ele>15.0</ele><time>2026-04-25T16:10:42.096Z</time></trkpt><trkpt lat="41.4687719" lon="12.813841"><ele>15.0</ele><time>2026-04-25T16:10:43.096Z</time></trkpt><trkpt lat="41.4687307" lon="12.8137349"><ele>15.0</ele><time>2026-04-25T16:10:44.096Z</time></trkpt><trkpt lat="41.4686899" lon="12.8136355"><ele>15.0</ele><time>2026-04-25T16:10:45.096Z</time></trkpt><trkpt lat="41.4686114" lon="12.8134505"><ele>15.0</ele><time>2026-04-25T16:10:47.096Z</time></trkpt><trkpt lat="41.4684659" lon="12.8132261"><ele>15.0</ele><time>2026-04-25T16:10:50.096Z</time></trkpt><trkpt lat="41.4684149" lon="12.8131587"><ele>15.0</ele><time>2026-04-25T16:10:51.096Z</time></trkpt><trkpt lat="41.4682858" lon="12.8130683"><ele>15.0</ele><time>2026-04-25T16:10:53.096Z</time></trkpt><trkpt lat="41.4682243" lon="12.8130495"><ele>15.0</ele><time>2026-04-25T16:10:55.096Z</time></trkpt><trkpt lat="41.4681615" lon="12.8131532"><ele>15.0</ele><time>2026-04-25T16:10:57.096Z</time></trkpt><trkpt lat="41.4680841" lon="12.8132895"><ele>15.0</ele><time>2026-04-25T16:11:00.096Z</time></trkpt><trkpt lat="41.4679891" lon="12.8133282"><ele>15.0</ele><time>2026-04-25T16:11:02.095Z</time></trkpt><trkpt lat="41.4678237" lon="12.8133313"><ele>15.333333333333332</ele><time>2026-04-25T16:11:04.095Z</time></trkpt><trkpt lat="41.4676326" lon="12.8133438"><ele>15.666666666666666</ele><time>2026-04-25T16:11:06.095Z</time></trkpt><trkpt lat="41.4674561" lon="12.8133632"><ele>16.0</ele><time>2026-04-25T16:11:08.096Z</time></trkpt><trkpt lat="41.4672872" lon="12.8133678"><ele>16.0</ele><time>2026-04-25T16:11:10.096Z</time></trkpt><trkpt lat="41.4672092" lon="12.8133736"><ele>16.0</ele><time>2026-04-25T16:11:11.096Z</time></trkpt><trkpt lat="41.4670645" lon="12.8133856"><ele>16.0</ele><time>2026-04-25T16:11:13.096Z</time></trkpt><trkpt lat="41.4669515" lon="12.8133762"><ele>16.0</ele><time>2026-04-25T16:11:15.096Z</time></trkpt><trkpt lat="41.4668676" lon="12.8133121"><ele>16.0</ele><time>2026-04-25T16:11:18.096Z</time></trkpt><trkpt lat="41.4667411" lon="12.8133324"><ele>16.0</ele><time>2026-04-25T16:11:20.096Z</time></trkpt><trkpt lat="41.4665865" lon="12.8133273"><ele>16.0</ele><time>2026-04-25T16:11:22.096Z</time></trkpt><trkpt lat="41.4665088" lon="12.8133175"><ele>16.0</ele><time>2026-04-25T16:11:23.095Z</time></trkpt><trkpt lat="41.4664151" lon="12.8132906"><ele>16.0</ele><time>2026-04-25T16:11:24.096Z</time></trkpt><trkpt lat="41.4663361" lon="12.8132723"><ele>16.0</ele><time>2026-04-25T16:11:25.096Z</time></trkpt><trkpt lat="41.4662579" lon="12.8132444"><ele>15.75</ele><time>2026-04-25T16:11:26.096Z</time></trkpt><trkpt lat="41.4661576" lon="12.813204"><ele>15.5</ele><time>2026-04-25T16:11:27.096Z</time></trkpt><trkpt lat="41.4660566" lon="12.8131642"><ele>15.25</ele><time>2026-04-25T16:11:28.096Z</time></trkpt><trkpt lat="41.465927" lon="12.8130986"><ele>15.0</ele><time>2026-04-25T16:11:29.096Z</time></trkpt><trkpt lat="41.4656992" lon="12.8129655"><ele>15.0</ele><time>2026-04-25T16:11:31.096Z</time></trkpt><trkpt lat="41.4655857" lon="12.8128955"><ele>15.0</ele><time>2026-04-25T16:11:32.095Z</time></trkpt><trkpt lat="41.465471" lon="12.8128188"><ele>15.0</ele><time>2026-04-25T16:11:33.096Z</time></trkpt><trkpt lat="41.4652731" lon="12.8126511"><ele>14.75</ele><time>2026-04-25T16:11:35.095Z</time></trkpt><trkpt lat="41.4651805" lon="12.8125129"><ele>14.5</ele><time>2026-04-25T16:11:36.096Z</time></trkpt><trkpt lat="41.4650903" lon="12.812396"><ele>14.25</ele><time>2026-04-25T16:11:37.096Z</time></trkpt><trkpt lat="41.4649713" lon="12.8122727"><ele>14.0</ele><time>2026-04-25T16:11:38.096Z</time></trkpt><trkpt lat="41.4647513" lon="12.8120607"><ele>14.0</ele><time>2026-04-25T16:11:40.096Z</time></trkpt><trkpt lat="41.464661" lon="12.8119811"><ele>13.999999999999998</ele><time>2026-04-25T16:11:41.096Z</time></trkpt><trkpt lat="41.4645943" lon="12.8119067"><ele>13.999999999999998</ele><time>2026-04-25T16:11:42.096Z</time></trkpt><trkpt lat="41.4644797" lon="12.811775"><ele>14.0</ele><time>2026-04-25T16:11:44.096Z</time></trkpt><trkpt lat="41.4644471" lon="12.8116981"><ele>14.0</ele><time>2026-04-25T16:11:45.096Z</time></trkpt><trkpt lat="41.4643805" lon="12.8115706"><ele>14.0</ele><time>2026-04-25T16:11:47.096Z</time></trkpt><trkpt lat="41.4642449" lon="12.8114973"><ele>13.999999999999998</ele><time>2026-04-25T16:11:49.096Z</time></trkpt><trkpt lat="41.464163" lon="12.8114812"><ele>13.999999999999998</ele><time>2026-04-25T16:11:50.096Z</time></trkpt><trkpt lat="41.4640796" lon="12.8114626"><ele>14.0</ele><time>2026-04-25T16:11:51.096Z</time></trkpt><trkpt lat="41.4639926" lon="12.811456"><ele>14.0</ele><time>2026-04-25T16:11:52.096Z</time></trkpt><trkpt lat="41.4639093" lon="12.811449"><ele>14.0</ele><time>2026-04-25T16:11:53.096Z</time></trkpt><trkpt lat="41.4638287" lon="12.8114448"><ele>13.999999999999998</ele><time>2026-04-25T16:11:54.096Z</time></trkpt><trkpt lat="41.4637497" lon="12.8114466"><ele>13.999999999999998</ele><time>2026-04-25T16:11:55.096Z</time></trkpt><trkpt lat="41.4636019" lon="12.8114473"><ele>14.0</ele><time>2026-04-25T16:11:57.096Z</time></trkpt><trkpt lat="41.4635252" lon="12.811455"><ele>14.0</ele><time>2026-04-25T16:11:58.096Z</time></trkpt><trkpt lat="41.4634108" lon="12.8114645"><ele>14.2</ele><time>2026-04-25T16:12:00.096Z</time></trkpt><trkpt lat="41.4633156" lon="12.8114789"><ele>14.399999999999999</ele><time>2026-04-25T16:12:02.096Z</time></trkpt><trkpt lat="41.4632487" lon="12.8114982"><ele>14.6</ele><time>2026-04-25T16:12:04.096Z</time></trkpt><trkpt lat="41.4631809" lon="12.8115409"><ele>14.8</ele><time>2026-04-25T16:12:07.096Z</time></trkpt><trkpt lat="41.4630855" lon="12.8114997"><ele>15.0</ele><time>2026-04-25T16:12:14.096Z</time></trkpt><trkpt lat="41.4630244" lon="12.8113323"><ele>14.666666666666668</ele><time>2026-04-25T16:12:16.096Z</time></trkpt><trkpt lat="41.4630344" lon="12.8109481"><ele>14.333333333333334</ele><time>2026-04-25T16:12:18.096Z</time></trkpt><trkpt lat="41.4630282" lon="12.8108163"><ele>14.0</ele><time>2026-04-25T16:12:19.096Z</time></trkpt><trkpt lat="41.4630254" lon="12.8107073"><ele>14.0</ele><time>2026-04-25T16:12:20.095Z</time></trkpt><trkpt lat="41.4630156" lon="12.8105932"><ele>13.999999999999998</ele><time>2026-04-25T16:12:22.096Z</time></trkpt><trkpt lat="41.4629497" lon="12.8105744"><ele>13.999999999999998</ele><time>2026-04-25T16:12:24.095Z</time></trkpt><trkpt lat="41.4628233" lon="12.8106078"><ele>14.0</ele><time>2026-04-25T16:12:26.096Z</time></trkpt><trkpt lat="41.4627215" lon="12.8106144"><ele>14.0</ele><time>2026-04-25T16:12:27.096Z</time></trkpt><trkpt lat="41.4626199" lon="12.8106345"><ele>14.399999999999999</ele><time>2026-04-25T16:12:28.096Z</time></trkpt><trkpt lat="41.4625284" lon="12.8106532"><ele>14.799999999999999</ele><time>2026-04-25T16:12:29.096Z</time></trkpt><trkpt lat="41.4624329" lon="12.8106822"><ele>15.200000000000001</ele><time>2026-04-25T16:12:30.096Z</time></trkpt><trkpt lat="41.4623321" lon="12.810722"><ele>15.600000000000001</ele><time>2026-04-25T16:12:31.096Z</time></trkpt><trkpt lat="41.4622393" lon="12.8107373"><ele>16.0</ele><time>2026-04-25T16:12:32.096Z</time></trkpt><trkpt lat="41.4621577" lon="12.8107583"><ele>16.2</ele><time>2026-04-25T16:12:33.096Z</time></trkpt><trkpt lat="41.4620701" lon="12.8107895"><ele>16.400000000000002</ele><time>2026-04-25T16:12:34.096Z</time></trkpt><trkpt lat="41.4619837" lon="12.8108239"><ele>16.6</ele><time>2026-04-25T16:12:35.095Z</time></trkpt><trkpt lat="41.4619032" lon="12.8108557"><ele>16.8</ele><time>2026-04-25T16:12:36.096Z</time></trkpt><trkpt lat="41.4617466" lon="12.8109252"><ele>17.0</ele><time>2026-04-25T16:12:38.095Z</time></trkpt><trkpt lat="41.4616698" lon="12.810954"><ele>17.0</ele><time>2026-04-25T16:12:39.096Z</time></trkpt><trkpt lat="41.4615958" lon="12.8109833"><ele>17.0</ele><time>2026-04-25T16:12:40.096Z</time></trkpt><trkpt lat="41.4615149" lon="12.8110142"><ele>17.0</ele><time>2026-04-25T16:12:41.096Z</time></trkpt><trkpt lat="41.4613538" lon="12.8110796"><ele>17.0</ele><time>2026-04-25T16:12:43.096Z</time></trkpt><trkpt lat="41.4612244" lon="12.8111618"><ele>16.333333333333336</ele><time>2026-04-25T16:12:45.096Z</time></trkpt><trkpt lat="41.4611473" lon="12.811214"><ele>15.666666666666668</ele><time>2026-04-25T16:12:46.096Z</time></trkpt><trkpt lat="41.4610752" lon="12.81126"><ele>15.0</ele><time>2026-04-25T16:12:47.096Z</time></trkpt><trkpt lat="41.4610051" lon="12.8113034"><ele>14.333333333333332</ele><time>2026-04-25T16:12:48.096Z</time></trkpt><trkpt lat="41.4609395" lon="12.8113436"><ele>13.666666666666666</ele><time>2026-04-25T16:12:49.095Z</time></trkpt><trkpt lat="41.4608776" lon="12.8113812"><ele>13.0</ele><time>2026-04-25T16:12:50.096Z</time></trkpt><trkpt lat="41.4607747" lon="12.8114406"><ele>13.0</ele><time>2026-04-25T16:12:52.096Z</time></trkpt><trkpt lat="41.4606941" lon="12.8114628"><ele>13.0</ele><time>2026-04-25T16:12:54.095Z</time></trkpt><trkpt lat="41.4606298" lon="12.8114479"><ele>13.0</ele><time>2026-04-25T16:12:56.096Z</time></trkpt><trkpt lat="41.4605307" lon="12.8115014"><ele>13.0</ele><time>2026-04-25T16:12:58.095Z</time></trkpt><trkpt lat="41.460414" lon="12.811605"><ele>13.0</ele><time>2026-04-25T16:13:00.096Z</time></trkpt><trkpt lat="41.4602876" lon="12.8117034"><ele>12.8</ele><time>2026-04-25T16:13:02.096Z</time></trkpt><trkpt lat="41.4601557" lon="12.8117925"><ele>12.600000000000001</ele><time>2026-04-25T16:13:04.096Z</time></trkpt><trkpt lat="41.4600895" lon="12.8118452"><ele>12.399999999999999</ele><time>2026-04-25T16:13:05.096Z</time></trkpt><trkpt lat="41.4600404" lon="12.8119048"><ele>12.2</ele><time>2026-04-25T16:13:06.096Z</time></trkpt><trkpt lat="41.4599852" lon="12.8119807"><ele>12.0</ele><time>2026-04-25T16:13:07.095Z</time></trkpt><trkpt lat="41.459915" lon="12.812045"><ele>12.0</ele><time>2026-04-25T16:13:08.096Z</time></trkpt><trkpt lat="41.4598355" lon="12.8121061"><ele>12.0</ele><time>2026-04-25T16:13:09.096Z</time></trkpt><trkpt lat="41.4597446" lon="12.8121728"><ele>12.0</ele><time>2026-04-25T16:13:10.096Z</time></trkpt><trkpt lat="41.4595245" lon="12.8123438"><ele>11.666666666666666</ele><time>2026-04-25T16:13:12.096Z</time></trkpt><trkpt lat="41.4594121" lon="12.8124303"><ele>11.333333333333332</ele><time>2026-04-25T16:13:13.096Z</time></trkpt><trkpt lat="41.4591762" lon="12.8126164"><ele>11.0</ele><time>2026-04-25T16:13:15.096Z</time></trkpt><trkpt lat="41.459056" lon="12.8127406"><ele>11.0</ele><time>2026-04-25T16:13:16.096Z</time></trkpt><trkpt lat="41.4589228" lon="12.8128386"><ele>11.0</ele><time>2026-04-25T16:13:17.095Z</time></trkpt><trkpt lat="41.4587958" lon="12.8129404"><ele>11.0</ele><time>2026-04-25T16:13:18.096Z</time></trkpt><trkpt lat="41.4586775" lon="12.8130425"><ele>11.0</ele><time>2026-04-25T16:13:19.096Z</time></trkpt><trkpt lat="41.4584563" lon="12.8132177"><ele>12.0</ele><time>2026-04-25T16:13:21.096Z</time></trkpt><trkpt lat="41.4582408" lon="12.8133873"><ele>13.0</ele><time>2026-04-25T16:13:23.096Z</time></trkpt><trkpt lat="41.4581288" lon="12.8134671"><ele>14.0</ele><time>2026-04-25T16:13:24.096Z</time></trkpt><trkpt lat="41.4579339" lon="12.8136371"><ele>14.0</ele><time>2026-04-25T16:13:26.096Z</time></trkpt><trkpt lat="41.4578419" lon="12.8137188"><ele>13.999999999999998</ele><time>2026-04-25T16:13:27.096Z</time></trkpt><trkpt lat="41.457757" lon="12.8137908"><ele>13.999999999999998</ele><time>2026-04-25T16:13:28.096Z</time></trkpt><trkpt lat="41.4576668" lon="12.8138616"><ele>14.0</ele><time>2026-04-25T16:13:29.095Z</time></trkpt><trkpt lat="41.4575829" lon="12.8139328"><ele>14.0</ele><time>2026-04-25T16:13:30.096Z</time></trkpt><trkpt lat="41.4574124" lon="12.8140807"><ele>14.0</ele><time>2026-04-25T16:13:32.096Z</time></trkpt><trkpt lat="41.4572624" lon="12.8141797"><ele>13.999999999999998</ele><time>2026-04-25T16:13:34.095Z</time></trkpt><trkpt lat="41.4571982" lon="12.8142236"><ele>13.999999999999998</ele><time>2026-04-25T16:13:35.096Z</time></trkpt><trkpt lat="41.4571285" lon="12.8142657"><ele>14.0</ele><time>2026-04-25T16:13:36.096Z</time></trkpt><trkpt lat="41.457016" lon="12.8143334"><ele>14.0</ele><time>2026-04-25T16:13:38.096Z</time></trkpt><trkpt lat="41.4568889" lon="12.8144094"><ele>13.500000000000002</ele><time>2026-04-25T16:13:41.095Z</time></trkpt><trkpt lat="41.4568356" lon="12.8144585"><ele>13.0</ele><time>2026-04-25T16:13:44.096Z</time></trkpt><trkpt lat="41.4567698" lon="12.8145361"><ele>12.5</ele><time>2026-04-25T16:13:48.096Z</time></trkpt><trkpt lat="41.4567833" lon="12.8146415"><ele>12.0</ele><time>2026-04-25T16:13:49.096Z</time></trkpt><trkpt lat="41.4567485" lon="12.8147645"><ele>11.5</ele><time>2026-04-25T16:13:51.096Z</time></trkpt><trkpt lat="41.4566688" lon="12.8148303"><ele>11.0</ele><time>2026-04-25T16:13:53.096Z</time></trkpt><trkpt lat="41.4564721" lon="12.8149363"><ele>11.0</ele><time>2026-04-25T16:13:57.096Z</time></trkpt><trkpt lat="41.4563639" lon="12.8150412"><ele>11.0</ele><time>2026-04-25T16:13:59.096Z</time></trkpt><trkpt lat="41.4562593" lon="12.8151225"><ele>11.0</ele><time>2026-04-25T16:14:01.096Z</time></trkpt><trkpt lat="41.4561866" lon="12.815145"><ele>11.0</ele><time>2026-04-25T16:14:02.095Z</time></trkpt><trkpt lat="41.4561124" lon="12.8151862"><ele>11.0</ele><time>2026-04-25T16:14:03.096Z</time></trkpt><trkpt lat="41.455975" lon="12.8152362"><ele>10.666666666666666</ele><time>2026-04-25T16:14:05.096Z</time></trkpt><trkpt lat="41.455894" lon="12.8152292"><ele>10.333333333333332</ele><time>2026-04-25T16:14:06.096Z</time></trkpt><trkpt lat="41.4558191" lon="12.8152325"><ele>10.0</ele><time>2026-04-25T16:14:07.096Z</time></trkpt><trkpt lat="41.4556835" lon="12.8152407"><ele>9.666666666666666</ele><time>2026-04-25T16:14:09.096Z</time></trkpt><trkpt lat="41.4556128" lon="12.8152547"><ele>9.333333333333334</ele><time>2026-04-25T16:14:10.095Z</time></trkpt><trkpt lat="41.4555459" lon="12.8152658"><ele>9.0</ele><time>2026-04-25T16:14:11.096Z</time></trkpt><trkpt lat="41.4554725" lon="12.8152712"><ele>8.8</ele><time>2026-04-25T16:14:12.096Z</time></trkpt><trkpt lat="41.4554034" lon="12.8152759"><ele>8.600000000000001</ele><time>2026-04-25T16:14:13.096Z</time></trkpt><trkpt lat="41.4552747" lon="12.8152702"><ele>8.4</ele><time>2026-04-25T16:14:15.095Z</time></trkpt><trkpt lat="41.4552102" lon="12.8152526"><ele>8.200000000000001</ele><time>2026-04-25T16:14:16.096Z</time></trkpt><trkpt lat="41.4550861" lon="12.8152403"><ele>8.0</ele><time>2026-04-25T16:14:18.095Z</time></trkpt><trkpt lat="41.4550212" lon="12.8152394"><ele>8.0</ele><time>2026-04-25T16:14:19.096Z</time></trkpt><trkpt lat="41.4548985" lon="12.8152292"><ele>8.0</ele><time>2026-04-25T16:14:21.096Z</time></trkpt><trkpt lat="41.4548307" lon="12.8152016"><ele>8.0</ele><time>2026-04-25T16:14:22.096Z</time></trkpt><trkpt lat="41.4547375" lon="12.8151475"><ele>8.0</ele><time>2026-04-25T16:14:24.096Z</time></trkpt><trkpt lat="41.4546356" lon="12.8151273"><ele>8.0</ele><time>2026-04-25T16:14:26.096Z</time></trkpt><trkpt lat="41.4545658" lon="12.8150918"><ele>8.600000000000001</ele><time>2026-04-25T16:14:28.096Z</time></trkpt><trkpt lat="41.4544999" lon="12.8150405"><ele>9.200000000000001</ele><time>2026-04-25T16:14:29.096Z</time></trkpt><trkpt lat="41.4544043" lon="12.8149707"><ele>9.8</ele><time>2026-04-25T16:14:31.096Z</time></trkpt><trkpt lat="41.4543424" lon="12.814929"><ele>10.4</ele><time>2026-04-25T16:14:32.096Z</time></trkpt><trkpt lat="41.4542462" lon="12.8148479"><ele>11.0</ele><time>2026-04-25T16:14:34.096Z</time></trkpt><trkpt lat="41.4541543" lon="12.8147793"><ele>11.0</ele><time>2026-04-25T16:14:36.095Z</time></trkpt><trkpt lat="41.4541054" lon="12.8147049"><ele>11.0</ele><time>2026-04-25T16:14:38.096Z</time></trkpt><trkpt lat="41.4541144" lon="12.8145997"><ele>11.0</ele><time>2026-04-25T16:14:41.096Z</time></trkpt><trkpt lat="41.454093" lon="12.8145129"><ele>11.0</ele><time>2026-04-25T16:14:43.096Z</time></trkpt><trkpt lat="41.454043" lon="12.8144356"><ele>11.0</ele><time>2026-04-25T16:14:45.096Z</time></trkpt><trkpt lat="41.4539603" lon="12.8143592"><ele>11.0</ele><time>2026-04-25T16:14:47.096Z</time></trkpt><trkpt lat="41.453896" lon="12.8143234"><ele>11.4</ele><time>2026-04-25T16:14:48.095Z</time></trkpt><trkpt lat="41.45383" lon="12.8142849"><ele>11.8</ele><time>2026-04-25T16:14:49.096Z</time></trkpt><trkpt lat="41.4537203" lon="12.8142302"><ele>12.200000000000001</ele><time>2026-04-25T16:14:51.096Z</time></trkpt><trkpt lat="41.4536289" lon="12.8141578"><ele>12.600000000000001</ele><time>2026-04-25T16:14:53.096Z</time></trkpt><trkpt lat="41.4535322" lon="12.8140642"><ele>13.0</ele><time>2026-04-25T16:14:55.096Z</time></trkpt><trkpt lat="41.4534659" lon="12.8140106"><ele>12.200000000000001</ele><time>2026-04-25T16:14:56.096Z</time></trkpt><trkpt lat="41.453386" lon="12.8139447"><ele>11.4</ele><time>2026-04-25T16:14:57.095Z</time></trkpt><trkpt lat="41.453259" lon="12.8138152"><ele>10.600000000000001</ele><time>2026-04-25T16:14:59.096Z</time></trkpt><trkpt lat="41.4531944" lon="12.8137399"><ele>9.8</ele><time>2026-04-25T16:15:00.096Z</time></trkpt><trkpt lat="41.4531227" lon="12.8136702"><ele>9.0</ele><time>2026-04-25T16:15:01.096Z</time></trkpt><trkpt lat="41.4530572" lon="12.8136101"><ele>9.0</ele><time>2026-04-25T16:15:02.096Z</time></trkpt><trkpt lat="41.4530022" lon="12.8135449"><ele>9.0</ele><time>2026-04-25T16:15:03.096Z</time></trkpt><trkpt lat="41.4529377" lon="12.8134887"><ele>9.0</ele><time>2026-04-25T16:15:04.096Z</time></trkpt><trkpt lat="41.4528764" lon="12.8134149"><ele>9.0</ele><time>2026-04-25T16:15:05.096Z</time></trkpt><trkpt lat="41.4528143" lon="12.813348"><ele>9.0</ele><time>2026-04-25T16:15:06.096Z</time></trkpt><trkpt lat="41.4527172" lon="12.8132453"><ele>9.0</ele><time>2026-04-25T16:15:08.096Z</time></trkpt><trkpt lat="41.4526326" lon="12.8131448"><ele>8.75</ele><time>2026-04-25T16:15:10.095Z</time></trkpt><trkpt lat="41.4525988" lon="12.8130127"><ele>8.5</ele><time>2026-04-25T16:15:12.096Z</time></trkpt><trkpt lat="41.4526082" lon="12.8129253"><ele>8.25</ele><time>2026-04-25T16:15:13.096Z</time></trkpt><trkpt lat="41.4526297" lon="12.8127267"><ele>8.0</ele><time>2026-04-25T16:15:15.096Z</time></trkpt><trkpt lat="41.4526508" lon="12.8125095"><ele>8.0</ele><time>2026-04-25T16:15:17.096Z</time></trkpt><trkpt lat="41.4526637" lon="12.8123972"><ele>8.0</ele><time>2026-04-25T16:15:18.096Z</time></trkpt><trkpt lat="41.4526927" lon="12.8121703"><ele>8.0</ele><time>2026-04-25T16:15:20.096Z</time></trkpt><trkpt lat="41.4527174" lon="12.8119493"><ele>8.0</ele><time>2026-04-25T16:15:22.096Z</time></trkpt><trkpt lat="41.4527303" lon="12.8118451"><ele>8.4</ele><time>2026-04-25T16:15:23.096Z</time></trkpt><trkpt lat="41.4527459" lon="12.8117412"><ele>8.8</ele><time>2026-04-25T16:15:24.096Z</time></trkpt><trkpt lat="41.4527867" lon="12.8115608"><ele>9.2</ele><time>2026-04-25T16:15:26.096Z</time></trkpt><trkpt lat="41.4527922" lon="12.8114604"><ele>9.6</ele><time>2026-04-25T16:15:27.095Z</time></trkpt><trkpt lat="41.4528139" lon="12.8112974"><ele>10.0</ele><time>2026-04-25T16:15:29.096Z</time></trkpt><trkpt lat="41.4528196" lon="12.8111782"><ele>10.0</ele><time>2026-04-25T16:15:32.096Z</time></trkpt><trkpt lat="41.4527353" lon="12.811105"><ele>10.0</ele><time>2026-04-25T16:15:36.096Z</time></trkpt><trkpt lat="41.4526546" lon="12.8111086"><ele>10.0</ele><time>2026-04-25T16:15:37.096Z</time></trkpt><trkpt lat="41.4525459" lon="12.8110765"><ele>10.0</ele><time>2026-04-25T16:15:39.096Z</time></trkpt><trkpt lat="41.4524236" lon="12.8110451"><ele>10.0</ele><time>2026-04-25T16:15:41.096Z</time></trkpt><trkpt lat="41.4523012" lon="12.811025"><ele>10.0</ele><time>2026-04-25T16:15:43.096Z</time></trkpt><trkpt lat="41.452184" lon="12.810998"><ele>10.0</ele><time>2026-04-25T16:15:45.095Z</time></trkpt><trkpt lat="41.452065" lon="12.8109876"><ele>10.0</ele><time>2026-04-25T16:15:47.096Z</time></trkpt><trkpt lat="41.4519398" lon="12.8109684"><ele>10.0</ele><time>2026-04-25T16:15:49.095Z</time></trkpt><trkpt lat="41.4518255" lon="12.8109454"><ele>10.166666666666668</ele><time>2026-04-25T16:15:51.095Z</time></trkpt><trkpt lat="41.4517605" lon="12.8109325"><ele>10.333333333333334</ele><time>2026-04-25T16:15:52.096Z</time></trkpt><trkpt lat="41.4516881" lon="12.8109148"><ele>10.5</ele><time>2026-04-25T16:15:53.096Z</time></trkpt><trkpt lat="41.4515605" lon="12.8108882"><ele>10.666666666666666</ele><time>2026-04-25T16:15:55.096Z</time></trkpt><trkpt lat="41.4514965" lon="12.8108715"><ele>10.833333333333332</ele><time>2026-04-25T16:15:56.096Z</time></trkpt><trkpt lat="41.4514298" lon="12.81085"><ele>11.0</ele><time>2026-04-25T16:15:57.096Z</time></trkpt><trkpt lat="41.4513188" lon="12.810833"><ele>10.5</ele><time>2026-04-25T16:15:59.096Z</time></trkpt><trkpt lat="41.4512055" lon="12.8107974"><ele>10.0</ele><time>2026-04-25T16:16:01.096Z</time></trkpt><trkpt lat="41.4510633" lon="12.8107692"><ele>9.5</ele><time>2026-04-25T16:16:04.096Z</time></trkpt><trkpt lat="41.4509522" lon="12.8107364"><ele>9.0</ele><time>2026-04-25T16:16:06.096Z</time></trkpt><trkpt lat="41.4508487" lon="12.8107095"><ele>9.0</ele><time>2026-04-25T16:16:08.096Z</time></trkpt><trkpt lat="41.4507507" lon="12.8106432"><ele>9.0</ele><time>2026-04-25T16:16:10.096Z</time></trkpt><trkpt lat="41.4507061" lon="12.8105656"><ele>9.0</ele><time>2026-04-25T16:16:12.095Z</time></trkpt><trkpt lat="41.4506252" lon="12.8104934"><ele>9.0</ele><time>2026-04-25T16:16:15.096Z</time></trkpt><trkpt lat="41.4505237" lon="12.8105059"><ele>9.0</ele><time>2026-04-25T16:16:17.096Z</time></trkpt><trkpt lat="41.4504002" lon="12.810471"><ele>9.0</ele><time>2026-04-25T16:16:19.095Z</time></trkpt><trkpt lat="41.4502745" lon="12.8104144"><ele>9.0</ele><time>2026-04-25T16:16:21.096Z</time></trkpt><trkpt lat="41.4502168" lon="12.8103781"><ele>9.0</ele><time>2026-04-25T16:16:22.096Z</time></trkpt><trkpt lat="41.4500613" lon="12.8102515"><ele>9.0</ele><time>2026-04-25T16:16:25.096Z</time></trkpt><trkpt lat="41.4499655" lon="12.8101583"><ele>9.2</ele><time>2026-04-25T16:16:27.096Z</time></trkpt><trkpt lat="41.4498694" lon="12.8100763"><ele>9.4</ele><time>2026-04-25T16:16:29.095Z</time></trkpt><trkpt lat="41.4497936" lon="12.8100103"><ele>9.6</ele><time>2026-04-25T16:16:31.096Z</time></trkpt><trkpt lat="41.4497311" lon="12.8099756"><ele>9.8</ele><time>2026-04-25T16:16:33.096Z</time></trkpt><trkpt lat="41.4496658" lon="12.8099704"><ele>10.0</ele><time>2026-04-25T16:16:36.096Z</time></trkpt><trkpt lat="41.4495434" lon="12.8099344"><ele>9.5</ele><time>2026-04-25T16:16:39.095Z</time></trkpt><trkpt lat="41.4494765" lon="12.8099088"><ele>9.0</ele><time>2026-04-25T16:16:40.096Z</time></trkpt><trkpt lat="41.4494067" lon="12.8098717"><ele>8.5</ele><time>2026-04-25T16:16:41.095Z</time></trkpt><trkpt lat="41.4493364" lon="12.8098278"><ele>8.0</ele><time>2026-04-25T16:16:42.096Z</time></trkpt><trkpt lat="41.4492643" lon="12.8097876"><ele>7.500000000000001</ele><time>2026-04-25T16:16:43.096Z</time></trkpt><trkpt lat="41.4491962" lon="12.8097508"><ele>7.0</ele><time>2026-04-25T16:16:44.096Z</time></trkpt><trkpt lat="41.4490544" lon="12.8096711"><ele>7.0</ele><time>2026-04-25T16:16:46.095Z</time></trkpt><trkpt lat="41.4489387" lon="12.8095913"><ele>6.999999999999999</ele><time>2026-04-25T16:16:48.096Z</time></trkpt><trkpt lat="41.4488787" lon="12.8095568"><ele>6.999999999999999</ele><time>2026-04-25T16:16:49.095Z</time></trkpt><trkpt lat="41.4488227" lon="12.8095178"><ele>7.0</ele><time>2026-04-25T16:16:50.096Z</time></trkpt><trkpt lat="41.4487156" lon="12.8094584"><ele>7.0</ele><time>2026-04-25T16:16:52.095Z</time></trkpt><trkpt lat="41.4486095" lon="12.8094005"><ele>7.0</ele><time>2026-04-25T16:16:54.096Z</time></trkpt><trkpt lat="41.4485098" lon="12.8093502"><ele>6.999999999999999</ele><time>2026-04-25T16:16:56.096Z</time></trkpt><trkpt lat="41.4484461" lon="12.8093113"><ele>6.999999999999999</ele><time>2026-04-25T16:16:57.096Z</time></trkpt><trkpt lat="41.448374" lon="12.8092685"><ele>7.0</ele><time>2026-04-25T16:16:58.095Z</time></trkpt><trkpt lat="41.4482687" lon="12.8092154"><ele>7.0</ele><time>2026-04-25T16:17:00.095Z</time></trkpt><trkpt lat="41.4481101" lon="12.8091082"><ele>7.000000000000001</ele><time>2026-04-25T16:17:03.096Z</time></trkpt><trkpt lat="41.4480259" lon="12.8090458"><ele>7.0</ele><time>2026-04-25T16:17:05.096Z</time></trkpt><trkpt lat="41.447966" lon="12.8090027"><ele>7.0</ele><time>2026-04-25T16:17:06.095Z</time></trkpt><trkpt lat="41.4479113" lon="12.8089582"><ele>7.0</ele><time>2026-04-25T16:17:08.095Z</time></trkpt><trkpt lat="41.4478534" lon="12.808917"><ele>7.000000000000001</ele><time>2026-04-25T16:17:11.096Z</time></trkpt><trkpt lat="41.4477928" lon="12.8088872"><ele>7.0</ele><time>2026-04-25T16:17:13.096Z</time></trkpt><trkpt lat="41.4477463" lon="12.8087809"><ele>7.000000000000001</ele><time>2026-04-25T16:17:16.096Z</time></trkpt><trkpt lat="41.4477843" lon="12.8086629"><ele>7.0</ele><time>2026-04-25T16:17:18.096Z</time></trkpt><trkpt lat="41.447834" lon="12.8085671"><ele>7.0</ele><time>2026-04-25T16:17:20.096Z</time></trkpt><trkpt lat="41.4477892" lon="12.8084633"><ele>7.0</ele><time>2026-04-25T16:17:24.096Z</time></trkpt><trkpt lat="41.4477258" lon="12.8084292"><ele>7.000000000000001</ele><time>2026-04-25T16:17:25.096Z</time></trkpt><trkpt lat="41.4476444" lon="12.8084027"><ele>7.0</ele><time>2026-04-25T16:17:26.096Z</time></trkpt><trkpt lat="41.4475579" lon="12.8083628"><ele>7.0</ele><time>2026-04-25T16:17:27.095Z</time></trkpt><trkpt lat="41.4474796" lon="12.8083297"><ele>6.999999999999999</ele><time>2026-04-25T16:17:28.096Z</time></trkpt><trkpt lat="41.4473941" lon="12.8082915"><ele>6.999999999999999</ele><time>2026-04-25T16:17:29.096Z</time></trkpt><trkpt lat="41.4472523" lon="12.8082123"><ele>7.0</ele><time>2026-04-25T16:17:31.096Z</time></trkpt><trkpt lat="41.4471904" lon="12.808182"><ele>7.0</ele><time>2026-04-25T16:17:32.095Z</time></trkpt><trkpt lat="41.4470936" lon="12.8081132"><ele>7.0</ele><time>2026-04-25T16:17:34.096Z</time></trkpt><trkpt lat="41.4470086" lon="12.8080449"><ele>6.999999999999999</ele><time>2026-04-25T16:17:36.095Z</time></trkpt><trkpt lat="41.4469562" lon="12.807977"><ele>6.999999999999999</ele><time>2026-04-25T16:17:38.096Z</time></trkpt><trkpt lat="41.4468757" lon="12.8079701"><ele>7.0</ele><time>2026-04-25T16:17:41.096Z</time></trkpt><trkpt lat="41.446804" lon="12.8079724"><ele>7.0</ele><time>2026-04-25T16:17:43.095Z</time></trkpt><trkpt lat="41.4466685" lon="12.8079223"><ele>7.0</ele><time>2026-04-25T16:17:45.096Z</time></trkpt><trkpt lat="41.4465888" lon="12.8078541"><ele>7.0</ele><time>2026-04-25T16:17:46.095Z</time></trkpt><trkpt lat="41.4464878" lon="12.8077988"><ele>7.0</ele><time>2026-04-25T16:17:47.096Z</time></trkpt><trkpt lat="41.4462593" lon="12.807649"><ele>6.75</ele><time>2026-04-25T16:17:49.096Z</time></trkpt><trkpt lat="41.4461408" lon="12.8075752"><ele>6.5</ele><time>2026-04-25T16:17:50.096Z</time></trkpt><trkpt lat="41.446018" lon="12.8075095"><ele>6.25</ele><time>2026-04-25T16:17:51.095Z</time></trkpt><trkpt lat="41.4458866" lon="12.8074446"><ele>6.0</ele><time>2026-04-25T16:17:52.096Z</time></trkpt><trkpt lat="41.4457794" lon="12.8073705"><ele>6.0</ele><time>2026-04-25T16:17:53.096Z</time></trkpt><trkpt lat="41.4456828" lon="12.807305"><ele>6.0</ele><time>2026-04-25T16:17:54.096Z</time></trkpt><trkpt lat="41.445585" lon="12.8072527"><ele>6.0</ele><time>2026-04-25T16:17:55.096Z</time></trkpt><trkpt lat="41.4454929" lon="12.8071928"><ele>6.0</ele><time>2026-04-25T16:17:56.095Z</time></trkpt><trkpt lat="41.4452234" lon="12.807017"><ele>6.0</ele><time>2026-04-25T16:17:59.096Z</time></trkpt><trkpt lat="41.4450564" lon="12.8068997"><ele>6.0</ele><time>2026-04-25T16:18:01.095Z</time></trkpt><trkpt lat="41.4449712" lon="12.8068495"><ele>6.0</ele><time>2026-04-25T16:18:02.096Z</time></trkpt><trkpt lat="41.4448884" lon="12.806805"><ele>6.0</ele><time>2026-04-25T16:18:03.096Z</time></trkpt><trkpt lat="41.4448153" lon="12.8067559"><ele>6.666666666666666</ele><time>2026-04-25T16:18:04.096Z</time></trkpt><trkpt lat="41.44472" lon="12.8066699"><ele>7.333333333333333</ele><time>2026-04-25T16:18:06.096Z</time></trkpt><trkpt lat="41.4445817" lon="12.8066078"><ele>8.0</ele><time>2026-04-25T16:18:08.095Z</time></trkpt><trkpt lat="41.444407" lon="12.8064946"><ele>7.2</ele><time>2026-04-25T16:18:10.096Z</time></trkpt><trkpt lat="41.4442421" lon="12.8063913"><ele>6.4</ele><time>2026-04-25T16:18:12.096Z</time></trkpt><trkpt lat="41.4441663" lon="12.8063411"><ele>5.6000000000000005</ele><time>2026-04-25T16:18:13.096Z</time></trkpt><trkpt lat="41.4440934" lon="12.8063015"><ele>4.800000000000001</ele><time>2026-04-25T16:18:14.096Z</time></trkpt><trkpt lat="41.4440376" lon="12.8062626"><ele>4.0</ele><time>2026-04-25T16:18:15.096Z</time></trkpt><trkpt lat="41.4439374" lon="12.8061247"><ele>4.0</ele><time>2026-04-25T16:18:18.095Z</time></trkpt><trkpt lat="41.443865" lon="12.8060719"><ele>4.0</ele><time>2026-04-25T16:18:20.096Z</time></trkpt><trkpt lat="41.4437632" lon="12.8060624"><ele>4.0</ele><time>2026-04-25T16:18:22.096Z</time></trkpt><trkpt lat="41.4436369" lon="12.8059912"><ele>4.0</ele><time>2026-04-25T16:18:24.096Z</time></trkpt><trkpt lat="41.4435635" lon="12.8059473"><ele>4.0</ele><time>2026-04-25T16:18:25.096Z</time></trkpt><trkpt lat="41.4434942" lon="12.805908"><ele>4.0</ele><time>2026-04-25T16:18:26.095Z</time></trkpt><trkpt lat="41.4434168" lon="12.8058626"><ele>4.0</ele><time>2026-04-25T16:18:27.096Z</time></trkpt><trkpt lat="41.4433335" lon="12.8058146"><ele>4.0</ele><time>2026-04-25T16:18:28.096Z</time></trkpt><trkpt lat="41.4432608" lon="12.8057649"><ele>4.0</ele><time>2026-04-25T16:18:29.096Z</time></trkpt><trkpt lat="41.4431157" lon="12.8056614"><ele>4.0</ele><time>2026-04-25T16:18:31.096Z</time></trkpt><trkpt lat="41.4430495" lon="12.8056234"><ele>4.0</ele><time>2026-04-25T16:18:32.096Z</time></trkpt><trkpt lat="41.4429351" lon="12.8055471"><ele>4.0</ele><time>2026-04-25T16:18:34.096Z</time></trkpt><trkpt lat="41.4428414" lon="12.8055293"><ele>4.0</ele><time>2026-04-25T16:18:36.095Z</time></trkpt><trkpt lat="41.4427203" lon="12.8056065"><ele>4.0</ele><time>2026-04-25T16:18:39.096Z</time></trkpt><trkpt lat="41.4426435" lon="12.8055876"><ele>4.0</ele><time>2026-04-25T16:18:41.095Z</time></trkpt><trkpt lat="41.4425519" lon="12.8055345"><ele>3.9999999999999996</ele><time>2026-04-25T16:18:44.096Z</time></trkpt><trkpt lat="41.4424896" lon="12.8055093"><ele>4.0</ele><time>2026-04-25T16:18:46.096Z</time></trkpt><trkpt lat="41.4424157" lon="12.8054534"><ele>4.0</ele><time>2026-04-25T16:18:48.096Z</time></trkpt><trkpt lat="41.4423427" lon="12.805362"><ele>4.0</ele><time>2026-04-25T16:18:50.096Z</time></trkpt><trkpt lat="41.4422848" lon="12.805295"><ele>3.9999999999999996</ele><time>2026-04-25T16:18:51.096Z</time></trkpt><trkpt lat="41.4422167" lon="12.8052607"><ele>4.0</ele><time>2026-04-25T16:18:52.096Z</time></trkpt><trkpt lat="41.442139" lon="12.8052298"><ele>4.0</ele><time>2026-04-25T16:18:53.096Z</time></trkpt><trkpt lat="41.4420577" lon="12.8052032"><ele>4.0</ele><time>2026-04-25T16:18:54.096Z</time></trkpt><trkpt lat="41.4419715" lon="12.8051792"><ele>4.0</ele><time>2026-04-25T16:18:55.096Z</time></trkpt><trkpt lat="41.441874" lon="12.8051648"><ele>4.0</ele><time>2026-04-25T16:18:56.096Z</time></trkpt><trkpt lat="41.4416833" lon="12.8051347"><ele>4.0</ele><time>2026-04-25T16:18:58.096Z</time></trkpt><trkpt lat="41.4415042" lon="12.8051214"><ele>4.0</ele><time>2026-04-25T16:19:00.096Z</time></trkpt><trkpt lat="41.4414337" lon="12.8051291"><ele>4.0</ele><time>2026-04-25T16:19:01.096Z</time></trkpt><trkpt lat="41.4412655" lon="12.8051308"><ele>4.0</ele><time>2026-04-25T16:19:03.096Z</time></trkpt><trkpt lat="41.4411023" lon="12.8051497"><ele>4.25</ele><time>2026-04-25T16:19:05.096Z</time></trkpt><trkpt lat="41.440946" lon="12.8051656"><ele>4.5</ele><time>2026-04-25T16:19:07.096Z</time></trkpt><trkpt lat="41.440835" lon="12.8051746"><ele>4.75</ele><time>2026-04-25T16:19:09.095Z</time></trkpt><trkpt lat="41.440756" lon="12.8051402"><ele>5.0</ele><time>2026-04-25T16:19:11.096Z</time></trkpt><trkpt lat="41.4406911" lon="12.8049404"><ele>5.2</ele><time>2026-04-25T16:19:14.096Z</time></trkpt><trkpt lat="41.4406623" lon="12.8048478"><ele>5.4</ele><time>2026-04-25T16:19:15.096Z</time></trkpt><trkpt lat="41.4406336" lon="12.8047415"><ele>5.6</ele><time>2026-04-25T16:19:16.096Z</time></trkpt><trkpt lat="41.440611" lon="12.8046317"><ele>5.8</ele><time>2026-04-25T16:19:17.095Z</time></trkpt><trkpt lat="41.4405497" lon="12.8044062"><ele>6.0</ele><time>2026-04-25T16:19:19.096Z</time></trkpt><trkpt lat="41.4405239" lon="12.8043015"><ele>6.0</ele><time>2026-04-25T16:19:20.095Z</time></trkpt><trkpt lat="41.4405022" lon="12.804209"><ele>6.0</ele><time>2026-04-25T16:19:21.096Z</time></trkpt><trkpt lat="41.4404776" lon="12.8041212"><ele>6.0</ele><time>2026-04-25T16:19:22.096Z</time></trkpt><trkpt lat="41.440443" lon="12.803968"><ele>6.0</ele><time>2026-04-25T16:19:24.096Z</time></trkpt><trkpt lat="41.4403996" lon="12.8038951"><ele>6.0</ele><time>2026-04-25T16:19:27.092Z</time></trkpt><trkpt lat="41.4403093" lon="12.8039307"><ele>6.0</ele><time>2026-04-25T16:19:29.093Z</time></trkpt><trkpt lat="41.4402386" lon="12.803973"><ele>6.0</ele><time>2026-04-25T16:19:30.108Z</time></trkpt><trkpt lat="41.4401482" lon="12.8040025"><ele>6.0</ele><time>2026-04-25T16:19:32.107Z</time></trkpt><trkpt lat="41.4400726" lon="12.8039983"><ele>6.0</ele><time>2026-04-25T16:19:33.108Z</time></trkpt><trkpt lat="41.439999" lon="12.803961"><ele>6.0</ele><time>2026-04-25T16:19:34.108Z</time></trkpt><trkpt lat="41.4399314" lon="12.8039416"><ele>6.0</ele><time>2026-04-25T16:19:35.108Z</time></trkpt><trkpt lat="41.4397382" lon="12.8039179"><ele>6.0</ele><time>2026-04-25T16:19:38.107Z</time></trkpt><trkpt lat="41.439645" lon="12.8039459"><ele>6.0</ele><time>2026-04-25T16:19:39.108Z</time></trkpt><trkpt lat="41.4395832" lon="12.8040052"><ele>6.0</ele><time>2026-04-25T16:19:40.108Z</time></trkpt><trkpt lat="41.4395254" lon="12.8040644"><ele>6.0</ele><time>2026-04-25T16:19:41.108Z</time></trkpt><trkpt lat="41.4394067" lon="12.8041881"><ele>6.0</ele><time>2026-04-25T16:19:43.108Z</time></trkpt><trkpt lat="41.439337" lon="12.8042495"><ele>6.25</ele><time>2026-04-25T16:19:44.108Z</time></trkpt><trkpt lat="41.4392175" lon="12.8043685"><ele>6.5</ele><time>2026-04-25T16:19:46.108Z</time></trkpt><trkpt lat="41.4390925" lon="12.8044709"><ele>6.75</ele><time>2026-04-25T16:19:48.108Z</time></trkpt><trkpt lat="41.4389591" lon="12.804556"><ele>7.0</ele><time>2026-04-25T16:19:50.108Z</time></trkpt><trkpt lat="41.4388827" lon="12.8045844"><ele>7.000000000000001</ele><time>2026-04-25T16:19:51.108Z</time></trkpt><trkpt lat="41.4388209" lon="12.8046168"><ele>7.0</ele><time>2026-04-25T16:19:52.108Z</time></trkpt><trkpt lat="41.4387493" lon="12.8046367"><ele>7.0</ele><time>2026-04-25T16:19:53.107Z</time></trkpt><trkpt lat="41.4386448" lon="12.8046794"><ele>7.0</ele><time>2026-04-25T16:19:55.108Z</time></trkpt><trkpt lat="41.4385649" lon="12.8046734"><ele>7.000000000000001</ele><time>2026-04-25T16:19:57.108Z</time></trkpt><trkpt lat="41.4385051" lon="12.804579"><ele>7.0</ele><time>2026-04-25T16:20:00.108Z</time></trkpt><trkpt lat="41.4383995" lon="12.8045765"><ele>6.8</ele><time>2026-04-25T16:20:02.108Z</time></trkpt><trkpt lat="41.4382513" lon="12.8045608"><ele>6.6</ele><time>2026-04-25T16:20:04.108Z</time></trkpt><trkpt lat="41.438175" lon="12.8045562"><ele>6.3999999999999995</ele><time>2026-04-25T16:20:05.108Z</time></trkpt><trkpt lat="41.4381046" lon="12.8045511"><ele>6.199999999999999</ele><time>2026-04-25T16:20:06.108Z</time></trkpt><trkpt lat="41.4380393" lon="12.8045375"><ele>6.0</ele><time>2026-04-25T16:20:07.108Z</time></trkpt><trkpt lat="41.437905" lon="12.8045093"><ele>5.8</ele><time>2026-04-25T16:20:09.107Z</time></trkpt><trkpt lat="41.4378064" lon="12.8044815"><ele>5.6</ele><time>2026-04-25T16:20:11.107Z</time></trkpt><trkpt lat="41.4376506" lon="12.8045003"><ele>5.4</ele><time>2026-04-25T16:20:14.108Z</time></trkpt><trkpt lat="41.4375653" lon="12.8044968"><ele>5.2</ele><time>2026-04-25T16:20:15.108Z</time></trkpt><trkpt lat="41.4374878" lon="12.8045027"><ele>5.0</ele><time>2026-04-25T16:20:16.108Z</time></trkpt><trkpt lat="41.4374105" lon="12.8045068"><ele>5.0</ele><time>2026-04-25T16:20:17.108Z</time></trkpt><trkpt lat="41.4373344" lon="12.8045036"><ele>5.0</ele><time>2026-04-25T16:20:18.107Z</time></trkpt><trkpt lat="41.4371862" lon="12.804486"><ele>5.0</ele><time>2026-04-25T16:20:20.108Z</time></trkpt><trkpt lat="41.4370797" lon="12.8044937"><ele>5.0</ele><time>2026-04-25T16:20:22.108Z</time></trkpt><trkpt lat="41.437036" lon="12.8045634"><ele>5.0</ele><time>2026-04-25T16:20:24.108Z</time></trkpt><trkpt lat="41.4369778" lon="12.8046447"><ele>5.0</ele><time>2026-04-25T16:20:27.108Z</time></trkpt><trkpt lat="41.4369381" lon="12.804766"><ele>5.0</ele><time>2026-04-25T16:20:29.108Z</time></trkpt><trkpt lat="41.43694" lon="12.8048856"><ele>5.0</ele><time>2026-04-25T16:20:30.108Z</time></trkpt><trkpt lat="41.4369429" lon="12.8050141"><ele>5.0</ele><time>2026-04-25T16:20:31.108Z</time></trkpt><trkpt lat="41.4369397" lon="12.8052945"><ele>5.0</ele><time>2026-04-25T16:20:33.108Z</time></trkpt><trkpt lat="41.4369465" lon="12.8054631"><ele>5.0</ele><time>2026-04-25T16:20:34.108Z</time></trkpt><trkpt lat="41.4369411" lon="12.8056202"><ele>5.0</ele><time>2026-04-25T16:20:35.108Z</time></trkpt><trkpt lat="41.436942" lon="12.8059593"><ele>5.666666666666667</ele><time>2026-04-25T16:20:37.108Z</time></trkpt><trkpt lat="41.4369367" lon="12.8063022"><ele>6.333333333333334</ele><time>2026-04-25T16:20:39.108Z</time></trkpt><trkpt lat="41.4369321" lon="12.806439"><ele>7.0</ele><time>2026-04-25T16:20:40.108Z</time></trkpt><trkpt lat="41.4369268" lon="12.8065653"><ele>7.000000000000001</ele><time>2026-04-25T16:20:41.108Z</time></trkpt><trkpt lat="41.4369292" lon="12.8066939"><ele>7.0</ele><time>2026-04-25T16:20:42.108Z</time></trkpt><trkpt lat="41.4369248" lon="12.8068292"><ele>7.0</ele><time>2026-04-25T16:20:43.108Z</time></trkpt><trkpt lat="41.4369231" lon="12.8069469"><ele>7.0</ele><time>2026-04-25T16:20:44.108Z</time></trkpt><trkpt lat="41.4369295" lon="12.8070477"><ele>7.000000000000001</ele><time>2026-04-25T16:20:45.107Z</time></trkpt><trkpt lat="41.4369295" lon="12.8071381"><ele>7.0</ele><time>2026-04-25T16:20:46.108Z</time></trkpt><trkpt lat="41.4369362" lon="12.8072914"><ele>6.8</ele><time>2026-04-25T16:20:48.108Z</time></trkpt><trkpt lat="41.4369349" lon="12.8074278"><ele>6.6</ele><time>2026-04-25T16:20:50.108Z</time></trkpt><trkpt lat="41.4368858" lon="12.8075633"><ele>6.3999999999999995</ele><time>2026-04-25T16:20:52.108Z</time></trkpt><trkpt lat="41.4368029" lon="12.8076443"><ele>6.199999999999999</ele><time>2026-04-25T16:20:53.108Z</time></trkpt><trkpt lat="41.4367277" lon="12.8077419"><ele>6.0</ele><time>2026-04-25T16:20:54.108Z</time></trkpt><trkpt lat="41.4366625" lon="12.8078516"><ele>5.75</ele><time>2026-04-25T16:20:55.108Z</time></trkpt><trkpt lat="41.4365994" lon="12.8079866"><ele>5.5</ele><time>2026-04-25T16:20:56.108Z</time></trkpt><trkpt lat="41.4365264" lon="12.8080917"><ele>5.25</ele><time>2026-04-25T16:20:57.108Z</time></trkpt><trkpt lat="41.4364566" lon="12.8082174"><ele>5.0</ele><time>2026-04-25T16:20:58.107Z</time></trkpt><trkpt lat="41.4363871" lon="12.8083385"><ele>5.0</ele><time>2026-04-25T16:20:59.108Z</time></trkpt><trkpt lat="41.4363289" lon="12.808461"><ele>5.0</ele><time>2026-04-25T16:21:00.107Z</time></trkpt><trkpt lat="41.4362743" lon="12.8085833"><ele>5.0</ele><time>2026-04-25T16:21:01.108Z</time></trkpt><trkpt lat="41.4362231" lon="12.8087113"><ele>5.0</ele><time>2026-04-25T16:21:02.108Z</time></trkpt><trkpt lat="41.4361663" lon="12.8088376"><ele>5.0</ele><time>2026-04-25T16:21:03.107Z</time></trkpt><trkpt lat="41.4361136" lon="12.8089624"><ele>5.0</ele><time>2026-04-25T16:21:04.107Z</time></trkpt><trkpt lat="41.4360765" lon="12.8090887"><ele>5.0</ele><time>2026-04-25T16:21:05.108Z</time></trkpt><trkpt lat="41.4360457" lon="12.8092123"><ele>5.0</ele><time>2026-04-25T16:21:06.108Z</time></trkpt><trkpt lat="41.436012" lon="12.8093263"><ele>5.0</ele><time>2026-04-25T16:21:07.108Z</time></trkpt><trkpt lat="41.4359829" lon="12.8094394"><ele>5.0</ele><time>2026-04-25T16:21:08.107Z</time></trkpt><trkpt lat="41.435959" lon="12.8095448"><ele>4.666666666666667</ele><time>2026-04-25T16:21:09.108Z</time></trkpt><trkpt lat="41.4359263" lon="12.8096374"><ele>4.333333333333334</ele><time>2026-04-25T16:21:10.108Z</time></trkpt><trkpt lat="41.4358884" lon="12.8097283"><ele>4.0</ele><time>2026-04-25T16:21:11.108Z</time></trkpt><trkpt lat="41.4358439" lon="12.8098264"><ele>3.666666666666667</ele><time>2026-04-25T16:21:12.108Z</time></trkpt><trkpt lat="41.4358065" lon="12.809917"><ele>3.3333333333333335</ele><time>2026-04-25T16:21:13.108Z</time></trkpt><trkpt lat="41.4357845" lon="12.8100404"><ele>3.0</ele><time>2026-04-25T16:21:14.108Z</time></trkpt><trkpt lat="41.4357577" lon="12.8101686"><ele>3.0</ele><time>2026-04-25T16:21:15.108Z</time></trkpt><trkpt lat="41.4357209" lon="12.810287"><ele>3.0</ele><time>2026-04-25T16:21:16.108Z</time></trkpt><trkpt lat="41.435679" lon="12.8104185"><ele>3.0</ele><time>2026-04-25T16:21:17.108Z</time></trkpt><trkpt lat="41.4356311" lon="12.8105463"><ele>3.0</ele><time>2026-04-25T16:21:18.108Z</time></trkpt><trkpt lat="41.4356032" lon="12.8106809"><ele>3.0</ele><time>2026-04-25T16:21:19.108Z</time></trkpt><trkpt lat="41.4355613" lon="12.8108084"><ele>3.0</ele><time>2026-04-25T16:21:20.108Z</time></trkpt><trkpt lat="41.435519" lon="12.8109395"><ele>3.0</ele><time>2026-04-25T16:21:21.108Z</time></trkpt><trkpt lat="41.4354716" lon="12.8110597"><ele>3.0</ele><time>2026-04-25T16:21:22.108Z</time></trkpt><trkpt lat="41.4354241" lon="12.8111708"><ele>3.0</ele><time>2026-04-25T16:21:23.108Z</time></trkpt><trkpt lat="41.4353788" lon="12.8112845"><ele>3.0</ele><time>2026-04-25T16:21:24.108Z</time></trkpt><trkpt lat="41.4353335" lon="12.811403"><ele>2.8</ele><time>2026-04-25T16:21:25.108Z</time></trkpt><trkpt lat="41.4352835" lon="12.8115131"><ele>2.5999999999999996</ele><time>2026-04-25T16:21:26.108Z</time></trkpt><trkpt lat="41.4352347" lon="12.8116387"><ele>2.4000000000000004</ele><time>2026-04-25T16:21:27.108Z</time></trkpt><trkpt lat="41.4351856" lon="12.8117484"><ele>2.2</ele><time>2026-04-25T16:21:28.107Z</time></trkpt><trkpt lat="41.4351421" lon="12.8118744"><ele>2.0</ele><time>2026-04-25T16:21:29.108Z</time></trkpt><trkpt lat="41.435097" lon="12.8119974"><ele>2.0</ele><time>2026-04-25T16:21:30.108Z</time></trkpt><trkpt lat="41.4350513" lon="12.8121088"><ele>2.0</ele><time>2026-04-25T16:21:31.108Z</time></trkpt><trkpt lat="41.4350087" lon="12.8122231"><ele>2.0</ele><time>2026-04-25T16:21:32.108Z</time></trkpt><trkpt lat="41.4349681" lon="12.8123353"><ele>2.0</ele><time>2026-04-25T16:21:33.108Z</time></trkpt><trkpt lat="41.4349375" lon="12.8124449"><ele>2.0</ele><time>2026-04-25T16:21:34.108Z</time></trkpt><trkpt lat="41.434907" lon="12.8125589"><ele>2.0</ele><time>2026-04-25T16:21:35.108Z</time></trkpt><trkpt lat="41.4348721" lon="12.8126755"><ele>2.0</ele><time>2026-04-25T16:21:36.108Z</time></trkpt><trkpt lat="41.4348364" lon="12.812787"><ele>2.0</ele><time>2026-04-25T16:21:37.107Z</time></trkpt><trkpt lat="41.4347995" lon="12.812902"><ele>2.0</ele><time>2026-04-25T16:21:38.108Z</time></trkpt><trkpt lat="41.434773" lon="12.8130138"><ele>2.0</ele><time>2026-04-25T16:21:39.108Z</time></trkpt><trkpt lat="41.4347443" lon="12.813134"><ele>2.0</ele><time>2026-04-25T16:21:40.108Z</time></trkpt><trkpt lat="41.4347078" lon="12.8132568"><ele>2.0</ele><time>2026-04-25T16:21:41.108Z</time></trkpt><trkpt lat="41.4346736" lon="12.8133777"><ele>2.0</ele><time>2026-04-25T16:21:42.108Z</time></trkpt><trkpt lat="41.434634" lon="12.8135111"><ele>2.0</ele><time>2026-04-25T16:21:43.108Z</time></trkpt><trkpt lat="41.4345967" lon="12.8136315"><ele>2.0</ele><time>2026-04-25T16:21:44.108Z</time></trkpt><trkpt lat="41.4345221" lon="12.8138545"><ele>2.0</ele><time>2026-04-25T16:21:46.108Z</time></trkpt><trkpt lat="41.4344274" lon="12.8140656"><ele>2.0</ele><time>2026-04-25T16:21:48.108Z</time></trkpt><trkpt lat="41.4343142" lon="12.8142428"><ele>2.0</ele><time>2026-04-25T16:21:50.108Z</time></trkpt><trkpt lat="41.4341918" lon="12.8144252"><ele>2.0</ele><time>2026-04-25T16:21:52.108Z</time></trkpt><trkpt lat="41.4341236" lon="12.8145192"><ele>2.0</ele><time>2026-04-25T16:21:53.108Z</time></trkpt><trkpt lat="41.4340594" lon="12.8146067"><ele>2.0</ele><time>2026-04-25T16:21:54.108Z</time></trkpt><trkpt lat="41.4338568" lon="12.814833"><ele>2.25</ele><time>2026-04-25T16:21:57.108Z</time></trkpt><trkpt lat="41.4337869" lon="12.8148941"><ele>2.5</ele><time>2026-04-25T16:21:58.108Z</time></trkpt><trkpt lat="41.4336494" lon="12.8150195"><ele>2.75</ele><time>2026-04-25T16:22:00.108Z</time></trkpt><trkpt lat="41.4334964" lon="12.8151265"><ele>3.0</ele><time>2026-04-25T16:22:02.108Z</time></trkpt><trkpt lat="41.4334149" lon="12.8151669"><ele>3.0</ele><time>2026-04-25T16:22:03.107Z</time></trkpt><trkpt lat="41.4333465" lon="12.8152205"><ele>3.0</ele><time>2026-04-25T16:22:04.108Z</time></trkpt><trkpt lat="41.433195" lon="12.8153234"><ele>3.0</ele><time>2026-04-25T16:22:06.108Z</time></trkpt><trkpt lat="41.4330541" lon="12.8154089"><ele>3.0</ele><time>2026-04-25T16:22:08.108Z</time></trkpt><trkpt lat="41.4329808" lon="12.8154472"><ele>2.6</ele><time>2026-04-25T16:22:09.107Z</time></trkpt><trkpt lat="41.4328338" lon="12.8155072"><ele>2.1999999999999997</ele><time>2026-04-25T16:22:11.108Z</time></trkpt><trkpt lat="41.4327542" lon="12.8155289"><ele>1.8</ele><time>2026-04-25T16:22:12.107Z</time></trkpt><trkpt lat="41.4326763" lon="12.8155414"><ele>1.4</ele><time>2026-04-25T16:22:13.108Z</time></trkpt><trkpt lat="41.4325877" lon="12.8155527"><ele>1.0</ele><time>2026-04-25T16:22:14.108Z</time></trkpt><trkpt lat="41.4325037" lon="12.815569"><ele>1.0</ele><time>2026-04-25T16:22:15.108Z</time></trkpt><trkpt lat="41.4324236" lon="12.8155857"><ele>1.0</ele><time>2026-04-25T16:22:16.107Z</time></trkpt><trkpt lat="41.4322581" lon="12.8155816"><ele>1.0</ele><time>2026-04-25T16:22:18.108Z</time></trkpt><trkpt lat="41.43206" lon="12.815548"><ele>1.0</ele><time>2026-04-25T16:22:20.108Z</time></trkpt><trkpt lat="41.4318306" lon="12.8155036"><ele>1.0</ele><time>2026-04-25T16:22:22.108Z</time></trkpt><trkpt lat="41.4317457" lon="12.815486"><ele>1.0</ele><time>2026-04-25T16:22:23.107Z</time></trkpt><trkpt lat="41.43167" lon="12.815479"><ele>1.0</ele><time>2026-04-25T16:22:24.108Z</time></trkpt><trkpt lat="41.4315939" lon="12.8154567"><ele>1.0</ele><time>2026-04-25T16:22:25.107Z</time></trkpt><trkpt lat="41.4313503" lon="12.8153688"><ele>1.4</ele><time>2026-04-25T16:22:28.108Z</time></trkpt><trkpt lat="41.4312206" lon="12.8153383"><ele>1.8</ele><time>2026-04-25T16:22:30.108Z</time></trkpt><trkpt lat="41.431152" lon="12.8153274"><ele>2.1999999999999997</ele><time>2026-04-25T16:22:31.108Z</time></trkpt><trkpt lat="41.4310199" lon="12.8153444"><ele>2.6</ele><time>2026-04-25T16:22:33.107Z</time></trkpt><trkpt lat="41.4309533" lon="12.815362"><ele>3.0</ele><time>2026-04-25T16:22:34.108Z</time></trkpt><trkpt lat="41.4308842" lon="12.8153586"><ele>3.0</ele><time>2026-04-25T16:22:35.108Z</time></trkpt><trkpt lat="41.4308127" lon="12.8153475"><ele>3.0</ele><time>2026-04-25T16:22:37.108Z</time></trkpt><trkpt lat="41.4307136" lon="12.8153616"><ele>3.0</ele><time>2026-04-25T16:22:39.108Z</time></trkpt><trkpt lat="41.4305878" lon="12.8153577"><ele>3.0</ele><time>2026-04-25T16:22:41.108Z</time></trkpt><trkpt lat="41.4304626" lon="12.8153293"><ele>3.0</ele><time>2026-04-25T16:22:43.108Z</time></trkpt><trkpt lat="41.4303996" lon="12.8153064"><ele>3.0</ele><time>2026-04-25T16:22:44.107Z</time></trkpt><trkpt lat="41.4302955" lon="12.8152767"><ele>3.0</ele><time>2026-04-25T16:22:46.108Z</time></trkpt><trkpt lat="41.4301887" lon="12.8152574"><ele>3.0</ele><time>2026-04-25T16:22:48.108Z</time></trkpt><trkpt lat="41.4300928" lon="12.8152073"><ele>3.0</ele><time>2026-04-25T16:22:50.108Z</time></trkpt><trkpt lat="41.4300394" lon="12.8151472"><ele>3.0</ele><time>2026-04-25T16:22:52.107Z</time></trkpt><trkpt lat="41.4300796" lon="12.8150553"><ele>4.0</ele><time>2026-04-25T16:22:54.108Z</time></trkpt><trkpt lat="41.4301694" lon="12.8150071"><ele>5.0</ele><time>2026-04-25T16:22:56.108Z</time></trkpt><trkpt lat="41.4302807" lon="12.8149519"><ele>6.000000000000001</ele><time>2026-04-25T16:22:58.107Z</time></trkpt><trkpt lat="41.4303452" lon="12.8148637"><ele>7.0</ele><time>2026-04-25T16:23:00.108Z</time></trkpt><trkpt lat="41.4303779" lon="12.8147183"><ele>8.0</ele><time>2026-04-25T16:23:02.108Z</time></trkpt><trkpt lat="41.4303965" lon="12.8145523"><ele>8.0</ele><time>2026-04-25T16:23:04.107Z</time></trkpt><trkpt lat="41.4304061" lon="12.8144639"><ele>8.0</ele><time>2026-04-25T16:23:05.108Z</time></trkpt><trkpt lat="41.4304156" lon="12.8143734"><ele>8.0</ele><time>2026-04-25T16:23:06.108Z</time></trkpt><trkpt lat="41.4304375" lon="12.8142595"><ele>8.0</ele><time>2026-04-25T16:23:08.108Z</time></trkpt><trkpt lat="41.4304723" lon="12.8141607"><ele>8.0</ele><time>2026-04-25T16:23:11.107Z</time></trkpt><trkpt lat="41.4304994" lon="12.8143657"><ele>8.0</ele><time>2026-04-25T16:23:35.108Z</time></trkpt><trkpt lat="41.4304806" lon="12.8145017"><ele>8.0</ele><time>2026-04-25T16:23:36.108Z</time></trkpt><trkpt lat="41.4304571" lon="12.814655"><ele>8.0</ele><time>2026-04-25T16:23:37.107Z</time></trkpt><trkpt lat="41.4304308" lon="12.8148092"><ele>8.0</ele><time>2026-04-25T16:23:38.108Z</time></trkpt><trkpt lat="41.4304122" lon="12.8149773"><ele>8.0</ele><time>2026-04-25T16:23:39.108Z</time></trkpt><trkpt lat="41.4303856" lon="12.8151331"><ele>8.0</ele><time>2026-04-25T16:23:40.107Z</time></trkpt><trkpt lat="41.4303698" lon="12.8152828"><ele>8.0</ele><time>2026-04-25T16:23:41.108Z</time></trkpt><trkpt lat="41.4303514" lon="12.815421"><ele>8.0</ele><time>2026-04-25T16:23:42.108Z</time></trkpt><trkpt lat="41.4303314" lon="12.8155572"><ele>8.0</ele><time>2026-04-25T16:23:43.108Z</time></trkpt><trkpt lat="41.4303172" lon="12.8156783"><ele>7.0</ele><time>2026-04-25T16:23:44.108Z</time></trkpt><trkpt lat="41.4302961" lon="12.8158475"><ele>6.000000000000001</ele><time>2026-04-25T16:23:46.108Z</time></trkpt><trkpt lat="41.430257" lon="12.815919"><ele>5.0</ele><time>2026-04-25T16:23:48.107Z</time></trkpt><trkpt lat="41.4301852" lon="12.815902"><ele>4.0</ele><time>2026-04-25T16:23:50.108Z</time></trkpt><trkpt lat="41.4300894" lon="12.8158552"><ele>3.0</ele><time>2026-04-25T16:23:52.107Z</time></trkpt><trkpt lat="41.4299055" lon="12.8158239"><ele>3.0</ele><time>2026-04-25T16:23:55.107Z</time></trkpt><trkpt lat="41.4297873" lon="12.8157739"><ele>3.0</ele><time>2026-04-25T16:23:57.108Z</time></trkpt><trkpt lat="41.4296569" lon="12.8157144"><ele>3.0</ele><time>2026-04-25T16:23:59.108Z</time></trkpt><trkpt lat="41.4294987" lon="12.8156407"><ele>3.0</ele><time>2026-04-25T16:24:02.108Z</time></trkpt><trkpt lat="41.4293358" lon="12.8155564"><ele>2.8</ele><time>2026-04-25T16:24:05.107Z</time></trkpt><trkpt lat="41.4292326" lon="12.8155039"><ele>2.5999999999999996</ele><time>2026-04-25T16:24:07.107Z</time></trkpt><trkpt lat="41.4291149" lon="12.8154619"><ele>2.4000000000000004</ele><time>2026-04-25T16:24:09.108Z</time></trkpt><trkpt lat="41.429007" lon="12.8153958"><ele>2.2</ele><time>2026-04-25T16:24:11.108Z</time></trkpt><trkpt lat="41.4289519" lon="12.8153499"><ele>2.0</ele><time>2026-04-25T16:24:12.108Z</time></trkpt><trkpt lat="41.4288393" lon="12.815274"><ele>2.0</ele><time>2026-04-25T16:24:14.108Z</time></trkpt><trkpt lat="41.4287398" lon="12.8151925"><ele>2.0</ele><time>2026-04-25T16:24:16.108Z</time></trkpt><trkpt lat="41.4286488" lon="12.8151124"><ele>2.0</ele><time>2026-04-25T16:24:18.108Z</time></trkpt><trkpt lat="41.428591" lon="12.8150761"><ele>2.0</ele><time>2026-04-25T16:24:19.107Z</time></trkpt><trkpt lat="41.428482" lon="12.8149908"><ele>2.0</ele><time>2026-04-25T16:24:21.108Z</time></trkpt><trkpt lat="41.4283714" lon="12.8149021"><ele>2.25</ele><time>2026-04-25T16:24:23.108Z</time></trkpt><trkpt lat="41.4283139" lon="12.8148555"><ele>2.5</ele><time>2026-04-25T16:24:24.108Z</time></trkpt><trkpt lat="41.4282066" lon="12.8147695"><ele>2.75</ele><time>2026-04-25T16:24:26.108Z</time></trkpt><trkpt lat="41.4280579" lon="12.814653"><ele>3.0</ele><time>2026-04-25T16:24:29.108Z</time></trkpt><trkpt lat="41.427967" lon="12.8145681"><ele>3.0</ele><time>2026-04-25T16:24:31.108Z</time></trkpt><trkpt lat="41.4279044" lon="12.8145194"><ele>3.0</ele><time>2026-04-25T16:24:32.108Z</time></trkpt><trkpt lat="41.4277985" lon="12.8144498"><ele>3.0</ele><time>2026-04-25T16:24:34.108Z</time></trkpt><trkpt lat="41.4276378" lon="12.8143365"><ele>3.0</ele><time>2026-04-25T16:24:37.108Z</time></trkpt><trkpt lat="41.4275278" lon="12.8142567"><ele>2.8333333333333335</ele><time>2026-04-25T16:24:39.107Z</time></trkpt><trkpt lat="41.4274687" lon="12.8142115"><ele>2.6666666666666665</ele><time>2026-04-25T16:24:40.108Z</time></trkpt><trkpt lat="41.4274085" lon="12.8141697"><ele>2.5</ele><time>2026-04-25T16:24:41.108Z</time></trkpt><trkpt lat="41.4273067" lon="12.8140998"><ele>2.333333333333333</ele><time>2026-04-25T16:24:43.108Z</time></trkpt><trkpt lat="41.4272489" lon="12.8140641"><ele>2.1666666666666665</ele><time>2026-04-25T16:24:44.108Z</time></trkpt><trkpt lat="41.4271538" lon="12.8139951"><ele>2.0</ele><time>2026-04-25T16:24:46.108Z</time></trkpt><trkpt lat="41.4270045" lon="12.8138831"><ele>2.0</ele><time>2026-04-25T16:24:49.108Z</time></trkpt><trkpt lat="41.4268364" lon="12.8138064"><ele>2.0</ele><time>2026-04-25T16:24:52.108Z</time></trkpt><trkpt lat="41.4266752" lon="12.8137133"><ele>2.0</ele><time>2026-04-25T16:24:55.108Z</time></trkpt><trkpt lat="41.4265665" lon="12.8136532"><ele>2.0</ele><time>2026-04-25T16:24:57.108Z</time></trkpt><trkpt lat="41.4264518" lon="12.8136133"><ele>2.0</ele><time>2026-04-25T16:24:59.108Z</time></trkpt><trkpt lat="41.4262819" lon="12.8135428"><ele>2.0</ele><time>2026-04-25T16:25:02.108Z</time></trkpt><trkpt lat="41.4261711" lon="12.8135058"><ele>2.0</ele><time>2026-04-25T16:25:04.107Z</time></trkpt><trkpt lat="41.4260709" lon="12.8135086"><ele>2.0</ele><time>2026-04-25T16:25:06.108Z</time></trkpt><trkpt lat="41.4259767" lon="12.8135011"><ele>2.0</ele><time>2026-04-25T16:25:08.107Z</time></trkpt><trkpt lat="41.4258801" lon="12.8135013"><ele>2.0</ele><time>2026-04-25T16:25:10.108Z</time></trkpt><trkpt lat="41.4257855" lon="12.8134873"><ele>2.0</ele><time>2026-04-25T16:25:12.108Z</time></trkpt><trkpt lat="41.4256903" lon="12.8134722"><ele>2.0</ele><time>2026-04-25T16:25:14.108Z</time></trkpt><trkpt lat="41.4255371" lon="12.8134521"><ele>2.0</ele><time>2026-04-25T16:25:17.108Z</time></trkpt><trkpt lat="41.4254387" lon="12.8134414"><ele>2.0</ele><time>2026-04-25T16:25:19.108Z</time></trkpt><trkpt lat="41.4253292" lon="12.8134493"><ele>2.0</ele><time>2026-04-25T16:25:21.108Z</time></trkpt><trkpt lat="41.4252451" lon="12.8134571"><ele>2.0</ele><time>2026-04-25T16:25:23.108Z</time></trkpt><trkpt lat="41.4251418" lon="12.8134461"><ele>2.0</ele><time>2026-04-25T16:25:25.108Z</time></trkpt><trkpt lat="41.4250263" lon="12.8134496"><ele>2.0</ele><time>2026-04-25T16:25:27.108Z</time></trkpt><trkpt lat="41.4249218" lon="12.8134568"><ele>2.0</ele><time>2026-04-25T16:25:29.108Z</time></trkpt><trkpt lat="41.424813" lon="12.8134669"><ele>2.0</ele><time>2026-04-25T16:25:31.108Z</time></trkpt><trkpt lat="41.4247024" lon="12.8134555"><ele>2.0</ele><time>2026-04-25T16:25:33.108Z</time></trkpt><trkpt lat="41.4246336" lon="12.8134437"><ele>2.0</ele><time>2026-04-25T16:25:34.108Z</time></trkpt><trkpt lat="41.42452" lon="12.8134299"><ele>1.8</ele><time>2026-04-25T16:25:36.108Z</time></trkpt><trkpt lat="41.4244129" lon="12.8134293"><ele>1.6</ele><time>2026-04-25T16:25:38.108Z</time></trkpt><trkpt lat="41.4243175" lon="12.8134226"><ele>1.4000000000000001</ele><time>2026-04-25T16:25:40.108Z</time></trkpt><trkpt lat="41.4242277" lon="12.8134214"><ele>1.2000000000000002</ele><time>2026-04-25T16:25:42.107Z</time></trkpt><trkpt lat="41.4241245" lon="12.8134113"><ele>1.0</ele><time>2026-04-25T16:25:44.107Z</time></trkpt><trkpt lat="41.4239792" lon="12.8133945"><ele>1.0</ele><time>2026-04-25T16:25:47.108Z</time></trkpt><trkpt lat="41.4238967" lon="12.8133898"><ele>1.0</ele><time>2026-04-25T16:25:49.108Z</time></trkpt><trkpt lat="41.4237531" lon="12.8133975"><ele>1.0</ele><time>2026-04-25T16:25:52.107Z</time></trkpt><trkpt lat="41.4236703" lon="12.8133948"><ele>1.0</ele><time>2026-04-25T16:25:54.108Z</time></trkpt><trkpt lat="41.4235604" lon="12.8133686"><ele>1.0</ele><time>2026-04-25T16:25:56.108Z</time></trkpt><trkpt lat="41.423468" lon="12.8133794"><ele>1.0</ele><time>2026-04-25T16:25:58.107Z</time></trkpt><trkpt lat="41.42334" lon="12.8133747"><ele>1.0</ele><time>2026-04-25T16:26:01.108Z</time></trkpt><trkpt lat="41.4232584" lon="12.8133766"><ele>1.0</ele><time>2026-04-25T16:26:03.107Z</time></trkpt><trkpt lat="41.4231656" lon="12.8133807"><ele>1.0</ele><time>2026-04-25T16:26:06.107Z</time></trkpt><trkpt lat="41.4230704" lon="12.8133606"><ele>1.0</ele><time>2026-04-25T16:26:08.108Z</time></trkpt><trkpt lat="41.4229623" lon="12.8133573"><ele>0.8333333333333333</ele><time>2026-04-25T16:26:10.107Z</time></trkpt><trkpt lat="41.4228838" lon="12.8133458"><ele>0.6666666666666666</ele><time>2026-04-25T16:26:12.108Z</time></trkpt><trkpt lat="41.4227935" lon="12.8133099"><ele>0.5</ele><time>2026-04-25T16:26:14.108Z</time></trkpt><trkpt lat="41.4227135" lon="12.8133072"><ele>0.3333333333333333</ele><time>2026-04-25T16:26:16.108Z</time></trkpt><trkpt lat="41.4226428" lon="12.8133129"><ele>0.16666666666666666</ele><time>2026-04-25T16:26:18.108Z</time></trkpt><trkpt lat="41.4225643" lon="12.8133145"><ele>0.0</ele><time>2026-04-25T16:26:20.108Z</time></trkpt><trkpt lat="41.4224948" lon="12.8133258"><ele>0.0</ele><time>2026-04-25T16:26:22.108Z</time></trkpt><trkpt lat="41.422432" lon="12.8133409"><ele>0.0</ele><time>2026-04-25T16:26:24.108Z</time></trkpt><trkpt lat="41.4223618" lon="12.8133467"><ele>0.0</ele><time>2026-04-25T16:26:27.107Z</time></trkpt><trkpt lat="41.4222514" lon="12.8133216"><ele>0.0</ele><time>2026-04-25T16:26:31.108Z</time></trkpt><trkpt lat="41.4221757" lon="12.8133327"><ele>0.0</ele><time>2026-04-25T16:26:33.107Z</time></trkpt><trkpt lat="41.4220973" lon="12.813368"><ele>0.0</ele><time>2026-04-25T16:26:37.108Z</time></trkpt><trkpt lat="41.4220101" lon="12.8133706"><ele>0.3333333333333333</ele><time>2026-04-25T16:26:40.107Z</time></trkpt><trkpt lat="41.4219393" lon="12.8133798"><ele>0.6666666666666666</ele><time>2026-04-25T16:26:42.108Z</time></trkpt><trkpt lat="41.4218513" lon="12.8133711"><ele>1.0</ele><time>2026-04-25T16:26:45.108Z</time></trkpt><trkpt lat="41.4217816" lon="12.8133929"><ele>1.3333333333333333</ele><time>2026-04-25T16:26:47.108Z</time></trkpt><trkpt lat="41.4216841" lon="12.8133784"><ele>1.6666666666666665</ele><time>2026-04-25T16:26:50.108Z</time></trkpt><trkpt lat="41.4216152" lon="12.813405"><ele>2.0</ele><time>2026-04-25T16:26:54.107Z</time></trkpt><trkpt lat="41.4216243" lon="12.8135092"><ele>2.1666666666666665</ele><time>2026-04-25T16:26:58.108Z</time></trkpt><trkpt lat="41.4216611" lon="12.8135964"><ele>2.333333333333333</ele><time>2026-04-25T16:27:02.107Z</time></trkpt><trkpt lat="41.4217467" lon="12.8136107"><ele>2.5</ele><time>2026-04-25T16:27:04.108Z</time></trkpt><trkpt lat="41.42184" lon="12.8136103"><ele>2.6666666666666665</ele><time>2026-04-25T16:27:06.108Z</time></trkpt><trkpt lat="41.4219182" lon="12.8136269"><ele>2.8333333333333335</ele><time>2026-04-25T16:27:08.108Z</time></trkpt><trkpt lat="41.4219983" lon="12.8135787"><ele>3.0</ele><time>2026-04-25T16:27:10.108Z</time></trkpt><trkpt lat="41.4220835" lon="12.813612"><ele>3.0</ele><time>2026-04-25T16:27:13.107Z</time></trkpt><trkpt lat="41.42209" lon="12.8137385"><ele>3.0</ele><time>2026-04-25T16:27:16.108Z</time></trkpt><trkpt lat="41.4220719" lon="12.8139013"><ele>3.0</ele><time>2026-04-25T16:27:18.108Z</time></trkpt><trkpt lat="41.4220605" lon="12.8139953"><ele>3.0</ele><time>2026-04-25T16:27:19.107Z</time></trkpt><trkpt lat="41.4220511" lon="12.8140874"><ele>3.0</ele><time>2026-04-25T16:27:20.108Z</time></trkpt><trkpt lat="41.4220385" lon="12.8141764"><ele>3.0</ele><time>2026-04-25T16:27:21.108Z</time></trkpt><trkpt lat="41.4220239" lon="12.814266"><ele>2.8</ele><time>2026-04-25T16:27:22.108Z</time></trkpt><trkpt lat="41.4220035" lon="12.8144107"><ele>2.5999999999999996</ele><time>2026-04-25T16:27:24.107Z</time></trkpt><trkpt lat="41.4219816" lon="12.8145288"><ele>2.4000000000000004</ele><time>2026-04-25T16:27:26.108Z</time></trkpt><trkpt lat="41.4219638" lon="12.8146469"><ele>2.2</ele><time>2026-04-25T16:27:28.108Z</time></trkpt><trkpt lat="41.4219963" lon="12.814792"><ele>2.0</ele><time>2026-04-25T16:27:31.108Z</time></trkpt><trkpt lat="41.4220545" lon="12.8148592"><ele>1.8333333333333333</ele><time>2026-04-25T16:27:33.108Z</time></trkpt><trkpt lat="41.4221517" lon="12.8148732"><ele>1.6666666666666665</ele><time>2026-04-25T16:27:34.108Z</time></trkpt><trkpt lat="41.4222229" lon="12.8149012"><ele>1.5</ele><time>2026-04-25T16:27:35.108Z</time></trkpt><trkpt lat="41.4223086" lon="12.8149265"><ele>1.3333333333333333</ele><time>2026-04-25T16:27:36.108Z</time></trkpt><trkpt lat="41.422383" lon="12.814942"><ele>1.1666666666666665</ele><time>2026-04-25T16:27:37.107Z</time></trkpt><trkpt lat="41.4224528" lon="12.8149533"><ele>1.0</ele><time>2026-04-25T16:27:38.108Z</time></trkpt><trkpt lat="41.4225215" lon="12.8149794"><ele>1.0</ele><time>2026-04-25T16:27:39.107Z</time></trkpt><trkpt lat="41.4226949" lon="12.8150296"><ele>1.0</ele><time>2026-04-25T16:27:42.108Z</time></trkpt><trkpt lat="41.4227554" lon="12.8151001"><ele>1.0</ele><time>2026-04-25T16:27:44.108Z</time></trkpt><trkpt lat="41.4227635" lon="12.8151998"><ele>1.0</ele><time>2026-04-25T16:27:46.108Z</time></trkpt><trkpt lat="41.4227562" lon="12.8152867"><ele>1.0</ele><time>2026-04-25T16:27:47.108Z</time></trkpt><trkpt lat="41.4227371" lon="12.8153751"><ele>1.5</ele><time>2026-04-25T16:27:48.108Z</time></trkpt><trkpt lat="41.422711" lon="12.8154915"><ele>2.0</ele><time>2026-04-25T16:27:49.108Z</time></trkpt><trkpt lat="41.4226815" lon="12.8156172"><ele>2.5</ele><time>2026-04-25T16:27:50.108Z</time></trkpt><trkpt lat="41.4226628" lon="12.8157368"><ele>3.0</ele><time>2026-04-25T16:27:51.107Z</time></trkpt><trkpt lat="41.4226394" lon="12.8158496"><ele>3.4999999999999996</ele><time>2026-04-25T16:27:52.108Z</time></trkpt><trkpt lat="41.4226177" lon="12.8159487"><ele>4.0</ele><time>2026-04-25T16:27:53.108Z</time></trkpt><trkpt lat="41.4226065" lon="12.8160324"><ele>4.25</ele><time>2026-04-25T16:27:54.108Z</time></trkpt><trkpt lat="41.4225583" lon="12.8161744"><ele>4.5</ele><time>2026-04-25T16:27:56.108Z</time></trkpt><trkpt lat="41.4224736" lon="12.8162407"><ele>4.75</ele><time>2026-04-25T16:27:58.108Z</time></trkpt><trkpt lat="41.422338" lon="12.8162083"><ele>5.0</ele><time>2026-04-25T16:28:00.108Z</time></trkpt><trkpt lat="41.4222021" lon="12.8161535"><ele>4.75</ele><time>2026-04-25T16:28:02.108Z</time></trkpt><trkpt lat="41.4220816" lon="12.8161088"><ele>4.5</ele><time>2026-04-25T16:28:04.108Z</time></trkpt><trkpt lat="41.4219698" lon="12.8160836"><ele>4.25</ele><time>2026-04-25T16:28:06.108Z</time></trkpt><trkpt lat="41.4218217" lon="12.8161066"><ele>4.0</ele><time>2026-04-25T16:28:08.108Z</time></trkpt><trkpt lat="41.4217513" lon="12.8160986"><ele>3.9999999999999996</ele><time>2026-04-25T16:28:09.107Z</time></trkpt><trkpt lat="41.4216882" lon="12.8160766"><ele>4.0</ele><time>2026-04-25T16:28:10.108Z</time></trkpt><trkpt lat="41.4215758" lon="12.8160593"><ele>4.0</ele><time>2026-04-25T16:28:12.108Z</time></trkpt><trkpt lat="41.4215105" lon="12.8160384"><ele>4.0</ele><time>2026-04-25T16:28:13.108Z</time></trkpt><trkpt lat="41.4214459" lon="12.8160178"><ele>3.9999999999999996</ele><time>2026-04-25T16:28:14.108Z</time></trkpt><trkpt lat="41.4213459" lon="12.8159832"><ele>4.0</ele><time>2026-04-25T16:28:16.108Z</time></trkpt><trkpt lat="41.42128" lon="12.8159683"><ele>3.8000000000000003</ele><time>2026-04-25T16:28:18.107Z</time></trkpt><trkpt lat="41.4211798" lon="12.8159747"><ele>3.6000000000000005</ele><time>2026-04-25T16:29:07.108Z</time></trkpt><trkpt lat="41.4210838" lon="12.815922"><ele>3.4</ele><time>2026-04-25T16:29:09.108Z</time></trkpt><trkpt lat="41.4209973" lon="12.8158614"><ele>3.2</ele><time>2026-04-25T16:29:11.108Z</time></trkpt><trkpt lat="41.4208869" lon="12.8157956"><ele>3.0</ele><time>2026-04-25T16:29:13.108Z</time></trkpt><trkpt lat="41.4207894" lon="12.8157339"><ele>3.0</ele><time>2026-04-25T16:29:15.108Z</time></trkpt><trkpt lat="41.4206873" lon="12.8156643"><ele>3.0</ele><time>2026-04-25T16:29:17.108Z</time></trkpt><trkpt lat="41.4205965" lon="12.8156089"><ele>3.0</ele><time>2026-04-25T16:29:19.108Z</time></trkpt><trkpt lat="41.4205355" lon="12.815571"><ele>3.0</ele><time>2026-04-25T16:29:20.108Z</time></trkpt><trkpt lat="41.4204289" lon="12.8154991"><ele>3.0</ele><time>2026-04-25T16:29:22.108Z</time></trkpt><trkpt lat="41.4203698" lon="12.8154668"><ele>2.8</ele><time>2026-04-25T16:29:23.108Z</time></trkpt><trkpt lat="41.4202551" lon="12.8153915"><ele>2.5999999999999996</ele><time>2026-04-25T16:29:25.107Z</time></trkpt><trkpt lat="41.4201889" lon="12.8153447"><ele>2.4000000000000004</ele><time>2026-04-25T16:29:26.108Z</time></trkpt><trkpt lat="41.4200825" lon="12.8152755"><ele>2.2</ele><time>2026-04-25T16:29:28.108Z</time></trkpt><trkpt lat="41.4200248" lon="12.8152406"><ele>2.0</ele><time>2026-04-25T16:29:29.108Z</time></trkpt><trkpt lat="41.4199102" lon="12.8151574"><ele>1.9999999999999998</ele><time>2026-04-25T16:29:31.108Z</time></trkpt><trkpt lat="41.4198504" lon="12.8151221"><ele>2.0</ele><time>2026-04-25T16:29:32.108Z</time></trkpt><trkpt lat="41.4197812" lon="12.8150759"><ele>2.0</ele><time>2026-04-25T16:29:33.108Z</time></trkpt><trkpt lat="41.4196637" lon="12.8149949"><ele>2.0</ele><time>2026-04-25T16:29:35.108Z</time></trkpt><trkpt lat="41.419603" lon="12.8149535"><ele>1.9999999999999998</ele><time>2026-04-25T16:29:36.107Z</time></trkpt><trkpt lat="41.4195444" lon="12.8149121"><ele>2.0</ele><time>2026-04-25T16:29:37.108Z</time></trkpt><trkpt lat="41.4193965" lon="12.8148176"><ele>1.9999999999999998</ele><time>2026-04-25T16:29:40.108Z</time></trkpt><trkpt lat="41.4192992" lon="12.8147504"><ele>2.0</ele><time>2026-04-25T16:29:42.108Z</time></trkpt><trkpt lat="41.4192371" lon="12.8147215"><ele>2.0</ele><time>2026-04-25T16:29:43.108Z</time></trkpt><trkpt lat="41.4191785" lon="12.8146821"><ele>2.0</ele><time>2026-04-25T16:29:44.108Z</time></trkpt><trkpt lat="41.4191201" lon="12.8146469"><ele>1.9999999999999998</ele><time>2026-04-25T16:29:45.108Z</time></trkpt><trkpt lat="41.4190553" lon="12.8146069"><ele>2.0</ele><time>2026-04-25T16:29:46.107Z</time></trkpt><trkpt lat="41.4189906" lon="12.8145567"><ele>2.0</ele><time>2026-04-25T16:29:47.108Z</time></trkpt><trkpt lat="41.418932" lon="12.8145173"><ele>2.0</ele><time>2026-04-25T16:29:48.108Z</time></trkpt><trkpt lat="41.4188638" lon="12.8144781"><ele>2.0</ele><time>2026-04-25T16:29:49.108Z</time></trkpt><trkpt lat="41.4187452" lon="12.8143962"><ele>2.0</ele><time>2026-04-25T16:29:51.108Z</time></trkpt><trkpt lat="41.4186263" lon="12.8143186"><ele>2.0</ele><time>2026-04-25T16:29:53.108Z</time></trkpt><trkpt lat="41.4185039" lon="12.8142302"><ele>1.9999999999999998</ele><time>2026-04-25T16:29:55.107Z</time></trkpt><trkpt lat="41.4184363" lon="12.8141894"><ele>2.0</ele><time>2026-04-25T16:29:56.108Z</time></trkpt><trkpt lat="41.4183701" lon="12.8141469"><ele>2.0</ele><time>2026-04-25T16:29:57.107Z</time></trkpt><trkpt lat="41.4183115" lon="12.8141057"><ele>2.0</ele><time>2026-04-25T16:29:58.108Z</time></trkpt><trkpt lat="41.4181949" lon="12.8140174"><ele>1.9999999999999998</ele><time>2026-04-25T16:30:00.108Z</time></trkpt><trkpt lat="41.4181367" lon="12.8139729"><ele>2.0</ele><time>2026-04-25T16:30:01.108Z</time></trkpt><trkpt lat="41.4180737" lon="12.8139293"><ele>1.9999999999999998</ele><time>2026-04-25T16:30:02.108Z</time></trkpt><trkpt lat="41.4180149" lon="12.8138876"><ele>2.0</ele><time>2026-04-25T16:30:03.107Z</time></trkpt><trkpt lat="41.41795" lon="12.813861"><ele>2.0</ele><time>2026-04-25T16:30:04.108Z</time></trkpt><trkpt lat="41.4178853" lon="12.813824"><ele>2.0</ele><time>2026-04-25T16:30:05.108Z</time></trkpt><trkpt lat="41.4178142" lon="12.8138086"><ele>1.9999999999999998</ele><time>2026-04-25T16:30:06.107Z</time></trkpt><trkpt lat="41.4177504" lon="12.8137745"><ele>2.0</ele><time>2026-04-25T16:30:07.108Z</time></trkpt><trkpt lat="41.4176067" lon="12.8137143"><ele>2.0</ele><time>2026-04-25T16:30:09.108Z</time></trkpt><trkpt lat="41.41753" lon="12.8136856"><ele>2.0</ele><time>2026-04-25T16:30:10.108Z</time></trkpt><trkpt lat="41.4174526" lon="12.8136646"><ele>2.0</ele><time>2026-04-25T16:30:11.108Z</time></trkpt><trkpt lat="41.4173664" lon="12.8136433"><ele>2.0</ele><time>2026-04-25T16:30:12.108Z</time></trkpt><trkpt lat="41.4171992" lon="12.8136116"><ele>2.0</ele><time>2026-04-25T16:30:14.108Z</time></trkpt><trkpt lat="41.4171066" lon="12.8136034"><ele>2.0</ele><time>2026-04-25T16:30:15.108Z</time></trkpt><trkpt lat="41.4170196" lon="12.8135982"><ele>2.0</ele><time>2026-04-25T16:30:16.108Z</time></trkpt><trkpt lat="41.4169392" lon="12.8135964"><ele>2.0</ele><time>2026-04-25T16:30:17.108Z</time></trkpt><trkpt lat="41.4168561" lon="12.8135912"><ele>2.0</ele><time>2026-04-25T16:30:18.108Z</time></trkpt><trkpt lat="41.4167062" lon="12.8135851"><ele>2.0</ele><time>2026-04-25T16:30:20.107Z</time></trkpt><trkpt lat="41.4165741" lon="12.8135786"><ele>1.9999999999999998</ele><time>2026-04-25T16:30:22.108Z</time></trkpt><trkpt lat="41.4164989" lon="12.8135694"><ele>2.0</ele><time>2026-04-25T16:30:23.108Z</time></trkpt><trkpt lat="41.4164266" lon="12.8135691"><ele>2.0</ele><time>2026-04-25T16:30:24.108Z</time></trkpt><trkpt lat="41.4163535" lon="12.8135668"><ele>2.0</ele><time>2026-04-25T16:30:25.108Z</time></trkpt><trkpt lat="41.4162801" lon="12.8135642"><ele>1.9999999999999998</ele><time>2026-04-25T16:30:26.108Z</time></trkpt><trkpt lat="41.4161293" lon="12.8135596"><ele>2.0</ele><time>2026-04-25T16:30:28.108Z</time></trkpt><trkpt lat="41.4159585" lon="12.8135629"><ele>1.9999999999999998</ele><time>2026-04-25T16:30:31.108Z</time></trkpt><trkpt lat="41.4158785" lon="12.8135558"><ele>2.0</ele><time>2026-04-25T16:30:33.108Z</time></trkpt><trkpt lat="41.4158282" lon="12.8134709"><ele>2.0</ele><time>2026-04-25T16:30:35.108Z</time></trkpt><trkpt lat="41.4157944" lon="12.8133869"><ele>2.0</ele><time>2026-04-25T16:30:38.108Z</time></trkpt><trkpt lat="41.4157188" lon="12.8133503"><ele>1.9999999999999998</ele><time>2026-04-25T16:30:40.108Z</time></trkpt><trkpt lat="41.4156245" lon="12.8133274"><ele>2.0</ele><time>2026-04-25T16:30:42.108Z</time></trkpt><trkpt lat="41.4155603" lon="12.8133326"><ele>1.9999999999999998</ele><time>2026-04-25T16:30:44.108Z</time></trkpt><trkpt lat="41.4154928" lon="12.813345"><ele>2.0</ele><time>2026-04-25T16:30:47.108Z</time></trkpt><trkpt lat="41.4154171" lon="12.8133529"><ele>2.0</ele><time>2026-04-25T16:30:49.108Z</time></trkpt><trkpt lat="41.4153257" lon="12.813402"><ele>2.0</ele><time>2026-04-25T16:30:51.108Z</time></trkpt><trkpt lat="41.415229" lon="12.8134355"><ele>1.9999999999999998</ele><time>2026-04-25T16:30:53.107Z</time></trkpt><trkpt lat="41.4151345" lon="12.8134377"><ele>2.0</ele><time>2026-04-25T16:30:55.108Z</time></trkpt><trkpt lat="41.4149837" lon="12.8133932"><ele>2.1666666666666665</ele><time>2026-04-25T16:30:58.108Z</time></trkpt><trkpt lat="41.4148936" lon="12.8133693"><ele>2.333333333333333</ele><time>2026-04-25T16:31:00.108Z</time></trkpt><trkpt lat="41.4148113" lon="12.8133675"><ele>2.5</ele><time>2026-04-25T16:31:02.108Z</time></trkpt><trkpt lat="41.4147309" lon="12.813375"><ele>2.6666666666666665</ele><time>2026-04-25T16:31:04.107Z</time></trkpt><trkpt lat="41.414658" lon="12.8133937"><ele>2.8333333333333335</ele><time>2026-04-25T16:31:06.108Z</time></trkpt><trkpt lat="41.4146641" lon="12.8134839"><ele>3.0</ele><time>2026-04-25T16:31:12.108Z</time></trkpt><trkpt lat="41.4147923" lon="12.8133663"><ele>3.0</ele><time>2026-04-25T16:31:13.108Z</time></trkpt><trkpt lat="41.4149233" lon="12.8133674"><ele>3.0</ele><time>2026-04-25T16:31:15.108Z</time></trkpt><trkpt lat="41.4149995" lon="12.8133832"><ele>3.0</ele><time>2026-04-25T16:31:16.108Z</time></trkpt><trkpt lat="41.4150878" lon="12.8133874"><ele>3.0</ele><time>2026-04-25T16:31:17.108Z</time></trkpt><trkpt lat="41.4151726" lon="12.8134016"><ele>3.0</ele><time>2026-04-25T16:31:18.108Z</time></trkpt><trkpt lat="41.4152514" lon="12.8134068"><ele>3.0</ele><time>2026-04-25T16:31:19.108Z</time></trkpt><trkpt lat="41.4153267" lon="12.813387"><ele>3.0</ele><time>2026-04-25T16:31:20.108Z</time></trkpt><trkpt lat="41.4153862" lon="12.8133541"><ele>3.0</ele><time>2026-04-25T16:31:21.108Z</time></trkpt><trkpt lat="41.4154683" lon="12.8132731"><ele>3.0</ele><time>2026-04-25T16:31:23.108Z</time></trkpt><trkpt lat="41.4155123" lon="12.8131719"><ele>3.0</ele><time>2026-04-25T16:31:26.108Z</time></trkpt><trkpt lat="41.4155105" lon="12.8129894"><ele>2.8333333333333335</ele><time>2026-04-25T16:31:29.108Z</time></trkpt><trkpt lat="41.4155117" lon="12.8128877"><ele>2.6666666666666665</ele><time>2026-04-25T16:31:30.108Z</time></trkpt><trkpt lat="41.4155121" lon="12.8127723"><ele>2.5</ele><time>2026-04-25T16:31:31.108Z</time></trkpt><trkpt lat="41.415512" lon="12.8126701"><ele>2.333333333333333</ele><time>2026-04-25T16:31:32.108Z</time></trkpt><trkpt lat="41.4155122" lon="12.8125681"><ele>2.1666666666666665</ele><time>2026-04-25T16:31:33.108Z</time></trkpt><trkpt lat="41.4155161" lon="12.8124703"><ele>2.0</ele><time>2026-04-25T16:31:34.108Z</time></trkpt><trkpt lat="41.4155144" lon="12.8123755"><ele>2.0</ele><time>2026-04-25T16:31:35.108Z</time></trkpt><trkpt lat="41.4155172" lon="12.8122454"><ele>2.0</ele><time>2026-04-25T16:31:37.108Z</time></trkpt><trkpt lat="41.4155173" lon="12.8121499"><ele>2.0</ele><time>2026-04-25T16:31:40.108Z</time></trkpt><trkpt lat="41.4155157" lon="12.8120259"><ele>2.0</ele><time>2026-04-25T16:31:42.107Z</time></trkpt><trkpt lat="41.4155047" lon="12.8119399"><ele>2.0</ele><time>2026-04-25T16:31:43.108Z</time></trkpt><trkpt lat="41.4154897" lon="12.8116735"><ele>3.0</ele><time>2026-04-25T16:31:44.108Z</time></trkpt><trkpt lat="41.4155208" lon="12.8113911"><ele>4.0</ele><time>2026-04-25T16:31:45.107Z</time></trkpt><trkpt lat="41.4155367" lon="12.8111301"><ele>5.0</ele><time>2026-04-25T16:31:46.107Z</time></trkpt><trkpt lat="41.4155499" lon="12.8108424"><ele>5.5</ele><time>2026-04-25T16:31:47.107Z</time></trkpt><trkpt lat="41.4155661" lon="12.8105202"><ele>6.0</ele><time>2026-04-25T16:31:48.108Z</time></trkpt><trkpt lat="41.4155771" lon="12.8101804"><ele>5.5</ele><time>2026-04-25T16:31:49.108Z</time></trkpt><trkpt lat="41.4155947" lon="12.8098527"><ele>5.0</ele><time>2026-04-25T16:31:50.108Z</time></trkpt><trkpt lat="41.4156127" lon="12.8095554"><ele>4.0</ele><time>2026-04-25T16:31:51.108Z</time></trkpt><trkpt lat="41.4156458" lon="12.8089519"><ele>4.0</ele><time>2026-04-25T16:31:53.107Z</time></trkpt><trkpt lat="41.4156707" lon="12.8084136"><ele>4.0</ele><time>2026-04-25T16:31:55.108Z</time></trkpt><trkpt lat="41.4156854" lon="12.8081409"><ele>4.0</ele><time>2026-04-25T16:31:56.108Z</time></trkpt><trkpt lat="41.4157043" lon="12.8076795"><ele>4.0</ele><time>2026-04-25T16:31:58.108Z</time></trkpt><trkpt lat="41.4157301" lon="12.8072533"><ele>4.0</ele><time>2026-04-25T16:32:00.107Z</time></trkpt><trkpt lat="41.4157511" lon="12.8070516"><ele>4.0</ele><time>2026-04-25T16:32:01.108Z</time></trkpt><trkpt lat="41.4157818" lon="12.8068489"><ele>4.0</ele><time>2026-04-25T16:32:02.108Z</time></trkpt><trkpt lat="41.4158182" lon="12.8066543"><ele>3.0</ele><time>2026-04-25T16:32:03.108Z</time></trkpt><trkpt lat="41.4159166" lon="12.80625"><ele>2.0</ele><time>2026-04-25T16:32:05.108Z</time></trkpt><trkpt lat="41.4160229" lon="12.8058845"><ele>2.0</ele><time>2026-04-25T16:32:07.108Z</time></trkpt><trkpt lat="41.4160755" lon="12.8057013"><ele>2.0</ele><time>2026-04-25T16:32:08.107Z</time></trkpt><trkpt lat="41.4161783" lon="12.8053418"><ele>2.0</ele><time>2026-04-25T16:32:10.108Z</time></trkpt><trkpt lat="41.416233" lon="12.8051526"><ele>2.0</ele><time>2026-04-25T16:32:11.108Z</time></trkpt><trkpt lat="41.4162781" lon="12.8049806"><ele>2.0</ele><time>2026-04-25T16:32:12.108Z</time></trkpt><trkpt lat="41.4163267" lon="12.8048106"><ele>2.0</ele><time>2026-04-25T16:32:13.108Z</time></trkpt><trkpt lat="41.4163747" lon="12.8046404"><ele>2.0</ele><time>2026-04-25T16:32:14.108Z</time></trkpt><trkpt lat="41.4164607" lon="12.8043134"><ele>1.5</ele><time>2026-04-25T16:32:16.108Z</time></trkpt><trkpt lat="41.4164978" lon="12.8041497"><ele>1.0</ele><time>2026-04-25T16:32:17.107Z</time></trkpt><trkpt lat="41.4165459" lon="12.8039851"><ele>0.5</ele><time>2026-04-25T16:32:18.108Z</time></trkpt><trkpt lat="41.4165853" lon="12.8038334"><ele>0.0</ele><time>2026-04-25T16:32:19.108Z</time></trkpt><trkpt lat="41.4166804" lon="12.8035004"><ele>0.25</ele><time>2026-04-25T16:32:21.108Z</time></trkpt><trkpt lat="41.416734" lon="12.8033397"><ele>0.5</ele><time>2026-04-25T16:32:22.108Z</time></trkpt><trkpt lat="41.4167848" lon="12.8031848"><ele>0.75</ele><time>2026-04-25T16:32:23.108Z</time></trkpt><trkpt lat="41.416831" lon="12.8030388"><ele>1.0</ele><time>2026-04-25T16:32:24.108Z</time></trkpt><trkpt lat="41.4168791" lon="12.8028961"><ele>1.0</ele><time>2026-04-25T16:32:25.108Z</time></trkpt><trkpt lat="41.4169283" lon="12.8027598"><ele>1.0</ele><time>2026-04-25T16:32:26.108Z</time></trkpt><trkpt lat="41.4169895" lon="12.8026335"><ele>1.0</ele><time>2026-04-25T16:32:27.108Z</time></trkpt><trkpt lat="41.4171261" lon="12.802418"><ele>1.0</ele><time>2026-04-25T16:32:29.108Z</time></trkpt><trkpt lat="41.417197" lon="12.8023212"><ele>1.0</ele><time>2026-04-25T16:32:30.108Z</time></trkpt><trkpt lat="41.4172815" lon="12.8022336"><ele>1.0</ele><time>2026-04-25T16:32:31.108Z</time></trkpt><trkpt lat="41.4173649" lon="12.802157"><ele>1.0</ele><time>2026-04-25T16:32:32.108Z</time></trkpt><trkpt lat="41.417443" lon="12.8020918"><ele>1.0</ele><time>2026-04-25T16:32:33.107Z</time></trkpt><trkpt lat="41.4175202" lon="12.8020251"><ele>1.0</ele><time>2026-04-25T16:32:34.108Z</time></trkpt><trkpt lat="41.4176456" lon="12.801865"><ele>1.0</ele><time>2026-04-25T16:32:36.107Z</time></trkpt><trkpt lat="41.4177257" lon="12.8016498"><ele>1.0</ele><time>2026-04-25T16:32:38.107Z</time></trkpt><trkpt lat="41.4177389" lon="12.801504"><ele>1.0</ele><time>2026-04-25T16:32:39.108Z</time></trkpt><trkpt lat="41.4177493" lon="12.8013256"><ele>1.0</ele><time>2026-04-25T16:32:40.108Z</time></trkpt><trkpt lat="41.417763" lon="12.8011079"><ele>1.3333333333333333</ele><time>2026-04-25T16:32:41.108Z</time></trkpt><trkpt lat="41.4177781" lon="12.8008678"><ele>1.6666666666666665</ele><time>2026-04-25T16:32:42.108Z</time></trkpt><trkpt lat="41.4178033" lon="12.8006149"><ele>2.0</ele><time>2026-04-25T16:32:43.108Z</time></trkpt><trkpt lat="41.4178204" lon="12.8003704"><ele>1.5</ele><time>2026-04-25T16:32:44.108Z</time></trkpt><trkpt lat="41.4178409" lon="12.8001296"><ele>1.0</ele><time>2026-04-25T16:32:45.108Z</time></trkpt><trkpt lat="41.4178725" lon="12.7996433"><ele>1.0</ele><time>2026-04-25T16:32:47.108Z</time></trkpt><trkpt lat="41.4179125" lon="12.7994001"><ele>1.0</ele><time>2026-04-25T16:32:48.108Z</time></trkpt><trkpt lat="41.4179625" lon="12.7991616"><ele>1.0</ele><time>2026-04-25T16:32:49.107Z</time></trkpt><trkpt lat="41.4180648" lon="12.7987178"><ele>1.0</ele><time>2026-04-25T16:32:51.108Z</time></trkpt><trkpt lat="41.4181582" lon="12.7982706"><ele>1.0</ele><time>2026-04-25T16:32:53.108Z</time></trkpt><trkpt lat="41.4182081" lon="12.798051"><ele>0.5</ele><time>2026-04-25T16:32:54.108Z</time></trkpt><trkpt lat="41.4183114" lon="12.7976104"><ele>0.0</ele><time>2026-04-25T16:32:56.108Z</time></trkpt><trkpt lat="41.4183649" lon="12.7973905"><ele>0.0</ele><time>2026-04-25T16:32:57.108Z</time></trkpt><trkpt lat="41.418415" lon="12.7971672"><ele>0.0</ele><time>2026-04-25T16:32:58.108Z</time></trkpt><trkpt lat="41.4184637" lon="12.7969348"><ele>0.0</ele><time>2026-04-25T16:32:59.108Z</time></trkpt><trkpt lat="41.4185161" lon="12.7967107"><ele>0.3333333333333333</ele><time>2026-04-25T16:33:00.108Z</time></trkpt><trkpt lat="41.4185717" lon="12.7964782"><ele>0.6666666666666666</ele><time>2026-04-25T16:33:01.108Z</time></trkpt><trkpt lat="41.4186212" lon="12.7962412"><ele>1.0</ele><time>2026-04-25T16:33:02.108Z</time></trkpt><trkpt lat="41.4186844" lon="12.7960006"><ele>1.0</ele><time>2026-04-25T16:33:03.108Z</time></trkpt><trkpt lat="41.4187459" lon="12.7957594"><ele>1.0</ele><time>2026-04-25T16:33:04.108Z</time></trkpt><trkpt lat="41.4188013" lon="12.7955024"><ele>1.0</ele><time>2026-04-25T16:33:05.108Z</time></trkpt><trkpt lat="41.4188552" lon="12.795268"><ele>0.6666666666666666</ele><time>2026-04-25T16:33:06.108Z</time></trkpt><trkpt lat="41.4189133" lon="12.7950309"><ele>0.3333333333333333</ele><time>2026-04-25T16:33:07.108Z</time></trkpt><trkpt lat="41.4189564" lon="12.7948279"><ele>0.0</ele><time>2026-04-25T16:33:08.108Z</time></trkpt><trkpt lat="41.4190035" lon="12.7946193"><ele>0.0</ele><time>2026-04-25T16:33:09.108Z</time></trkpt><trkpt lat="41.4190534" lon="12.7944283"><ele>0.0</ele><time>2026-04-25T16:33:10.108Z</time></trkpt><trkpt lat="41.4190909" lon="12.7942502"><ele>0.0</ele><time>2026-04-25T16:33:11.108Z</time></trkpt><trkpt lat="41.4191248" lon="12.7940604"><ele>0.0</ele><time>2026-04-25T16:33:12.108Z</time></trkpt><trkpt lat="41.4191641" lon="12.7938813"><ele>0.25</ele><time>2026-04-25T16:33:13.108Z</time></trkpt><trkpt lat="41.4191977" lon="12.7937256"><ele>0.5</ele><time>2026-04-25T16:33:14.107Z</time></trkpt><trkpt lat="41.4192275" lon="12.7935768"><ele>0.75</ele><time>2026-04-25T16:33:15.108Z</time></trkpt><trkpt lat="41.4192495" lon="12.7934306"><ele>1.0</ele><time>2026-04-25T16:33:16.108Z</time></trkpt><trkpt lat="41.4192687" lon="12.7932872"><ele>1.0</ele><time>2026-04-25T16:33:17.107Z</time></trkpt><trkpt lat="41.4192816" lon="12.793138"><ele>1.0</ele><time>2026-04-25T16:33:18.108Z</time></trkpt><trkpt lat="41.419303" lon="12.7929816"><ele>1.0</ele><time>2026-04-25T16:33:19.108Z</time></trkpt><trkpt lat="41.419328" lon="12.7928202"><ele>1.0</ele><time>2026-04-25T16:33:20.108Z</time></trkpt><trkpt lat="41.419349" lon="12.7926498"><ele>1.0</ele><time>2026-04-25T16:33:21.108Z</time></trkpt><trkpt lat="41.419373" lon="12.7924717"><ele>1.0</ele><time>2026-04-25T16:33:22.108Z</time></trkpt><trkpt lat="41.4194104" lon="12.7922696"><ele>1.0</ele><time>2026-04-25T16:33:23.108Z</time></trkpt><trkpt lat="41.4194401" lon="12.7920611"><ele>0.3333333333333333</ele><time>2026-04-25T16:33:24.108Z</time></trkpt><trkpt lat="41.4194768" lon="12.7918356"><ele>-0.3333333333333333</ele><time>2026-04-25T16:33:25.107Z</time></trkpt><trkpt lat="41.419509" lon="12.791617"><ele>-1.0</ele><time>2026-04-25T16:33:26.108Z</time></trkpt><trkpt lat="41.419535" lon="12.79141"><ele>-1.0</ele><time>2026-04-25T16:33:27.108Z</time></trkpt><trkpt lat="41.4195593" lon="12.7912156"><ele>-1.0</ele><time>2026-04-25T16:33:28.108Z</time></trkpt><trkpt lat="41.4195795" lon="12.7910334"><ele>-1.0</ele><time>2026-04-25T16:33:29.108Z</time></trkpt><trkpt lat="41.4195963" lon="12.7908622"><ele>-1.0</ele><time>2026-04-25T16:33:30.108Z</time></trkpt><trkpt lat="41.4196178" lon="12.7907104"><ele>-0.6000000000000001</ele><time>2026-04-25T16:33:31.108Z</time></trkpt><trkpt lat="41.4196322" lon="12.7905836"><ele>-0.20000000000000007</ele><time>2026-04-25T16:33:32.108Z</time></trkpt><trkpt lat="41.4196448" lon="12.7904863"><ele>0.20000000000000007</ele><time>2026-04-25T16:33:33.108Z</time></trkpt><trkpt lat="41.4196729" lon="12.7903862"><ele>0.6000000000000001</ele><time>2026-04-25T16:33:35.108Z</time></trkpt><trkpt lat="41.419807" lon="12.7904507"><ele>1.0</ele><time>2026-04-25T16:33:38.108Z</time></trkpt><trkpt lat="41.419873" lon="12.7904837"><ele>0.9999999999999999</ele><time>2026-04-25T16:33:39.108Z</time></trkpt><trkpt lat="41.4199463" lon="12.790512"><ele>1.0</ele><time>2026-04-25T16:33:40.108Z</time></trkpt><trkpt lat="41.4200214" lon="12.7905383"><ele>1.0</ele><time>2026-04-25T16:33:41.108Z</time></trkpt><trkpt lat="41.4201029" lon="12.7905672"><ele>1.0</ele><time>2026-04-25T16:33:42.108Z</time></trkpt><trkpt lat="41.420186" lon="12.7905991"><ele>0.9999999999999999</ele><time>2026-04-25T16:33:43.108Z</time></trkpt><trkpt lat="41.4202805" lon="12.7906301"><ele>1.0</ele><time>2026-04-25T16:33:44.108Z</time></trkpt><trkpt lat="41.4203754" lon="12.7906639"><ele>1.0</ele><time>2026-04-25T16:33:45.107Z</time></trkpt><trkpt lat="41.4204769" lon="12.7907017"><ele>1.0</ele><time>2026-04-25T16:33:46.108Z</time></trkpt><trkpt lat="41.4205743" lon="12.7907378"><ele>1.0</ele><time>2026-04-25T16:33:47.108Z</time></trkpt><trkpt lat="41.4206678" lon="12.7907643"><ele>1.0</ele><time>2026-04-25T16:33:48.108Z</time></trkpt><trkpt lat="41.4207513" lon="12.790784"><ele>1.0</ele><time>2026-04-25T16:33:49.108Z</time></trkpt><trkpt lat="41.4208329" lon="12.7908083"><ele>1.1666666666666665</ele><time>2026-04-25T16:33:50.107Z</time></trkpt><trkpt lat="41.420894" lon="12.7908336"><ele>1.3333333333333333</ele><time>2026-04-25T16:33:51.107Z</time></trkpt><trkpt lat="41.4209974" lon="12.7908695"><ele>1.5</ele><time>2026-04-25T16:33:53.108Z</time></trkpt><trkpt lat="41.4210678" lon="12.7908008"><ele>1.6666666666666665</ele><time>2026-04-25T16:33:56.108Z</time></trkpt><trkpt lat="41.4210674" lon="12.7906639"><ele>1.8333333333333333</ele><time>2026-04-25T16:33:58.108Z</time></trkpt><trkpt lat="41.4210597" lon="12.7905745"><ele>2.0</ele><time>2026-04-25T16:33:59.107Z</time></trkpt><trkpt lat="41.4210513" lon="12.7904713"><ele>2.0</ele><time>2026-04-25T16:34:00.108Z</time></trkpt><trkpt lat="41.4210475" lon="12.7903498"><ele>2.0</ele><time>2026-04-25T16:34:01.108Z</time></trkpt><trkpt lat="41.4210302" lon="12.790104"><ele>2.0</ele><time>2026-04-25T16:34:03.108Z</time></trkpt><trkpt lat="41.4210263" lon="12.7898532"><ele>1.6666666666666665</ele><time>2026-04-25T16:34:05.108Z</time></trkpt><trkpt lat="41.4210272" lon="12.7896059"><ele>1.3333333333333333</ele><time>2026-04-25T16:34:07.107Z</time></trkpt><trkpt lat="41.4210089" lon="12.789343"><ele>1.0</ele><time>2026-04-25T16:34:09.108Z</time></trkpt><trkpt lat="41.4209948" lon="12.7890933"><ele>1.0</ele><time>2026-04-25T16:34:11.108Z</time></trkpt><trkpt lat="41.4209854" lon="12.7889696"><ele>1.0</ele><time>2026-04-25T16:34:12.108Z</time></trkpt><trkpt lat="41.4209775" lon="12.788843"><ele>1.0</ele><time>2026-04-25T16:34:13.107Z</time></trkpt><trkpt lat="41.4209687" lon="12.7886208"><ele>1.0</ele><time>2026-04-25T16:34:15.108Z</time></trkpt><trkpt lat="41.4209788" lon="12.7885299"><ele>1.0</ele><time>2026-04-25T16:34:16.107Z</time></trkpt><trkpt lat="41.4209954" lon="12.7884445"><ele>0.9999999999999999</ele><time>2026-04-25T16:34:17.107Z</time></trkpt><trkpt lat="41.42103" lon="12.7882977"><ele>1.0</ele><time>2026-04-25T16:34:19.107Z</time></trkpt><trkpt lat="41.4210591" lon="12.7881905"><ele>1.0</ele><time>2026-04-25T16:34:21.107Z</time></trkpt><trkpt lat="41.4211003" lon="12.7881028"><ele>1.0</ele><time>2026-04-25T16:34:24.108Z</time></trkpt><trkpt lat="41.4211803" lon="12.7880638"><ele>0.9999999999999999</ele><time>2026-04-25T16:34:27.108Z</time></trkpt><trkpt lat="41.4212431" lon="12.7881086"><ele>1.0</ele><time>2026-04-25T16:34:28.108Z</time></trkpt><trkpt lat="41.4213539" lon="12.7881501"><ele>0.75</ele><time>2026-04-25T16:34:30.108Z</time></trkpt><trkpt lat="41.4214679" lon="12.7881973"><ele>0.5</ele><time>2026-04-25T16:34:32.108Z</time></trkpt><trkpt lat="41.4215857" lon="12.7882406"><ele>0.25</ele><time>2026-04-25T16:34:34.108Z</time></trkpt><trkpt lat="41.4216917" lon="12.7882695"><ele>0.0</ele><time>2026-04-25T16:34:36.107Z</time></trkpt><trkpt lat="41.421801" lon="12.7883047"><ele>0.0</ele><time>2026-04-25T16:34:38.108Z</time></trkpt><trkpt lat="41.4219158" lon="12.7883449"><ele>0.0</ele><time>2026-04-25T16:34:40.108Z</time></trkpt><trkpt lat="41.4220265" lon="12.7883847"><ele>0.0</ele><time>2026-04-25T16:34:42.107Z</time></trkpt><trkpt lat="41.422147" lon="12.788418"><ele>0.0</ele><time>2026-04-25T16:34:44.108Z</time></trkpt><trkpt lat="41.4222668" lon="12.7884629"><ele>0.0</ele><time>2026-04-25T16:34:46.108Z</time></trkpt><trkpt lat="41.4223871" lon="12.7884963"><ele>0.0</ele><time>2026-04-25T16:34:48.108Z</time></trkpt><trkpt lat="41.4224522" lon="12.7885175"><ele>0.0</ele><time>2026-04-25T16:34:49.108Z</time></trkpt><trkpt lat="41.4225147" lon="12.7885391"><ele>0.0</ele><time>2026-04-25T16:34:50.108Z</time></trkpt><trkpt lat="41.4225767" lon="12.7885595"><ele>0.0</ele><time>2026-04-25T16:34:51.108Z</time></trkpt><trkpt lat="41.4227583" lon="12.7886031"><ele>0.0</ele><time>2026-04-25T16:34:54.108Z</time></trkpt><trkpt lat="41.422872" lon="12.788641"><ele>0.0</ele><time>2026-04-25T16:34:56.108Z</time></trkpt><trkpt lat="41.422977" lon="12.7886626"><ele>0.0</ele><time>2026-04-25T16:34:58.108Z</time></trkpt><trkpt lat="41.4230765" lon="12.7886259"><ele>0.0</ele><time>2026-04-25T16:35:00.108Z</time></trkpt><trkpt lat="41.4231713" lon="12.7885428"><ele>0.0</ele><time>2026-04-25T16:35:02.108Z</time></trkpt><trkpt lat="41.4233025" lon="12.7884182"><ele>0.0</ele><time>2026-04-25T16:35:04.108Z</time></trkpt><trkpt lat="41.4233693" lon="12.7883563"><ele>0.0</ele><time>2026-04-25T16:35:05.108Z</time></trkpt><trkpt lat="41.4234407" lon="12.7882876"><ele>0.0</ele><time>2026-04-25T16:35:06.108Z</time></trkpt><trkpt lat="41.4235093" lon="12.7882232"><ele>0.0</ele><time>2026-04-25T16:35:07.107Z</time></trkpt><trkpt lat="41.4235786" lon="12.7881555"><ele>0.0</ele><time>2026-04-25T16:35:08.108Z</time></trkpt><trkpt lat="41.423719" lon="12.7880234"><ele>0.0</ele><time>2026-04-25T16:35:10.108Z</time></trkpt><trkpt lat="41.4237893" lon="12.7879591"><ele>0.0</ele><time>2026-04-25T16:35:11.108Z</time></trkpt><trkpt lat="41.4239376" lon="12.7878223"><ele>0.0</ele><time>2026-04-25T16:35:13.108Z</time></trkpt><trkpt lat="41.4240035" lon="12.787756"><ele>0.0</ele><time>2026-04-25T16:35:14.108Z</time></trkpt><trkpt lat="41.4240741" lon="12.7876902"><ele>0.0</ele><time>2026-04-25T16:35:15.108Z</time></trkpt><trkpt lat="41.4242237" lon="12.7875462"><ele>0.2</ele><time>2026-04-25T16:35:17.108Z</time></trkpt><trkpt lat="41.4242978" lon="12.787479"><ele>0.4</ele><time>2026-04-25T16:35:18.108Z</time></trkpt><trkpt lat="41.4244413" lon="12.7873393"><ele>0.6000000000000001</ele><time>2026-04-25T16:35:20.108Z</time></trkpt><trkpt lat="41.4245145" lon="12.7872688"><ele>0.8</ele><time>2026-04-25T16:35:21.108Z</time></trkpt><trkpt lat="41.4245848" lon="12.787201"><ele>1.0</ele><time>2026-04-25T16:35:22.107Z</time></trkpt><trkpt lat="41.4246552" lon="12.7871326"><ele>1.0</ele><time>2026-04-25T16:35:23.108Z</time></trkpt><trkpt lat="41.4247237" lon="12.7870631"><ele>1.0</ele><time>2026-04-25T16:35:24.107Z</time></trkpt><trkpt lat="41.4247943" lon="12.7869842"><ele>1.0</ele><time>2026-04-25T16:35:25.107Z</time></trkpt><trkpt lat="41.4248678" lon="12.7869177"><ele>1.0</ele><time>2026-04-25T16:35:26.108Z</time></trkpt><trkpt lat="41.4249443" lon="12.7868598"><ele>1.0</ele><time>2026-04-25T16:35:27.108Z</time></trkpt><trkpt lat="41.4250842" lon="12.7867084"><ele>1.0</ele><time>2026-04-25T16:35:29.108Z</time></trkpt><trkpt lat="41.4252272" lon="12.7865489"><ele>1.0</ele><time>2026-04-25T16:35:31.108Z</time></trkpt><trkpt lat="41.4253038" lon="12.7864708"><ele>1.0</ele><time>2026-04-25T16:35:32.107Z</time></trkpt><trkpt lat="41.4253824" lon="12.7864088"><ele>1.0</ele><time>2026-04-25T16:35:33.108Z</time></trkpt><trkpt lat="41.4255494" lon="12.7862752"><ele>1.0</ele><time>2026-04-25T16:35:35.108Z</time></trkpt><trkpt lat="41.4256376" lon="12.7862075"><ele>1.0</ele><time>2026-04-25T16:35:36.107Z</time></trkpt><trkpt lat="41.4257336" lon="12.7861204"><ele>1.0</ele><time>2026-04-25T16:35:37.108Z</time></trkpt><trkpt lat="41.4258255" lon="12.7860331"><ele>1.0</ele><time>2026-04-25T16:35:38.107Z</time></trkpt><trkpt lat="41.4259936" lon="12.7858797"><ele>0.8</ele><time>2026-04-25T16:35:40.107Z</time></trkpt><trkpt lat="41.4260619" lon="12.7858112"><ele>0.6000000000000001</ele><time>2026-04-25T16:35:41.108Z</time></trkpt><trkpt lat="41.4261662" lon="12.7856973"><ele>0.4</ele><time>2026-04-25T16:35:43.108Z</time></trkpt><trkpt lat="41.4262355" lon="12.7856196"><ele>0.2</ele><time>2026-04-25T16:35:45.108Z</time></trkpt><trkpt lat="41.4262999" lon="12.7855958"><ele>0.0</ele><time>2026-04-25T16:35:47.108Z</time></trkpt><trkpt lat="41.4263684" lon="12.7856291"><ele>0.0</ele><time>2026-04-25T16:35:50.107Z</time></trkpt><trkpt lat="41.4264222" lon="12.7855825"><ele>0.0</ele><time>2026-04-25T16:35:52.108Z</time></trkpt><trkpt lat="41.4265365" lon="12.7855129"><ele>0.0</ele><time>2026-04-25T16:35:54.107Z</time></trkpt><trkpt lat="41.4265962" lon="12.7854546"><ele>0.0</ele><time>2026-04-25T16:35:55.108Z</time></trkpt><trkpt lat="41.4266664" lon="12.7853839"><ele>0.0</ele><time>2026-04-25T16:35:56.107Z</time></trkpt><trkpt lat="41.4268249" lon="12.7852364"><ele>0.0</ele><time>2026-04-25T16:35:58.108Z</time></trkpt><trkpt lat="41.4269059" lon="12.7851583"><ele>0.0</ele><time>2026-04-25T16:35:59.108Z</time></trkpt><trkpt lat="41.4269903" lon="12.7850793"><ele>0.0</ele><time>2026-04-25T16:36:00.107Z</time></trkpt><trkpt lat="41.4270706" lon="12.7850009"><ele>0.0</ele><time>2026-04-25T16:36:01.108Z</time></trkpt><trkpt lat="41.4271561" lon="12.7849243"><ele>0.0</ele><time>2026-04-25T16:36:02.108Z</time></trkpt><trkpt lat="41.4272386" lon="12.7848472"><ele>0.4</ele><time>2026-04-25T16:36:03.108Z</time></trkpt><trkpt lat="41.4273197" lon="12.7847698"><ele>0.8</ele><time>2026-04-25T16:36:04.108Z</time></trkpt><trkpt lat="41.4273988" lon="12.7846894"><ele>1.2000000000000002</ele><time>2026-04-25T16:36:05.107Z</time></trkpt><trkpt lat="41.4274729" lon="12.7846222"><ele>1.6</ele><time>2026-04-25T16:36:06.108Z</time></trkpt><trkpt lat="41.4275388" lon="12.7845568"><ele>2.0</ele><time>2026-04-25T16:36:07.108Z</time></trkpt><trkpt lat="41.4276082" lon="12.7844904"><ele>1.9999999999999998</ele><time>2026-04-25T16:36:08.108Z</time></trkpt><trkpt lat="41.4276683" lon="12.7844309"><ele>2.0</ele><time>2026-04-25T16:36:09.108Z</time></trkpt><trkpt lat="41.4277375" lon="12.7843688"><ele>2.0</ele><time>2026-04-25T16:36:10.108Z</time></trkpt><trkpt lat="41.4278057" lon="12.7843081"><ele>2.0</ele><time>2026-04-25T16:36:11.108Z</time></trkpt><trkpt lat="41.4278763" lon="12.7842391"><ele>1.9999999999999998</ele><time>2026-04-25T16:36:12.108Z</time></trkpt><trkpt lat="41.4279482" lon="12.7841701"><ele>2.0</ele><time>2026-04-25T16:36:13.108Z</time></trkpt><trkpt lat="41.4280205" lon="12.7840983"><ele>1.8</ele><time>2026-04-25T16:36:14.108Z</time></trkpt><trkpt lat="41.4281044" lon="12.7840179"><ele>1.6</ele><time>2026-04-25T16:36:15.108Z</time></trkpt><trkpt lat="41.4281843" lon="12.7839401"><ele>1.4000000000000001</ele><time>2026-04-25T16:36:16.108Z</time></trkpt><trkpt lat="41.4282672" lon="12.7838642"><ele>1.2000000000000002</ele><time>2026-04-25T16:36:17.108Z</time></trkpt><trkpt lat="41.4283467" lon="12.7837868"><ele>1.0</ele><time>2026-04-25T16:36:18.108Z</time></trkpt><trkpt lat="41.4284294" lon="12.7837168"><ele>1.0</ele><time>2026-04-25T16:36:19.108Z</time></trkpt><trkpt lat="41.4285922" lon="12.7835585"><ele>1.0</ele><time>2026-04-25T16:36:21.107Z</time></trkpt><trkpt lat="41.428679" lon="12.7834838"><ele>1.0</ele><time>2026-04-25T16:36:22.108Z</time></trkpt><trkpt lat="41.428841" lon="12.7833165"><ele>1.0</ele><time>2026-04-25T16:36:24.108Z</time></trkpt><trkpt lat="41.4289195" lon="12.7832322"><ele>1.0</ele><time>2026-04-25T16:36:25.107Z</time></trkpt><trkpt lat="41.4289998" lon="12.7831553"><ele>1.0</ele><time>2026-04-25T16:36:26.108Z</time></trkpt><trkpt lat="41.4290844" lon="12.7830779"><ele>1.0</ele><time>2026-04-25T16:36:27.107Z</time></trkpt><trkpt lat="41.4291698" lon="12.7829972"><ele>1.0</ele><time>2026-04-25T16:36:28.108Z</time></trkpt><trkpt lat="41.4293268" lon="12.7828459"><ele>1.0</ele><time>2026-04-25T16:36:30.108Z</time></trkpt><trkpt lat="41.4293913" lon="12.7827826"><ele>1.0</ele><time>2026-04-25T16:36:31.108Z</time></trkpt><trkpt lat="41.429455" lon="12.7827162"><ele>1.0</ele><time>2026-04-25T16:36:32.107Z</time></trkpt><trkpt lat="41.4295944" lon="12.7825785"><ele>1.0</ele><time>2026-04-25T16:36:34.108Z</time></trkpt><trkpt lat="41.4297388" lon="12.7824373"><ele>1.2000000000000002</ele><time>2026-04-25T16:36:36.108Z</time></trkpt><trkpt lat="41.4298173" lon="12.7823648"><ele>1.4000000000000001</ele><time>2026-04-25T16:36:37.107Z</time></trkpt><trkpt lat="41.4298939" lon="12.7822924"><ele>1.6</ele><time>2026-04-25T16:36:38.107Z</time></trkpt><trkpt lat="41.4300304" lon="12.7821538"><ele>1.8</ele><time>2026-04-25T16:36:40.107Z</time></trkpt><trkpt lat="41.4300991" lon="12.7820939"><ele>2.0</ele><time>2026-04-25T16:36:41.108Z</time></trkpt><trkpt lat="41.4301605" lon="12.7820306"><ele>1.9999999999999998</ele><time>2026-04-25T16:36:42.108Z</time></trkpt><trkpt lat="41.4302167" lon="12.7819888"><ele>2.0</ele><time>2026-04-25T16:36:43.108Z</time></trkpt><trkpt lat="41.4303" lon="12.7819288"><ele>2.0</ele><time>2026-04-25T16:36:45.108Z</time></trkpt><trkpt lat="41.4303927" lon="12.7819213"><ele>2.0</ele><time>2026-04-25T16:36:47.108Z</time></trkpt><trkpt lat="41.4305185" lon="12.7819497"><ele>1.9999999999999998</ele><time>2026-04-25T16:36:49.108Z</time></trkpt><trkpt lat="41.4305857" lon="12.7819514"><ele>2.0</ele><time>2026-04-25T16:36:50.108Z</time></trkpt><trkpt lat="41.4306711" lon="12.7819885"><ele>2.2</ele><time>2026-04-25T16:36:51.108Z</time></trkpt><trkpt lat="41.4307646" lon="12.7820197"><ele>2.4000000000000004</ele><time>2026-04-25T16:36:52.108Z</time></trkpt><trkpt lat="41.4309231" lon="12.7820746"><ele>2.5999999999999996</ele><time>2026-04-25T16:36:54.107Z</time></trkpt><trkpt lat="41.4310086" lon="12.7821045"><ele>2.8</ele><time>2026-04-25T16:36:55.108Z</time></trkpt><trkpt lat="41.4310932" lon="12.782132"><ele>3.0</ele><time>2026-04-25T16:36:56.108Z</time></trkpt><trkpt lat="41.4312519" lon="12.7821902"><ele>3.0</ele><time>2026-04-25T16:36:58.108Z</time></trkpt><trkpt lat="41.4313233" lon="12.7822144"><ele>3.0</ele><time>2026-04-25T16:36:59.108Z</time></trkpt><trkpt lat="41.4314171" lon="12.7822382"><ele>3.0</ele><time>2026-04-25T16:37:00.108Z</time></trkpt><trkpt lat="41.4314923" lon="12.7822526"><ele>3.0</ele><time>2026-04-25T16:37:01.108Z</time></trkpt><trkpt lat="41.4315779" lon="12.7822775"><ele>3.0</ele><time>2026-04-25T16:37:02.108Z</time></trkpt><trkpt lat="41.4316613" lon="12.7823031"><ele>3.0</ele><time>2026-04-25T16:37:03.108Z</time></trkpt><trkpt lat="41.4317391" lon="12.7823234"><ele>3.0</ele><time>2026-04-25T16:37:04.107Z</time></trkpt><trkpt lat="41.4318195" lon="12.7823593"><ele>3.0</ele><time>2026-04-25T16:37:05.108Z</time></trkpt><trkpt lat="41.4319052" lon="12.7823718"><ele>3.0</ele><time>2026-04-25T16:37:06.107Z</time></trkpt><trkpt lat="41.4320551" lon="12.7824224"><ele>3.0</ele><time>2026-04-25T16:37:08.108Z</time></trkpt><trkpt lat="41.4321221" lon="12.7824445"><ele>3.0</ele><time>2026-04-25T16:37:09.108Z</time></trkpt><trkpt lat="41.4321928" lon="12.782476"><ele>3.25</ele><time>2026-04-25T16:37:10.108Z</time></trkpt><trkpt lat="41.4322642" lon="12.782504"><ele>3.5</ele><time>2026-04-25T16:37:11.108Z</time></trkpt><trkpt lat="41.4324309" lon="12.7825642"><ele>3.75</ele><time>2026-04-25T16:37:13.107Z</time></trkpt><trkpt lat="41.4325085" lon="12.7825924"><ele>4.0</ele><time>2026-04-25T16:37:14.108Z</time></trkpt><trkpt lat="41.4326954" lon="12.7826505"><ele>3.9999999999999996</ele><time>2026-04-25T16:37:16.108Z</time></trkpt><trkpt lat="41.4327864" lon="12.7826697"><ele>4.0</ele><time>2026-04-25T16:37:17.108Z</time></trkpt><trkpt lat="41.4328735" lon="12.7827028"><ele>4.0</ele><time>2026-04-25T16:37:18.108Z</time></trkpt><trkpt lat="41.4329605" lon="12.7827433"><ele>4.0</ele><time>2026-04-25T16:37:19.108Z</time></trkpt><trkpt lat="41.433044" lon="12.7827624"><ele>3.9999999999999996</ele><time>2026-04-25T16:37:20.108Z</time></trkpt><trkpt lat="41.4331243" lon="12.7827904"><ele>4.0</ele><time>2026-04-25T16:37:21.108Z</time></trkpt><trkpt lat="41.433193" lon="12.7828102"><ele>4.6</ele><time>2026-04-25T16:37:22.108Z</time></trkpt><trkpt lat="41.4333252" lon="12.7828354"><ele>5.2</ele><time>2026-04-25T16:37:24.108Z</time></trkpt><trkpt lat="41.4333934" lon="12.7828887"><ele>5.799999999999999</ele><time>2026-04-25T16:37:26.107Z</time></trkpt><trkpt lat="41.4332941" lon="12.7828045"><ele>6.3999999999999995</ele><time>2026-04-25T16:37:31.108Z</time></trkpt><trkpt lat="41.433226" lon="12.7827968"><ele>7.0</ele><time>2026-04-25T16:37:32.108Z</time></trkpt><trkpt lat="41.4331596" lon="12.7827737"><ele>7.0</ele><time>2026-04-25T16:37:33.108Z</time></trkpt><trkpt lat="41.4330851" lon="12.7827476"><ele>7.0</ele><time>2026-04-25T16:37:34.107Z</time></trkpt><trkpt lat="41.4329055" lon="12.7826753"><ele>7.0</ele><time>2026-04-25T16:37:36.108Z</time></trkpt><trkpt lat="41.4327021" lon="12.7826098"><ele>6.3999999999999995</ele><time>2026-04-25T16:37:38.108Z</time></trkpt><trkpt lat="41.4326001" lon="12.7825729"><ele>5.799999999999999</ele><time>2026-04-25T16:37:39.108Z</time></trkpt><trkpt lat="41.4324929" lon="12.7825334"><ele>5.2</ele><time>2026-04-25T16:37:40.108Z</time></trkpt><trkpt lat="41.4323901" lon="12.782498"><ele>4.6</ele><time>2026-04-25T16:37:41.108Z</time></trkpt><trkpt lat="41.4322917" lon="12.7824725"><ele>4.0</ele><time>2026-04-25T16:37:42.108Z</time></trkpt><trkpt lat="41.4321861" lon="12.7824383"><ele>3.75</ele><time>2026-04-25T16:37:43.108Z</time></trkpt><trkpt lat="41.4320791" lon="12.7824027"><ele>3.5</ele><time>2026-04-25T16:37:44.108Z</time></trkpt><trkpt lat="41.4318681" lon="12.7823399"><ele>3.25</ele><time>2026-04-25T16:37:46.108Z</time></trkpt><trkpt lat="41.4317623" lon="12.7823104"><ele>3.0</ele><time>2026-04-25T16:37:47.108Z</time></trkpt><trkpt lat="41.4315526" lon="12.782241"><ele>3.0</ele><time>2026-04-25T16:37:49.108Z</time></trkpt><trkpt lat="41.4313484" lon="12.7821819"><ele>3.0</ele><time>2026-04-25T16:37:51.108Z</time></trkpt><trkpt lat="41.4312487" lon="12.7821556"><ele>3.0</ele><time>2026-04-25T16:37:52.108Z</time></trkpt><trkpt lat="41.4311601" lon="12.7821262"><ele>3.0</ele><time>2026-04-25T16:37:53.108Z</time></trkpt><trkpt lat="41.4310612" lon="12.7820905"><ele>3.0</ele><time>2026-04-25T16:37:54.108Z</time></trkpt><trkpt lat="41.4309784" lon="12.7820582"><ele>3.0</ele><time>2026-04-25T16:37:55.107Z</time></trkpt><trkpt lat="41.4308893" lon="12.7820327"><ele>3.0</ele><time>2026-04-25T16:37:56.107Z</time></trkpt><trkpt lat="41.4308016" lon="12.7820095"><ele>3.0</ele><time>2026-04-25T16:37:57.108Z</time></trkpt><trkpt lat="41.430716" lon="12.7819886"><ele>3.0</ele><time>2026-04-25T16:37:58.108Z</time></trkpt><trkpt lat="41.4306464" lon="12.7819773"><ele>3.0</ele><time>2026-04-25T16:37:59.108Z</time></trkpt><trkpt lat="41.4305871" lon="12.7819469"><ele>3.0</ele><time>2026-04-25T16:38:00.107Z</time></trkpt><trkpt lat="41.430512" lon="12.7819204"><ele>3.0</ele><time>2026-04-25T16:38:01.107Z</time></trkpt><trkpt lat="41.4304323" lon="12.7819039"><ele>3.0</ele><time>2026-04-25T16:38:02.108Z</time></trkpt><trkpt lat="41.4302953" lon="12.7819199"><ele>3.0</ele><time>2026-04-25T16:38:04.108Z</time></trkpt><trkpt lat="41.4301562" lon="12.7820473"><ele>2.6666666666666665</ele><time>2026-04-25T16:38:06.108Z</time></trkpt><trkpt lat="41.4300117" lon="12.7821697"><ele>2.333333333333333</ele><time>2026-04-25T16:38:08.107Z</time></trkpt><trkpt lat="41.42987" lon="12.7823062"><ele>2.0</ele><time>2026-04-25T16:38:10.108Z</time></trkpt><trkpt lat="41.4297215" lon="12.7824522"><ele>2.0</ele><time>2026-04-25T16:38:12.108Z</time></trkpt><trkpt lat="41.4296463" lon="12.7825312"><ele>2.0</ele><time>2026-04-25T16:38:13.108Z</time></trkpt><trkpt lat="41.4295719" lon="12.7826104"><ele>2.0</ele><time>2026-04-25T16:38:14.108Z</time></trkpt><trkpt lat="41.4294954" lon="12.7826856"><ele>2.0</ele><time>2026-04-25T16:38:15.108Z</time></trkpt><trkpt lat="41.4293463" lon="12.7828369"><ele>1.75</ele><time>2026-04-25T16:38:17.108Z</time></trkpt><trkpt lat="41.4292594" lon="12.7829159"><ele>1.5</ele><time>2026-04-25T16:38:18.107Z</time></trkpt><trkpt lat="41.4290927" lon="12.783073"><ele>1.25</ele><time>2026-04-25T16:38:20.108Z</time></trkpt><trkpt lat="41.4290031" lon="12.7831486"><ele>1.0</ele><time>2026-04-25T16:38:21.108Z</time></trkpt><trkpt lat="41.4289224" lon="12.7832361"><ele>1.0</ele><time>2026-04-25T16:38:22.108Z</time></trkpt><trkpt lat="41.4287603" lon="12.7833958"><ele>1.0</ele><time>2026-04-25T16:38:24.108Z</time></trkpt><trkpt lat="41.4286787" lon="12.7834766"><ele>1.0</ele><time>2026-04-25T16:38:25.107Z</time></trkpt><trkpt lat="41.4286092" lon="12.7835343"><ele>1.0</ele><time>2026-04-25T16:38:26.108Z</time></trkpt><trkpt lat="41.4285268" lon="12.7836145"><ele>1.0</ele><time>2026-04-25T16:38:27.108Z</time></trkpt><trkpt lat="41.4283657" lon="12.7837704"><ele>1.0</ele><time>2026-04-25T16:38:29.108Z</time></trkpt><trkpt lat="41.4282812" lon="12.7838565"><ele>1.0</ele><time>2026-04-25T16:38:30.108Z</time></trkpt><trkpt lat="41.4281992" lon="12.7839354"><ele>1.0</ele><time>2026-04-25T16:38:31.108Z</time></trkpt><trkpt lat="41.4280288" lon="12.7841188"><ele>0.8</ele><time>2026-04-25T16:38:33.108Z</time></trkpt><trkpt lat="41.4279409" lon="12.7841963"><ele>0.6000000000000001</ele><time>2026-04-25T16:38:34.108Z</time></trkpt><trkpt lat="41.4278576" lon="12.784277"><ele>0.4</ele><time>2026-04-25T16:38:35.108Z</time></trkpt><trkpt lat="41.4277853" lon="12.7843492"><ele>0.2</ele><time>2026-04-25T16:38:36.108Z</time></trkpt><trkpt lat="41.427694" lon="12.7844322"><ele>0.0</ele><time>2026-04-25T16:38:37.108Z</time></trkpt><trkpt lat="41.4275332" lon="12.7845784"><ele>0.4</ele><time>2026-04-25T16:38:39.108Z</time></trkpt><trkpt lat="41.4274576" lon="12.7846526"><ele>0.8</ele><time>2026-04-25T16:38:40.108Z</time></trkpt><trkpt lat="41.4273825" lon="12.7847251"><ele>1.2000000000000002</ele><time>2026-04-25T16:38:41.108Z</time></trkpt><trkpt lat="41.427301" lon="12.7847994"><ele>1.6</ele><time>2026-04-25T16:38:42.108Z</time></trkpt><trkpt lat="41.427227" lon="12.7848705"><ele>2.0</ele><time>2026-04-25T16:38:43.108Z</time></trkpt><trkpt lat="41.4271509" lon="12.7849451"><ele>1.3333333333333333</ele><time>2026-04-25T16:38:44.108Z</time></trkpt><trkpt lat="41.4270767" lon="12.7850251"><ele>0.6666666666666666</ele><time>2026-04-25T16:38:45.108Z</time></trkpt><trkpt lat="41.4269209" lon="12.7851715"><ele>0.0</ele><time>2026-04-25T16:38:47.108Z</time></trkpt><trkpt lat="41.4267696" lon="12.7853186"><ele>0.0</ele><time>2026-04-25T16:38:49.108Z</time></trkpt><trkpt lat="41.4266978" lon="12.7853878"><ele>0.0</ele><time>2026-04-25T16:38:50.107Z</time></trkpt><trkpt lat="41.4265745" lon="12.7854971"><ele>0.0</ele><time>2026-04-25T16:38:52.108Z</time></trkpt><trkpt lat="41.4264724" lon="12.7855894"><ele>0.0</ele><time>2026-04-25T16:38:54.108Z</time></trkpt><trkpt lat="41.4263954" lon="12.7856508"><ele>0.0</ele><time>2026-04-25T16:38:56.108Z</time></trkpt><trkpt lat="41.4263172" lon="12.7856017"><ele>0.0</ele><time>2026-04-25T16:38:59.108Z</time></trkpt><trkpt lat="41.4262348" lon="12.7855809"><ele>0.0</ele><time>2026-04-25T16:39:02.108Z</time></trkpt><trkpt lat="41.426152" lon="12.7856763"><ele>0.0</ele><time>2026-04-25T16:39:04.107Z</time></trkpt><trkpt lat="41.4261002" lon="12.785736"><ele>0.0</ele><time>2026-04-25T16:39:05.108Z</time></trkpt><trkpt lat="41.4260379" lon="12.7858054"><ele>0.0</ele><time>2026-04-25T16:39:06.108Z</time></trkpt><trkpt lat="41.4259772" lon="12.785878"><ele>0.2</ele><time>2026-04-25T16:39:07.108Z</time></trkpt><trkpt lat="41.4259105" lon="12.7859423"><ele>0.4</ele><time>2026-04-25T16:39:08.108Z</time></trkpt><trkpt lat="41.4257746" lon="12.7860733"><ele>0.6000000000000001</ele><time>2026-04-25T16:39:10.107Z</time></trkpt><trkpt lat="41.4257088" lon="12.7861414"><ele>0.8</ele><time>2026-04-25T16:39:11.108Z</time></trkpt><trkpt lat="41.4256386" lon="12.7862082"><ele>1.0</ele><time>2026-04-25T16:39:12.108Z</time></trkpt><trkpt lat="41.4255684" lon="12.7862699"><ele>1.0</ele><time>2026-04-25T16:39:13.108Z</time></trkpt><trkpt lat="41.4254955" lon="12.7863273"><ele>1.0</ele><time>2026-04-25T16:39:14.108Z</time></trkpt><trkpt lat="41.4254208" lon="12.7863826"><ele>1.0</ele><time>2026-04-25T16:39:15.108Z</time></trkpt><trkpt lat="41.4252808" lon="12.7865073"><ele>1.0</ele><time>2026-04-25T16:39:17.108Z</time></trkpt><trkpt lat="41.4251502" lon="12.7866497"><ele>0.9999999999999999</ele><time>2026-04-25T16:39:19.108Z</time></trkpt><trkpt lat="41.4250844" lon="12.7867221"><ele>1.0</ele><time>2026-04-25T16:39:20.108Z</time></trkpt><trkpt lat="41.4250162" lon="12.7867869"><ele>1.0</ele><time>2026-04-25T16:39:21.108Z</time></trkpt><trkpt lat="41.4249462" lon="12.7868493"><ele>1.0</ele><time>2026-04-25T16:39:22.107Z</time></trkpt><trkpt lat="41.424875" lon="12.7869043"><ele>0.9999999999999999</ele><time>2026-04-25T16:39:23.108Z</time></trkpt><trkpt lat="41.4248065" lon="12.7869695"><ele>1.0</ele><time>2026-04-25T16:39:24.107Z</time></trkpt><trkpt lat="41.424667" lon="12.7870965"><ele>1.25</ele><time>2026-04-25T16:39:26.108Z</time></trkpt><trkpt lat="41.4245204" lon="12.7872322"><ele>1.5</ele><time>2026-04-25T16:39:28.108Z</time></trkpt><trkpt lat="41.4243829" lon="12.787369"><ele>1.75</ele><time>2026-04-25T16:39:30.108Z</time></trkpt><trkpt lat="41.4243162" lon="12.7874397"><ele>2.0</ele><time>2026-04-25T16:39:31.107Z</time></trkpt><trkpt lat="41.4242449" lon="12.7875083"><ele>2.0</ele><time>2026-04-25T16:39:32.108Z</time></trkpt><trkpt lat="41.4241752" lon="12.7875775"><ele>2.0</ele><time>2026-04-25T16:39:33.108Z</time></trkpt><trkpt lat="41.4240326" lon="12.7877134"><ele>2.0</ele><time>2026-04-25T16:39:35.108Z</time></trkpt><trkpt lat="41.4239615" lon="12.7877798"><ele>2.0</ele><time>2026-04-25T16:39:36.108Z</time></trkpt><trkpt lat="41.4238964" lon="12.7878479"><ele>2.0</ele><time>2026-04-25T16:39:37.108Z</time></trkpt><trkpt lat="41.4238318" lon="12.7879121"><ele>1.5</ele><time>2026-04-25T16:39:38.108Z</time></trkpt><trkpt lat="41.4237018" lon="12.7880328"><ele>1.0</ele><time>2026-04-25T16:39:40.108Z</time></trkpt><trkpt lat="41.4235727" lon="12.7881576"><ele>0.5</ele><time>2026-04-25T16:39:42.108Z</time></trkpt><trkpt lat="41.4235103" lon="12.788221"><ele>0.0</ele><time>2026-04-25T16:39:43.108Z</time></trkpt><trkpt lat="41.4234456" lon="12.7882878"><ele>0.0</ele><time>2026-04-25T16:39:44.108Z</time></trkpt><trkpt lat="41.4233772" lon="12.7883494"><ele>0.0</ele><time>2026-04-25T16:39:45.108Z</time></trkpt><trkpt lat="41.4233115" lon="12.7884093"><ele>0.0</ele><time>2026-04-25T16:39:46.108Z</time></trkpt><trkpt lat="41.4232541" lon="12.7884542"><ele>0.0</ele><time>2026-04-25T16:39:47.108Z</time></trkpt><trkpt lat="41.4231501" lon="12.7885313"><ele>0.0</ele><time>2026-04-25T16:39:49.107Z</time></trkpt><trkpt lat="41.4230271" lon="12.7886354"><ele>0.0</ele><time>2026-04-25T16:39:52.108Z</time></trkpt><trkpt lat="41.4229552" lon="12.7886525"><ele>0.0</ele><time>2026-04-25T16:39:54.108Z</time></trkpt><trkpt lat="41.4228538" lon="12.7886232"><ele>0.0</ele><time>2026-04-25T16:39:56.107Z</time></trkpt><trkpt lat="41.4227325" lon="12.7885823"><ele>0.0</ele><time>2026-04-25T16:39:58.108Z</time></trkpt><trkpt lat="41.4226107" lon="12.7885383"><ele>0.0</ele><time>2026-04-25T16:40:00.108Z</time></trkpt><trkpt lat="41.4224844" lon="12.788499"><ele>0.0</ele><time>2026-04-25T16:40:02.108Z</time></trkpt><trkpt lat="41.4224226" lon="12.7884805"><ele>0.0</ele><time>2026-04-25T16:40:03.108Z</time></trkpt><trkpt lat="41.4222313" lon="12.7884184"><ele>0.0</ele><time>2026-04-25T16:40:06.108Z</time></trkpt><trkpt lat="41.4220955" lon="12.7883767"><ele>0.0</ele><time>2026-04-25T16:40:08.108Z</time></trkpt><trkpt lat="41.4219545" lon="12.7883295"><ele>0.0</ele><time>2026-04-25T16:40:10.108Z</time></trkpt><trkpt lat="41.4218109" lon="12.7882853"><ele>0.0</ele><time>2026-04-25T16:40:12.108Z</time></trkpt><trkpt lat="41.4216851" lon="12.7882464"><ele>0.0</ele><time>2026-04-25T16:40:14.108Z</time></trkpt><trkpt lat="41.4216121" lon="12.7882295"><ele>0.0</ele><time>2026-04-25T16:40:15.108Z</time></trkpt><trkpt lat="41.4214693" lon="12.7881884"><ele>0.0</ele><time>2026-04-25T16:40:17.108Z</time></trkpt><trkpt lat="41.4214067" lon="12.7881684"><ele>0.0</ele><time>2026-04-25T16:40:18.108Z</time></trkpt><trkpt lat="41.4212786" lon="12.7881301"><ele>0.0</ele><time>2026-04-25T16:40:20.107Z</time></trkpt><trkpt lat="41.4211825" lon="12.7881012"><ele>0.0</ele><time>2026-04-25T16:40:22.108Z</time></trkpt><trkpt lat="41.4211127" lon="12.7880968"><ele>0.0</ele><time>2026-04-25T16:40:24.108Z</time></trkpt><trkpt lat="41.421063" lon="12.7881731"><ele>0.0</ele><time>2026-04-25T16:40:46.108Z</time></trkpt><trkpt lat="41.4210419" lon="12.7882767"><ele>0.25</ele><time>2026-04-25T16:40:48.108Z</time></trkpt><trkpt lat="41.420999" lon="12.7884361"><ele>0.5</ele><time>2026-04-25T16:40:50.108Z</time></trkpt><trkpt lat="41.4209913" lon="12.7885474"><ele>0.75</ele><time>2026-04-25T16:40:51.108Z</time></trkpt><trkpt lat="41.4209753" lon="12.7887581"><ele>1.0</ele><time>2026-04-25T16:40:53.107Z</time></trkpt><trkpt lat="41.4209808" lon="12.7890357"><ele>1.0</ele><time>2026-04-25T16:40:55.108Z</time></trkpt><trkpt lat="41.4209882" lon="12.7892759"><ele>1.0</ele><time>2026-04-25T16:40:57.108Z</time></trkpt><trkpt lat="41.4210002" lon="12.7895156"><ele>1.0</ele><time>2026-04-25T16:40:59.107Z</time></trkpt><trkpt lat="41.4210102" lon="12.789639"><ele>1.0</ele><time>2026-04-25T16:41:00.107Z</time></trkpt><trkpt lat="41.4210204" lon="12.7898905"><ele>1.0</ele><time>2026-04-25T16:41:02.107Z</time></trkpt><trkpt lat="41.4210277" lon="12.7900138"><ele>1.0</ele><time>2026-04-25T16:41:03.108Z</time></trkpt><trkpt lat="41.4210362" lon="12.7901199"><ele>1.0</ele><time>2026-04-25T16:41:04.108Z</time></trkpt><trkpt lat="41.4210404" lon="12.7902295"><ele>1.0</ele><time>2026-04-25T16:41:05.108Z</time></trkpt><trkpt lat="41.4210585" lon="12.790482"><ele>1.25</ele><time>2026-04-25T16:41:07.108Z</time></trkpt><trkpt lat="41.4210747" lon="12.7906703"><ele>1.5</ele><time>2026-04-25T16:41:09.108Z</time></trkpt><trkpt lat="41.4210679" lon="12.7907932"><ele>1.75</ele><time>2026-04-25T16:41:11.108Z</time></trkpt><trkpt lat="41.4210425" lon="12.7908755"><ele>2.0</ele><time>2026-04-25T16:41:14.108Z</time></trkpt><trkpt lat="41.4208706" lon="12.7907957"><ele>1.9999999999999998</ele><time>2026-04-25T16:41:17.108Z</time></trkpt><trkpt lat="41.4208001" lon="12.7907731"><ele>2.0</ele><time>2026-04-25T16:41:18.108Z</time></trkpt><trkpt lat="41.4207217" lon="12.7907459"><ele>2.0</ele><time>2026-04-25T16:41:19.108Z</time></trkpt><trkpt lat="41.4206398" lon="12.7907145"><ele>2.0</ele><time>2026-04-25T16:41:20.107Z</time></trkpt><trkpt lat="41.4205481" lon="12.7906835"><ele>1.9999999999999998</ele><time>2026-04-25T16:41:21.108Z</time></trkpt><trkpt lat="41.4204561" lon="12.7906494"><ele>2.0</ele><time>2026-04-25T16:41:22.108Z</time></trkpt><trkpt lat="41.4202689" lon="12.7905873"><ele>1.8</ele><time>2026-04-25T16:41:24.108Z</time></trkpt><trkpt lat="41.4200955" lon="12.7905303"><ele>1.6</ele><time>2026-04-25T16:41:26.108Z</time></trkpt><trkpt lat="41.4200155" lon="12.7904967"><ele>1.4000000000000001</ele><time>2026-04-25T16:41:27.108Z</time></trkpt><trkpt lat="41.4199428" lon="12.7904702"><ele>1.2000000000000002</ele><time>2026-04-25T16:41:28.108Z</time></trkpt><trkpt lat="41.4198781" lon="12.7904458"><ele>1.0</ele><time>2026-04-25T16:41:29.107Z</time></trkpt><trkpt lat="41.4198123" lon="12.7904215"><ele>1.0</ele><time>2026-04-25T16:41:30.108Z</time></trkpt><trkpt lat="41.4197043" lon="12.7903868"><ele>1.0</ele><time>2026-04-25T16:41:33.108Z</time></trkpt><trkpt lat="41.4196641" lon="12.7902326"><ele>1.0</ele><time>2026-04-25T16:41:37.107Z</time></trkpt><trkpt lat="41.4196704" lon="12.7901351"><ele>1.0</ele><time>2026-04-25T16:41:38.108Z</time></trkpt><trkpt lat="41.4196804" lon="12.7900089"><ele>1.0</ele><time>2026-04-25T16:41:39.108Z</time></trkpt><trkpt lat="41.419689" lon="12.7898642"><ele>1.0</ele><time>2026-04-25T16:41:40.108Z</time></trkpt><trkpt lat="41.4196937" lon="12.7897075"><ele>1.0</ele><time>2026-04-25T16:41:41.107Z</time></trkpt><trkpt lat="41.4197053" lon="12.7895374"><ele>1.0</ele><time>2026-04-25T16:41:42.108Z</time></trkpt><trkpt lat="41.4197181" lon="12.7893663"><ele>1.0</ele><time>2026-04-25T16:41:43.108Z</time></trkpt><trkpt lat="41.4197332" lon="12.7891808"><ele>1.0</ele><time>2026-04-25T16:41:44.108Z</time></trkpt><trkpt lat="41.419746" lon="12.788997"><ele>1.0</ele><time>2026-04-25T16:41:45.108Z</time></trkpt><trkpt lat="41.4197567" lon="12.7888268"><ele>1.0</ele><time>2026-04-25T16:41:46.108Z</time></trkpt><trkpt lat="41.4197631" lon="12.788644"><ele>1.0</ele><time>2026-04-25T16:41:47.108Z</time></trkpt><trkpt lat="41.4197761" lon="12.788465"><ele>1.0</ele><time>2026-04-25T16:41:48.108Z</time></trkpt><trkpt lat="41.4197911" lon="12.7883021"><ele>1.0</ele><time>2026-04-25T16:41:49.108Z</time></trkpt><trkpt lat="41.4197983" lon="12.7881583"><ele>1.0</ele><time>2026-04-25T16:41:50.107Z</time></trkpt><trkpt lat="41.4198172" lon="12.7878736"><ele>1.0</ele><time>2026-04-25T16:41:52.108Z</time></trkpt><trkpt lat="41.4198244" lon="12.7877398"><ele>0.6666666666666666</ele><time>2026-04-25T16:41:53.108Z</time></trkpt><trkpt lat="41.419845" lon="12.7874738"><ele>0.3333333333333333</ele><time>2026-04-25T16:41:55.108Z</time></trkpt><trkpt lat="41.4198737" lon="12.7872163"><ele>0.0</ele><time>2026-04-25T16:41:57.108Z</time></trkpt><trkpt lat="41.4198888" lon="12.7870914"><ele>0.0</ele><time>2026-04-25T16:41:58.108Z</time></trkpt><trkpt lat="41.4199013" lon="12.7869856"><ele>0.0</ele><time>2026-04-25T16:41:59.108Z</time></trkpt><trkpt lat="41.4199146" lon="12.7868477"><ele>0.0</ele><time>2026-04-25T16:42:00.107Z</time></trkpt><trkpt lat="41.4199309" lon="12.7866166"><ele>0.0</ele><time>2026-04-25T16:42:02.108Z</time></trkpt><trkpt lat="41.4199476" lon="12.7863883"><ele>0.0</ele><time>2026-04-25T16:42:04.108Z</time></trkpt><trkpt lat="41.4199698" lon="12.7861789"><ele>0.0</ele><time>2026-04-25T16:42:06.107Z</time></trkpt><trkpt lat="41.4199957" lon="12.7860323"><ele>0.0</ele><time>2026-04-25T16:42:08.108Z</time></trkpt><trkpt lat="41.4200689" lon="12.7859869"><ele>0.0</ele><time>2026-04-25T16:42:11.108Z</time></trkpt><trkpt lat="41.4201329" lon="12.7860002"><ele>0.0</ele><time>2026-04-25T16:42:19.108Z</time></trkpt><trkpt lat="41.4203528" lon="12.7861135"><ele>0.0</ele><time>2026-04-25T16:42:23.107Z</time></trkpt><trkpt lat="41.4204176" lon="12.7861373"><ele>0.0</ele><time>2026-04-25T16:42:24.108Z</time></trkpt><trkpt lat="41.4204823" lon="12.786154"><ele>0.0</ele><time>2026-04-25T16:42:25.108Z</time></trkpt><trkpt lat="41.4205445" lon="12.7861753"><ele>0.0</ele><time>2026-04-25T16:42:26.108Z</time></trkpt><trkpt lat="41.4206177" lon="12.786191"><ele>0.0</ele><time>2026-04-25T16:42:27.108Z</time></trkpt><trkpt lat="41.4206807" lon="12.7862178"><ele>0.0</ele><time>2026-04-25T16:42:28.108Z</time></trkpt><trkpt lat="41.420751" lon="12.7862508"><ele>0.0</ele><time>2026-04-25T16:42:29.108Z</time></trkpt><trkpt lat="41.4208188" lon="12.7862801"><ele>0.2857142857142857</ele><time>2026-04-25T16:42:30.108Z</time></trkpt><trkpt lat="41.4208822" lon="12.7863116"><ele>0.5714285714285714</ele><time>2026-04-25T16:42:31.108Z</time></trkpt><trkpt lat="41.4209456" lon="12.7863379"><ele>0.8571428571428571</ele><time>2026-04-25T16:42:32.108Z</time></trkpt><trkpt lat="41.4210118" lon="12.7863688"><ele>1.1428571428571428</ele><time>2026-04-25T16:42:33.108Z</time></trkpt><trkpt lat="41.4210815" lon="12.7863869"><ele>1.4285714285714284</ele><time>2026-04-25T16:42:34.108Z</time></trkpt><trkpt lat="41.4211501" lon="12.7864003"><ele>1.7142857142857142</ele><time>2026-04-25T16:42:35.108Z</time></trkpt><trkpt lat="41.421214" lon="12.7864103"><ele>2.0</ele><time>2026-04-25T16:42:36.108Z</time></trkpt><trkpt lat="41.4212764" lon="12.7864317"><ele>1.857142857142857</ele><time>2026-04-25T16:42:37.107Z</time></trkpt><trkpt lat="41.4213429" lon="12.786455"><ele>1.714285714285714</ele><time>2026-04-25T16:42:38.108Z</time></trkpt><trkpt lat="41.4214073" lon="12.7864795"><ele>1.5714285714285714</ele><time>2026-04-25T16:42:39.108Z</time></trkpt><trkpt lat="41.4214714" lon="12.7865055"><ele>1.4285714285714284</ele><time>2026-04-25T16:42:40.108Z</time></trkpt><trkpt lat="41.4215301" lon="12.7865406"><ele>1.2857142857142856</ele><time>2026-04-25T16:42:41.107Z</time></trkpt><trkpt lat="41.4215946" lon="12.7865641"><ele>1.1428571428571428</ele><time>2026-04-25T16:42:42.108Z</time></trkpt><trkpt lat="41.4216647" lon="12.7865877"><ele>1.0</ele><time>2026-04-25T16:42:43.108Z</time></trkpt><trkpt lat="41.4217278" lon="12.7866054"><ele>0.9999999999999999</ele><time>2026-04-25T16:42:44.108Z</time></trkpt><trkpt lat="41.4217997" lon="12.7866287"><ele>1.0</ele><time>2026-04-25T16:42:45.108Z</time></trkpt><trkpt lat="41.4218651" lon="12.7866546"><ele>1.0</ele><time>2026-04-25T16:42:46.107Z</time></trkpt><trkpt lat="41.4219325" lon="12.7866694"><ele>1.0</ele><time>2026-04-25T16:42:47.108Z</time></trkpt><trkpt lat="41.4220624" lon="12.7867143"><ele>0.9999999999999999</ele><time>2026-04-25T16:42:49.108Z</time></trkpt><trkpt lat="41.4221323" lon="12.7867342"><ele>1.0</ele><time>2026-04-25T16:42:50.108Z</time></trkpt><trkpt lat="41.4221943" lon="12.7867572"><ele>1.25</ele><time>2026-04-25T16:42:51.107Z</time></trkpt><trkpt lat="41.4222607" lon="12.786782"><ele>1.5</ele><time>2026-04-25T16:42:52.108Z</time></trkpt><trkpt lat="41.4223993" lon="12.7868341"><ele>1.75</ele><time>2026-04-25T16:42:54.108Z</time></trkpt><trkpt lat="41.4225373" lon="12.7868886"><ele>2.0</ele><time>2026-04-25T16:42:56.107Z</time></trkpt><trkpt lat="41.4226827" lon="12.7869234"><ele>1.8333333333333333</ele><time>2026-04-25T16:42:58.108Z</time></trkpt><trkpt lat="41.4227456" lon="12.7869359"><ele>1.6666666666666665</ele><time>2026-04-25T16:42:59.108Z</time></trkpt><trkpt lat="41.4228151" lon="12.7869427"><ele>1.5</ele><time>2026-04-25T16:43:00.107Z</time></trkpt><trkpt lat="41.4228908" lon="12.7869614"><ele>1.3333333333333333</ele><time>2026-04-25T16:43:01.107Z</time></trkpt><trkpt lat="41.4230059" lon="12.7870076"><ele>1.1666666666666665</ele><time>2026-04-25T16:43:03.108Z</time></trkpt><trkpt lat="41.4231137" lon="12.7870479"><ele>1.0</ele><time>2026-04-25T16:43:05.108Z</time></trkpt><trkpt lat="41.4232246" lon="12.7870886"><ele>0.9999999999999999</ele><time>2026-04-25T16:43:07.107Z</time></trkpt><trkpt lat="41.4233296" lon="12.787136"><ele>1.0</ele><time>2026-04-25T16:43:09.108Z</time></trkpt><trkpt lat="41.4234291" lon="12.7871709"><ele>1.0</ele><time>2026-04-25T16:43:11.108Z</time></trkpt><trkpt lat="41.4234978" lon="12.7871808"><ele>1.0</ele><time>2026-04-25T16:43:13.108Z</time></trkpt><trkpt lat="41.4235697" lon="12.7871899"><ele>0.9999999999999999</ele><time>2026-04-25T16:43:17.108Z</time></trkpt><trkpt lat="41.4236191" lon="12.7872431"><ele>1.0</ele><time>2026-04-25T16:43:35.108Z</time></trkpt><trkpt lat="41.4236884" lon="12.7872254"><ele>1.0</ele><time>2026-04-25T16:43:44.088Z</time></trkpt><trkpt lat="41.4237453" lon="12.7872674"><ele>1.0</ele><time>2026-04-25T16:43:49.086Z</time></trkpt><trkpt lat="41.4237534" lon="12.7873524"><ele>1.0</ele><time>2026-04-25T16:43:55.088Z</time></trkpt><trkpt lat="41.4237314" lon="12.78727"><ele>1.0</ele><time>2026-04-25T16:44:28.088Z</time></trkpt><trkpt lat="41.4237643" lon="12.7873427"><ele>1.0</ele><time>2026-04-25T16:44:53.087Z</time></trkpt><trkpt lat="41.4237768" lon="12.78725"><ele>1.0</ele><time>2026-04-25T16:44:59.148Z</time></trkpt><trkpt lat="41.4237816" lon="12.7873492"><ele>1.0</ele><time>2026-04-25T16:45:10.088Z</time></trkpt></trkseg></trk></gpx>